# Wetter Temperatur Luftdruck Luftfeuchtigkeit Sichtweite Windgeschwindigkeit Windrichtung Zeit
1 Clear -3 1022 87 0 1.1 103.973 20:19 17.10.2019
2 Clear -3 1022 87 0 1.1 103.973 20:19 17.10.2019
3 Clear -3 1022 87 0 1.1 103.973 19:57 17.10.2019
4 Clear -3 1022 87 0 1.1 103.973 19:39 17.10.2019
5 Clear -3 1022 87 0 1.1 103.973 19:19 17.10.2019
6 Clear -3 1022 87 0 1.1 103.973 19:19 17.10.2019
7 Clear -3 1022 87 0 1.1 103.973 18:43 17.10.2019
8 Clear -3 1021 89 0 1.09 149.468 18:21 17.10.2019
9 Clear -3 1021 89 0 1.09 149.468 18:00 17.10.2019
10 Rain 9 1020 75 0 2.56 19 17:41 17.10.2019
11 Rain 9 1020 75 0 2.56 19 17:23 17.10.2019
12 Rain 9 1020 75 0 2.56 19 16:56 17.10.2019
13 Rain 9 1020 75 0 2.56 19 16:37 17.10.2019
14 Rain 9 1020 75 0 2.56 19 16:18 17.10.2019
15 Rain 9 1020 75 0 2.56 19 15:55 17.10.2019
16 Rain 9 1020 75 0 2.56 19 15:37 17.10.2019
17 Rain 10 1018 88 0 1.151 263 15:19 17.10.2019
18 Rain 10 1018 88 0 1.292 268 14:42 17.10.2019
19 Rain 10 1018 88 0 1.292 268 14:24 17.10.2019
20 Rain 10 1018 88 0 1.292 268 13:56 17.10.2019
21 Rain 10 1018 88 0 1.292 268 13:38 17.10.2019
22 Rain 10 1018 88 0 1.292 268 13:19 17.10.2019
23 Rain 10 1018 88 0 1.292 268 12:41 17.10.2019
24 Rain 10 1018 88 0 1.292 268 12:41 17.10.2019
25 Rain 15 1017 61 0 2.843 222 12:21 17.10.2019
26 Rain 15 1017 61 0 2.843 222 11:59 17.10.2019
27 Rain 15 1017 61 0 2.843 222 11:59 17.10.2019
28 Rain 15 1017 61 0 2.843 222 11:41 17.10.2019
29 Rain 15 1017 61 0 2.843 222 11:41 17.10.2019
30 Rain 15 1017 61 0 2.843 222 11:19 17.10.2019
31 Rain 15 1017 61 0 2.843 222 10:56 17.10.2019
32 Rain 15 1017 61 0 2.843 222 10:38 17.10.2019
33 Rain 15 1017 61 0 2.843 222 10:18 17.10.2019
34 Rain 15 1017 61 0 2.843 222 09:54 17.10.2019
35 Rain 15 1017 60 0 2.861 226 09:36 17.10.2019
36 Clear 16 1020 54 0 2.985 201 09:18 17.10.2019
37 Clear 16 1020 54 0 2.985 201 08:46 17.10.2019
38 Clear 16 1020 54 0 2.985 201 08:26 17.10.2019
39 Clear 16 1020 54 0 2.985 201 07:56 17.10.2019
40 Clear 16 1020 54 0 2.985 201 07:38 17.10.2019
41 Clear 16 1020 54 0 2.985 201 07:19 17.10.2019
42 Clear 16 1020 54 0 2.985 201 06:40 17.10.2019
43 Clear 13 1022 58 0 0.914 166 06:21 17.10.2019
44 Clear 13 1022 58 0 0.914 166 06:21 17.10.2019
45 Clear 13 1022 58 0 0.914 166 05:58 17.10.2019
46 Clear 13 1022 58 0 0.914 166 05:32 17.10.2019
47 Clear 13 1022 58 0 0.914 166 04:57 17.10.2019
48 Clear 13 1022 58 0 0.914 166 03:55 17.10.2019
49 Clear 8 1020 65 0 2.388 16 02:53 17.10.2019
50 Clear 8 1020 64 0 2.37 13 01:55 17.10.2019
51 Clear 8 1020 64 0 2.37 13 00:41 17.10.2019
52 Clear 9 1020 64 0 2.33 13 00:20 17.10.2019
53 Clear 9 1020 64 0 2.33 13 00:20 17.10.2019
54 Clear 9 1020 64 0 2.33 13 23:42 16.10.2019
55 Clear 9 1020 64 0 2.33 13 23:21 16.10.2019
56 Clear 9 1020 64 0 2.33 13 22:56 16.10.2019
57 Clear 9 1020 64 0 2.33 13 22:38 16.10.2019
58 Clear 9 1020 64 0 2.33 13 22:38 16.10.2019
59 Clear 9 1020 64 0 2.33 13 22:19 16.10.2019
60 Clear 9 1020 64 0 2.33 13 21:58 16.10.2019
61 Clear 9 1020 64 0 2.393 14 21:38 16.10.2019
62 Clear 9 1020 64 0 2.393 14 21:38 16.10.2019
63 Clear 9 1021 68 0 2.198 21 21:20 16.10.2019
64 Clear 9 1021 68 0 2.198 21 20:58 16.10.2019
65 Clear 9 1021 68 0 2.198 21 20:58 16.10.2019
66 Clear 9 1021 68 0 2.198 21 20:40 16.10.2019
67 Clear 9 1021 68 0 2.198 21 20:21 16.10.2019
68 Clear 9 1021 68 0 2.198 21 19:59 16.10.2019
69 Clear 9 1021 68 0 2.198 21 19:40 16.10.2019
70 Clear 9 1021 68 0 2.198 21 19:21 16.10.2019
71 Clear 9 1021 68 0 2.198 21 18:56 16.10.2019
72 Clear 9 1021 68 0 2.198 21 18:56 16.10.2019
73 Clear 9 1021 68 0 2.198 21 18:37 16.10.2019
74 Rain 9 1020 82 0 1.55 32 18:18 16.10.2019
75 Rain 9 1020 82 0 1.55 32 18:18 16.10.2019
76 Rain 9 1020 82 0 1.55 32 17:55 16.10.2019
77 Rain 9 1020 82 0 1.55 32 17:36 16.10.2019
78 Rain 9 1020 82 0 1.55 32 17:18 16.10.2019
79 Rain 9 1020 82 0 1.55 32 16:43 16.10.2019
80 Rain 9 1020 82 0 1.55 32 16:23 16.10.2019
81 Rain 9 1020 82 0 1.55 32 15:59 16.10.2019
82 Rain 9 1020 82 0 1.55 32 15:39 16.10.2019
83 Rain 9 1020 82 0 1.55 32 15:39 16.10.2019
84 Rain 12 1019 82 0 1.099 232 15:19 16.10.2019
85 Rain 12 1019 82 0 1.099 232 14:58 16.10.2019
86 Rain 12 1019 82 0 1.099 232 14:58 16.10.2019
87 Rain 12 1019 82 0 1.099 232 14:39 16.10.2019
88 Rain 12 1018 84 0 1.072 220 14:21 16.10.2019
89 Rain 12 1018 84 0 1.072 220 13:57 16.10.2019
90 Rain 12 1018 84 0 1.072 220 13:39 16.10.2019
91 Rain 12 1018 84 0 1.072 220 13:21 16.10.2019
92 Rain 12 1018 84 0 1.072 220 12:43 16.10.2019
93 Rain 16 1017 58 0 2.687 213 12:20 16.10.2019
94 Rain 16 1017 58 0 2.687 213 11:55 16.10.2019
95 Rain 16 1017 58 0 2.687 213 11:37 16.10.2019
96 Rain 16 1017 58 0 2.687 213 11:18 16.10.2019
97 Rain 16 1017 58 0 2.687 213 10:36 16.10.2019
98 Rain 16 1017 58 0 2.687 213 10:18 16.10.2019
99 Clouds 16 1017 57 0 2.86 212 09:41 16.10.2019
100 Clear 16 1020 51 0 3.014 205 09:22 16.10.2019
101 Clear 16 1020 51 0 3.014 205 08:58 16.10.2019
102 Clear 16 1020 51 0 3.014 205 08:40 16.10.2019
103 Clear 16 1020 51 0 3.014 205 08:20 16.10.2019
104 Clear 16 1020 51 0 3.014 205 07:43 16.10.2019
105 Clear 16 1020 51 0 3.014 205 07:24 16.10.2019
106 Clear 16 1020 51 0 3.014 205 06:56 16.10.2019
107 Clear 16 1020 51 0 3.014 205 06:35 16.10.2019
108 Clear 13 1021 50 0 1.058 208 05:23 16.10.2019
109 Clear 8 1021 55 0 2.488 12 02:57 16.10.2019
110 Clear 8 1021 55 0 2.488 12 02:37 16.10.2019
111 Clear 8 1021 54 0 2.597 12 01:18 16.10.2019
112 Clear 8 1021 54 0 2.597 12 00:46 16.10.2019
113 Clear 8 1021 54 0 2.597 12 00:25 16.10.2019
114 Clear 8 1020 57 0 2.421 13 23:39 15.10.2019
115 Clear 8 1020 57 0 2.421 13 23:21 15.10.2019
116 Clear 8 1020 57 0 2.421 13 22:56 15.10.2019
117 Clear 8 1020 57 0 2.421 13 22:38 15.10.2019
118 Clear 8 1020 57 0 2.421 13 22:19 15.10.2019
119 Clear 8 1020 57 0 2.421 13 21:56 15.10.2019
120 Clear 9 1020 54 0 2.557 15 21:38 15.10.2019
121 Clear 9 1021 59 0 2.345 13 21:19 15.10.2019
122 Clear 9 1021 59 0 2.345 13 20:57 15.10.2019
123 Clear 9 1021 59 0 2.345 13 20:39 15.10.2019
124 Clear 9 1021 59 0 2.345 13 20:20 15.10.2019
125 Clear 9 1021 59 0 2.345 13 19:57 15.10.2019
126 Clear 9 1021 59 0 2.345 13 19:39 15.10.2019
127 Clear 9 1021 59 0 2.345 13 19:19 15.10.2019
128 Clear 9 1021 59 0 2.345 13 18:47 15.10.2019
129 Clear 9 1021 59 0 2.345 13 18:28 15.10.2019
130 Clear 9 1021 75 0 2.393 15 17:58 15.10.2019
131 Clear 9 1021 75 0 2.393 15 17:39 15.10.2019
132 Clear 9 1021 75 0 2.393 15 17:20 15.10.2019
133 Clear 9 1021 75 0 2.393 15 16:55 15.10.2019
134 Clear 9 1021 75 0 2.393 15 16:37 15.10.2019
135 Clear 9 1021 75 0 2.393 15 16:19 15.10.2019
136 Clear 9 1021 75 0 2.393 15 15:42 15.10.2019
137 Rain 12 1019 82 0 1.121 219 15:20 15.10.2019
138 Rain 12 1019 82 0 1.121 219 14:58 15.10.2019
139 Rain 12 1019 81 0 1.045 223 14:38 15.10.2019
140 Rain 12 1019 81 0 1.045 223 14:38 15.10.2019
141 Rain 12 1019 81 0 1.045 223 14:38 15.10.2019
142 Rain 12 1019 81 0 1.045 223 14:20 15.10.2019
143 Rain 12 1019 81 0 1.045 223 13:56 15.10.2019
144 Rain 12 1019 81 0 1.045 223 13:37 15.10.2019
145 Rain 12 1019 81 0 1.045 223 13:19 15.10.2019
146 Rain 12 1019 81 0 1.045 223 12:43 15.10.2019
147 Rain 16 1018 59 0 2.636 219 12:21 15.10.2019
148 Rain 16 1018 59 0 2.636 219 11:57 15.10.2019
149 Rain 16 1018 59 0 2.636 219 11:38 15.10.2019
150 Rain 16 1018 59 0 2.636 219 11:19 15.10.2019
151 Rain 16 1018 59 0 2.636 219 10:45 15.10.2019
152 Clouds 4 1019 50 0 3.07 216.015 10:22 15.10.2019
153 Clouds 4 1019 50 0 3.07 216.015 09:58 15.10.2019
154 Clouds 4 1019 50 0 3.07 216.015 09:38 15.10.2019
155 Clear 4 1021 37 0 2.32 223.989 09:20 15.10.2019
156 Clear 4 1021 34 0 1.88 225.517 08:55 15.10.2019
157 Clear 4 1021 34 0 1.88 225.517 08:36 15.10.2019
158 Clear 4 1021 34 0 1.88 225.517 08:36 15.10.2019
159 Clear 4 1021 34 0 1.88 225.517 08:18 15.10.2019
160 Clear 4 1021 34 0 1.88 225.517 07:41 15.10.2019
161 Clear 4 1021 34 0 1.88 225.517 07:21 15.10.2019
162 Clear 4 1021 34 0 1.88 225.517 06:47 15.10.2019
163 Clear 4 1021 34 0 1.88 225.517 06:29 15.10.2019
164 Clear 0 1022 54 0 1.24 51.557 05:48 15.10.2019
165 Clear 0 1022 54 0 1.24 51.557 05:29 15.10.2019
166 Clear 0 1022 54 0 1.24 51.557 04:39 15.10.2019
167 Clear 0 1022 54 0 1.24 51.557 03:57 15.10.2019
168 Clear 0 1022 54 0 1.24 51.557 03:27 15.10.2019
169 Clear -3 1021 73 0 1.5 21.488 01:51 15.10.2019
170 Clear -3 1021 73 0 1.5 21.306 01:23 15.10.2019
171 Clear -3 1021 73 0 1.5 21.306 00:52 15.10.2019
172 Clear -3 1021 76 0 1.31 14.884 00:22 15.10.2019
173 Clear -3 1021 76 0 1.31 14.884 23:46 14.10.2019
174 Clear -3 1021 76 0 1.31 14.884 23:21 14.10.2019
175 Clear -3 1021 76 0 1.31 14.884 22:59 14.10.2019
176 Clear -3 1021 76 0 1.31 14.884 22:39 14.10.2019
177 Clear -3 1021 76 0 1.31 14.884 22:19 14.10.2019
178 Clear -3 1021 76 0 1.31 14.884 22:19 14.10.2019
179 Clear -3 1021 76 0 1.31 14.884 22:19 14.10.2019
180 Clear -3 1021 76 0 1.31 14.884 21:56 14.10.2019
181 Clear -3 1021 76 0 1.31 14.884 21:38 14.10.2019
182 Clear -2 1022 78 0 0.99 2.439 21:20 14.10.2019
183 Clear -2 1021 84 0 0.72 0.874 20:55 14.10.2019
184 Clear -2 1021 84 0 0.72 0.874 20:37 14.10.2019
185 Clear -2 1021 84 0 0.72 0.874 20:18 14.10.2019
186 Clouds 9 1020 72 0 1.853 20 19:42 14.10.2019
187 Clouds 9 1020 72 0 1.853 20 19:24 14.10.2019
188 Clear -2 1021 84 0 0.72 0.874 18:59 14.10.2019
189 Clear -2 1021 84 0 0.72 0.874 18:39 14.10.2019
190 Clear -1 1021 90 0 0.33 357.751 18:20 14.10.2019
191 Clear -1 1021 90 0 0.33 357.751 18:20 14.10.2019
192 Clear -1 1021 90 0 0.33 357.751 18:20 14.10.2019
193 Clear -1 1021 90 0 0.33 357.751 17:58 14.10.2019
194 Clear -1 1021 90 0 0.33 357.751 17:39 14.10.2019
195 Clear -1 1021 90 0 0.33 357.751 17:21 14.10.2019
196 Clear -1 1021 90 0 0.33 357.751 16:44 14.10.2019
197 Clear -1 1021 90 0 0.33 357.751 16:22 14.10.2019
198 Clear -1 1021 90 0 0.33 357.751 15:57 14.10.2019
199 Clear -1 1021 90 0 0.33 357.751 15:38 14.10.2019
200 Clouds 1 1018 77 0 2.11 216.864 15:20 14.10.2019
201 Clouds 1 1018 77 0 2.11 216.864 14:43 14.10.2019
202 Clouds 1 1018 77 0 2.11 216.864 14:24 14.10.2019
203 Clouds 1 1018 77 0 2.11 216.864 13:56 14.10.2019
204 Clouds 1 1018 77 0 2.11 216.864 13:37 14.10.2019
205 Clouds 1 1018 75 0 1.9 223.211 13:18 14.10.2019
206 Clouds 1 1018 75 0 1.9 223.211 12:40 14.10.2019
207 Clear 6 1017 37 0 2.88 228.788 12:19 14.10.2019
208 Clear 6 1017 37 0 2.88 228.788 11:46 14.10.2019
209 Clear 6 1017 37 0 2.88 228.788 11:27 14.10.2019
210 Clear 6 1017 37 0 2.88 228.788 10:58 14.10.2019
211 Clear 6 1017 37 0 2.88 228.788 10:39 14.10.2019
212 Clear 6 1017 37 0 2.88 228.788 10:20 14.10.2019
213 Clear 6 1017 37 0 2.88 228.788 09:56 14.10.2019
214 Clear 6 1017 37 0 2.88 228.788 09:55 14.10.2019
215 Clear 6 1017 37 0 2.88 228.788 09:36 14.10.2019
216 Clear 5 1019 24 0 1.4 214.942 09:18 14.10.2019
217 Clear 5 1019 24 0 1.4 214.942 08:43 14.10.2019
218 Clear 5 1019 24 0 1.4 214.942 08:22 14.10.2019
219 Clear 5 1019 24 0 1.4 214.942 07:42 14.10.2019
220 Clear 5 1019 24 0 1.4 214.942 07:19 14.10.2019
221 Clear 5 1019 24 0 1.4 214.942 06:48 14.10.2019
222 Clear 1 1021 29 0 1.49 50.573 06:20 14.10.2019
223 Clear 1 1021 29 0 1.49 50.573 05:49 14.10.2019
224 Clear 1 1021 29 0 1.49 50.573 04:43 14.10.2019
225 Clear 1 1021 29 0 1.49 50.573 03:27 14.10.2019
226 Clear -3 1021 41 0 1.67 35.298 02:42 14.10.2019
227 Clear -3 1021 40 0 1.61 29.28 01:23 14.10.2019
228 Clear -3 1021 40 0 1.61 29.28 00:58 14.10.2019
229 Clear -2 1021 43 0 1.7 27.818 00:20 14.10.2019
230 Clear -2 1021 43 0 1.7 27.818 23:45 13.10.2019
231 Clear -2 1021 43 0 1.7 27.818 23:20 13.10.2019
232 Clear -2 1021 43 0 1.7 27.818 22:58 13.10.2019
233 Clear -2 1021 43 0 1.7 27.818 22:58 13.10.2019
234 Clear -2 1021 43 0 1.7 27.818 22:40 13.10.2019
235 Clear -2 1021 43 0 1.7 27.818 22:40 13.10.2019
236 Clear -2 1021 43 0 1.7 27.818 22:21 13.10.2019
237 Clear -2 1021 43 0 1.7 27.818 21:58 13.10.2019
238 Clear -2 1021 43 0 1.7 27.818 21:37 13.10.2019
239 Clear -2 1021 53 0 1.27 21.241 21:19 13.10.2019
240 Clear -2 1021 53 0 1.27 21.241 20:57 13.10.2019
241 Clear -2 1021 56 0 1.22 19.21 20:39 13.10.2019
242 Clear -2 1021 56 0 1.22 19.21 20:21 13.10.2019
243 Clear -2 1021 56 0 1.22 19.21 19:58 13.10.2019
244 Clear -2 1021 56 0 1.22 19.21 19:39 13.10.2019
245 Clear -2 1021 56 0 1.22 19.21 19:39 13.10.2019
246 Clear -2 1021 56 0 1.22 19.21 19:21 13.10.2019
247 Clear -2 1021 56 0 1.22 19.21 18:57 13.10.2019
248 Clear -2 1021 56 0 1.22 19.21 18:37 13.10.2019
249 Clear -1 1021 75 0 1.88 11.879 18:19 13.10.2019
250 Clear -1 1021 75 0 1.88 11.879 18:19 13.10.2019
251 Clear -1 1021 75 0 1.88 11.879 17:57 13.10.2019
252 Clear -1 1021 75 0 1.88 11.879 17:39 13.10.2019
253 Clear -1 1021 75 0 1.88 11.879 17:21 13.10.2019
254 Clear -1 1021 75 0 1.88 11.879 16:43 13.10.2019
255 Clear -1 1021 75 0 1.88 11.879 16:19 13.10.2019
256 Clear -1 1021 75 0 1.88 11.879 15:57 13.10.2019
257 Clear -1 1021 75 0 1.88 11.879 15:57 13.10.2019
258 Clear -1 1021 75 0 1.88 11.879 15:57 13.10.2019
259 Clear -1 1021 75 0 1.88 11.879 15:38 13.10.2019
260 Clouds 2 1018 69 0 1.84 234.234 15:19 13.10.2019
261 Clouds 2 1018 69 0 1.84 234.234 14:57 13.10.2019
262 Clouds 2 1018 69 0 1.84 234.234 14:38 13.10.2019
263 Clouds 2 1018 69 0 1.84 234.234 14:19 13.10.2019
264 Clouds 2 1018 69 0 1.84 234.234 13:42 13.10.2019
265 Clouds 2 1018 69 0 1.84 234.234 13:42 13.10.2019
266 Clouds 2 1018 70 0 1.76 232.142 13:23 13.10.2019
267 Clouds 2 1018 70 0 1.76 232.142 12:59 13.10.2019
268 Clouds 2 1018 70 0 1.76 232.142 12:39 13.10.2019
269 Clouds 5 1017 41 0 2.64 230.006 12:21 13.10.2019
270 Clouds 5 1017 41 0 2.64 230.006 11:59 13.10.2019
271 Clouds 5 1017 41 0 2.64 230.006 11:39 13.10.2019
272 Clouds 5 1017 41 0 2.64 230.006 11:21 13.10.2019
273 Clouds 5 1017 41 0 2.64 230.006 10:59 13.10.2019
274 Clouds 5 1017 41 0 2.64 230.006 10:39 13.10.2019
275 Clouds 5 1017 41 0 2.64 230.006 10:39 13.10.2019
276 Clouds 5 1017 41 0 2.64 230.006 10:20 13.10.2019
277 Clouds 5 1017 41 0 2.64 230.006 09:39 13.10.2019
278 Clear 4 1019 31 0 2.06 220.444 09:21 13.10.2019
279 Clear 4 1019 26 0 1.74 220.205 08:51 13.10.2019
280 Clear 4 1019 26 0 1.74 220.205 08:27 13.10.2019
281 Clear 4 1019 26 0 1.74 220.205 07:55 13.10.2019
282 Clear 4 1019 26 0 1.74 220.205 07:35 13.10.2019
283 Clear 4 1019 26 0 1.74 220.205 06:54 13.10.2019
284 Clear 4 1019 26 0 1.74 220.205 06:54 13.10.2019
285 Clear 4 1019 26 0 1.74 220.205 06:26 13.10.2019
286 Clear 1 1021 28 0 1.3 45.625 05:29 13.10.2019
287 Clear 1 1021 28 0 1.3 45.625 04:38 13.10.2019
288 Clear 1 1021 28 0 1.3 45.625 03:37 13.10.2019
289 Clear -3 1020 42 0 1.57 35.588 02:32 13.10.2019
290 Clear -3 1020 42 0 1.57 35.588 01:47 13.10.2019
291 Clear -3 1020 41 0 1.64 39.336 01:21 13.10.2019
292 Clear -3 1020 41 0 1.64 39.336 01:21 13.10.2019
293 Clear -3 1020 41 0 1.64 39.336 00:43 13.10.2019
294 Clear -2 1020 51 0 1.44 26.565 00:20 13.10.2019
295 Clear -2 1020 51 0 1.44 26.565 23:54 12.10.2019
296 Clear -2 1020 51 0 1.44 26.565 23:54 12.10.2019
297 Clear -2 1020 51 0 1.44 26.565 23:36 12.10.2019
298 Clear -2 1020 51 0 1.44 26.565 23:36 12.10.2019
299 Clear -2 1020 51 0 1.44 26.565 23:18 12.10.2019
300 Clear -2 1020 51 0 1.44 26.565 22:54 12.10.2019
301 Clear -2 1020 51 0 1.44 26.565 22:36 12.10.2019
302 Clear -2 1020 51 0 1.44 26.565 22:18 12.10.2019
303 Clear -2 1020 51 0 1.44 26.565 21:41 12.10.2019
304 Clouds -2 1021 60 0 1.43 27.781 21:23 12.10.2019
305 Clouds -2 1021 60 0 1.44 22.905 20:56 12.10.2019
306 Clouds -2 1021 60 0 1.44 22.905 20:38 12.10.2019
307 Clouds -2 1021 60 0 1.44 22.905 20:38 12.10.2019
308 Clouds -2 1021 60 0 1.44 22.905 20:20 12.10.2019
309 Clouds -2 1021 60 0 1.44 22.905 19:37 12.10.2019
310 Clouds -2 1021 60 0 1.44 22.905 19:19 12.10.2019
311 Clouds -2 1021 60 0 1.44 22.905 18:46 12.10.2019
312 Clouds -2 1021 60 0 1.44 22.905 18:27 12.10.2019
313 Clouds -2 1020 78 0 1.7 19.457 17:58 12.10.2019
314 Clouds -2 1020 78 0 1.7 19.457 17:40 12.10.2019
315 Clouds -2 1020 78 0 1.7 19.457 17:18 12.10.2019
316 Clouds -2 1020 78 0 1.7 19.457 16:41 12.10.2019
317 Clouds -2 1020 78 0 1.7 19.457 16:21 12.10.2019
318 Clouds -2 1020 78 0 1.7 19.457 15:58 12.10.2019
319 Clouds -2 1020 78 0 1.7 19.457 15:39 12.10.2019
320 Clouds 1 1018 71 0 1.38 220.516 15:21 12.10.2019
321 Clouds 1 1018 71 0 1.38 220.516 14:41 12.10.2019
322 Clouds 1 1018 71 0 1.38 220.516 14:21 12.10.2019
323 Clouds 1 1018 71 0 1.38 220.516 13:53 12.10.2019
324 Clouds 1 1018 71 0 1.38 220.516 13:53 12.10.2019
325 Clouds 1 1018 71 0 1.38 220.516 13:33 12.10.2019
326 Clouds 0 1017 84 0 0.31 181.488 12:59 12.10.2019
327 Clouds 0 1017 84 0 0.31 181.488 12:38 12.10.2019
328 Clouds 4 1017 40 0 2.91 218.804 12:20 12.10.2019
329 Clouds 4 1017 40 0 2.91 218.804 11:56 12.10.2019
330 Clouds 4 1017 40 0 2.91 218.804 11:38 12.10.2019
331 Clouds 4 1017 40 0 2.91 218.804 11:18 12.10.2019
332 Clouds 4 1017 40 0 2.91 218.804 10:40 12.10.2019
333 Clouds 4 1017 40 0 2.91 218.804 10:22 12.10.2019
334 Clouds 4 1017 40 0 2.91 218.804 09:57 12.10.2019
335 Clouds 4 1017 40 0 2.91 218.804 09:39 12.10.2019
336 Clear 4 1019 29 0 2.08 203.527 09:20 12.10.2019
337 Clear 4 1019 25 0 1.67 201.674 08:56 12.10.2019
338 Clear 4 1019 25 0 1.67 201.674 08:55 12.10.2019
339 Clear 4 1019 25 0 1.67 201.674 08:36 12.10.2019
340 Clear 4 1019 25 0 1.67 201.674 08:18 12.10.2019
341 Clear 4 1019 25 0 1.67 201.674 07:33 12.10.2019
342 Clear 4 1019 25 0 1.67 201.674 06:50 12.10.2019
343 Clear 0 1020 38 0 1.41 73.679 05:46 12.10.2019
344 Clear 0 1020 38 0 1.41 73.679 04:52 12.10.2019
345 Clear 0 1020 38 0 1.41 73.679 03:58 12.10.2019
346 Clear -3 1019 61 0 1.66 53.296 02:57 12.10.2019
347 Clear -3 1019 60 0 1.67 52.856 01:36 12.10.2019
348 Clear -3 1019 60 0 1.67 52.856 00:59 12.10.2019
349 Clear -3 1019 60 0 1.67 52.856 00:39 12.10.2019
350 Clear -3 1018 73 0 1.52 48.517 23:57 11.10.2019
351 Clear -3 1018 73 0 1.52 48.517 23:39 11.10.2019
352 Clear -3 1018 73 0 1.52 48.517 23:20 11.10.2019
353 Clear -3 1018 73 0 1.52 48.517 22:40 11.10.2019
354 Clear -3 1018 73 0 1.52 48.517 22:21 11.10.2019
355 Clear -3 1018 73 0 1.52 48.517 21:56 11.10.2019
356 Clear -3 1018 73 0 1.52 48.517 21:38 11.10.2019
357 Clear -2 1019 80 0 1.07 52.722 21:19 11.10.2019
358 Clear -2 1018 79 0 0.88 56.546 20:44 11.10.2019
359 Clear -2 1018 79 0 0.88 56.546 20:25 11.10.2019
360 Clear -2 1018 79 0 0.88 56.546 19:57 11.10.2019
361 Clear -2 1018 79 0 0.88 56.546 19:38 11.10.2019
362 Clear -2 1018 79 0 0.88 56.546 19:18 11.10.2019
363 Clear -2 1018 79 0 0.88 56.546 18:58 11.10.2019
364 Clear -2 1018 79 0 0.88 56.546 18:58 11.10.2019
365 Clear -2 1018 79 0 0.88 56.546 18:38 11.10.2019
366 Clear -2 1018 86 0 0.97 58.59 18:19 11.10.2019
367 Clear -2 1018 86 0 0.97 58.59 17:58 11.10.2019
368 Clear -2 1018 86 0 0.97 58.59 17:37 11.10.2019
369 Clear -2 1018 86 0 0.97 58.59 17:19 11.10.2019
370 Clear -2 1018 86 0 0.97 58.59 16:56 11.10.2019
371 Clear -2 1018 86 0 0.97 58.59 16:37 11.10.2019
372 Clear -2 1018 86 0 0.97 58.59 16:18 11.10.2019
373 Clear -2 1018 86 0 0.97 58.59 15:41 11.10.2019
374 Clear 1 1016 71 0 1.72 217.317 15:20 11.10.2019
375 Clear 1 1016 71 0 1.72 217.317 14:58 11.10.2019
376 Clear 1 1016 71 0 1.72 217.317 14:38 11.10.2019
377 Clear 1 1016 71 0 1.72 217.317 14:19 11.10.2019
378 Clear 1 1016 71 0 1.72 217.317 13:44 11.10.2019
379 Clear 1 1015 67 0 1.77 218.544 13:25 11.10.2019
380 Clear 1 1015 67 0 1.77 218.544 12:57 11.10.2019
381 Clear 1 1015 67 0 1.77 218.544 12:38 11.10.2019
382 Clear 3 1015 53 0 2.79 219.911 12:20 11.10.2019
383 Clear 3 1015 53 0 2.79 219.911 11:57 11.10.2019
384 Clear 3 1015 53 0 2.79 219.911 11:38 11.10.2019
385 Clear 3 1015 53 0 2.79 219.911 11:20 11.10.2019
386 Clear 3 1015 53 0 2.79 219.911 10:54 11.10.2019
387 Clear 3 1015 53 0 2.79 219.911 10:36 11.10.2019
388 Clear 3 1015 53 0 2.79 219.911 10:18 11.10.2019
389 Clouds 3 1015 55 0 2.71 226.885 09:41 11.10.2019
390 Clear 4 1017 33 0 2.33 211.956 09:20 11.10.2019
391 Clear 4 1017 33 0 2.33 211.956 09:20 11.10.2019
392 Clear 4 1017 33 0 2.33 211.956 08:56 11.10.2019
393 Clear 4 1017 33 0 2.33 211.956 08:38 11.10.2019
394 Clear 4 1017 33 0 2.33 211.956 08:20 11.10.2019
395 Clear 4 1017 33 0 2.33 211.956 07:51 11.10.2019
396 Clear 4 1017 33 0 2.33 211.956 07:33 11.10.2019
397 Clear 4 1017 33 0 2.33 211.956 06:49 11.10.2019
398 Clear 4 1017 33 0 2.33 211.956 06:25 11.10.2019
399 Clear 0 1019 36 0 0.88 89.221 05:46 11.10.2019
400 Clear 0 1019 36 0 0.88 89.221 05:27 11.10.2019
401 Clear 0 1019 36 0 0.88 89.221 04:50 11.10.2019
402 Clear -3 1018 51 0 1.5 51.102 03:21 11.10.2019
403 Clear -3 1019 50 0 1.61 46.612 01:18 11.10.2019
404 Clear -3 1019 50 0 1.61 46.612 00:31 11.10.2019
405 Clear -3 1018 63 0 1.82 43.193 23:58 10.10.2019
406 Clear -3 1018 63 0 1.82 43.193 23:40 10.10.2019
407 Clear -3 1018 63 0 1.82 43.193 23:19 10.10.2019
408 Clear -3 1018 63 0 1.82 43.193 22:55 10.10.2019
409 Clear -3 1018 63 0 1.82 43.193 22:36 10.10.2019
410 Clear -3 1018 63 0 1.82 43.193 22:18 10.10.2019
411 Clear -3 1018 63 0 1.82 43.193 21:42 10.10.2019
412 Clouds -2 1019 80 0 1.44 24.048 21:22 10.10.2019
413 Clouds -2 1019 81 0 1.49 22.51 20:58 10.10.2019
414 Clouds -2 1019 81 0 1.49 22.51 20:39 10.10.2019
415 Clouds -2 1019 81 0 1.49 22.51 20:20 10.10.2019
416 Clouds -2 1019 81 0 1.49 22.51 19:57 10.10.2019
417 Clouds -2 1019 81 0 1.49 22.51 19:57 10.10.2019
418 Clouds -2 1019 81 0 1.49 22.51 19:39 10.10.2019
419 Clouds -2 1019 81 0 1.49 22.51 19:19 10.10.2019
420 Clouds -2 1019 81 0 1.49 22.51 18:42 10.10.2019
421 Clouds -1 1019 87 0 1.12 12.956 18:21 10.10.2019
422 Clouds -1 1019 87 0 1.12 12.956 17:59 10.10.2019
423 Clouds -1 1019 87 0 1.12 12.956 17:40 10.10.2019
424 Clouds -1 1019 87 0 1.12 12.956 17:40 10.10.2019
425 Clouds -1 1019 87 0 1.12 12.956 17:19 10.10.2019
426 Clouds -1 1019 87 0 1.12 12.956 16:56 10.10.2019
427 Clouds -1 1019 87 0 1.12 12.956 16:37 10.10.2019
428 Clouds -1 1019 87 0 1.12 12.956 16:19 10.10.2019
429 Clouds -1 1019 87 0 1.12 12.956 15:42 10.10.2019
430 Clouds 1 1017 73 0 1.32 202.857 15:23 10.10.2019
431 Clouds 1 1017 73 0 1.32 202.857 14:58 10.10.2019
432 Clouds 1 1017 73 0 1.32 202.857 14:37 10.10.2019
433 Clouds 1 1017 73 0 1.32 202.857 14:19 10.10.2019
434 Clouds 1 1017 73 0 1.32 202.857 13:58 10.10.2019
435 Clouds 1 1017 73 0 1.32 202.857 13:39 10.10.2019
436 Clouds 1 1016 73 0 1.71 212.9 13:18 10.10.2019
437 Clouds 1 1016 73 0 1.71 212.9 12:42 10.10.2019
438 Clouds 1 1016 73 0 1.71 212.9 12:42 10.10.2019
439 Clouds 4 1016 48 0 2.42 233.641 12:21 10.10.2019
440 Clouds 4 1016 48 0 2.42 233.641 11:58 10.10.2019
441 Clouds 4 1016 48 0 2.42 233.641 11:40 10.10.2019
442 Clouds 4 1016 48 0 2.42 233.641 11:19 10.10.2019
443 Clouds 4 1016 48 0 2.42 233.641 10:57 10.10.2019
444 Clouds 4 1016 48 0 2.42 233.641 10:39 10.10.2019
445 Clouds 4 1016 48 0 2.42 233.641 10:20 10.10.2019
446 Clouds 4 1016 48 0 2.42 233.641 09:41 10.10.2019
447 Clear 3 1019 40 0 2.28 227.115 09:23 10.10.2019
448 Clear 3 1019 38 0 1.75 229.789 08:59 10.10.2019
449 Clear 3 1019 38 0 1.75 229.789 08:40 10.10.2019
450 Clear 3 1019 38 0 1.75 229.789 08:21 10.10.2019
451 Clear 3 1019 38 0 1.75 229.789 07:57 10.10.2019
452 Clear 3 1019 38 0 1.75 229.789 07:36 10.10.2019
453 Clear 3 1019 38 0 1.75 229.789 07:18 10.10.2019
454 Clear 3 1019 38 0 1.75 229.789 06:39 10.10.2019
455 Clear -1 1020 47 0 1.16 56.57 05:56 10.10.2019
456 Clear -1 1020 47 0 1.16 56.57 05:21 10.10.2019
457 Clear -1 1020 47 0 1.16 56.57 04:36 10.10.2019
458 Clear -4 1019 64 0 1.82 40.731 02:46 10.10.2019
459 Clear -4 1019 64 0 1.82 40.731 01:39 10.10.2019
460 Clear -4 1019 64 0 1.99 42.599 01:21 10.10.2019
461 Clear -4 1019 64 0 1.99 42.599 00:41 10.10.2019
462 Clear -3 1019 73 0 1.95 39.851 00:19 10.10.2019
463 Clear -3 1019 73 0 1.95 39.851 23:38 09.10.2019
464 Clear -3 1019 73 0 1.95 39.851 23:19 09.10.2019
465 Clear -3 1019 73 0 1.95 39.851 23:19 09.10.2019
466 Clear -3 1019 73 0 1.95 39.851 22:42 09.10.2019
467 Clear -3 1019 73 0 1.95 39.851 22:23 09.10.2019
468 Clear -3 1019 73 0 1.95 39.851 21:59 09.10.2019
469 Clear -3 1019 73 0 1.95 39.851 21:39 09.10.2019
470 Clear -3 1020 81 0 1.77 34.74 21:20 09.10.2019
471 Clouds -3 1020 83 0 1.78 40.626 20:56 09.10.2019
472 Clouds -3 1020 83 0 1.78 40.626 20:37 09.10.2019
473 Clouds -3 1020 83 0 1.78 40.626 20:18 09.10.2019
474 Clouds -3 1020 83 0 1.78 40.626 19:45 09.10.2019
475 Clouds -3 1020 83 0 1.78 40.626 19:24 09.10.2019
476 Clouds -3 1020 83 0 1.78 40.626 18:58 09.10.2019
477 Clouds -3 1020 83 0 1.78 40.626 18:38 09.10.2019
478 Clouds -3 1020 88 0 0.86 102.529 18:18 09.10.2019
479 Clouds -3 1020 88 0 0.86 102.529 17:55 09.10.2019
480 Clouds -3 1020 88 0 0.86 102.529 17:37 09.10.2019
481 Clouds -3 1020 88 0 0.86 102.529 17:18 09.10.2019
482 Clouds -3 1020 88 0 0.86 102.529 16:41 09.10.2019
483 Clouds -3 1020 88 0 0.86 102.529 16:23 09.10.2019
484 Clouds -3 1020 88 0 0.86 102.529 15:58 09.10.2019
485 Clouds -3 1020 88 0 0.86 102.529 15:39 09.10.2019
486 Clouds -1 1017 77 0 2.36 228.266 15:20 09.10.2019
487 Clouds -1 1017 77 0 2.36 228.266 14:58 09.10.2019
488 Clouds -1 1017 77 0 2.36 228.266 14:58 09.10.2019
489 Clouds -1 1017 77 0 2.36 228.266 14:40 09.10.2019
490 Clouds -1 1017 77 0 2.36 228.266 14:18 09.10.2019
491 Clouds -1 1017 77 0 2.36 228.266 13:40 09.10.2019
492 Clouds -1 1016 78 0 2.2 227.872 13:21 09.10.2019
493 Clouds -1 1016 78 0 2.2 227.872 12:59 09.10.2019
494 Clouds -1 1016 78 0 2.2 227.872 12:41 09.10.2019
495 Clouds 1 1017 66 0 3.17 233.423 12:21 09.10.2019
496 Clouds 1 1017 66 0 3.17 233.423 11:55 09.10.2019
497 Clouds 1 1017 66 0 3.17 233.423 11:37 09.10.2019
498 Clouds 1 1017 66 0 3.17 233.423 11:19 09.10.2019
499 Clouds 1 1017 66 0 3.17 233.423 10:44 09.10.2019
500 Clouds 1 1017 66 0 3.17 233.423 10:22 09.10.2019
501 Clouds 1 1017 66 0 3.17 233.423 09:59 09.10.2019
502 Clouds 1 1017 66 0 3.17 233.423 09:40 09.10.2019
503 Clear 3 1019 46 0 2.35 209.842 09:19 09.10.2019
504 Clear 2 1020 40 0 2.44 205.818 08:43 09.10.2019
505 Clear 2 1020 40 0 2.44 205.818 08:23 09.10.2019
506 Clear 2 1020 40 0 2.44 205.818 07:59 09.10.2019
507 Clear 2 1020 40 0 2.44 205.818 07:39 09.10.2019
508 Clear 2 1020 40 0 2.44 205.818 07:21 09.10.2019
509 Clear 2 1020 40 0 2.44 205.818 06:52 09.10.2019
510 Clear 2 1020 40 0 2.44 205.818 06:52 09.10.2019
511 Clear -1 1021 54 0 0.63 131.015 06:19 09.10.2019
512 Clear -1 1021 54 0 0.63 131.015 05:44 09.10.2019
513 Clear -1 1021 54 0 0.63 131.015 04:26 09.10.2019
514 Clear -3 1021 69 0 1.16 44.406 02:54 09.10.2019
515 Clear -3 1021 69 0 1.16 44.406 01:44 09.10.2019
516 Clear -3 1021 69 0 1.28 46.835 01:21 09.10.2019
517 Clear -3 1021 69 0 1.28 46.835 00:57 09.10.2019
518 Clear -3 1021 69 0 1.28 46.835 00:39 09.10.2019
519 Clear -3 1020 73 0 1.28 47.255 00:20 09.10.2019
520 Clear -3 1020 73 0 1.28 47.255 23:40 08.10.2019
521 Clear -3 1020 73 0 1.28 47.255 23:19 08.10.2019
522 Clear -3 1020 73 0 1.28 47.255 22:58 08.10.2019
523 Clear -3 1020 73 0 1.28 47.255 22:39 08.10.2019
524 Clear -3 1020 73 0 1.28 47.255 22:20 08.10.2019
525 Clear -3 1020 73 0 1.28 47.255 21:57 08.10.2019
526 Clear -3 1020 73 0 1.28 47.255 21:39 08.10.2019
527 Clear -2 1021 80 0 1.08 99.069 21:19 08.10.2019
528 Clear -2 1021 80 0 1.08 99.069 20:56 08.10.2019
529 Clear -2 1020 78 0 1.12 100.406 20:38 08.10.2019
530 Clear -2 1020 78 0 1.12 100.406 20:20 08.10.2019
531 Clear -2 1020 78 0 1.12 100.406 19:58 08.10.2019
532 Clear -2 1020 78 0 1.12 100.406 19:58 08.10.2019
533 Clear -2 1020 78 0 1.12 100.406 19:40 08.10.2019
534 Clear -2 1020 78 0 1.12 100.406 19:21 08.10.2019
535 Clear -2 1020 78 0 1.12 100.406 19:21 08.10.2019
536 Clear -2 1020 78 0 1.12 100.406 18:55 08.10.2019
537 Clear -2 1020 78 0 1.12 100.406 18:36 08.10.2019
538 Clear -2 1020 87 0 1.22 165.247 18:18 08.10.2019
539 Clear -2 1020 87 0 1.22 165.247 17:40 08.10.2019
540 Clear -2 1020 87 0 1.22 165.247 17:21 08.10.2019
541 Clear -2 1020 87 0 1.22 165.247 16:59 08.10.2019
542 Clear -2 1020 87 0 1.22 165.247 16:40 08.10.2019
543 Clear -2 1020 87 0 1.22 165.247 16:22 08.10.2019
544 Clear -2 1020 87 0 1.22 165.247 15:41 08.10.2019
545 Clouds 1 1017 68 0 2.47 207.802 15:22 08.10.2019
546 Clouds 1 1017 68 0 2.47 207.802 14:59 08.10.2019
547 Clouds 1 1017 68 0 2.47 207.802 14:41 08.10.2019
548 Clouds 1 1017 68 0 2.47 207.802 14:21 08.10.2019
549 Clouds 1 1017 68 0 2.47 207.802 13:57 08.10.2019
550 Clouds 1 1017 68 0 2.47 207.802 13:39 08.10.2019
551 Clouds 1 1017 68 0 2.47 207.802 13:19 08.10.2019
552 Clouds 1 1017 67 0 2.51 212.457 12:59 08.10.2019
553 Clouds 1 1017 67 0 2.51 212.457 12:38 08.10.2019
554 Clouds 4 1016 52 0 3.43 198.234 12:18 08.10.2019
555 Clouds 4 1016 52 0 3.43 198.234 11:43 08.10.2019
556 -273 0 0 0 0 0 11:24 08.10.2019
557 Clouds 4 1016 52 0 3.43 198.234 10:59 08.10.2019
558 Clouds 4 1016 52 0 3.43 198.234 10:38 08.10.2019
559 Clouds 4 1016 52 0 3.43 198.234 10:20 08.10.2019
560 Clouds 4 1016 52 0 3.43 198.234 09:57 08.10.2019
561 Clouds 4 1016 52 0 3.43 198.234 09:39 08.10.2019
562 Clear 4 1019 39 0 2.59 195.897 09:19 08.10.2019
563 Clear 3 1019 43 0 2.53 173.173 08:42 08.10.2019
564 Clear 3 1019 43 0 2.53 173.173 08:24 08.10.2019
565 Clear 3 1019 43 0 2.53 173.173 07:45 08.10.2019
566 Clear 3 1019 43 0 2.53 173.173 07:22 08.10.2019
567 Clear 3 1019 43 0 2.53 173.173 06:56 08.10.2019
568 Clear 3 1019 43 0 2.53 173.173 06:32 08.10.2019
569 Clear -2 1021 49 0 1.19 78.737 05:57 08.10.2019
570 Clear -2 1021 49 0 1.19 78.737 05:36 08.10.2019
571 Clear -2 1021 49 0 1.19 78.737 05:36 08.10.2019
572 Clear -2 1021 49 0 1.19 78.737 04:36 08.10.2019
573 Clear -2 1021 49 0 1.19 78.737 03:29 08.10.2019
574 Clear -5 1020 74 0 1.66 56.655 02:39 08.10.2019
575 Clear -5 1020 74 0 1.66 56.655 01:49 08.10.2019
576 Clear -5 1020 74 0 1.66 56.655 01:31 08.10.2019
577 Clouds -5 1020 74 0 1.63 59.367 00:50 08.10.2019
578 Clear -4 1021 81 0 1.59 53.367 00:21 08.10.2019
579 Clear -4 1021 81 0 1.59 53.367 23:41 07.10.2019
580 Clear -4 1021 81 0 1.59 53.367 23:21 07.10.2019
581 Clear -4 1021 81 0 1.59 53.367 22:58 07.10.2019
582 Clear -4 1021 81 0 1.59 53.367 22:40 07.10.2019
583 Clear -4 1021 81 0 1.59 53.367 22:21 07.10.2019
584 Clear -4 1021 81 0 1.59 53.367 21:58 07.10.2019
585 Clear -4 1021 81 0 1.59 53.367 21:40 07.10.2019
586 Clouds -4 1021 88 0 1.75 65.38 21:20 07.10.2019
587 Clouds -4 1021 88 0 1.75 65.38 21:20 07.10.2019
588 Clear -4 1021 87 0 1.59 64.548 20:58 07.10.2019
589 Clear -4 1021 87 0 1.59 64.548 20:39 07.10.2019
590 Clear -4 1021 87 0 1.59 64.548 20:20 07.10.2019
591 Clear -4 1021 87 0 1.59 64.548 19:58 07.10.2019
592 Clear -4 1021 87 0 1.59 64.548 19:40 07.10.2019
593 Clear -4 1021 87 0 1.59 64.548 19:20 07.10.2019
594 Clear -4 1021 87 0 1.59 64.548 18:58 07.10.2019
595 Clear -4 1021 87 0 1.59 64.548 18:38 07.10.2019
596 Clouds -4 1021 91 0 1.54 135.132 18:18 07.10.2019
597 Clouds -4 1021 91 0 1.54 135.132 17:43 07.10.2019
598 Clouds -4 1021 91 0 1.54 135.132 17:23 07.10.2019
599 Clouds -4 1021 91 0 1.54 135.132 17:23 07.10.2019
600 Clouds -4 1021 91 0 1.54 135.132 16:58 07.10.2019
601 Clouds -4 1021 91 0 1.54 135.132 16:58 07.10.2019
602 Clouds -4 1021 91 0 1.54 135.132 16:39 07.10.2019
603 Clouds -4 1021 91 0 1.54 135.132 16:39 07.10.2019
604 Clouds -4 1021 91 0 1.54 135.132 16:20 07.10.2019
605 Clouds -4 1021 91 0 1.54 135.132 15:46 07.10.2019
606 Clouds -4 1021 91 0 1.54 135.132 15:26 07.10.2019
607 Clouds -4 1021 91 0 1.54 135.132 15:26 07.10.2019
608 Clouds -4 1021 91 0 1.54 135.132 15:26 07.10.2019
609 Clouds 0 1018 81 0 2.13 197.421 14:58 07.10.2019
610 Clouds 0 1018 81 0 2.13 197.421 14:40 07.10.2019
611 Clouds 0 1018 81 0 2.13 197.421 14:21 07.10.2019
612 Clouds 0 1018 81 0 2.13 197.421 13:43 07.10.2019
613 Clouds -1 1018 86 0 2.05 203.067 13:21 07.10.2019
614 Clouds -1 1018 86 0 2.05 203.067 12:57 07.10.2019
615 Clouds -1 1018 86 0 2.05 203.067 12:39 07.10.2019
616 Clouds 1 1018 84 0 3.08 184.159 12:19 07.10.2019
617 Clouds 1 1018 84 0 3.08 184.159 11:58 07.10.2019
618 Clouds 1 1018 84 0 3.08 184.159 11:38 07.10.2019
619 Clouds 1 1018 84 0 3.08 184.159 11:20 07.10.2019
620 Clouds 1 1018 84 0 3.08 184.159 10:42 07.10.2019
621 Clouds 1 1018 84 0 3.08 184.159 10:21 07.10.2019
622 Clouds 1 1018 84 0 3.08 184.159 09:56 07.10.2019
623 Clouds 1 1018 84 0 3.08 184.159 09:38 07.10.2019
624 Clouds 0 1021 91 0 3.29 178.92 09:19 07.10.2019
625 Clouds -1 1021 81 0 3.32 164.64 08:42 07.10.2019
626 Clouds -1 1021 81 0 3.32 164.64 08:20 07.10.2019
627 Clouds -1 1021 81 0 3.32 164.64 07:46 07.10.2019
628 Clouds -1 1021 81 0 3.32 164.64 07:27 07.10.2019
629 Clouds -1 1021 81 0 3.32 164.64 06:57 07.10.2019
630 Clouds -1 1021 81 0 3.32 164.64 06:38 07.10.2019
631 Clouds -2 1022 83 0 2.81 177.1 05:56 07.10.2019
632 Clouds -2 1022 83 0 2.81 177.1 05:25 07.10.2019
633 Clouds -2 1022 83 0 2.81 177.1 04:49 07.10.2019
634 Clouds -2 1022 83 0 2.81 177.1 03:46 07.10.2019
635 Clouds -2 1022 83 0 2.81 177.1 03:27 07.10.2019
636 Clouds -3 1020 91 0 1.61 151.812 02:37 07.10.2019
637 Clouds -3 1020 91 0 1.61 151.812 02:18 07.10.2019
638 Clouds -3 1020 91 0 1.61 151.812 02:18 07.10.2019
639 Clouds -3 1019 93 0 1.95 184.167 01:23 07.10.2019
640 Clouds -3 1019 93 0 1.95 184.167 00:51 07.10.2019
641 Clouds -3 1019 89 0 2.44 161.862 00:24 07.10.2019
642 Clouds -3 1019 89 0 2.44 161.862 23:59 06.10.2019
643 Clouds -3 1019 89 0 2.44 161.862 23:40 06.10.2019
644 Clouds -3 1019 89 0 2.44 161.862 23:20 06.10.2019
645 Clouds -3 1019 89 0 2.44 161.862 22:56 06.10.2019
646 Clouds -3 1019 89 0 2.44 161.862 22:37 06.10.2019
647 Clouds -3 1019 89 0 2.44 161.862 22:18 06.10.2019
648 Clouds -3 1019 89 0 2.44 161.862 21:55 06.10.2019
649 Clouds -3 1019 89 0 2.44 161.862 21:55 06.10.2019
650 Clouds -3 1019 89 0 2.44 161.862 21:36 06.10.2019
651 Clouds -2 1019 75 0 1.2 168.925 21:18 06.10.2019
652 Clouds -2 1019 75 0 1.2 168.925 20:54 06.10.2019
653 Clouds -2 1019 78 0 1.36 137.209 20:36 06.10.2019
654 Clouds -2 1019 78 0 1.36 137.209 20:36 06.10.2019
655 Clouds -2 1019 78 0 1.36 137.209 20:18 06.10.2019
656 Clouds -2 1019 78 0 1.36 137.209 19:55 06.10.2019
657 Clouds -2 1019 78 0 1.36 137.209 19:55 06.10.2019
658 Clouds -2 1019 78 0 1.36 137.209 19:36 06.10.2019
659 Clouds -2 1019 78 0 1.36 137.209 19:18 06.10.2019
660 Clouds -2 1019 78 0 1.36 137.209 19:18 06.10.2019
661 Clouds -2 1019 78 0 1.36 137.209 18:55 06.10.2019
662 Clouds -2 1019 78 0 1.36 137.209 18:55 06.10.2019
663 Clouds -2 1019 78 0 1.36 137.209 18:36 06.10.2019
664 Clouds 0 1019 59 0 3.39 160.624 18:18 06.10.2019
665 Clouds 0 1019 59 0 3.39 160.624 18:18 06.10.2019
666 Clouds 0 1019 59 0 3.39 160.624 17:42 06.10.2019
667 Clouds 0 1019 59 0 3.39 160.624 17:20 06.10.2019
668 Clouds 0 1019 59 0 3.39 160.624 17:20 06.10.2019
669 Clouds 0 1019 59 0 3.39 160.624 16:55 06.10.2019
670 Clouds 0 1019 59 0 3.39 160.624 16:37 06.10.2019
671 Clouds 0 1019 59 0 3.39 160.624 16:18 06.10.2019
672 Clouds 0 1019 59 0 3.39 160.624 15:43 06.10.2019
673 Clouds 3 1016 37 0 2.17 180.106 15:21 06.10.2019
674 Clouds 3 1016 37 0 2.17 180.106 14:56 06.10.2019
675 Clouds 3 1016 37 0 2.17 180.106 14:38 06.10.2019
676 Clouds 3 1016 37 0 2.17 180.106 14:19 06.10.2019
677 Clouds 3 1016 37 0 2.17 180.106 13:42 06.10.2019
678 Clouds 3 1016 37 0 2.36 172.048 13:24 06.10.2019
679 Clouds 3 1016 37 0 2.36 172.048 12:59 06.10.2019
680 Clouds 3 1016 37 0 2.36 172.048 12:41 06.10.2019
681 Clouds 5 1016 28 0 3.33 179.552 12:21 06.10.2019
682 Clouds 5 1016 28 0 3.33 179.552 11:59 06.10.2019
683 Clouds 5 1016 28 0 3.33 179.552 11:40 06.10.2019
684 Clouds 5 1016 28 0 3.33 179.552 11:40 06.10.2019
685 Clouds 5 1016 28 0 3.33 179.552 11:21 06.10.2019
686 Clouds 5 1016 28 0 3.33 179.552 10:55 06.10.2019
687 Clouds 5 1016 28 0 3.33 179.552 10:37 06.10.2019
688 Clouds 5 1016 28 0 3.33 179.552 10:19 06.10.2019
689 Clouds 5 1016 28 0 3.33 179.552 09:41 06.10.2019
690 Clouds 5 1018 28 0 3.44 181.265 09:19 06.10.2019
691 Clouds 5 1018 28 0 3.44 181.265 09:19 06.10.2019
692 Clouds 5 1018 28 0 3.44 181.265 08:48 06.10.2019
693 Clouds 5 1018 28 0 3.44 181.265 08:48 06.10.2019
694 Clouds 5 1019 27 0 3.52 186.153 08:22 06.10.2019
695 Clouds 5 1019 27 0 3.52 186.153 07:58 06.10.2019
696 Clouds 5 1019 27 0 3.52 186.153 07:39 06.10.2019
697 Clouds 5 1019 27 0 3.52 186.153 06:50 06.10.2019
698 Clouds 1 1020 41 0 1.05 135.58 05:41 06.10.2019
699 Clouds 1 1020 41 0 1.05 135.58 04:35 06.10.2019
700 Clear -3 1019 67 0 1.21 70.697 02:53 06.10.2019
701 Clear -3 1019 67 0 1.21 70.697 02:30 06.10.2019
702 Clear -3 1019 67 0 1.21 70.697 01:48 06.10.2019
703 Clear -2 1019 68 0 0.94 85.601 01:30 06.10.2019
704 Clear -2 1019 68 0 0.94 85.601 00:59 06.10.2019
705 Clear -2 1019 68 0 0.94 85.601 00:59 06.10.2019
706 Clear -2 1019 68 0 0.94 85.601 00:33 06.10.2019
707 Clear -2 1019 74 0 1.14 71.693 23:59 05.10.2019
708 Clear -2 1019 74 0 1.14 71.693 23:40 05.10.2019
709 Clear -2 1019 74 0 1.14 71.693 23:40 05.10.2019
710 Clear -2 1019 74 0 1.14 71.693 23:19 05.10.2019
711 Clear -2 1019 74 0 1.14 71.693 22:54 05.10.2019
712 Clear -2 1019 74 0 1.14 71.693 22:36 05.10.2019
713 Clear -2 1019 74 0 1.14 71.693 22:18 05.10.2019
714 Clear -2 1019 74 0 1.14 71.693 21:41 05.10.2019
715 Clear -2 1019 74 0 1.14 71.693 21:41 05.10.2019
716 Clouds -2 1020 79 0 0.97 103.074 21:22 05.10.2019
717 Clouds -2 1020 79 0 0.97 103.074 20:57 05.10.2019
718 Clouds -2 1020 79 0 1.08 123.146 20:39 05.10.2019
719 Clouds -2 1020 79 0 1.08 123.146 20:19 05.10.2019
720 Clouds -2 1020 79 0 1.08 123.146 19:56 05.10.2019
721 Clouds -2 1020 79 0 1.08 123.146 19:36 05.10.2019
722 Clouds -2 1020 79 0 1.08 123.146 19:18 05.10.2019
723 Clouds -2 1020 79 0 1.08 123.146 18:54 05.10.2019
724 Clouds -2 1020 79 0 1.08 123.146 18:36 05.10.2019
725 Clouds -1 1019 85 0 1.37 151.383 18:18 05.10.2019
726 Clouds -1 1019 85 0 1.37 151.383 18:18 05.10.2019
727 Clouds -1 1019 85 0 1.37 151.383 17:41 05.10.2019
728 Clouds -1 1019 85 0 1.37 151.383 17:21 05.10.2019
729 -273 0 0 0 0 0 16:55 05.10.2019
730 Clouds -1 1019 85 0 1.37 151.383 16:36 05.10.2019
731 Clouds -1 1019 85 0 1.37 151.383 16:18 05.10.2019
732 Clouds -1 1019 85 0 1.37 151.383 15:55 05.10.2019
733 Clouds -1 1019 85 0 1.37 151.383 15:37 05.10.2019
734 Clouds 1 1017 69 0 2.09 190.457 15:18 05.10.2019
735 Clouds 1 1017 69 0 2.09 190.457 14:41 05.10.2019
736 Clouds 1 1017 69 0 2.09 190.457 14:22 05.10.2019
737 Clouds 1 1017 69 0 2.09 190.457 13:44 05.10.2019
738 Clouds 1 1016 69 0 2.3 196.63 13:26 05.10.2019
739 Clouds 1 1016 69 0 2.3 196.63 12:58 05.10.2019
740 Clouds 1 1016 69 0 2.3 196.63 12:40 05.10.2019
741 Clouds 3 1016 59 0 3.3 197.5 12:19 05.10.2019
742 Clouds 3 1016 59 0 3.3 197.5 11:39 05.10.2019
743 Clouds 3 1016 59 0 3.3 197.5 11:20 05.10.2019
744 Clouds 3 1016 59 0 3.3 197.5 10:57 05.10.2019
745 Clouds 3 1016 59 0 3.3 197.5 10:38 05.10.2019
746 Clouds 3 1016 59 0 3.3 197.5 10:38 05.10.2019
747 Clouds 3 1016 59 0 3.3 197.5 10:19 05.10.2019
748 Clouds 3 1016 59 0 3.3 197.5 10:19 05.10.2019
749 Clouds 3 1016 59 0 3.3 197.5 09:40 05.10.2019
750 Clouds 3 1018 60 0 3.32 188.235 09:22 05.10.2019
751 Clouds 2 1019 66 0 2.92 170.143 08:42 05.10.2019
752 Clouds 2 1019 66 0 2.92 170.143 08:23 05.10.2019
753 Clouds 2 1019 66 0 2.92 170.143 07:59 05.10.2019
754 Clouds 2 1019 66 0 2.92 170.143 07:59 05.10.2019
755 Clouds 2 1019 66 0 2.92 170.143 07:39 05.10.2019
756 Clouds 2 1019 66 0 2.92 170.143 07:39 05.10.2019
757 Clouds 2 1019 66 0 2.92 170.143 07:20 05.10.2019
758 Clouds 2 1019 66 0 2.92 170.143 06:52 05.10.2019
759 Clouds 2 1019 66 0 2.92 170.143 06:52 05.10.2019
760 Clear -2 1020 74 0 1.11 96.409 06:20 05.10.2019
761 Clear -2 1020 74 0 1.11 96.409 04:46 05.10.2019
762 Clear -2 1020 74 0 1.11 96.409 03:32 05.10.2019
763 Clear -5 1019 86 0 1.01 65.32 02:26 05.10.2019
764 Clear -6 1019 83 0 1.26 60.21 01:25 05.10.2019
765 Clear -6 1019 83 0 1.26 60.21 00:48 05.10.2019
766 Clear -6 1019 83 0 1.26 60.21 00:48 05.10.2019
767 Clear -6 1019 83 0 1.26 60.21 00:27 05.10.2019
768 Clear -6 1018 88 0 0.9 76.519 23:56 04.10.2019
769 Clear -6 1018 88 0 0.9 76.519 23:56 04.10.2019
770 Clear -6 1018 88 0 0.9 76.519 23:37 04.10.2019
771 Clear -6 1018 88 0 0.9 76.519 23:18 04.10.2019
772 Clear -6 1018 88 0 0.9 76.519 22:42 04.10.2019
773 Clear -6 1018 88 0 0.9 76.519 22:24 04.10.2019
774 Clear -6 1018 88 0 0.9 76.519 21:59 04.10.2019
775 Clear -6 1018 88 0 0.9 76.519 21:40 04.10.2019
776 Clouds -5 1019 91 0 0.7 82.308 21:22 04.10.2019
777 Clouds -5 1019 91 0 0.7 82.308 20:59 04.10.2019
778 Clouds -6 1018 90 0 0.73 75.542 20:40 04.10.2019
779 Clouds -6 1018 90 0 0.73 75.542 20:22 04.10.2019
780 Clouds -6 1018 90 0 0.73 75.542 19:56 04.10.2019
781 Clouds -6 1018 90 0 0.73 75.542 19:37 04.10.2019
782 Clouds -6 1018 90 0 0.73 75.542 19:19 04.10.2019
783 Clouds -6 1018 90 0 0.73 75.542 18:54 04.10.2019
784 Clouds -6 1018 90 0 0.73 75.542 18:36 04.10.2019
785 Clouds -4 1018 93 0 1.28 129.239 18:18 04.10.2019
786 Clouds -4 1018 93 0 1.28 129.239 17:39 04.10.2019
787 Clouds -4 1018 93 0 1.28 129.239 17:21 04.10.2019
788 Clouds -4 1018 93 0 1.28 129.239 16:58 04.10.2019
789 Clouds -4 1018 93 0 1.28 129.239 16:39 04.10.2019
790 Clouds -4 1018 93 0 1.28 129.239 16:39 04.10.2019
791 Clouds -4 1018 93 0 1.28 129.239 16:18 04.10.2019
792 Clouds -4 1018 93 0 1.28 129.239 16:18 04.10.2019
793 Clouds -4 1018 93 0 1.28 129.239 16:18 04.10.2019
794 Clouds -4 1018 93 0 1.28 129.239 15:56 04.10.2019
795 Clouds -4 1018 93 0 1.28 129.239 15:38 04.10.2019
796 Clouds -1 1016 97 0 2.7 221.306 15:19 04.10.2019
797 Clouds -1 1016 97 0 2.7 221.306 14:55 04.10.2019
798 Clouds -1 1016 97 0 2.7 221.306 14:37 04.10.2019
799 Clouds -1 1016 97 0 2.7 221.306 14:19 04.10.2019
800 Clouds -1 1016 97 0 2.7 221.306 13:44 04.10.2019
801 Clouds -1 1016 97 0 2.7 221.306 13:44 04.10.2019
802 Clouds -1 1016 94 0 3.44 214.051 13:21 04.10.2019
803 Clouds -1 1016 94 0 3.44 214.051 12:49 04.10.2019
804 Clouds -1 1016 94 0 3.44 214.051 12:30 04.10.2019
805 Clouds 0 1016 94 0 3.58 224.309 11:59 04.10.2019
806 Clouds 0 1016 94 0 3.58 224.309 11:41 04.10.2019
807 Clouds 0 1016 94 0 3.58 224.309 11:41 04.10.2019
808 Clouds 0 1016 94 0 3.58 224.309 11:41 04.10.2019
809 Clouds 0 1016 94 0 3.58 224.309 11:21 04.10.2019
810 Clouds 0 1016 94 0 3.58 224.309 11:21 04.10.2019
811 Clouds 0 1016 94 0 3.58 224.309 10:41 04.10.2019
812 Clouds 0 1016 94 0 3.58 224.309 10:41 04.10.2019
813 Clouds 0 1016 94 0 3.58 224.309 10:21 04.10.2019
814 Clouds 0 1016 94 0 3.58 224.309 10:21 04.10.2019
815 Clouds 0 1016 94 0 3.58 224.309 09:50 04.10.2019
816 Clouds 0 1016 94 0 3.58 224.309 09:32 04.10.2019
817 Clouds 1 1018 77 0 2.68 192.87 08:59 04.10.2019
818 Clouds 1 1018 77 0 2.68 192.87 08:41 04.10.2019
819 Clouds 1 1018 77 0 2.68 192.87 08:23 04.10.2019
820 Clouds 1 1018 77 0 2.68 192.87 07:47 04.10.2019
821 Clouds 1 1018 77 0 2.68 192.87 07:23 04.10.2019
822 Clouds 1 1018 77 0 2.68 192.87 06:48 04.10.2019
823 Clouds 1 1018 77 0 2.68 192.87 06:27 04.10.2019
824 Clouds 1 1020 55 0 1.73 174.161 05:52 04.10.2019
825 Clouds 1 1020 55 0 1.73 174.161 05:19 04.10.2019
826 Clouds 1 1020 55 0 1.73 174.161 04:25 04.10.2019
827 Clouds -2 1019 65 0 0.85 100.952 02:56 04.10.2019
828 Clouds -2 1019 65 0 0.85 100.952 02:56 04.10.2019
829 Clouds -2 1019 65 0 0.85 100.952 02:37 04.10.2019
830 Clouds -2 1019 65 0 0.85 100.952 01:43 04.10.2019
831 Clouds -2 1020 69 0 1.12 75.653 01:24 04.10.2019
832 Clouds -2 1020 69 0 1.12 75.653 00:29 04.10.2019
833 Clouds -2 1019 65 0 1.07 133.062 23:38 03.10.2019
834 Clouds -2 1019 65 0 1.07 133.062 23:20 03.10.2019
835 Clouds -2 1019 65 0 1.07 133.062 22:57 03.10.2019
836 Clouds -2 1019 65 0 1.07 133.062 22:39 03.10.2019
837 Clouds -2 1019 65 0 1.07 133.062 22:39 03.10.2019
838 Clouds -2 1019 65 0 1.07 133.062 22:21 03.10.2019
839 Clouds -2 1019 65 0 1.07 133.062 21:56 03.10.2019
840 Clouds -2 1019 65 0 1.07 133.062 21:38 03.10.2019
841 Clouds -1 1019 80 0 1.09 182.684 21:19 03.10.2019
842 Clouds -1 1019 80 0 1.09 182.684 20:57 03.10.2019
843 Clouds -1 1019 77 0 1.23 203.986 20:38 03.10.2019
844 Clouds -1 1019 77 0 1.23 203.986 20:20 03.10.2019
845 Clouds -1 1019 77 0 1.23 203.986 19:55 03.10.2019
846 Clouds -1 1019 77 0 1.23 203.986 19:37 03.10.2019
847 Clouds -1 1019 77 0 1.23 203.986 19:19 03.10.2019
848 Clouds -1 1019 77 0 1.23 203.986 18:55 03.10.2019
849 Clouds -1 1019 77 0 1.23 203.986 18:37 03.10.2019
850 Rain 1 1018 78 0 1.13 150.626 18:18 03.10.2019
851 Rain 1 1018 78 0 1.13 150.626 17:42 03.10.2019
852 Rain 1 1018 78 0 1.13 150.626 17:21 03.10.2019
853 Rain 1 1018 78 0 1.13 150.626 16:55 03.10.2019
854 Rain 1 1018 78 0 1.13 150.626 16:37 03.10.2019
855 Rain 1 1018 78 0 1.13 150.626 16:19 03.10.2019
856 Rain 1 1018 78 0 1.13 150.626 15:43 03.10.2019
857 Clouds 2 1016 70 0 2.39 222.03 15:24 03.10.2019
858 Clouds 2 1016 70 0 2.39 222.03 14:58 03.10.2019
859 Clouds 2 1016 70 0 2.39 222.03 14:36 03.10.2019
860 Clouds 2 1016 70 0 2.39 222.03 14:36 03.10.2019
861 Clouds 2 1016 70 0 2.39 222.03 14:36 03.10.2019
862 Clouds 2 1016 70 0 2.39 222.03 14:18 03.10.2019
863 -273 0 0 0 0 0 13:44 03.10.2019
864 Clouds 2 1015 65 0 2.49 217.266 13:24 03.10.2019
865 Clouds 2 1015 65 0 2.49 217.266 12:58 03.10.2019
866 Clouds 2 1015 65 0 2.49 217.266 12:39 03.10.2019
867 Clouds 2 1015 65 0 2.49 217.266 12:39 03.10.2019
868 Clouds 4 1015 55 0 3.52 211.21 12:20 03.10.2019
869 Clouds 4 1015 55 0 3.52 211.21 11:58 03.10.2019
870 Clouds 4 1015 55 0 3.52 211.21 11:39 03.10.2019
871 Clouds 4 1015 55 0 3.52 211.21 11:21 03.10.2019
872 Clouds 4 1015 55 0 3.52 211.21 10:57 03.10.2019
873 Clouds 4 1015 55 0 3.52 211.21 10:38 03.10.2019
874 Clouds 4 1015 55 0 3.52 211.21 10:18 03.10.2019
875 Clouds 4 1015 55 0 3.52 211.21 09:56 03.10.2019
876 Clouds 4 1015 55 0 3.52 211.21 09:37 03.10.2019
877 Clouds 4 1017 50 0 2.98 194.619 09:19 03.10.2019
878 Clear 5 1017 43 0 3.09 197.49 08:42 03.10.2019
879 Clear 5 1017 43 0 3.09 197.49 08:23 03.10.2019
880 Clear 5 1017 43 0 3.09 197.49 07:42 03.10.2019
881 Clear 5 1017 43 0 3.09 197.49 07:20 03.10.2019
882 Clear 5 1017 43 0 3.09 197.49 07:20 03.10.2019
883 Clear 5 1017 43 0 3.09 197.49 06:52 03.10.2019
884 Clear 5 1017 43 0 3.09 197.49 06:27 03.10.2019
885 Clear 1 1018 62 0 1.14 174.159 05:49 03.10.2019
886 Clear 1 1018 62 0 1.14 174.159 05:27 03.10.2019
887 Clear 1 1018 62 0 1.14 174.159 04:45 03.10.2019
888 Clear 1 1018 62 0 1.14 174.159 03:54 03.10.2019
889 Clear -2 1017 82 0 0.66 121.95 03:19 03.10.2019
890 Clear -2 1017 82 0 0.66 121.95 02:22 03.10.2019
891 Clear -2 1017 82 0 0.66 121.95 01:40 03.10.2019
892 Clouds -1 1017 80 0 0.49 152.751 00:53 03.10.2019
893 Clouds -1 1017 80 0 0.49 152.751 00:31 03.10.2019
894 Clear -1 1017 81 0 0.3 81.87 23:55 02.10.2019
895 Clear -1 1017 81 0 0.3 81.87 23:36 02.10.2019
896 Clear -1 1017 81 0 0.3 81.87 23:18 02.10.2019
897 Clear -1 1017 81 0 0.3 81.87 22:41 02.10.2019
898 Clear -1 1017 81 0 0.3 81.87 22:20 02.10.2019
899 Clear -1 1017 81 0 0.3 81.87 21:55 02.10.2019
900 Clear -1 1017 81 0 0.3 81.87 21:55 02.10.2019
901 Clear -1 1017 81 0 0.3 81.87 21:37 02.10.2019
902 Clear -1 1017 81 0 0.9 288.617 21:18 02.10.2019
903 Clear -1 1017 83 0 0.63 268.916 20:55 02.10.2019
904 Clear -1 1017 83 0 0.63 268.916 20:55 02.10.2019
905 Clear -1 1017 83 0 0.63 268.916 20:37 02.10.2019
906 Clear -1 1017 83 0 0.63 268.916 20:19 02.10.2019
907 Clear -1 1017 83 0 0.63 268.916 19:44 02.10.2019
908 Clear -1 1017 83 0 0.63 268.916 19:23 02.10.2019
909 Clear -1 1017 83 0 0.63 268.916 18:58 02.10.2019
910 Clear -1 1017 83 0 0.63 268.916 18:39 02.10.2019
911 Clear 1 1017 84 0 0.49 277.462 18:21 02.10.2019
912 Clear 1 1017 84 0 0.49 277.462 17:58 02.10.2019
913 Clear 1 1017 84 0 0.49 277.462 17:39 02.10.2019
914 Clear 1 1017 84 0 0.49 277.462 17:20 02.10.2019
915 Clear 1 1017 84 0 0.49 277.462 16:57 02.10.2019
916 Clear 1 1017 84 0 0.49 277.462 16:37 02.10.2019
917 Clear 1 1017 84 0 0.49 277.462 16:18 02.10.2019
918 Clear 1 1017 84 0 0.49 277.462 15:55 02.10.2019
919 Clear 1 1017 84 0 0.49 277.462 15:37 02.10.2019
920 Clouds 3 1015 62 0 1.95 235.374 15:18 02.10.2019
921 Clouds 3 1015 62 0 1.95 235.374 14:43 02.10.2019
922 Clouds 3 1015 62 0 1.95 235.374 14:23 02.10.2019
923 Clouds 3 1015 62 0 1.95 235.374 13:56 02.10.2019
924 Clouds 3 1015 62 0 1.95 235.374 13:37 02.10.2019
925 Clouds 3 1014 58 0 1.9 232.871 13:19 02.10.2019
926 Clouds 3 1014 58 0 1.9 232.871 12:40 02.10.2019
927 Clouds 6 1015 40 0 1.93 237.815 12:22 02.10.2019
928 Clouds 6 1015 40 0 1.93 237.815 11:58 02.10.2019
929 Clouds 6 1015 40 0 1.93 237.815 11:40 02.10.2019
930 Clouds 6 1015 40 0 1.93 237.815 11:18 02.10.2019
931 Clouds 6 1015 40 0 1.93 237.815 10:38 02.10.2019
932 Clouds 6 1015 40 0 1.93 237.815 10:19 02.10.2019
933 Clouds 6 1015 40 0 1.93 237.815 09:40 02.10.2019
934 Clear 5 1018 38 0 2.2 236.252 09:20 02.10.2019
935 Clear 5 1017 33 0 1.98 231.372 08:56 02.10.2019
936 Clear 5 1017 33 0 1.98 231.372 08:37 02.10.2019
937 Clear 5 1017 33 0 1.98 231.372 08:19 02.10.2019
938 Clear 5 1017 33 0 1.98 231.372 07:39 02.10.2019
939 Clear 5 1017 33 0 1.98 231.372 07:21 02.10.2019
940 Clear 5 1017 33 0 1.98 231.372 07:21 02.10.2019
941 Clear 5 1017 33 0 1.98 231.372 06:54 02.10.2019
942 Clear 1 1019 48 0 0.16 40.365 05:56 02.10.2019
943 Clear 1 1019 48 0 0.16 40.365 05:25 02.10.2019
944 Clear 1 1019 48 0 0.16 40.365 04:56 02.10.2019
945 Clear 1 1019 48 0 0.16 40.365 03:53 02.10.2019
946 Clear 1 1019 48 0 0.16 40.365 03:53 02.10.2019
947 Clear -2 1018 83 0 0.44 350.858 03:19 02.10.2019
948 Clear -2 1018 83 0 0.44 350.858 02:25 02.10.2019
949 Clear -2 1018 83 0 0.44 350.858 02:25 02.10.2019
950 Clear -2 1018 83 0 0.44 350.858 01:52 02.10.2019
951 Clear -2 1018 78 0 0.53 19.762 00:52 02.10.2019
952 Clear -2 1018 78 0 0.53 19.762 00:29 02.10.2019
953 Clear -2 1017 82 0 0.63 335.752 23:54 01.10.2019
954 Clear -2 1017 82 0 0.63 335.752 23:36 01.10.2019
955 Clear -2 1017 82 0 0.63 335.752 23:18 01.10.2019
956 Clear -2 1017 82 0 0.63 335.752 22:57 01.10.2019
957 Clear -2 1017 82 0 0.63 335.752 22:36 01.10.2019
958 Clear -2 1017 82 0 0.63 335.752 22:18 01.10.2019
959 Clear -2 1017 82 0 0.63 335.752 21:42 01.10.2019
960 Clear -1 1017 87 0 0.75 325.208 21:22 01.10.2019
961 Clear -1 1017 87 0 0.75 325.208 21:22 01.10.2019
962 Clear -1 1017 87 0 0.75 325.208 20:58 01.10.2019
963 Clear -1 1016 90 0 0.72 10.054 20:39 01.10.2019
964 Clear -1 1016 90 0 0.72 10.054 20:20 01.10.2019
965 Clear -1 1016 90 0 0.72 10.054 20:20 01.10.2019
966 Clear -1 1016 90 0 0.72 10.054 19:57 01.10.2019
967 Clear -1 1016 90 0 0.72 10.054 19:39 01.10.2019
968 Clear -1 1016 90 0 0.72 10.054 19:20 01.10.2019
969 Clear -1 1016 90 0 0.72 10.054 18:55 01.10.2019
970 Clear -1 1016 90 0 0.72 10.054 18:37 01.10.2019
971 Clear 1 1015 86 0 0.45 233.437 18:19 01.10.2019
972 Clear 1 1015 86 0 0.45 233.437 17:43 01.10.2019
973 Clear 1 1015 86 0 0.45 233.437 17:20 01.10.2019
974 Clear 1 1015 86 0 0.45 233.437 16:59 01.10.2019
975 Clear 1 1015 86 0 0.45 233.437 16:40 01.10.2019
976 Clear 1 1015 86 0 0.45 233.437 16:22 01.10.2019
977 Clear 1 1015 86 0 0.45 233.437 15:48 01.10.2019
978 Clouds 3 1012 67 0 2.25 234.83 15:24 01.10.2019
979 Clouds 3 1012 67 0 2.25 234.83 14:58 01.10.2019
980 Clouds 3 1012 67 0 2.25 234.83 14:40 01.10.2019
981 Clouds 3 1012 67 0 2.25 234.83 14:19 01.10.2019
982 Clouds 3 1012 67 0 2.25 234.83 13:56 01.10.2019
983 Clouds 3 1012 67 0 2.25 234.83 13:37 01.10.2019
984 Clouds 3 1012 69 0 2.34 237.551 13:18 01.10.2019
985 Clouds 3 1012 69 0 2.34 237.551 12:55 01.10.2019
986 Clouds 3 1012 69 0 2.34 237.551 12:37 01.10.2019
987 Clouds 5 1012 68 0 3.35 240.969 12:18 01.10.2019
988 Clouds 5 1012 68 0 3.35 240.969 11:54 01.10.2019
989 Clouds 5 1012 68 0 3.35 240.969 11:36 01.10.2019
990 Clouds 5 1012 68 0 3.35 240.969 11:18 01.10.2019
991 Clouds 5 1012 68 0 3.35 240.969 10:44 01.10.2019
992 Clouds 5 1012 68 0 3.35 240.969 10:25 01.10.2019
993 Clouds 5 1012 68 0 3.35 240.969 09:44 01.10.2019
994 Clouds 5 1012 68 0 3.35 240.969 09:26 01.10.2019
995 Clouds 6 1016 49 0 2.48 232.222 08:44 01.10.2019
996 Clouds 6 1016 49 0 2.48 232.222 08:25 01.10.2019
997 Clouds 6 1016 49 0 2.48 232.222 07:50 01.10.2019
998 Clouds 6 1016 49 0 2.48 232.222 07:26 01.10.2019
999 Clouds 6 1016 49 0 2.48 232.222 07:26 01.10.2019
1000 Clouds 6 1016 49 0 2.48 232.222 06:51 01.10.2019
1001 Clouds 6 1016 49 0 2.48 232.222 06:25 01.10.2019
1002 Clear 2 1017 68 0 0.38 169.188 05:59 01.10.2019
1003 Clear 2 1017 68 0 0.38 169.188 05:40 01.10.2019
1004 Clear 2 1017 68 0 0.38 169.188 04:42 01.10.2019
1005 Clear 2 1017 68 0 0.38 169.188 03:37 01.10.2019
1006 Clear -1 1016 87 0 0.07 141.47 02:20 01.10.2019
1007 Clear -1 1016 87 0 0.07 141.47 01:55 01.10.2019
1008 Clear -1 1016 88 0 0.23 281.748 00:44 01.10.2019
1009 Clear -1 1016 88 0 0.23 281.748 00:25 01.10.2019
1010 Clear -1 1016 89 0 0.6 198.8 23:42 30.09.2019
1011 Clear -1 1016 89 0 0.6 198.8 23:23 30.09.2019
1012 Clear -1 1016 89 0 0.6 198.8 22:58 30.09.2019
1013 Clear -1 1016 89 0 0.6 198.8 22:40 30.09.2019
1014 Clear -1 1016 89 0 0.6 198.8 22:21 30.09.2019
1015 Clear -1 1016 89 0 0.6 198.8 21:55 30.09.2019
1016 Clear -1 1016 89 0 0.6 198.8 21:37 30.09.2019
1017 Clouds 0 1015 87 0 0.76 191.502 21:19 30.09.2019
1018 Clouds 0 1015 87 0 0.76 191.502 20:55 30.09.2019
1019 Clear 1 1015 89 0 0.84 166.28 20:37 30.09.2019
1020 Clear 1 1015 89 0 0.84 166.28 20:19 30.09.2019
1021 Clear 1 1015 89 0 0.84 166.28 20:19 30.09.2019
1022 Clear 1 1015 89 0 0.84 166.28 19:55 30.09.2019
1023 Clear 1 1015 89 0 0.84 166.28 19:37 30.09.2019
1024 Clear 1 1015 89 0 0.84 166.28 19:18 30.09.2019
1025 Clear 1 1015 89 0 0.84 166.28 19:18 30.09.2019
1026 Clear 1 1015 89 0 0.84 166.28 19:18 30.09.2019
1027 Clear 1 1015 89 0 0.84 166.28 18:41 30.09.2019
1028 Clouds 2 1015 85 0 0.76 198.102 18:22 30.09.2019
1029 Clouds 2 1015 85 0 0.76 198.102 17:58 30.09.2019
1030 Clouds 2 1015 85 0 0.76 198.102 17:39 30.09.2019
1031 Clouds 2 1015 85 0 0.76 198.102 17:39 30.09.2019
1032 Clouds 2 1015 85 0 0.76 198.102 17:21 30.09.2019
1033 Clouds 2 1015 85 0 0.76 198.102 16:55 30.09.2019
1034 Clouds 2 1015 85 0 0.76 198.102 16:37 30.09.2019
1035 Clouds 2 1015 85 0 0.76 198.102 16:18 30.09.2019
1036 Clouds 2 1015 85 0 0.76 198.102 15:55 30.09.2019
1037 Clouds 2 1015 85 0 0.76 198.102 15:55 30.09.2019
1038 Clouds 2 1015 85 0 0.76 198.102 15:36 30.09.2019
1039 Clouds 4 1011 73 0 2.47 231.054 15:18 30.09.2019
1040 Clouds 4 1011 73 0 2.47 231.054 14:55 30.09.2019
1041 Clouds 4 1011 73 0 2.47 231.054 14:36 30.09.2019
1042 Clouds 4 1011 73 0 2.47 231.054 14:18 30.09.2019
1043 Clouds 4 1011 73 0 2.47 231.054 13:44 30.09.2019
1044 Clouds 4 1011 73 0 2.65 236.088 13:22 30.09.2019
1045 Clouds 4 1011 73 0 2.65 236.088 12:58 30.09.2019
1046 Clouds 4 1011 73 0 2.65 236.088 12:40 30.09.2019
1047 Rain 6 1011 68 0 2.88 232.16 12:20 30.09.2019
1048 Rain 6 1011 68 0 2.88 232.16 11:43 30.09.2019
1049 Rain 6 1011 68 0 2.88 232.16 11:22 30.09.2019
1050 Rain 6 1011 68 0 2.88 232.16 10:59 30.09.2019
1051 Rain 6 1011 68 0 2.88 232.16 10:39 30.09.2019
1052 Rain 6 1011 68 0 2.88 232.16 10:19 30.09.2019
1053 Rain 6 1011 68 0 2.88 232.16 10:19 30.09.2019
1054 Rain 6 1011 68 0 2.88 232.16 09:58 30.09.2019
1055 Rain 6 1011 68 0 2.88 232.16 09:39 30.09.2019
1056 Clouds 6 1015 59 0 2.32 225.122 09:20 30.09.2019
1057 Clouds 6 1015 59 0 2.32 225.122 08:46 30.09.2019
1058 Clear 7 1016 49 0 2.26 222.47 08:28 30.09.2019
1059 Clear 7 1016 49 0 2.26 222.47 07:44 30.09.2019
1060 Clear 7 1016 49 0 2.26 222.47 07:26 30.09.2019
1061 Clear 7 1016 49 0 2.26 222.47 06:56 30.09.2019
1062 Clear 7 1016 49 0 2.26 222.47 06:33 30.09.2019
1063 Clear 3 1017 65 0 0.85 132.805 05:47 30.09.2019
1064 Clear 3 1017 65 0 0.85 132.805 05:47 30.09.2019
1065 Clear 3 1017 65 0 0.85 132.805 05:47 30.09.2019
1066 Clear 3 1017 65 0 0.85 132.805 04:32 30.09.2019
1067 Clouds 0 1016 87 0 0.54 28.047 02:48 30.09.2019
1068 Clouds 0 1017 88 0 0.46 342.953 01:37 30.09.2019
1069 Clouds 0 1017 88 0 0.46 342.953 00:42 30.09.2019
1070 Clouds 1 1017 86 0 0.62 279.917 00:22 30.09.2019
1071 Clouds 1 1017 86 0 0.62 279.917 23:47 29.09.2019
1072 Clouds 1 1017 86 0 0.62 279.917 23:27 29.09.2019
1073 Clouds 1 1017 86 0 0.62 279.917 22:59 29.09.2019
1074 Clouds 1 1017 86 0 0.62 279.917 22:41 29.09.2019
1075 Clouds 1 1017 86 0 0.62 279.917 22:23 29.09.2019
1076 Clouds 1 1017 86 0 0.62 279.917 21:58 29.09.2019
1077 Clouds 1 1017 86 0 0.62 279.917 21:37 29.09.2019
1078 Clouds 3 1018 71 0 1.62 202.097 21:19 29.09.2019
1079 Clouds 3 1018 71 0 1.62 202.097 20:45 29.09.2019
1080 Clouds 2 1018 87 0 1.51 210.089 20:20 29.09.2019
1081 Clouds 2 1018 87 0 1.51 210.089 20:20 29.09.2019
1082 Clouds 2 1018 87 0 1.51 210.089 19:59 29.09.2019
1083 Clouds 2 1018 87 0 1.51 210.089 19:38 29.09.2019
1084 Clouds 2 1018 87 0 1.51 210.089 19:19 29.09.2019
1085 Clouds 2 1018 87 0 1.51 210.089 18:56 29.09.2019
1086 Clouds 2 1018 87 0 1.51 210.089 18:56 29.09.2019
1087 Clouds 2 1018 87 0 1.51 210.089 18:38 29.09.2019
1088 Clouds 3 1017 77 0 1.44 219.18 18:19 29.09.2019
1089 Clouds 3 1017 77 0 1.44 219.18 17:59 29.09.2019
1090 Clouds 3 1017 77 0 1.44 219.18 17:40 29.09.2019
1091 Clouds 3 1017 77 0 1.44 219.18 17:40 29.09.2019
1092 Clouds 3 1017 77 0 1.44 219.18 17:20 29.09.2019
1093 Clouds 3 1017 77 0 1.44 219.18 16:59 29.09.2019
1094 Clouds 3 1017 77 0 1.44 219.18 16:40 29.09.2019
1095 Clouds 3 1017 77 0 1.44 219.18 16:19 29.09.2019
1096 Clouds 3 1017 77 0 1.44 219.18 16:19 29.09.2019
1097 Clouds 3 1017 77 0 1.44 219.18 15:57 29.09.2019
1098 Clouds 3 1017 77 0 1.44 219.18 15:37 29.09.2019
1099 Rain 5 1014 76 0 2.47 226.412 15:18 29.09.2019
1100 Rain 5 1014 76 0 2.47 226.412 14:56 29.09.2019
1101 Rain 5 1014 76 0 2.47 226.412 14:37 29.09.2019
1102 Rain 5 1014 76 0 2.47 226.412 14:18 29.09.2019
1103 Rain 5 1014 76 0 2.47 226.412 13:55 29.09.2019
1104 Rain 5 1014 76 0 2.47 226.412 13:36 29.09.2019
1105 Rain 4 1014 79 0 2.39 227.254 13:18 29.09.2019
1106 Rain 4 1014 79 0 2.39 227.254 12:55 29.09.2019
1107 Rain 4 1014 79 0 2.39 227.254 12:55 29.09.2019
1108 Rain 4 1014 79 0 2.39 227.254 12:37 29.09.2019
1109 Rain 7 1014 60 0 2.88 226.578 12:18 29.09.2019
1110 Rain 7 1014 60 0 2.88 226.578 11:41 29.09.2019
1111 Rain 7 1014 60 0 2.88 226.578 11:19 29.09.2019
1112 Rain 7 1014 60 0 2.88 226.578 10:58 29.09.2019
1113 Rain 7 1014 60 0 2.88 226.578 10:58 29.09.2019
1114 Rain 7 1014 60 0 2.88 226.578 10:38 29.09.2019
1115 Rain 7 1014 60 0 2.88 226.578 10:20 29.09.2019
1116 Rain 7 1014 60 0 2.88 226.578 09:57 29.09.2019
1117 Rain 7 1014 60 0 2.88 226.578 09:38 29.09.2019
1118 Clear 8 1016 41 0 1.86 242.4 09:18 29.09.2019
1119 Clear 8 1016 41 0 1.86 242.4 08:42 29.09.2019
1120 Clear 8 1016 43 0 1.43 232.458 08:21 29.09.2019
1121 Clear 8 1016 43 0 1.43 232.458 07:43 29.09.2019
1122 Clear 8 1016 43 0 1.43 232.458 07:25 29.09.2019
1123 Clear 8 1016 43 0 1.43 232.458 06:49 29.09.2019
1124 Clear 4 1019 60 0 0.46 137.049 05:58 29.09.2019
1125 Clear 4 1019 60 0 0.46 137.049 04:45 29.09.2019
1126 Clear 4 1019 60 0 0.46 137.049 04:45 29.09.2019
1127 Clear 4 1019 60 0 0.46 137.049 04:23 29.09.2019
1128 Clear 0 1018 84 0 0.6 341.807 02:58 29.09.2019
1129 Clear 0 1018 84 0 0.6 341.807 02:19 29.09.2019
1130 Clear 0 1018 84 0 0.6 341.807 01:42 29.09.2019
1131 Clear 0 1018 88 0 0.44 307.466 00:59 29.09.2019
1132 Clear 0 1018 88 0 0.44 307.466 00:59 29.09.2019
1133 Clear 0 1018 88 0 0.44 307.466 00:40 29.09.2019
1134 Clouds 2 1017 89 0 0.64 268.921 00:19 29.09.2019
1135 Clouds 2 1017 89 0 0.64 268.921 00:19 29.09.2019
1136 Clouds 2 1017 89 0 0.64 268.921 23:38 28.09.2019
1137 Clouds 2 1017 89 0 0.64 268.921 23:19 28.09.2019
1138 Clouds 2 1017 89 0 0.64 268.921 22:40 28.09.2019
1139 Clouds 2 1017 89 0 0.64 268.921 22:22 28.09.2019
1140 Clouds 2 1017 89 0 0.64 268.921 21:58 28.09.2019
1141 Clouds 2 1017 89 0 0.64 268.921 21:58 28.09.2019
1142 Clouds 2 1017 89 0 0.64 268.921 21:40 28.09.2019
1143 Clear 2 1017 87 0 0.79 201.006 21:21 28.09.2019
1144 Clear 2 1017 87 0 0.79 201.006 20:58 28.09.2019
1145 Clear 2 1017 87 0 0.79 201.006 20:58 28.09.2019
1146 Clouds 3 1017 90 0 1.15 233.789 20:39 28.09.2019
1147 Clouds 3 1017 90 0 1.15 233.789 20:20 28.09.2019
1148 Clouds 3 1017 90 0 1.15 233.789 19:57 28.09.2019
1149 Clouds 3 1017 90 0 1.15 233.789 19:38 28.09.2019
1150 Clouds 3 1017 90 0 1.15 233.789 19:20 28.09.2019
1151 Clouds 3 1017 90 0 1.15 233.789 18:57 28.09.2019
1152 Clouds 3 1017 90 0 1.15 233.789 18:39 28.09.2019
1153 Rain 4 1016 85 0 0.84 194.601 18:20 28.09.2019
1154 Rain 4 1016 85 0 0.84 194.601 17:56 28.09.2019
1155 Rain 4 1016 85 0 0.84 194.601 17:37 28.09.2019
1156 Rain 4 1016 85 0 0.84 194.601 17:19 28.09.2019
1157 Rain 4 1016 85 0 0.84 194.601 16:43 28.09.2019
1158 Rain 4 1016 85 0 0.84 194.601 16:25 28.09.2019
1159 Rain 4 1016 85 0 0.84 194.601 15:42 28.09.2019
1160 Rain 4 1016 85 0 0.84 194.601 15:42 28.09.2019
1161 Rain 6 1012 73 0 1.94 234.387 15:23 28.09.2019
1162 Rain 6 1012 73 0 1.94 234.387 14:58 28.09.2019
1163 Rain 6 1012 73 0 1.94 234.387 14:40 28.09.2019
1164 Rain 6 1012 73 0 1.94 234.387 14:21 28.09.2019
1165 Rain 6 1012 73 0 1.94 234.387 13:58 28.09.2019
1166 Rain 6 1012 73 0 1.94 234.387 13:38 28.09.2019
1167 Rain 6 1012 71 0 1.83 238.22 13:20 28.09.2019
1168 Rain 6 1012 71 0 1.83 238.22 12:45 28.09.2019
1169 Rain 8 1011 64 0 2.61 234.052 12:20 28.09.2019
1170 Rain 8 1011 64 0 2.61 234.052 11:59 28.09.2019
1171 Rain 8 1011 64 0 2.61 234.052 11:40 28.09.2019
1172 Rain 8 1011 64 0 2.61 234.052 11:19 28.09.2019
1173 Rain 8 1011 64 0 2.61 234.052 10:44 28.09.2019
1174 Rain 8 1011 64 0 2.61 234.052 10:21 28.09.2019
1175 Rain 8 1011 64 0 2.61 234.052 09:58 28.09.2019
1176 Rain 8 1011 64 0 2.61 234.052 09:58 28.09.2019
1177 Rain 8 1011 64 0 2.61 234.052 09:40 28.09.2019
1178 Rain 8 1013 60 0 2.67 213.297 09:18 28.09.2019
1179 Rain 8 1013 60 0 2.67 213.297 08:47 28.09.2019
1180 Rain 8 1014 56 0 2.38 219.093 08:29 28.09.2019
1181 Rain 8 1014 56 0 2.38 219.093 07:56 28.09.2019
1182 Rain 8 1014 56 0 2.38 219.093 07:38 28.09.2019
1183 Rain 8 1014 56 0 2.38 219.093 07:18 28.09.2019
1184 Rain 8 1014 56 0 2.38 219.093 06:37 28.09.2019
1185 Clouds 5 1017 65 0 0.58 267.415 06:19 28.09.2019
1186 Clouds 5 1017 65 0 0.58 267.415 05:25 28.09.2019
1187 Clouds 5 1017 65 0 0.58 267.415 04:54 28.09.2019
1188 Clouds 5 1017 65 0 0.58 267.415 04:29 28.09.2019
1189 Clouds 5 1017 65 0 0.58 267.415 03:35 28.09.2019
1190 Clouds 4 1016 77 0 0.68 272.549 02:58 28.09.2019
1191 Clouds 4 1016 77 0 0.68 272.549 02:40 28.09.2019
1192 Clouds 4 1016 77 0 0.68 272.549 02:19 28.09.2019
1193 Clouds 4 1016 77 0 0.68 272.549 01:42 28.09.2019
1194 Clouds 4 1016 70 0 0.36 240.018 01:19 28.09.2019
1195 Clouds 4 1016 70 0 0.36 240.018 00:45 28.09.2019
1196 Clouds 4 1016 70 0 0.36 240.018 00:27 28.09.2019
1197 Clouds 4 1017 83 0 1.15 213.8 23:39 27.09.2019
1198 Clouds 4 1017 83 0 1.15 213.8 23:21 27.09.2019
1199 Clouds 4 1017 83 0 1.15 213.8 22:56 27.09.2019
1200 Clouds 4 1017 83 0 1.15 213.8 22:37 27.09.2019
1201 Clouds 4 1017 83 0 1.15 213.8 22:18 27.09.2019
1202 Clouds 4 1017 83 0 1.15 213.8 21:41 27.09.2019
1203 Clouds 3 1017 88 0 1.16 178.465 21:21 27.09.2019
1204 Clouds 3 1017 88 0 1.16 178.465 20:59 27.09.2019
1205 Clouds 4 1017 88 0 0.91 216.166 20:40 27.09.2019
1206 Clouds 4 1017 88 0 0.91 216.166 20:20 27.09.2019
1207 Clouds 4 1017 88 0 0.91 216.166 19:58 27.09.2019
1208 Clouds 4 1017 88 0 0.91 216.166 19:39 27.09.2019
1209 Clouds 4 1017 88 0 0.91 216.166 19:21 27.09.2019
1210 Clouds 4 1017 88 0 0.91 216.166 18:43 27.09.2019
1211 Clouds 4 1017 88 0 0.91 216.166 18:25 27.09.2019
1212 Clouds 4 1017 88 0 0.91 216.166 18:24 27.09.2019
1213 Rain 5 1016 83 0 1.04 215.557 17:57 27.09.2019
1214 Rain 5 1016 83 0 1.04 215.557 17:39 27.09.2019
1215 Rain 5 1016 83 0 1.04 215.557 17:20 27.09.2019
1216 Rain 5 1016 83 0 1.04 215.557 16:57 27.09.2019
1217 Rain 5 1016 83 0 1.04 215.557 16:39 27.09.2019
1218 Rain 5 1016 83 0 1.04 215.557 16:18 27.09.2019
1219 Rain 5 1016 83 0 1.04 215.557 15:47 27.09.2019
1220 Rain 7 1014 74 0 1.96 221.351 15:21 27.09.2019
1221 Rain 7 1014 74 0 1.96 221.351 14:59 27.09.2019
1222 Rain 7 1014 74 0 1.96 221.351 14:41 27.09.2019
1223 Rain 7 1014 74 0 1.96 221.351 14:23 27.09.2019
1224 Rain 7 1014 74 0 1.96 221.351 13:58 27.09.2019
1225 Rain 7 1014 74 0 1.96 221.351 13:40 27.09.2019
1226 Rain 8 1013 69 0 1.72 224.718 13:21 27.09.2019
1227 Rain 8 1013 69 0 1.72 224.718 12:56 27.09.2019
1228 Rain 8 1013 69 0 1.72 224.718 12:37 27.09.2019
1229 Rain 10 1013 55 0 2.3 240.295 12:18 27.09.2019
1230 Rain 10 1013 55 0 2.3 240.295 11:39 27.09.2019
1231 Rain 10 1013 55 0 2.3 240.295 11:39 27.09.2019
1232 Rain 10 1013 55 0 2.3 240.295 11:39 27.09.2019
1233 Rain 10 1013 55 0 2.3 240.295 11:20 27.09.2019
1234 Rain 10 1013 55 0 2.3 240.295 10:55 27.09.2019
1235 Rain 10 1013 55 0 2.3 240.295 10:37 27.09.2019
1236 Rain 10 1013 55 0 2.3 240.295 10:37 27.09.2019
1237 Rain 10 1013 55 0 2.3 240.295 10:37 27.09.2019
1238 Rain 10 1013 55 0 2.3 240.295 10:18 27.09.2019
1239 Rain 10 1013 55 0 2.3 240.295 09:41 27.09.2019
1240 Clouds 9 1017 47 0 1.55 241.669 09:20 27.09.2019
1241 Clouds 9 1017 47 0 1.55 241.669 08:57 27.09.2019
1242 Clouds 9 1018 43 0 1.3 242.568 08:37 27.09.2019
1243 Clouds 9 1018 43 0 1.3 242.568 08:19 27.09.2019
1244 Clouds 9 1018 43 0 1.3 242.568 07:45 27.09.2019
1245 Clouds 9 1018 43 0 1.3 242.568 07:22 27.09.2019
1246 Clouds 9 1018 43 0 1.3 242.568 06:42 27.09.2019
1247 Clouds 5 1020 66 0 0.74 293.567 06:23 27.09.2019
1248 Clouds 5 1020 66 0 0.74 293.567 05:49 27.09.2019
1249 Clouds 5 1020 66 0 0.74 293.567 05:31 27.09.2019
1250 Clouds 5 1020 66 0 0.74 293.567 03:54 27.09.2019
1251 Clear 1 1020 89 0 0.73 300.706 01:59 27.09.2019
1252 Clear 1 1020 89 0 0.73 300.706 01:37 27.09.2019
1253 Clear 2 1019 90 0 0.86 301.237 00:59 27.09.2019
1254 Clear 3 1019 89 0 0.62 265.849 00:19 27.09.2019
1255 Clear 3 1019 89 0 0.62 265.849 23:56 26.09.2019
1256 Clear 3 1019 89 0 0.62 265.849 23:37 26.09.2019
1257 Clear 3 1019 89 0 0.62 265.849 23:18 26.09.2019
1258 Clear 3 1019 89 0 0.62 265.849 22:55 26.09.2019
1259 Clear 3 1019 89 0 0.62 265.849 22:55 26.09.2019
1260 Clear 3 1019 89 0 0.62 265.849 22:37 26.09.2019
1261 Clear 3 1019 89 0 0.62 265.849 22:18 26.09.2019
1262 Clear 3 1019 89 0 0.62 265.849 22:18 26.09.2019
1263 Clear 3 1019 89 0 0.62 265.849 21:55 26.09.2019
1264 Clear 3 1019 89 0 0.62 265.849 21:36 26.09.2019
1265 Clear 4 1019 88 0 0.75 214.83 21:18 26.09.2019
1266 Clear 4 1019 88 0 0.75 214.83 21:18 26.09.2019
1267 Clear 4 1019 90 0 1.09 211.514 20:56 26.09.2019
1268 Clear 4 1019 90 0 1.09 211.514 20:38 26.09.2019
1269 Clear 4 1019 90 0 1.09 211.514 20:20 26.09.2019
1270 Clear 4 1019 90 0 1.09 211.514 19:40 26.09.2019
1271 Clear 4 1019 90 0 1.09 211.514 19:19 26.09.2019
1272 Clear 4 1019 90 0 1.09 211.514 18:59 26.09.2019
1273 Clear 4 1019 90 0 1.09 211.514 18:59 26.09.2019
1274 Clear 4 1019 90 0 1.09 211.514 18:39 26.09.2019
1275 Rain 5 1018 85 0 1.34 222.969 18:21 26.09.2019
1276 Rain 5 1018 85 0 1.34 222.969 17:57 26.09.2019
1277 Rain 5 1018 85 0 1.34 222.969 17:37 26.09.2019
1278 Rain 5 1018 85 0 1.34 222.969 17:18 26.09.2019
1279 Rain 5 1018 85 0 1.34 222.969 16:40 26.09.2019
1280 Rain 5 1018 85 0 1.34 222.969 16:21 26.09.2019
1281 Rain 5 1018 85 0 1.34 222.969 16:21 26.09.2019
1282 Rain 5 1018 85 0 1.34 222.969 15:59 26.09.2019
1283 Rain 5 1018 85 0 1.34 222.969 15:38 26.09.2019
1284 Rain 5 1018 85 0 1.34 222.969 15:38 26.09.2019
1285 Rain 8 1015 69 0 1.88 223.229 15:20 26.09.2019
1286 Rain 8 1015 69 0 1.88 223.229 14:57 26.09.2019
1287 Rain 8 1015 69 0 1.88 223.229 14:38 26.09.2019
1288 Rain 8 1015 69 0 1.88 223.229 14:20 26.09.2019
1289 Rain 8 1015 69 0 1.88 223.229 13:54 26.09.2019
1290 Rain 8 1015 69 0 1.88 223.229 13:36 26.09.2019
1291 Rain 8 1014 67 0 1.54 234.898 13:18 26.09.2019
1292 Rain 8 1014 67 0 1.54 234.898 12:41 26.09.2019
1293 Clear 12 1016 40 0 2.2 239.103 12:21 26.09.2019
1294 -273 0 0 0 0 0 11:55 26.09.2019
1295 Clear 12 1016 40 0 2.2 239.103 11:55 26.09.2019
1296 Clear 12 1016 40 0 2.2 239.103 11:36 26.09.2019
1297 Clear 12 1016 40 0 2.2 239.103 11:18 26.09.2019
1298 Clear 12 1016 40 0 2.2 239.103 10:42 26.09.2019
1299 Clear 12 1016 40 0 2.2 239.103 10:23 26.09.2019
1300 Clear 12 1016 40 0 2.2 239.103 09:57 26.09.2019
1301 Clear 12 1016 40 0 2.2 239.103 09:39 26.09.2019
1302 Clear 10 1019 41 0 1.69 257.556 09:18 26.09.2019
1303 Clear 10 1020 39 0 1.39 255.193 08:47 26.09.2019
1304 Clear 10 1020 39 0 1.39 255.193 08:29 26.09.2019
1305 Clear 10 1020 39 0 1.39 255.193 07:45 26.09.2019
1306 Clear 10 1020 39 0 1.39 255.193 07:22 26.09.2019
1307 Clear 10 1020 39 0 1.39 255.193 06:50 26.09.2019
1308 Clear 10 1020 39 0 1.39 255.193 06:28 26.09.2019
1309 Clear 6 1023 67 0 0.29 258.041 05:52 26.09.2019
1310 Clear 6 1023 67 0 0.29 258.041 05:26 26.09.2019
1311 Clear 6 1023 67 0 0.29 258.041 03:27 26.09.2019
1312 Clouds 3 1022 84 0 0.16 201.997 01:56 26.09.2019
1313 Clouds 3 1022 84 0 0.16 201.997 01:38 26.09.2019
1314 Clouds 3 1022 84 0 0.57 250.988 01:19 26.09.2019
1315 Clouds 3 1022 84 0 0.57 250.988 00:41 26.09.2019
1316 Clouds 4 1021 90 0 0.83 235.014 00:21 26.09.2019
1317 Clouds 4 1021 90 0 0.83 235.014 23:43 25.09.2019
1318 Clouds 4 1021 90 0 0.83 235.014 23:19 25.09.2019
1319 Clouds 4 1021 90 0 0.83 235.014 22:54 25.09.2019
1320 Clouds 4 1021 90 0 0.83 235.014 22:36 25.09.2019
1321 Clouds 4 1021 90 0 0.83 235.014 22:18 25.09.2019
1322 Clouds 4 1021 90 0 0.83 235.014 21:55 25.09.2019
1323 Clouds 4 1021 90 0 0.83 235.014 21:36 25.09.2019
1324 Clouds 4 1020 92 0 1.18 204.799 21:18 25.09.2019
1325 Clouds 4 1020 92 0 1.18 204.799 20:55 25.09.2019
1326 Clouds 4 1020 94 0 1.49 225.409 20:37 25.09.2019
1327 Clouds 4 1020 94 0 1.49 225.409 20:18 25.09.2019
1328 Clouds 4 1020 94 0 1.49 225.409 19:38 25.09.2019
1329 Clouds 4 1020 94 0 1.49 225.409 19:20 25.09.2019
1330 Clouds 4 1020 94 0 1.49 225.409 18:56 25.09.2019
1331 Clouds 4 1020 94 0 1.49 225.409 18:56 25.09.2019
1332 Clouds 4 1020 94 0 1.49 225.409 18:37 25.09.2019
1333 Rain 6 1019 90 0 1.28 221.455 18:18 25.09.2019
1334 Rain 6 1019 90 0 1.28 221.455 17:40 25.09.2019
1335 Rain 6 1019 90 0 1.28 221.455 17:21 25.09.2019
1336 Rain 6 1019 90 0 1.28 221.455 16:57 25.09.2019
1337 Rain 6 1019 90 0 1.28 221.455 16:38 25.09.2019
1338 Rain 6 1019 90 0 1.28 221.455 16:19 25.09.2019
1339 Rain 6 1019 90 0 1.28 221.455 15:55 25.09.2019
1340 Rain 6 1019 90 0 1.28 221.455 15:55 25.09.2019
1341 Rain 6 1019 90 0 1.28 221.455 15:36 25.09.2019
1342 Rain 9 1016 69 0 1.65 227.453 15:18 25.09.2019
1343 Rain 9 1016 69 0 1.65 227.453 14:41 25.09.2019
1344 Rain 9 1016 69 0 1.65 227.453 14:22 25.09.2019
1345 Rain 9 1016 69 0 1.65 227.453 13:57 25.09.2019
1346 Rain 9 1016 69 0 1.65 227.453 13:57 25.09.2019
1347 Rain 9 1016 69 0 1.65 227.453 13:39 25.09.2019
1348 Rain 9 1016 69 0 1.68 226.493 13:20 25.09.2019
1349 Rain 9 1016 69 0 1.68 226.493 12:44 25.09.2019
1350 Rain 9 1016 69 0 1.68 226.493 12:44 25.09.2019
1351 Rain 9 1016 69 0 1.68 226.493 12:25 25.09.2019
1352 Clear 12 1016 42 0 2.52 228.763 11:59 25.09.2019
1353 Clear 12 1016 42 0 2.52 228.763 11:40 25.09.2019
1354 Clear 12 1016 42 0 2.52 228.763 11:20 25.09.2019
1355 Clear 12 1016 42 0 2.52 228.763 10:46 25.09.2019
1356 Clear 12 1016 42 0 2.52 228.763 10:26 25.09.2019
1357 Clear 12 1016 42 0 2.52 228.763 09:59 25.09.2019
1358 Clear 12 1016 42 0 2.52 228.763 09:40 25.09.2019
1359 Clear 10 1019 47 0 1.55 229.443 09:22 25.09.2019
1360 Clear 11 1019 45 0 1.44 217.245 08:56 25.09.2019
1361 Clear 11 1019 45 0 1.44 217.245 08:56 25.09.2019
1362 Clear 11 1019 45 0 1.44 217.245 08:37 25.09.2019
1363 Clear 11 1019 45 0 1.44 217.245 08:19 25.09.2019
1364 Clear 11 1019 45 0 1.44 217.245 07:40 25.09.2019
1365 Clear 11 1019 45 0 1.44 217.245 07:22 25.09.2019
1366 Clear 11 1019 45 0 1.44 217.245 06:55 25.09.2019
1367 Clear 11 1019 45 0 1.44 217.245 06:32 25.09.2019
1368 Clear 6 1021 73 0 0.44 124.728 05:43 25.09.2019
1369 Clear 6 1021 73 0 0.44 124.728 04:58 25.09.2019
1370 Clear 1 1019 95 0 0.37 132.895 02:32 25.09.2019
1371 Clear 1 1019 94 0 0.06 79.778 01:29 25.09.2019
1372 Clear 1 1019 94 0 0.06 79.778 00:37 25.09.2019
1373 Clear 2 1018 93 0 0.61 166.512 00:19 25.09.2019
1374 Clear 2 1018 93 0 0.61 166.512 23:41 24.09.2019
1375 Clear 2 1018 93 0 0.61 166.512 23:22 24.09.2019
1376 Clear 2 1018 93 0 0.61 166.512 22:56 24.09.2019
1377 Clear 2 1018 93 0 0.61 166.512 22:38 24.09.2019
1378 Clear 2 1018 93 0 0.61 166.512 22:18 24.09.2019
1379 Clear 3 1019 92 0 0.53 195.886 21:55 24.09.2019
1380 Clear 3 1019 92 0 0.53 195.886 21:36 24.09.2019
1381 Clear 4 1018 90 0 0.65 198.913 21:18 24.09.2019
1382 Clear 4 1018 90 0 0.65 198.913 20:55 24.09.2019
1383 Clear 4 1018 90 0 0.65 198.913 20:37 24.09.2019
1384 Clear 4 1018 90 0 0.65 198.913 20:18 24.09.2019
1385 Clear 4 1018 90 0 0.65 198.913 19:42 24.09.2019
1386 Clear 4 1018 90 0 0.65 198.913 19:19 24.09.2019
1387 Clear 4 1018 90 0 0.65 198.913 19:19 24.09.2019
1388 Clear 4 1018 90 0 0.65 198.913 18:57 24.09.2019
1389 Clear 4 1018 90 0 0.65 198.913 18:57 24.09.2019
1390 Clear 4 1018 90 0 0.65 198.913 18:39 24.09.2019
1391 Clear 6 1018 87 0 0.33 294.922 18:20 24.09.2019
1392 Clear 6 1018 87 0 0.33 294.922 17:56 24.09.2019
1393 Clear 6 1018 87 0 0.33 294.922 17:37 24.09.2019
1394 Clear 6 1018 87 0 0.33 294.922 17:19 24.09.2019
1395 Clear 6 1018 87 0 0.33 294.922 16:42 24.09.2019
1396 Clear 6 1018 87 0 0.33 294.922 16:21 24.09.2019
1397 Clear 6 1018 87 0 0.33 294.922 15:58 24.09.2019
1398 Clear 6 1018 87 0 0.33 294.922 15:40 24.09.2019
1399 Rain 9 1015 65 0 1.46 247.029 15:21 24.09.2019
1400 Rain 9 1015 65 0 1.46 247.029 14:40 24.09.2019
1401 Rain 9 1015 65 0 1.46 247.029 14:19 24.09.2019
1402 Rain 9 1015 65 0 1.46 247.029 13:45 24.09.2019
1403 Clear 10 1014 58 0 1.49 244.881 13:23 24.09.2019
1404 Clear 10 1014 58 0 1.49 244.881 12:59 24.09.2019
1405 Clear 10 1014 58 0 1.49 244.881 12:39 24.09.2019
1406 Clear 13 1015 35 0 2.45 227.267 12:18 24.09.2019
1407 Clear 13 1015 35 0 2.45 227.267 11:42 24.09.2019
1408 Clear 13 1015 35 0 2.45 227.267 11:21 24.09.2019
1409 Clear 13 1015 35 0 2.45 227.267 10:56 24.09.2019
1410 Clear 13 1015 35 0 2.45 227.267 10:36 24.09.2019
1411 Clear 13 1015 35 0 2.45 227.267 10:18 24.09.2019
1412 Clear 13 1015 35 0 2.45 227.267 09:45 24.09.2019
1413 Clear 13 1015 35 0 2.45 227.267 09:27 24.09.2019
1414 Clear 11 1018 22 0 1.26 216.217 08:57 24.09.2019
1415 Clear 12 1018 20 0 1.18 191.234 08:38 24.09.2019
1416 Clear 12 1018 20 0 1.18 191.234 08:19 24.09.2019
1417 Clear 12 1018 20 0 1.18 191.234 08:19 24.09.2019
1418 Clear 12 1018 20 0 1.18 191.234 07:47 24.09.2019
1419 Clear 12 1018 20 0 1.18 191.234 07:25 24.09.2019
1420 Clear 12 1018 20 0 1.18 191.234 06:57 24.09.2019
1421 Clear 12 1018 20 0 1.18 191.234 06:36 24.09.2019
1422 Clear 7 1020 36 0 0.53 102.352 05:51 24.09.2019
1423 Clear 7 1020 36 0 0.53 102.352 05:20 24.09.2019
1424 Clear 7 1020 36 0 0.53 102.352 03:45 24.09.2019
1425 Clear 1 1019 75 0 0.55 34.358 02:57 24.09.2019
1426 Clear 1 1019 75 0 0.55 34.358 02:38 24.09.2019
1427 Clear 1 1019 75 0 0.55 34.358 01:39 24.09.2019
1428 Clear 1 1019 72 0 0.73 29.764 00:38 24.09.2019
1429 Clear 2 1019 77 0 0.77 232.413 00:19 24.09.2019
1430 Clear 2 1019 77 0 0.77 232.413 23:40 23.09.2019
1431 Clear 2 1019 77 0 0.77 232.413 23:21 23.09.2019
1432 Clear 2 1019 77 0 0.77 232.413 22:40 23.09.2019
1433 Clear 2 1019 77 0 0.77 232.413 22:21 23.09.2019
1434 Clear 2 1019 77 0 0.77 232.413 21:58 23.09.2019
1435 Clear 2 1019 77 0 0.77 232.413 21:40 23.09.2019
1436 Clear 3 1018 78 0 0.68 222.274 21:20 23.09.2019
1437 Clear 3 1018 78 0 0.68 222.274 20:56 23.09.2019
1438 Clear 3 1018 72 0 0.66 216.472 20:37 23.09.2019
1439 Clear 3 1018 72 0 0.66 216.472 20:18 23.09.2019
1440 Clear 3 1018 72 0 0.66 216.472 19:39 23.09.2019
1441 Clear 3 1018 72 0 0.66 216.472 19:21 23.09.2019
1442 Clear 3 1018 72 0 0.66 216.472 18:58 23.09.2019
1443 Clear 3 1018 72 0 0.66 216.472 18:39 23.09.2019
1444 Clear 5 1017 80 0 0.49 324.476 18:18 23.09.2019
1445 Clear 5 1017 80 0 0.49 324.476 17:56 23.09.2019
1446 Clear 5 1017 80 0 0.49 324.476 17:37 23.09.2019
1447 Clear 5 1017 80 0 0.49 324.476 17:19 23.09.2019
1448 Clear 5 1017 80 0 0.49 324.476 16:54 23.09.2019
1449 Clear 5 1017 80 0 0.49 324.476 16:36 23.09.2019
1450 Clear 5 1017 80 0 0.49 324.476 16:18 23.09.2019
1451 Clear 5 1017 80 0 0.49 324.476 15:54 23.09.2019
1452 Clear 5 1017 80 0 0.49 324.476 15:36 23.09.2019
1453 Clear 9 1014 51 0 2.12 235.958 15:18 23.09.2019
1454 Clear 9 1014 51 0 2.12 235.958 14:39 23.09.2019
1455 Clear 9 1014 51 0 2.12 235.958 14:20 23.09.2019
1456 Clear 9 1014 51 0 2.12 235.958 13:58 23.09.2019
1457 Clear 9 1014 51 0 2.12 235.958 13:37 23.09.2019
1458 Clear 10 1014 48 0 2.14 236.406 13:18 23.09.2019
1459 Clear 10 1014 48 0 2.14 236.406 12:43 23.09.2019
1460 Clear 13 1015 24 0 0.95 249.057 12:22 23.09.2019
1461 Clear 13 1015 24 0 0.95 249.057 11:57 23.09.2019
1462 Clear 13 1015 24 0 0.95 249.057 11:39 23.09.2019
1463 Clear 13 1015 24 0 0.95 249.057 11:20 23.09.2019
1464 Clear 13 1015 24 0 0.95 249.057 10:49 23.09.2019
1465 Clear 13 1015 24 0 0.95 249.057 10:21 23.09.2019
1466 Clear 13 1015 24 0 0.95 249.057 09:56 23.09.2019
1467 Clear 13 1015 24 0 0.95 249.057 09:37 23.09.2019
1468 Clear 13 1015 24 0 0.95 249.057 09:37 23.09.2019
1469 Clear 11 1018 25 0 0.5 231.696 09:19 23.09.2019
1470 Clear 11 1018 25 0 0.5 231.696 09:19 23.09.2019
1471 Clear 11 1018 25 0 0.5 231.696 08:44 23.09.2019
1472 Clear 11 1018 26 0 0.51 178.08 08:25 23.09.2019
1473 Clear 11 1018 26 0 0.51 178.08 07:47 23.09.2019
1474 Clear 11 1018 26 0 0.51 178.08 07:27 23.09.2019
1475 Clear 11 1018 26 0 0.51 178.08 06:31 23.09.2019
1476 Clear 6 1020 49 0 0.7 110.144 05:48 23.09.2019
1477 Clear 6 1020 49 0 0.7 110.144 05:20 23.09.2019
1478 Clear 6 1020 49 0 0.7 110.144 04:54 23.09.2019
1479 Clear 0 1020 88 0 0.53 98.763 02:37 23.09.2019
1480 Clear 0 1020 86 0 0.34 85.001 00:43 23.09.2019
1481 Clear 1 1019 87 0 0.39 208.913 00:22 23.09.2019
1482 Clear 1 1019 87 0 0.39 208.913 23:51 22.09.2019
1483 Clear 1 1019 87 0 0.39 208.913 23:32 22.09.2019
1484 Clear 1 1019 87 0 0.39 208.913 22:58 22.09.2019
1485 Clear 1 1019 87 0 0.39 208.913 22:40 22.09.2019
1486 Clear 1 1019 87 0 0.39 208.913 22:21 22.09.2019
1487 Clear 1 1019 87 0 0.39 208.913 21:43 22.09.2019
1488 Clouds 3 1018 84 0 0.54 251.093 21:22 22.09.2019
1489 Clouds 3 1018 84 0 0.54 251.093 21:22 22.09.2019
1490 Clouds 3 1018 84 0 0.54 251.093 20:58 22.09.2019
1491 Clouds 3 1018 84 0 0.54 251.093 20:40 22.09.2019
1492 Clouds 3 1018 85 0 0.66 227.463 20:22 22.09.2019
1493 Clouds 3 1018 85 0 0.66 227.463 19:41 22.09.2019
1494 Clouds 3 1018 85 0 0.66 227.463 19:23 22.09.2019
1495 Clouds 3 1018 85 0 0.66 227.463 18:59 22.09.2019
1496 Clouds 3 1018 85 0 0.66 227.463 18:39 22.09.2019
1497 Rain 4 1017 82 0 0.74 245.646 18:20 22.09.2019
1498 Rain 4 1017 82 0 0.74 245.646 17:58 22.09.2019
1499 Rain 4 1017 82 0 0.74 245.646 17:40 22.09.2019
1500 Rain 4 1017 82 0 0.74 245.646 17:19 22.09.2019
1501 Rain 4 1017 82 0 0.74 245.646 16:45 22.09.2019
1502 Rain 4 1017 82 0 0.74 245.646 16:26 22.09.2019
1503 Rain 4 1017 82 0 0.74 245.646 15:56 22.09.2019
1504 Rain 4 1017 82 0 0.74 245.646 15:38 22.09.2019
1505 Rain 6 1014 69 0 1.7 226.789 15:19 22.09.2019
1506 Rain 6 1014 69 0 1.7 226.789 14:43 22.09.2019
1507 Rain 6 1014 69 0 1.7 226.789 14:43 22.09.2019
1508 Rain 6 1014 69 0 1.7 226.789 14:25 22.09.2019
1509 Rain 6 1014 69 0 1.7 226.789 13:58 22.09.2019
1510 Rain 6 1014 69 0 1.7 226.789 13:40 22.09.2019
1511 Rain 6 1014 67 0 1.5 236.786 13:21 22.09.2019
1512 Rain 6 1014 67 0 1.5 236.786 12:44 22.09.2019
1513 Rain 8 1014 51 0 2.8 223.352 12:24 22.09.2019
1514 Rain 8 1014 51 0 2.8 223.352 11:59 22.09.2019
1515 Rain 8 1014 51 0 2.8 223.352 11:40 22.09.2019
1516 Rain 8 1014 51 0 2.8 223.352 11:22 22.09.2019
1517 Rain 8 1014 51 0 2.8 223.352 10:45 22.09.2019
1518 Rain 8 1014 51 0 2.8 223.352 10:20 22.09.2019
1519 Rain 8 1014 51 0 2.8 223.352 09:59 22.09.2019
1520 Rain 8 1014 51 0 2.8 223.352 09:40 22.09.2019
1521 Clear 7 1017 43 0 0.62 229.992 09:20 22.09.2019
1522 Clear 8 1018 43 0 0.41 158.793 08:45 22.09.2019
1523 Clear 8 1018 43 0 0.41 158.793 08:25 22.09.2019
1524 Clear 8 1018 43 0 0.41 158.793 07:56 22.09.2019
1525 Clear 8 1018 43 0 0.41 158.793 07:38 22.09.2019
1526 Clear 8 1018 43 0 0.41 158.793 07:18 22.09.2019
1527 Clear 8 1018 43 0 0.41 158.793 06:55 22.09.2019
1528 Clear 4 1019 59 0 0.58 118.388 05:36 22.09.2019
1529 Clear 4 1019 59 0 0.58 118.388 03:48 22.09.2019
1530 Clear -1 1018 86 0 0.56 127.839 02:38 22.09.2019
1531 Clear -1 1018 86 0 0.56 127.839 02:19 22.09.2019
1532 Clear 0 1017 92 0 0.45 89.236 01:23 22.09.2019
1533 Clear 0 1017 92 0 0.45 89.236 00:37 22.09.2019
1534 Clear 1 1017 91 0 0.36 179.037 00:18 22.09.2019
1535 Clear 1 1017 91 0 0.36 179.037 23:41 21.09.2019
1536 Clear 1 1017 91 0 0.36 179.037 23:20 21.09.2019
1537 Clear 1 1017 91 0 0.36 179.037 22:39 21.09.2019
1538 Clear 1 1017 91 0 0.36 179.037 22:39 21.09.2019
1539 Clear 1 1017 91 0 0.36 179.037 22:21 21.09.2019
1540 Clear 1 1017 91 0 0.36 179.037 21:55 21.09.2019
1541 Clear 1 1017 91 0 0.36 179.037 21:37 21.09.2019
1542 Clouds 2 1016 89 0 0.69 217.941 21:18 21.09.2019
1543 Clouds 2 1017 87 0 0.3 213.797 20:39 21.09.2019
1544 Clouds 2 1017 87 0 0.3 213.797 20:21 21.09.2019
1545 Clouds 2 1017 87 0 0.3 213.797 19:48 21.09.2019
1546 Clouds 2 1017 87 0 0.3 213.797 19:24 21.09.2019
1547 Clouds 2 1017 87 0 0.3 213.797 18:55 21.09.2019
1548 Clouds 2 1017 87 0 0.3 213.797 18:37 21.09.2019
1549 Clouds 3 1016 83 0 0.95 227.977 18:19 21.09.2019
1550 Clouds 3 1016 83 0 0.95 227.977 17:42 21.09.2019
1551 Clouds 3 1016 83 0 0.95 227.977 17:21 21.09.2019
1552 Clouds 3 1016 83 0 0.95 227.977 16:44 21.09.2019
1553 Clouds 3 1016 83 0 0.95 227.977 16:24 21.09.2019
1554 Clouds 3 1016 83 0 0.95 227.977 15:56 21.09.2019
1555 Clouds 3 1016 83 0 0.95 227.977 15:38 21.09.2019
1556 Rain 5 1013 72 0 1.57 230.942 15:19 21.09.2019
1557 Rain 5 1013 72 0 1.57 230.942 14:44 21.09.2019
1558 Rain 5 1013 72 0 1.57 230.942 14:44 21.09.2019
1559 Rain 5 1013 72 0 1.57 230.942 14:26 21.09.2019
1560 Rain 5 1013 72 0 1.57 230.942 13:43 21.09.2019
1561 Rain 6 1013 70 0 2 231.532 13:23 21.09.2019
1562 Rain 6 1013 70 0 2 231.532 12:58 21.09.2019
1563 Rain 6 1013 70 0 2 231.532 12:39 21.09.2019
1564 Rain 6 1013 70 0 2 231.532 12:39 21.09.2019
1565 Rain 7 1012 61 0 2.54 217.501 12:20 21.09.2019
1566 Rain 7 1012 61 0 2.54 217.501 11:51 21.09.2019
1567 Rain 7 1012 61 0 2.54 217.501 11:26 21.09.2019
1568 Rain 7 1012 61 0 2.54 217.501 10:57 21.09.2019
1569 Rain 7 1012 61 0 2.54 217.501 10:38 21.09.2019
1570 Rain 7 1012 61 0 2.54 217.501 10:20 21.09.2019
1571 Rain 7 1012 61 0 2.54 217.501 09:55 21.09.2019
1572 Rain 7 1012 61 0 2.54 217.501 09:37 21.09.2019
1573 Rain 7 1016 59 0 2.24 213.251 09:19 21.09.2019
1574 Rain 7 1016 59 0 2.24 213.251 08:45 21.09.2019
1575 Rain 7 1016 59 0 2.17 213.31 07:59 21.09.2019
1576 Rain 7 1016 59 0 2.17 213.31 07:40 21.09.2019
1577 Rain 7 1016 59 0 2.17 213.31 07:20 21.09.2019
1578 Rain 7 1016 59 0 2.17 213.31 06:36 21.09.2019
1579 Clouds 4 1017 70 0 0.83 195.688 05:51 21.09.2019
1580 Clouds 4 1017 70 0 0.83 195.688 04:40 21.09.2019
1581 Clouds 4 1017 70 0 0.83 195.688 03:35 21.09.2019
1582 Clouds 1 1016 86 0 0.56 185.324 02:25 21.09.2019
1583 Clouds 1 1016 86 0 0.56 185.324 01:49 21.09.2019
1584 Clouds 1 1016 86 0 0.56 185.324 01:25 21.09.2019
1585 Clouds 1 1016 86 0 0.56 185.324 00:26 21.09.2019
1586 Clouds 2 1015 86 0 0.94 195.929 23:57 20.09.2019
1587 Clouds 2 1015 86 0 0.94 195.929 23:30 20.09.2019
1588 Clouds 2 1015 86 0 0.94 195.929 22:56 20.09.2019
1589 Clouds 2 1015 86 0 0.94 195.929 22:38 20.09.2019
1590 Clouds 2 1015 86 0 0.94 195.929 22:20 20.09.2019
1591 Clouds 2 1015 86 0 0.94 195.929 21:55 20.09.2019
1592 Clouds 2 1015 86 0 0.94 195.929 21:37 20.09.2019
1593 Rain 3 1016 84 0 0.71 206.205 21:18 20.09.2019
1594 Rain 3 1016 84 0 1.2 200.183 20:41 20.09.2019
1595 Rain 3 1016 84 0 1.2 200.183 20:21 20.09.2019
1596 Rain 3 1016 84 0 1.2 200.183 19:58 20.09.2019
1597 Rain 3 1016 84 0 1.2 200.183 19:39 20.09.2019
1598 Rain 3 1016 84 0 1.2 200.183 19:20 20.09.2019
1599 Rain 3 1016 84 0 1.2 200.183 18:40 20.09.2019
1600 Rain 4 1016 81 0 0.86 249.977 18:20 20.09.2019
1601 Rain 4 1016 81 0 0.86 249.977 17:59 20.09.2019
1602 Rain 4 1016 81 0 0.86 249.977 17:41 20.09.2019
1603 Rain 4 1016 81 0 0.86 249.977 17:22 20.09.2019
1604 Rain 4 1016 81 0 0.86 249.977 16:41 20.09.2019
1605 Rain 4 1016 81 0 0.86 249.977 16:19 20.09.2019
1606 Rain 4 1016 81 0 0.86 249.977 15:55 20.09.2019
1607 Rain 4 1016 81 0 0.86 249.977 15:37 20.09.2019
1608 Rain 6 1014 67 0 1.06 249.57 15:19 20.09.2019
1609 Rain 6 1014 67 0 1.06 249.57 14:42 20.09.2019
1610 Rain 6 1014 67 0 1.06 249.57 14:19 20.09.2019
1611 Rain 6 1014 67 0 1.06 249.57 13:47 20.09.2019
1612 Rain 6 1013 68 0 0.93 250.999 13:28 20.09.2019
1613 Rain 6 1013 68 0 0.93 250.999 12:57 20.09.2019
1614 Rain 6 1013 68 0 0.93 250.999 12:37 20.09.2019
1615 Rain 8 1013 56 0 2.66 227.771 12:18 20.09.2019
1616 Rain 8 1013 56 0 2.66 227.771 11:49 20.09.2019
1617 Rain 8 1013 56 0 2.66 227.771 11:21 20.09.2019
1618 Rain 8 1013 56 0 2.66 227.771 10:43 20.09.2019
1619 Rain 8 1013 56 0 2.66 227.771 10:43 20.09.2019
1620 Rain 8 1013 56 0 2.66 227.771 10:24 20.09.2019
1621 Rain 8 1013 56 0 2.66 227.771 09:59 20.09.2019
1622 Rain 8 1013 56 0 2.66 227.771 09:37 20.09.2019
1623 Clouds 8 1017 42 0 1.96 220.207 09:18 20.09.2019
1624 Clouds 8 1017 42 0 1.96 220.207 08:42 20.09.2019
1625 Clouds 8 1017 42 0 1.96 220.207 08:23 20.09.2019
1626 Clouds 8 1017 42 0 1.96 220.207 07:47 20.09.2019
1627 Clouds 8 1016 40 0 1.56 206.499 07:28 20.09.2019
1628 Clouds 8 1016 40 0 1.56 206.499 06:45 20.09.2019
1629 Clouds 8 1016 40 0 1.56 206.499 06:45 20.09.2019
1630 Clouds 8 1016 40 0 1.56 206.499 06:25 20.09.2019
1631 Clear 4 1018 66 0 0.9 145.305 05:50 20.09.2019
1632 Clear 4 1018 66 0 0.9 145.305 03:46 20.09.2019
1633 Clear 0 1018 93 0 0.68 106.667 03:21 20.09.2019
1634 Clear 0 1018 93 0 0.68 106.667 01:45 20.09.2019
1635 Clear 0 1018 93 0 0.68 106.667 01:45 20.09.2019
1636 Clear 0 1018 93 0 0.76 94.433 01:24 20.09.2019
1637 Clear 0 1018 93 0 0.76 94.433 01:24 20.09.2019
1638 Clear 0 1018 93 0 0.76 94.433 00:31 20.09.2019
1639 Clear 1 1017 92 0 0.86 161.292 23:46 19.09.2019
1640 Clear 1 1017 92 0 0.86 161.292 23:24 19.09.2019
1641 Clear 1 1017 92 0 0.86 161.292 22:57 19.09.2019
1642 Clear 1 1017 92 0 0.86 161.292 22:38 19.09.2019
1643 Clear 1 1017 92 0 0.86 161.292 22:19 19.09.2019
1644 Clear 1 1017 92 0 0.86 161.292 21:56 19.09.2019
1645 Clear 1 1017 92 0 0.86 161.292 21:37 19.09.2019
1646 Clear 2 1017 91 0 0.87 191.168 21:18 19.09.2019
1647 Clear 2 1017 91 0 0.87 191.168 20:43 19.09.2019
1648 Clear 3 1017 86 0 1.11 199.024 20:23 19.09.2019
1649 Clear 3 1017 86 0 1.11 199.024 19:57 19.09.2019
1650 Clear 3 1017 86 0 1.11 199.024 19:38 19.09.2019
1651 Clear 3 1017 86 0 1.11 199.024 19:19 19.09.2019
1652 Clear 3 1017 86 0 1.11 199.024 18:55 19.09.2019
1653 Clear 3 1017 86 0 1.11 199.024 18:37 19.09.2019
1654 Rain 4 1017 84 0 0.7 223.676 18:18 19.09.2019
1655 Rain 4 1017 84 0 0.7 223.676 17:42 19.09.2019
1656 Rain 4 1017 84 0 0.7 223.676 17:23 19.09.2019
1657 Rain 4 1017 84 0 0.7 223.676 16:58 19.09.2019
1658 Rain 4 1017 84 0 0.7 223.676 16:39 19.09.2019
1659 Rain 4 1017 84 0 0.7 223.676 16:18 19.09.2019
1660 Rain 4 1017 84 0 0.7 223.676 15:39 19.09.2019
1661 Rain 7 1015 66 0 2.01 223.991 15:19 19.09.2019
1662 Rain 7 1015 66 0 2.01 223.991 14:42 19.09.2019
1663 Rain 7 1015 66 0 2.01 223.991 14:24 19.09.2019
1664 Rain 7 1015 66 0 2.01 223.991 13:59 19.09.2019
1665 Rain 7 1015 66 0 2.01 223.991 13:40 19.09.2019
1666 Rain 8 1014 63 0 1.92 234.758 13:20 19.09.2019
1667 Rain 8 1014 63 0 1.92 234.758 12:40 19.09.2019
1668 Clear 11 1015 34 0 2.81 228.793 12:20 19.09.2019
1669 Clear 11 1015 34 0 2.81 228.793 11:58 19.09.2019
1670 Clear 11 1015 34 0 2.81 228.793 11:39 19.09.2019
1671 Clear 11 1015 34 0 2.81 228.793 11:21 19.09.2019
1672 Clear 11 1015 34 0 2.81 228.793 10:57 19.09.2019
1673 Clear 11 1015 34 0 2.81 228.793 10:36 19.09.2019
1674 Clear 11 1015 34 0 2.81 228.793 10:18 19.09.2019
1675 Clear 11 1015 34 0 2.81 228.793 09:42 19.09.2019
1676 Clear 10 1018 20 0 2.12 202.618 09:22 19.09.2019
1677 Clear 10 1018 20 0 2.12 202.618 08:56 19.09.2019
1678 Clear 11 1018 19 0 2.03 192.963 08:36 19.09.2019
1679 Clear 11 1018 19 0 2.03 192.963 08:18 19.09.2019
1680 Clear 11 1018 19 0 2.03 192.963 07:42 19.09.2019
1681 Clear 11 1018 19 0 2.03 192.963 07:21 19.09.2019
1682 Clear 11 1018 19 0 2.03 192.963 07:21 19.09.2019
1683 Clear 11 1018 19 0 2.03 192.963 06:47 19.09.2019
1684 Clear 11 1018 19 0 2.03 192.963 06:27 19.09.2019
1685 Clear 7 1020 22 0 1.57 60.942 05:52 19.09.2019
1686 Clear 7 1020 22 0 1.57 60.942 04:44 19.09.2019
1687 Clear 7 1020 22 0 1.57 60.942 03:52 19.09.2019
1688 Clear 0 1019 52 0 0.63 15.72 02:45 19.09.2019
1689 Clear 0 1019 48 0 0.93 35.164 01:27 19.09.2019
1690 Clear 0 1019 48 0 0.93 35.164 00:50 19.09.2019
1691 Clear 0 1019 48 0 0.93 35.164 00:26 19.09.2019
1692 Clear 1 1018 64 0 0.31 264.707 23:42 18.09.2019
1693 Clear 1 1018 64 0 0.31 264.707 23:21 18.09.2019
1694 Clear 1 1018 64 0 0.31 264.707 22:55 18.09.2019
1695 Clear 1 1018 64 0 0.31 264.707 22:36 18.09.2019
1696 Clear 1 1018 64 0 0.31 264.707 22:18 18.09.2019
1697 Clear 1 1018 64 0 0.31 264.707 21:54 18.09.2019
1698 Clear 1 1018 64 0 0.31 264.707 21:54 18.09.2019
1699 Clear 1 1018 64 0 0.31 264.707 21:36 18.09.2019
1700 Clear 2 1018 68 0 0.46 312.977 21:18 18.09.2019
1701 Clear 3 1018 69 0 0.4 314.798 20:55 18.09.2019
1702 Clear 3 1018 69 0 0.4 314.798 20:37 18.09.2019
1703 Clear 3 1018 69 0 0.4 314.798 20:18 18.09.2019
1704 Clear 3 1018 69 0 0.4 314.798 19:41 18.09.2019
1705 Clear 3 1018 69 0 0.4 314.798 19:20 18.09.2019
1706 Clear 3 1018 69 0 0.4 314.798 18:57 18.09.2019
1707 Clear 3 1018 69 0 0.4 314.798 18:38 18.09.2019
1708 Clear 4 1017 77 0 0.88 309.722 18:19 18.09.2019
1709 Clear 4 1017 77 0 0.88 309.722 17:59 18.09.2019
1710 Clear 4 1017 77 0 0.88 309.722 17:40 18.09.2019
1711 Clear 4 1017 77 0 0.88 309.722 17:19 18.09.2019
1712 Clear 4 1017 77 0 0.88 309.722 17:19 18.09.2019
1713 Clear 4 1017 77 0 0.88 309.722 16:57 18.09.2019
1714 Clear 4 1017 77 0 0.88 309.722 16:38 18.09.2019
1715 Clear 4 1017 77 0 0.88 309.722 16:20 18.09.2019
1716 Clear 4 1017 77 0 0.88 309.722 15:56 18.09.2019
1717 Clear 4 1017 77 0 0.88 309.722 15:56 18.09.2019
1718 Clear 4 1017 77 0 0.88 309.722 15:38 18.09.2019
1719 Clouds 7 1015 53 0 1.96 235.185 15:19 18.09.2019
1720 Clouds 7 1015 53 0 1.96 235.185 14:58 18.09.2019
1721 Clouds 7 1015 53 0 1.96 235.185 14:39 18.09.2019
1722 Clouds 7 1015 53 0 1.96 235.185 14:21 18.09.2019
1723 Clouds 7 1015 53 0 1.96 235.185 14:21 18.09.2019
1724 Clouds 7 1015 53 0 1.96 235.185 13:57 18.09.2019
1725 Clouds 7 1015 53 0 1.96 235.185 13:37 18.09.2019
1726 Clouds 9 1014 39 0 1.57 244.563 13:18 18.09.2019
1727 Clouds 9 1014 39 0 1.57 244.563 12:41 18.09.2019
1728 Clouds 10 1015 29 0 1.41 269.105 12:22 18.09.2019
1729 Clouds 10 1015 29 0 1.41 269.105 11:40 18.09.2019
1730 Clouds 10 1015 29 0 1.41 269.105 11:20 18.09.2019
1731 Clouds 10 1015 29 0 1.41 269.105 10:57 18.09.2019
1732 Clouds 10 1015 29 0 1.41 269.105 10:39 18.09.2019
1733 Clouds 10 1015 29 0 1.41 269.105 10:19 18.09.2019
1734 Clouds 10 1015 29 0 1.41 269.105 09:54 18.09.2019
1735 Clouds 10 1015 29 0 1.41 269.105 09:36 18.09.2019
1736 Clear 8 1018 29 0 0.33 266.197 09:18 18.09.2019
1737 Clear 9 1018 26 0 1.28 41.03 08:41 18.09.2019
1738 Clear 9 1018 26 0 1.28 41.03 08:21 18.09.2019
1739 Clear 9 1018 26 0 1.28 41.03 07:45 18.09.2019
1740 Clear 9 1018 26 0 1.28 41.03 07:23 18.09.2019
1741 Clear 9 1018 26 0 1.28 41.03 06:54 18.09.2019
1742 Clear 9 1018 26 0 1.28 41.03 06:29 18.09.2019
1743 Clear 5 1020 46 0 1.95 29.3 05:39 18.09.2019
1744 Clear 5 1020 46 0 1.95 29.3 04:20 18.09.2019
1745 Clear -1 1019 86 0 0.85 353.125 02:41 18.09.2019
1746 Clear -1 1019 86 0 0.85 353.125 01:50 18.09.2019
1747 Clear -1 1019 85 0 0.87 16.171 00:58 18.09.2019
1748 Clear -1 1019 85 0 0.87 16.171 00:34 18.09.2019
1749 Clear -1 1017 90 0 0.34 161.777 23:59 17.09.2019
1750 Clear -1 1017 90 0 0.34 161.777 23:40 17.09.2019
1751 Clear -1 1017 90 0 0.34 161.777 23:21 17.09.2019
1752 Clear -1 1017 90 0 0.34 161.777 22:42 17.09.2019
1753 Clear -1 1017 90 0 0.34 161.777 22:24 17.09.2019
1754 Clear -1 1017 90 0 0.34 161.777 21:55 17.09.2019
1755 Clear -1 1017 90 0 0.34 161.777 21:37 17.09.2019
1756 Clear 1 1016 85 0 0.76 49.497 21:18 17.09.2019
1757 Clear 1 1016 85 0 0.76 49.497 21:18 17.09.2019
1758 Clear 1 1016 85 0 0.76 49.497 20:57 17.09.2019
1759 Clear 1 1016 82 0 0.08 159.702 20:39 17.09.2019
1760 Clear 1 1016 82 0 0.08 159.702 20:21 17.09.2019
1761 Clear 1 1016 82 0 0.08 159.702 20:21 17.09.2019
1762 Clear 1 1016 82 0 0.08 159.702 20:21 17.09.2019
1763 Clear 1 1016 82 0 0.08 159.702 19:58 17.09.2019
1764 Clear 1 1016 82 0 0.08 159.702 19:39 17.09.2019
1765 Clear 1 1016 82 0 0.08 159.702 19:19 17.09.2019
1766 Clear 1 1016 82 0 0.08 159.702 18:56 17.09.2019
1767 Clear 1 1016 82 0 0.08 159.702 18:37 17.09.2019
1768 Rain 2 1015 75 0 0.34 230.497 18:19 17.09.2019
1769 Rain 2 1015 75 0 0.34 230.497 17:44 17.09.2019
1770 Rain 2 1015 75 0 0.34 230.497 17:19 17.09.2019
1771 Rain 2 1015 75 0 0.34 230.497 16:56 17.09.2019
1772 Rain 2 1015 75 0 0.34 230.497 16:37 17.09.2019
1773 Rain 2 1015 75 0 0.34 230.497 16:19 17.09.2019
1774 Rain 2 1015 75 0 0.34 230.497 15:39 17.09.2019
1775 Clear 5 1011 44 0 2.84 252.177 15:20 17.09.2019
1776 Clear 5 1011 44 0 2.84 252.177 14:56 17.09.2019
1777 Clear 5 1011 44 0 2.84 252.177 14:56 17.09.2019
1778 Clear 5 1011 44 0 2.84 252.177 14:56 17.09.2019
1779 Clear 5 1011 44 0 2.84 252.177 14:38 17.09.2019
1780 Clear 5 1011 44 0 2.84 252.177 14:19 17.09.2019
1781 Clear 5 1011 44 0 2.84 252.177 13:54 17.09.2019
1782 Clear 5 1011 44 0 2.84 252.177 13:36 17.09.2019
1783 Clear 5 1011 40 0 2.57 257.123 13:18 17.09.2019
1784 Clear 5 1011 40 0 2.57 257.123 12:41 17.09.2019
1785 Clear 8 1010 32 0 3.18 240.376 12:19 17.09.2019
1786 Clear 8 1010 32 0 3.18 240.376 11:44 17.09.2019
1787 Clear 8 1010 32 0 3.18 240.376 11:26 17.09.2019
1788 Clear 8 1010 32 0 3.18 240.376 10:59 17.09.2019
1789 Clear 8 1010 32 0 3.18 240.376 10:40 17.09.2019
1790 Clear 8 1010 32 0 3.18 240.376 10:20 17.09.2019
1791 Clear 8 1010 32 0 3.18 240.376 09:54 17.09.2019
1792 Clear 8 1010 32 0 3.18 240.376 09:36 17.09.2019
1793 Clear 7 1013 34 0 3.2 232.639 09:18 17.09.2019
1794 Clear 7 1013 34 0 3.2 232.639 08:43 17.09.2019
1795 Clear 7 1013 34 0 3.2 232.639 08:43 17.09.2019
1796 Clear 7 1014 37 0 2.98 225.027 08:24 17.09.2019
1797 Clear 7 1014 37 0 2.98 225.027 07:44 17.09.2019
1798 Clear 7 1014 37 0 2.98 225.027 07:26 17.09.2019
1799 Clear 7 1014 37 0 2.98 225.027 06:53 17.09.2019
1800 Clear 7 1014 37 0 2.98 225.027 06:29 17.09.2019
1801 Clear 2 1015 62 0 0.81 129.18 05:53 17.09.2019
1802 Clear 2 1015 62 0 0.81 129.18 04:55 17.09.2019
1803 Clear 2 1015 62 0 0.81 129.18 03:42 17.09.2019
1804 Rain -1 1015 91 0 0.54 202.921 02:39 17.09.2019
1805 Rain -1 1015 91 0 0.54 202.921 01:50 17.09.2019
1806 Clear -1 1015 87 0 0.53 111.681 00:50 17.09.2019
1807 Rain 0 1013 87 0 1 227.603 23:42 16.09.2019
1808 Rain 0 1013 87 0 1 227.603 23:20 16.09.2019
1809 Rain 0 1013 87 0 1 227.603 22:59 16.09.2019
1810 Rain 0 1013 87 0 1 227.603 22:40 16.09.2019
1811 Rain 0 1013 87 0 1 227.603 22:22 16.09.2019
1812 Rain 0 1013 87 0 1 227.603 21:58 16.09.2019
1813 Rain 0 1013 87 0 1 227.603 21:38 16.09.2019
1814 Clear 1 1013 88 0 1.61 213.957 21:20 16.09.2019
1815 Clear 1 1013 88 0 1.61 213.957 21:20 16.09.2019
1816 Clear 1 1013 88 0 1.61 213.957 20:55 16.09.2019
1817 Clear 2 1012 87 0 1.79 201.801 20:37 16.09.2019
1818 Clear 2 1012 87 0 1.79 201.801 20:18 16.09.2019
1819 Clear 2 1012 87 0 1.79 201.801 19:42 16.09.2019
1820 Clear 2 1012 87 0 1.79 201.801 19:21 16.09.2019
1821 Clear 2 1012 87 0 1.79 201.801 18:59 16.09.2019
1822 Clear 2 1012 87 0 1.79 201.801 18:41 16.09.2019
1823 Rain 3 1011 83 0 0.9 241.405 18:21 16.09.2019
1824 Rain 3 1011 83 0 0.9 241.405 17:43 16.09.2019
1825 Rain 3 1011 83 0 0.9 241.405 17:24 16.09.2019
1826 Rain 3 1011 83 0 0.9 241.405 16:58 16.09.2019
1827 Rain 3 1011 83 0 0.9 241.405 16:39 16.09.2019
1828 Rain 3 1011 83 0 0.9 241.405 16:21 16.09.2019
1829 Rain 3 1011 83 0 0.9 241.405 15:56 16.09.2019
1830 Rain 3 1011 83 0 0.9 241.405 15:37 16.09.2019
1831 Rain 7 1008 61 0 2.69 256.5 15:19 16.09.2019
1832 -273 0 0 0 0 0 14:56 16.09.2019
1833 Rain 7 1008 61 0 2.69 256.5 14:37 16.09.2019
1834 Rain 7 1008 61 0 2.69 256.5 14:19 16.09.2019
1835 Rain 7 1008 61 0 2.69 256.5 13:40 16.09.2019
1836 Rain 7 1007 53 0 2.49 257.868 13:21 16.09.2019
1837 Rain 7 1007 53 0 2.49 257.868 12:54 16.09.2019
1838 Rain 7 1007 53 0 2.49 257.868 12:36 16.09.2019
1839 Clear 10 1007 41 0 3.15 241.092 12:18 16.09.2019
1840 Clear 10 1007 41 0 3.15 241.092 11:44 16.09.2019
1841 Clear 10 1007 41 0 3.15 241.092 11:21 16.09.2019
1842 Clear 10 1007 41 0 3.15 241.092 10:40 16.09.2019
1843 Clear 10 1007 41 0 3.15 241.092 10:21 16.09.2019
1844 Clear 10 1007 41 0 3.15 241.092 09:58 16.09.2019
1845 Clear 10 1007 41 0 3.15 241.092 09:40 16.09.2019
1846 Clear 9 1011 37 0 2.72 236.719 09:20 16.09.2019
1847 Clear 9 1011 37 0 2.72 236.719 08:48 16.09.2019
1848 Clear 9 1012 32 0 2.47 247.264 08:29 16.09.2019
1849 Clear 9 1012 32 0 2.47 247.264 07:57 16.09.2019
1850 Clear 9 1012 32 0 2.47 247.264 07:39 16.09.2019
1851 Clear 9 1012 32 0 2.47 247.264 07:20 16.09.2019
1852 Clear 9 1012 32 0 2.47 247.264 06:49 16.09.2019
1853 Clear 9 1012 32 0 2.47 247.264 06:31 16.09.2019
1854 Clear 5 1015 47 0 0.68 275.46 05:57 16.09.2019
1855 Clear 5 1015 47 0 0.68 275.46 05:38 16.09.2019
1856 Clear 5 1015 47 0 0.68 275.46 04:57 16.09.2019
1857 Clear 5 1015 47 0 0.68 275.46 03:35 16.09.2019
1858 Clear 0 1014 94 0 0.73 62.872 00:57 16.09.2019
1859 Clear 0 1014 94 0 0.73 62.872 00:57 16.09.2019
1860 Clear 0 1014 94 0 0.73 62.872 00:36 16.09.2019
1861 Clear 1 1014 93 0 0.25 91.146 00:18 16.09.2019
1862 Clear 1 1014 93 0 0.25 91.146 23:38 15.09.2019
1863 Clear 1 1014 93 0 0.25 91.146 23:20 15.09.2019
1864 Clear 1 1014 93 0 0.25 91.146 22:39 15.09.2019
1865 Clear 1 1014 93 0 0.25 91.146 22:20 15.09.2019
1866 Clear 1 1014 93 0 0.25 91.146 21:57 15.09.2019
1867 Clear 1 1014 93 0 0.25 91.146 21:38 15.09.2019
1868 Clouds 3 1014 90 0 0.41 205.135 21:20 15.09.2019
1869 Clouds 3 1014 87 0 0.71 202.935 20:46 15.09.2019
1870 Clouds 3 1014 87 0 0.71 202.935 20:27 15.09.2019
1871 Clouds 3 1014 87 0 0.71 202.935 19:59 15.09.2019
1872 Clouds 3 1014 87 0 0.71 202.935 19:41 15.09.2019
1873 Clouds 3 1014 87 0 0.71 202.935 19:22 15.09.2019
1874 Clouds 3 1014 87 0 0.71 202.935 18:41 15.09.2019
1875 Rain 5 1013 84 0 1.29 220.471 18:23 15.09.2019
1876 Rain 5 1013 84 0 1.29 220.471 17:56 15.09.2019
1877 Rain 5 1013 84 0 1.29 220.471 17:36 15.09.2019
1878 Rain 5 1013 84 0 1.29 220.471 17:18 15.09.2019
1879 Rain 5 1013 84 0 1.29 220.471 16:42 15.09.2019
1880 Rain 5 1013 84 0 1.29 220.471 16:23 15.09.2019
1881 Rain 5 1013 84 0 1.29 220.471 15:58 15.09.2019
1882 Rain 5 1013 84 0 1.29 220.471 15:38 15.09.2019
1883 Rain 7 1010 72 0 2.51 233.084 15:19 15.09.2019
1884 Rain 7 1010 72 0 2.51 233.084 15:19 15.09.2019
1885 Rain 7 1010 72 0 2.51 233.084 14:56 15.09.2019
1886 Rain 7 1010 72 0 2.51 233.084 14:38 15.09.2019
1887 Rain 7 1010 72 0 2.51 233.084 14:19 15.09.2019
1888 Rain 7 1010 72 0 2.51 233.084 13:44 15.09.2019
1889 Rain 8 1009 65 0 2.62 232.504 13:23 15.09.2019
1890 Rain 8 1009 65 0 2.62 232.504 12:43 15.09.2019
1891 Rain 8 1009 65 0 2.62 232.504 12:25 15.09.2019
1892 Clear 11 1009 34 0 3.26 212.72 11:59 15.09.2019
1893 Clear 11 1009 34 0 3.26 212.72 11:41 15.09.2019
1894 Clear 11 1009 34 0 3.26 212.72 11:22 15.09.2019
1895 Clear 11 1009 34 0 3.26 212.72 10:56 15.09.2019
1896 Clear 11 1009 34 0 3.26 212.72 10:38 15.09.2019
1897 Clear 11 1009 34 0 3.26 212.72 10:19 15.09.2019
1898 Clear 11 1009 34 0 3.26 212.72 09:40 15.09.2019
1899 Clear 10 1013 29 0 2.47 196.15 09:20 15.09.2019
1900 Clear 10 1013 29 0 2.47 196.15 08:47 15.09.2019
1901 Clear 10 1014 27 0 2.3 210.896 08:28 15.09.2019
1902 Clear 10 1014 27 0 2.3 210.896 07:51 15.09.2019
1903 Clear 10 1014 27 0 2.3 210.896 07:32 15.09.2019
1904 Clear 10 1014 27 0 2.3 210.896 06:43 15.09.2019
1905 Clear 5 1016 42 0 0.91 136.297 03:32 15.09.2019
1906 Clear 0 1016 81 0 0.87 46.02 02:46 15.09.2019
1907 Clear 0 1016 81 0 0.87 46.02 01:45 15.09.2019
1908 Clear 0 1016 81 0 0.87 46.02 01:45 15.09.2019
1909 Clear 0 1016 81 0 0.87 46.02 01:45 15.09.2019
1910 Clear 1 1016 81 0 0.83 50.274 01:27 15.09.2019
1911 Clear 1 1016 81 0 0.83 50.274 00:50 15.09.2019
1912 Clear 2 1015 76 0 0.41 117.941 00:24 15.09.2019
1913 Clear 2 1015 76 0 0.41 117.941 23:59 14.09.2019
1914 Clear 2 1015 76 0 0.41 117.941 23:41 14.09.2019
1915 Clear 2 1015 76 0 0.41 117.941 23:22 14.09.2019
1916 Clear 2 1015 76 0 0.41 117.941 22:59 14.09.2019
1917 Clear 2 1015 76 0 0.41 117.941 22:59 14.09.2019
1918 Clear 2 1015 76 0 0.41 117.941 22:59 14.09.2019
1919 Clear 2 1015 76 0 0.41 117.941 22:41 14.09.2019
1920 Clear 2 1015 76 0 0.41 117.941 22:41 14.09.2019
1921 Clear 2 1015 76 0 0.41 117.941 22:21 14.09.2019
1922 Clear 2 1015 76 0 0.41 117.941 21:59 14.09.2019
1923 Clear 2 1015 76 0 0.41 117.941 21:39 14.09.2019
1924 Clouds 4 1016 85 0 1.27 181.63 21:20 14.09.2019
1925 Clouds 4 1016 85 0 1.27 181.63 20:55 14.09.2019
1926 Clear 4 1015 86 0 1.12 176.976 20:37 14.09.2019
1927 Clear 4 1015 86 0 1.12 176.976 20:19 14.09.2019
1928 Clear 4 1015 86 0 1.12 176.976 19:44 14.09.2019
1929 Clear 4 1015 86 0 1.12 176.976 19:21 14.09.2019
1930 Clear 4 1015 86 0 1.12 176.976 18:57 14.09.2019
1931 Clear 4 1015 86 0 1.12 176.976 18:37 14.09.2019
1932 Rain 6 1013 86 0 1.69 206.611 18:19 14.09.2019
1933 Rain 6 1013 86 0 1.69 206.611 17:43 14.09.2019
1934 Rain 6 1013 86 0 1.69 206.611 17:22 14.09.2019
1935 Rain 6 1013 86 0 1.69 206.611 16:48 14.09.2019
1936 Rain 6 1013 86 0 1.69 206.611 16:28 14.09.2019
1937 Rain 6 1013 86 0 1.69 206.611 15:59 14.09.2019
1938 Rain 6 1013 86 0 1.69 206.611 15:40 14.09.2019
1939 Rain 9 1010 71 0 2.72 226.103 15:21 14.09.2019
1940 Rain 9 1010 71 0 2.72 226.103 14:44 14.09.2019
1941 Rain 9 1010 71 0 2.72 226.103 14:19 14.09.2019
1942 Rain 9 1010 71 0 2.72 226.103 13:56 14.09.2019
1943 Rain 9 1010 71 0 2.72 226.103 13:37 14.09.2019
1944 Rain 9 1009 68 0 2.42 226.742 13:19 14.09.2019
1945 Rain 9 1009 68 0 2.42 226.742 12:43 14.09.2019
1946 Clear 12 1010 40 0 2.73 224.615 12:20 14.09.2019
1947 Clear 12 1010 40 0 2.73 224.615 11:41 14.09.2019
1948 Clear 12 1010 40 0 2.73 224.615 11:20 14.09.2019
1949 Clear 12 1010 40 0 2.73 224.615 10:40 14.09.2019
1950 Clear 12 1010 40 0 2.73 224.615 10:21 14.09.2019
1951 Clear 12 1010 40 0 2.73 224.615 09:58 14.09.2019
1952 Clear 12 1010 40 0 2.73 224.615 09:39 14.09.2019
1953 Clear 11 1013 36 0 2.59 218.864 09:20 14.09.2019
1954 Clear 11 1013 34 0 2.47 207.479 08:48 14.09.2019
1955 Clear 11 1013 34 0 2.47 207.479 08:26 14.09.2019
1956 Clear 11 1013 34 0 2.47 207.479 07:49 14.09.2019
1957 Clear 11 1013 34 0 2.47 207.479 07:29 14.09.2019
1958 Clear 11 1013 34 0 2.47 207.479 06:53 14.09.2019
1959 Clear 11 1013 34 0 2.47 207.479 06:31 14.09.2019
1960 Clear 6 1015 61 0 0.56 85.783 05:27 14.09.2019
1961 Clear 6 1015 61 0 0.56 85.783 03:47 14.09.2019
1962 Clear 2 1015 85 0 1.19 41.181 02:55 14.09.2019
1963 Clear 2 1015 85 0 1.19 41.181 02:23 14.09.2019
1964 Clear 2 1015 85 0 1.19 41.181 01:42 14.09.2019
1965 Clear 2 1015 88 0 0.92 25.394 01:18 14.09.2019
1966 Clear 2 1015 88 0 0.92 25.394 00:39 14.09.2019
1967 Clear 3 1014 84 0 0.24 198.585 00:21 14.09.2019
1968 Clear 3 1014 84 0 0.24 198.585 23:54 13.09.2019
1969 Clear 3 1014 84 0 0.24 198.585 23:36 13.09.2019
1970 Clear 3 1014 84 0 0.24 198.585 23:18 13.09.2019
1971 Clear 3 1014 84 0 0.24 198.585 22:39 13.09.2019
1972 Clear 3 1014 84 0 0.24 198.585 22:20 13.09.2019
1973 Clear 3 1014 84 0 0.24 198.585 21:56 13.09.2019
1974 Clear 3 1014 84 0 0.24 198.585 21:37 13.09.2019
1975 Clear 4 1014 85 0 0.81 202.806 21:19 13.09.2019
1976 Clear 4 1014 85 0 0.81 202.806 20:55 13.09.2019
1977 Clear 4 1014 86 0 1.15 209.9 20:36 13.09.2019
1978 Clear 4 1014 86 0 1.15 209.9 20:18 13.09.2019
1979 Clear 4 1014 86 0 1.15 209.9 19:43 13.09.2019
1980 Clear 4 1014 86 0 1.15 209.9 19:21 13.09.2019
1981 Clear 4 1014 86 0 1.15 209.9 18:58 13.09.2019
1982 Clear 4 1014 86 0 1.15 209.9 18:37 13.09.2019
1983 Rain 5 1013 85 0 1.32 227.647 18:19 13.09.2019
1984 Rain 5 1013 85 0 1.32 227.647 17:43 13.09.2019
1985 Rain 5 1013 85 0 1.32 227.647 17:21 13.09.2019
1986 Rain 5 1013 85 0 1.32 227.647 16:56 13.09.2019
1987 Rain 5 1013 85 0 1.32 227.647 16:37 13.09.2019
1988 Rain 5 1013 85 0 1.32 227.647 16:18 13.09.2019
1989 Rain 5 1013 85 0 1.32 227.647 15:41 13.09.2019
1990 Rain 9 1010 63 0 2.29 229.944 15:23 13.09.2019
1991 Rain 9 1010 63 0 2.29 229.944 15:23 13.09.2019
1992 Rain 9 1010 63 0 2.29 229.944 14:55 13.09.2019
1993 Rain 9 1010 63 0 2.29 229.944 14:37 13.09.2019
1994 Rain 9 1010 63 0 2.29 229.944 14:18 13.09.2019
1995 Rain 9 1010 63 0 2.29 229.944 13:41 13.09.2019
1996 Rain 9 1009 63 0 2.41 231.845 13:22 13.09.2019
1997 Rain 9 1009 63 0 2.41 231.845 12:45 13.09.2019
1998 Rain 9 1009 63 0 2.41 231.845 12:25 13.09.2019
1999 Clear 12 1010 45 0 2.89 227.368 11:57 13.09.2019
2000 Clear 12 1010 45 0 2.89 227.368 11:20 13.09.2019
2001 Clear 12 1010 45 0 2.89 227.368 10:57 13.09.2019
2002 Clear 12 1010 45 0 2.89 227.368 10:37 13.09.2019
2003 Clear 12 1010 45 0 2.89 227.368 10:18 13.09.2019
2004 Clear 12 1010 45 0 2.89 227.368 09:43 13.09.2019
2005 Clear 12 1010 45 0 2.89 227.368 09:43 13.09.2019
2006 Clear 11 1012 35 0 2.51 225.55 09:20 13.09.2019
2007 Clear 11 1012 35 0 2.51 225.55 08:57 13.09.2019
2008 Clear 10 1014 35 0 1.44 241.583 08:39 13.09.2019
2009 Clear 10 1014 35 0 1.44 241.583 08:20 13.09.2019
2010 Clear 10 1014 35 0 1.44 241.583 07:41 13.09.2019
2011 Clear 10 1014 35 0 1.44 241.583 07:22 13.09.2019
2012 Clear 10 1014 35 0 1.44 241.583 06:38 13.09.2019
2013 Clear 5 1016 62 0 0.74 24.629 05:36 13.09.2019
2014 Clear 5 1016 62 0 0.74 24.629 03:53 13.09.2019
2015 Clear 5 1016 62 0 0.74 24.629 03:26 13.09.2019
2016 Clear 1 1016 94 0 0.76 63.672 02:20 13.09.2019
2017 Clear 1 1016 94 0 0.76 63.672 01:38 13.09.2019
2018 Clear 1 1015 90 0 1.09 43.696 00:59 13.09.2019
2019 Clear 1 1015 90 0 1.09 43.696 00:36 13.09.2019
2020 Clear 2 1014 85 0 0.28 192.595 23:53 12.09.2019
2021 Clear 2 1014 85 0 0.28 192.595 23:26 12.09.2019
2022 Clear 2 1014 85 0 0.28 192.595 22:58 12.09.2019
2023 Clear 2 1014 85 0 0.28 192.595 22:40 12.09.2019
2024 Clear 2 1014 85 0 0.28 192.595 22:22 12.09.2019
2025 Clear 2 1014 85 0 0.28 192.595 21:56 12.09.2019
2026 Clear 2 1014 85 0 0.28 192.595 21:37 12.09.2019
2027 Clear 4 1015 85 0 1.02 205.759 21:19 12.09.2019
2028 Clear 4 1014 80 0 1.06 224.157 20:44 12.09.2019
2029 Clear 4 1014 80 0 1.06 224.157 20:23 12.09.2019
2030 Clear 4 1014 80 0 1.06 224.157 19:58 12.09.2019
2031 Clear 4 1014 80 0 1.06 224.157 19:40 12.09.2019
2032 Clear 4 1014 80 0 1.06 224.157 19:20 12.09.2019
2033 Clear 4 1014 80 0 1.06 224.157 18:57 12.09.2019
2034 Clear 4 1014 80 0 1.06 224.157 18:36 12.09.2019
2035 Clear 6 1013 80 0 0.72 237.126 18:18 12.09.2019
2036 Clear 6 1013 80 0 0.72 237.126 17:41 12.09.2019
2037 Clear 6 1013 80 0 0.72 237.126 17:20 12.09.2019
2038 Clear 6 1013 80 0 0.72 237.126 16:58 12.09.2019
2039 Clear 6 1013 80 0 0.72 237.126 16:40 12.09.2019
2040 Clear 6 1013 80 0 0.72 237.126 16:19 12.09.2019
2041 Clear 6 1013 80 0 0.72 237.126 15:41 12.09.2019
2042 Clear 10 1010 42 0 2.05 252.557 15:23 12.09.2019
2043 Clear 10 1010 42 0 2.05 252.557 14:47 12.09.2019
2044 Clear 10 1010 42 0 2.05 252.557 14:23 12.09.2019
2045 Clear 10 1010 42 0 2.05 252.557 13:59 12.09.2019
2046 Clear 10 1010 42 0 2.05 252.557 13:38 12.09.2019
2047 Clear 10 1009 42 0 1.86 252.775 13:20 12.09.2019
2048 Clear 10 1009 42 0 1.86 252.775 12:47 12.09.2019
2049 Clear 13 1010 24 0 2.94 251.491 12:19 12.09.2019
2050 Clear 13 1010 24 0 2.94 251.491 11:57 12.09.2019
2051 Clear 13 1010 24 0 2.94 251.491 11:39 12.09.2019
2052 Clear 13 1010 24 0 2.94 251.491 11:21 12.09.2019
2053 Clear 13 1010 24 0 2.94 251.491 10:48 12.09.2019
2054 Clear 13 1010 24 0 2.94 251.491 10:26 12.09.2019
2055 Clear 13 1010 24 0 2.94 251.491 09:56 12.09.2019
2056 Clear 13 1010 24 0 2.94 251.491 09:36 12.09.2019
2057 Clear 11 1013 26 0 2.12 253.135 09:18 12.09.2019
2058 Clear 12 1013 25 0 1.79 254.437 08:43 12.09.2019
2059 Clear 12 1013 25 0 1.79 254.437 08:22 12.09.2019
2060 Clear 12 1013 25 0 1.79 254.437 07:46 12.09.2019
2061 Clear 12 1013 25 0 1.79 254.437 07:20 12.09.2019
2062 Clear 12 1013 25 0 1.79 254.437 06:52 12.09.2019
2063 Clear 12 1013 25 0 1.79 254.437 06:31 12.09.2019
2064 Clear 7 1015 58 0 0.53 92.042 05:53 12.09.2019
2065 Clear 7 1015 58 0 0.53 92.042 05:35 12.09.2019
2066 Clear 7 1015 58 0 0.53 92.042 04:42 12.09.2019
2067 Clear 2 1015 96 0 0.07 220.03 03:23 12.09.2019
2068 Clear 2 1015 92 0 0.45 333.034 01:43 12.09.2019
2069 Clear 2 1015 92 0 0.45 333.034 01:21 12.09.2019
2070 Clear 2 1015 92 0 0.45 333.034 00:45 12.09.2019
2071 Clear 2 1015 92 0 0.45 333.034 00:27 12.09.2019
2072 Clear 3 1013 96 0 0.77 270.371 23:43 11.09.2019
2073 Clear 3 1013 96 0 0.77 270.371 23:25 11.09.2019
2074 Clear 3 1013 96 0 0.77 270.371 22:57 11.09.2019
2075 Clear 3 1013 96 0 0.77 270.371 22:38 11.09.2019
2076 Clear 3 1013 96 0 0.77 270.371 22:19 11.09.2019
2077 Clear 3 1013 96 0 0.77 270.371 21:57 11.09.2019
2078 Clear 3 1013 96 0 0.77 270.371 21:39 11.09.2019
2079 Clear 5 1014 95 0 0.68 273.899 21:20 11.09.2019
2080 Clear 5 1014 95 0 0.68 273.899 20:54 11.09.2019
2081 Clear 5 1013 93 0 0.8 270.431 20:36 11.09.2019
2082 Clear 5 1013 93 0 0.8 270.431 20:18 11.09.2019
2083 Clear 5 1013 93 0 0.8 270.431 19:55 11.09.2019
2084 Clear 5 1013 93 0 0.8 270.431 19:37 11.09.2019
2085 Clear 5 1013 93 0 0.8 270.431 19:18 11.09.2019
2086 Clear 5 1013 93 0 0.8 270.431 18:42 11.09.2019
2087 Clear 6 1012 84 0 0.93 272.098 18:23 11.09.2019
2088 Clear 6 1012 84 0 0.93 272.098 17:58 11.09.2019
2089 Clear 6 1012 84 0 0.93 272.098 17:40 11.09.2019
2090 Clear 6 1012 84 0 0.93 272.098 17:21 11.09.2019
2091 Clear 6 1012 84 0 0.93 272.098 16:55 11.09.2019
2092 Clear 6 1012 84 0 0.93 272.098 16:36 11.09.2019
2093 Clear 6 1012 84 0 0.93 272.098 16:18 11.09.2019
2094 Clear 6 1012 84 0 0.93 272.098 15:46 11.09.2019
2095 Clear 11 1008 52 0 2.02 246.306 15:23 11.09.2019
2096 Clear 11 1008 52 0 2.02 246.306 14:57 11.09.2019
2097 Clear 11 1008 52 0 2.02 246.306 14:38 11.09.2019
2098 Clear 11 1008 52 0 2.02 246.306 14:19 11.09.2019
2099 Clear 11 1008 52 0 2.02 246.306 13:57 11.09.2019
2100 Clear 11 1008 52 0 2.02 246.306 13:36 11.09.2019
2101 Clear 11 1008 48 0 1.86 255.336 13:18 11.09.2019
2102 Clear 11 1008 48 0 1.86 255.336 12:41 11.09.2019
2103 Clear 13 1009 30 0 2.78 255.348 12:21 11.09.2019
2104 Clear 13 1009 30 0 2.78 255.348 11:56 11.09.2019
2105 Clear 13 1009 30 0 2.78 255.348 11:37 11.09.2019
2106 Clear 13 1009 30 0 2.78 255.348 11:18 11.09.2019
2107 Clear 13 1009 30 0 2.78 255.348 10:40 11.09.2019
2108 Clear 13 1009 30 0 2.78 255.348 10:22 11.09.2019
2109 Clear 13 1009 30 0 2.78 255.348 09:57 11.09.2019
2110 Clear 13 1009 30 0 2.78 255.348 09:37 11.09.2019
2111 Clear 12 1011 25 0 1.99 247.513 09:18 11.09.2019
2112 Clear 12 1011 25 0 1.99 247.513 09:18 11.09.2019
2113 Clear 12 1012 23 0 1.77 252.386 08:40 11.09.2019
2114 Clear 12 1012 23 0 1.77 252.386 08:21 11.09.2019
2115 Clear 12 1012 23 0 1.77 252.386 07:49 11.09.2019
2116 Clear 12 1012 23 0 1.77 252.386 07:24 11.09.2019
2117 Clear 12 1012 23 0 1.77 252.386 06:56 11.09.2019
2118 Clear 12 1012 23 0 1.77 252.386 06:36 11.09.2019
2119 Clear 7 1014 51 0 0.82 39.009 05:53 11.09.2019
2120 Clear 7 1014 51 0 0.82 39.009 05:33 11.09.2019
2121 Clear 7 1014 51 0 0.82 39.009 04:52 11.09.2019
2122 Clear 7 1014 51 0 0.82 39.009 03:58 11.09.2019
2123 Clear 7 1014 51 0 0.82 39.009 03:25 11.09.2019
2124 Clear 2 1013 89 0 1.6 61.109 02:28 11.09.2019
2125 Clear 2 1013 87 0 1.25 21.717 01:28 11.09.2019
2126 Clear 2 1013 87 0 1.25 21.717 00:37 11.09.2019
2127 Clear 3 1012 88 0 0.51 270.557 00:18 11.09.2019
2128 Clear 3 1012 88 0 0.51 270.557 23:40 10.09.2019
2129 Clear 3 1012 88 0 0.51 270.557 23:21 10.09.2019
2130 Clear 3 1012 88 0 0.51 270.557 22:54 10.09.2019
2131 Clear 3 1012 88 0 0.51 270.557 22:36 10.09.2019
2132 Clear 3 1012 88 0 0.51 270.557 22:18 10.09.2019
2133 Clear 3 1012 88 0 0.51 270.557 21:54 10.09.2019
2134 Clear 3 1012 88 0 0.51 270.557 21:36 10.09.2019
2135 Clear 5 1011 92 0 1 294.044 21:18 10.09.2019
2136 Clear 5 1011 92 0 1 294.044 20:54 10.09.2019
2137 Clear 5 1010 87 0 1.08 212.463 20:36 10.09.2019
2138 Clear 5 1010 87 0 1.08 212.463 20:18 10.09.2019
2139 Clear 5 1010 87 0 1.08 212.463 19:54 10.09.2019
2140 Clear 5 1010 87 0 1.08 212.463 19:36 10.09.2019
2141 Clear 5 1010 87 0 1.08 212.463 19:18 10.09.2019
2142 Clear 5 1010 87 0 1.08 212.463 18:42 10.09.2019
2143 Clear 7 1009 83 0 1.04 274.764 18:22 10.09.2019
2144 Clear 7 1009 83 0 1.04 274.764 17:55 10.09.2019
2145 Clear 7 1009 83 0 1.04 274.764 17:37 10.09.2019
2146 Clear 7 1009 83 0 1.04 274.764 17:19 10.09.2019
2147 Clear 7 1009 83 0 1.04 274.764 16:56 10.09.2019
2148 Clear 7 1009 83 0 1.04 274.764 16:37 10.09.2019
2149 Clear 7 1009 83 0 1.04 274.764 16:19 10.09.2019
2150 Clear 7 1009 83 0 1.04 274.764 15:43 10.09.2019
2151 Clear 12 1006 47 0 1.8 242.567 15:22 10.09.2019
2152 Clear 12 1006 47 0 1.8 242.567 15:22 10.09.2019
2153 Clear 12 1006 47 0 1.8 242.567 14:57 10.09.2019
2154 Clear 12 1006 47 0 1.8 242.567 14:38 10.09.2019
2155 Clear 12 1006 47 0 1.8 242.567 14:19 10.09.2019
2156 Clear 12 1006 47 0 1.8 242.567 13:44 10.09.2019
2157 Clear 12 1006 47 0 1.74 247.494 13:23 10.09.2019
2158 Clear 12 1006 47 0 1.74 247.494 12:53 10.09.2019
2159 Clear 12 1006 47 0 1.74 247.494 12:53 10.09.2019
2160 Clear 12 1006 47 0 1.74 247.494 12:28 10.09.2019
2161 Clear 14 1006 25 0 2.56 249.803 11:59 10.09.2019
2162 Clear 14 1006 25 0 2.56 249.803 11:40 10.09.2019
2163 Clear 14 1006 25 0 2.56 249.803 11:22 10.09.2019
2164 Clear 14 1006 25 0 2.56 249.803 10:54 10.09.2019
2165 Clear 14 1006 25 0 2.56 249.803 10:36 10.09.2019
2166 Clear 14 1006 25 0 2.56 249.803 10:18 10.09.2019
2167 Clear 14 1006 25 0 2.56 249.803 09:43 10.09.2019
2168 Clear 13 1008 23 0 2.07 247.51 09:20 10.09.2019
2169 Clear 13 1008 23 0 2.07 247.51 09:20 10.09.2019
2170 Clear 13 1009 23 0 1.64 258.889 08:48 10.09.2019
2171 Clear 13 1009 23 0 1.64 258.889 08:29 10.09.2019
2172 Clear 13 1009 23 0 1.64 258.889 07:59 10.09.2019
2173 Clear 13 1009 23 0 1.64 258.889 07:41 10.09.2019
2174 Clear 13 1009 23 0 1.64 258.889 07:23 10.09.2019
2175 Clear 13 1009 23 0 1.64 258.889 06:40 10.09.2019
2176 Clear 7 1012 50 0 1.02 43.925 06:20 10.09.2019
2177 Clear 7 1012 50 0 1.02 43.925 04:19 10.09.2019
2178 Clear 2 1011 94 0 0.12 94.927 02:39 10.09.2019
2179 Clear 2 1011 94 0 0.12 94.927 02:39 10.09.2019
2180 Clear 2 1011 94 0 0.12 94.927 02:39 10.09.2019
2181 Clear 2 1011 94 0 0.12 94.927 02:20 10.09.2019
2182 Clear 2 1011 94 0 0.12 94.927 01:50 10.09.2019
2183 Clear 2 1011 94 0 0.12 94.927 01:50 10.09.2019
2184 Clear 2 1011 91 0 0.66 12.198 01:22 10.09.2019
2185 Clear 2 1011 91 0 0.66 12.198 00:36 10.09.2019
2186 Clear 4 1010 95 0 0.15 93.789 00:00 10.09.2019
2187 Clear 4 1010 95 0 0.15 93.789 23:40 09.09.2019
2188 Clear 4 1010 95 0 0.15 93.789 23:18 09.09.2019
2189 Clear 4 1010 95 0 0.15 93.789 22:55 09.09.2019
2190 -273 0 0 0 0 0 22:55 09.09.2019
2191 Clear 4 1010 95 0 0.15 93.789 22:55 09.09.2019
2192 Clear 4 1010 95 0 0.15 93.789 22:36 09.09.2019
2193 Clear 4 1010 95 0 0.15 93.789 22:18 09.09.2019
2194 -273 0 0 0 0 0 21:55 09.09.2019
2195 Clear 4 1010 95 0 0.15 93.789 21:55 09.09.2019
2196 Clear 4 1010 95 0 0.15 93.789 21:37 09.09.2019
2197 Clear 5 1010 91 0 0.46 176.219 21:18 09.09.2019
2198 Clear 5 1010 91 0 0.46 176.219 20:55 09.09.2019
2199 Clear 5 1010 85 0 0.48 193.949 20:36 09.09.2019
2200 Clear 5 1010 85 0 0.48 193.949 20:18 09.09.2019
2201 Clear 5 1010 85 0 0.48 193.949 19:55 09.09.2019
2202 Clear 5 1010 85 0 0.48 193.949 19:37 09.09.2019
2203 Clear 5 1010 85 0 0.48 193.949 19:18 09.09.2019
2204 Clear 5 1010 85 0 0.48 193.949 19:18 09.09.2019
2205 Clear 5 1010 85 0 0.48 193.949 18:54 09.09.2019
2206 Clear 5 1010 85 0 0.48 193.949 18:36 09.09.2019
2207 Clear 7 1009 83 0 0.86 280.436 18:18 09.09.2019
2208 Clear 7 1009 83 0 0.86 280.436 17:55 09.09.2019
2209 Clear 7 1009 83 0 0.86 280.436 17:37 09.09.2019
2210 Clear 7 1009 83 0 0.86 280.436 17:19 09.09.2019
2211 Clear 7 1009 83 0 0.86 280.436 16:40 09.09.2019
2212 Clear 7 1009 83 0 0.86 280.436 16:21 09.09.2019
2213 Clear 7 1009 83 0 0.86 280.436 15:56 09.09.2019
2214 Clear 7 1009 83 0 0.86 280.436 15:38 09.09.2019
2215 Clear 12 1005 52 0 1.82 242.56 15:19 09.09.2019
2216 Clear 12 1005 52 0 1.82 242.56 14:57 09.09.2019
2217 Clear 12 1005 52 0 1.82 242.56 14:38 09.09.2019
2218 Clear 12 1005 52 0 1.82 242.56 14:20 09.09.2019
2219 Clear 12 1005 52 0 1.82 242.56 13:45 09.09.2019
2220 Clear 12 1005 49 0 2 249.877 13:22 09.09.2019
2221 Clear 12 1005 49 0 2 249.877 13:22 09.09.2019
2222 Clear 12 1005 49 0 2 249.877 12:59 09.09.2019
2223 Clear 12 1005 49 0 2 249.877 12:59 09.09.2019
2224 Clear 12 1005 49 0 2 249.877 12:41 09.09.2019
2225 Clear 14 1006 25 0 2.55 257.918 12:21 09.09.2019
2226 Clear 14 1006 25 0 2.55 257.918 11:57 09.09.2019
2227 Clear 14 1006 25 0 2.55 257.918 11:39 09.09.2019
2228 Clear 14 1006 25 0 2.55 257.918 11:18 09.09.2019
2229 Clear 14 1006 25 0 2.55 257.918 10:42 09.09.2019
2230 Clear 14 1006 25 0 2.55 257.918 10:23 09.09.2019
2231 Clear 14 1006 25 0 2.55 257.918 09:58 09.09.2019
2232 Clear 14 1006 25 0 2.55 257.918 09:39 09.09.2019
2233 Clear 12 1009 25 0 1.27 250.48 09:21 09.09.2019
2234 Clear 12 1010 26 0 1.14 249.901 08:39 09.09.2019
2235 Clear 12 1010 26 0 1.14 249.901 08:21 09.09.2019
2236 Clear 12 1010 26 0 1.14 249.901 07:57 09.09.2019
2237 Clear 12 1010 26 0 1.14 249.901 07:38 09.09.2019
2238 Clear 12 1010 26 0 1.14 249.901 07:19 09.09.2019
2239 Clear 12 1010 26 0 1.14 249.901 06:46 09.09.2019
2240 Clear 7 1013 54 0 1.18 32.869 05:34 09.09.2019
2241 Clear 3 1013 87 0 1.45 41.112 02:59 09.09.2019
2242 Clear 3 1013 87 0 1.45 41.112 02:40 09.09.2019
2243 Clear 2 1013 92 0 1.15 28.726 01:20 09.09.2019
2244 Clear 4 1012 89 0 0.6 190.744 00:23 09.09.2019
2245 Clear 4 1012 89 0 0.6 190.744 23:47 08.09.2019
2246 Clear 4 1012 89 0 0.6 190.744 23:29 08.09.2019
2247 Clear 4 1012 89 0 0.6 190.744 22:59 08.09.2019
2248 Clear 4 1012 89 0 0.6 190.744 22:39 08.09.2019
2249 Clear 4 1012 89 0 0.6 190.744 22:21 08.09.2019
2250 Clear 4 1012 89 0 0.6 190.744 21:57 08.09.2019
2251 Clear 4 1012 89 0 0.6 190.744 21:39 08.09.2019
2252 Clear 5 1012 86 0 0.67 171.495 21:21 08.09.2019
2253 Clear 5 1012 86 0 0.67 171.495 20:41 08.09.2019
2254 Clear 5 1012 86 0 1.02 208.934 20:22 08.09.2019
2255 Clear 5 1012 86 0 1.02 208.934 19:59 08.09.2019
2256 Clear 5 1012 86 0 1.02 208.934 19:39 08.09.2019
2257 Clear 5 1012 86 0 1.02 208.934 19:21 08.09.2019
2258 Clear 5 1012 86 0 1.02 208.934 18:58 08.09.2019
2259 Clear 5 1012 86 0 1.02 208.934 18:39 08.09.2019
2260 Clear 7 1010 79 0 0.87 220.31 18:19 08.09.2019
2261 Clear 7 1010 79 0 0.87 220.31 17:58 08.09.2019
2262 Clear 7 1010 79 0 0.87 220.31 17:37 08.09.2019
2263 Clear 7 1010 79 0 0.87 220.31 17:18 08.09.2019
2264 Clear 7 1010 79 0 0.87 220.31 16:55 08.09.2019
2265 Clear 7 1010 79 0 0.87 220.31 16:37 08.09.2019
2266 Clear 7 1010 79 0 0.87 220.31 16:18 08.09.2019
2267 Clear 7 1010 79 0 0.87 220.31 15:42 08.09.2019
2268 Clear 11 1007 54 0 1.66 223.239 15:22 08.09.2019
2269 Clear 11 1007 54 0 1.66 223.239 15:22 08.09.2019
2270 Clear 11 1007 54 0 1.66 223.239 14:59 08.09.2019
2271 Clear 11 1007 54 0 1.66 223.239 14:39 08.09.2019
2272 Clear 11 1007 54 0 1.66 223.239 14:21 08.09.2019
2273 Clear 11 1007 54 0 1.66 223.239 13:57 08.09.2019
2274 Clear 11 1007 54 0 1.66 223.239 13:39 08.09.2019
2275 Clear 11 1006 58 0 1.94 222.327 13:21 08.09.2019
2276 Clear 11 1006 58 0 1.94 222.327 12:54 08.09.2019
2277 Clear 11 1006 58 0 1.94 222.327 12:54 08.09.2019
2278 Clear 11 1006 58 0 1.94 222.327 12:36 08.09.2019
2279 Clear 13 1008 37 0 2.51 239.146 12:18 08.09.2019
2280 Clear 13 1008 37 0 2.51 239.146 11:54 08.09.2019
2281 Clear 13 1008 37 0 2.51 239.146 11:36 08.09.2019
2282 Clear 13 1008 37 0 2.51 239.146 11:18 08.09.2019
2283 Clear 13 1008 37 0 2.51 239.146 10:41 08.09.2019
2284 Clear 13 1008 37 0 2.51 239.146 10:22 08.09.2019
2285 Clear 13 1008 37 0 2.51 239.146 09:55 08.09.2019
2286 Clear 13 1008 37 0 2.51 239.146 09:55 08.09.2019
2287 Clear 13 1008 37 0 2.51 239.146 09:37 08.09.2019
2288 Clear 13 1008 37 0 2.51 239.146 09:37 08.09.2019
2289 Clear 11 1011 32 0 2.14 219.355 09:19 08.09.2019
2290 Clear 11 1011 32 0 2.14 219.355 09:19 08.09.2019
2291 Clear 11 1011 32 0 1.64 213.913 08:39 08.09.2019
2292 Clear 11 1011 32 0 1.64 213.913 08:19 08.09.2019
2293 Clear 11 1011 32 0 1.64 213.913 07:42 08.09.2019
2294 Clear 11 1011 32 0 1.64 213.913 07:21 08.09.2019
2295 Clear 11 1011 32 0 1.64 213.913 06:57 08.09.2019
2296 Clear 11 1011 32 0 1.64 213.913 06:34 08.09.2019
2297 Clear 6 1013 56 0 0.74 66.397 05:40 08.09.2019
2298 Clear 6 1013 56 0 0.74 66.397 04:59 08.09.2019
2299 Clear 2 1014 88 0 0.49 78.393 03:23 08.09.2019
2300 Clear 2 1014 88 0 0.49 78.393 02:48 08.09.2019
2301 Clear 2 1014 88 0 0.49 78.393 01:54 08.09.2019
2302 Clouds 2 1013 93 0 0.55 69.015 01:26 08.09.2019
2303 Clouds 2 1013 93 0 0.55 69.015 00:49 08.09.2019
2304 Clouds 2 1013 93 0 0.55 69.015 00:30 08.09.2019
2305 Clouds 3 1012 92 0 0.63 208.676 23:57 07.09.2019
2306 Clouds 3 1012 92 0 0.63 208.676 23:37 07.09.2019
2307 Clouds 3 1012 92 0 0.63 208.676 23:18 07.09.2019
2308 Clouds 3 1012 92 0 0.63 208.676 22:43 07.09.2019
2309 Clouds 3 1012 92 0 0.63 208.676 22:23 07.09.2019
2310 Clouds 3 1012 92 0 0.63 208.676 21:56 07.09.2019
2311 Clouds 3 1012 92 0 0.63 208.676 21:38 07.09.2019
2312 Clear 5 1012 88 0 0.95 215.783 21:19 07.09.2019
2313 Clear 5 1011 85 0 0.89 227.135 20:40 07.09.2019
2314 Clear 5 1011 85 0 0.89 227.135 20:21 07.09.2019
2315 Clear 5 1011 85 0 0.89 227.135 19:57 07.09.2019
2316 Clear 5 1011 85 0 0.89 227.135 19:38 07.09.2019
2317 Clear 5 1011 85 0 0.89 227.135 19:19 07.09.2019
2318 Clear 5 1011 85 0 0.89 227.135 18:58 07.09.2019
2319 Clear 5 1011 85 0 0.89 227.135 18:58 07.09.2019
2320 Clear 5 1011 85 0 0.89 227.135 18:39 07.09.2019
2321 Clear 6 1009 82 0 1.25 201.572 18:20 07.09.2019
2322 Clear 6 1009 82 0 1.25 201.572 17:59 07.09.2019
2323 Clear 6 1009 82 0 1.25 201.572 17:39 07.09.2019
2324 Clear 6 1009 82 0 1.25 201.572 17:18 07.09.2019
2325 Clear 6 1009 82 0 1.25 201.572 16:57 07.09.2019
2326 Clear 6 1009 82 0 1.25 201.572 16:39 07.09.2019
2327 Clear 6 1009 82 0 1.25 201.572 16:19 07.09.2019
2328 Clear 6 1009 82 0 1.25 201.572 15:45 07.09.2019
2329 Clear 6 1009 82 0 1.25 201.572 15:26 07.09.2019
2330 Rain 9 1006 66 0 2.81 222.862 14:56 07.09.2019
2331 Rain 9 1006 66 0 2.81 222.862 14:36 07.09.2019
2332 Rain 9 1006 66 0 2.81 222.862 14:18 07.09.2019
2333 Rain 9 1006 66 0 2.81 222.862 13:56 07.09.2019
2334 Rain 9 1006 66 0 2.81 222.862 13:37 07.09.2019
2335 Rain 10 1005 61 0 2.44 227.109 13:19 07.09.2019
2336 Rain 10 1005 61 0 2.44 227.109 12:44 07.09.2019
2337 Clear 13 1005 45 0 3.49 231.027 12:24 07.09.2019
2338 Clear 13 1005 45 0 3.49 231.027 11:42 07.09.2019
2339 Clear 13 1005 45 0 3.49 231.027 11:22 07.09.2019
2340 Clear 13 1005 45 0 3.49 231.027 10:59 07.09.2019
2341 Clear 13 1005 45 0 3.49 231.027 10:38 07.09.2019
2342 Clear 13 1005 45 0 3.49 231.027 10:19 07.09.2019
2343 Clear 13 1005 45 0 3.49 231.027 09:43 07.09.2019
2344 Clear 12 1008 37 0 2.4 222.216 09:24 07.09.2019
2345 Clear 12 1008 37 0 2.4 222.216 08:57 07.09.2019
2346 Clear 12 1009 40 0 2.6 210.169 08:37 07.09.2019
2347 Clear 12 1009 40 0 2.6 210.169 08:19 07.09.2019
2348 Clear 12 1009 40 0 2.6 210.169 07:45 07.09.2019
2349 Clear 12 1009 40 0 2.6 210.169 07:24 07.09.2019
2350 Clear 12 1009 40 0 2.6 210.169 06:45 07.09.2019
2351 Clear 7 1011 58 0 0.92 157.184 06:19 07.09.2019
2352 Clear 7 1011 58 0 0.92 157.184 04:45 07.09.2019
2353 Clear 7 1011 58 0 0.92 157.184 04:19 07.09.2019
2354 Clouds 4 1011 86 0 0.35 71.824 02:45 07.09.2019
2355 Clouds 4 1011 86 0 0.35 71.824 01:44 07.09.2019
2356 Clear 3 1011 91 0 0.24 354.313 01:18 07.09.2019
2357 Clear 3 1011 91 0 0.24 354.313 00:39 07.09.2019
2358 Clear 5 1009 91 0 0.86 225.947 00:19 07.09.2019
2359 Clear 5 1009 91 0 0.86 225.947 23:40 06.09.2019
2360 Clear 5 1009 91 0 0.86 225.947 23:40 06.09.2019
2361 Clear 5 1009 91 0 0.86 225.947 23:21 06.09.2019
2362 Clear 5 1009 91 0 0.86 225.947 23:21 06.09.2019
2363 Clear 5 1009 91 0 0.86 225.947 23:21 06.09.2019
2364 Clear 5 1009 91 0 0.86 225.947 22:57 06.09.2019
2365 Clear 5 1009 91 0 0.86 225.947 22:38 06.09.2019
2366 Clear 5 1009 91 0 0.86 225.947 22:19 06.09.2019
2367 Clear 5 1009 91 0 0.86 225.947 21:57 06.09.2019
2368 Clear 5 1009 91 0 0.86 225.947 21:38 06.09.2019
2369 Clear 6 1009 92 0 0.97 198.454 21:20 06.09.2019
2370 Clear 6 1009 92 0 0.97 198.454 20:57 06.09.2019
2371 Clear 6 1009 89 0 1.07 217.536 20:38 06.09.2019
2372 Clear 6 1009 89 0 1.07 217.536 20:18 06.09.2019
2373 Clear 6 1009 89 0 1.07 217.536 19:42 06.09.2019
2374 Clear 6 1009 89 0 1.07 217.536 19:24 06.09.2019
2375 Clear 6 1009 89 0 1.07 217.536 18:59 06.09.2019
2376 Clear 6 1009 89 0 1.07 217.536 18:40 06.09.2019
2377 Clear 6 1009 89 0 1.07 217.536 18:40 06.09.2019
2378 Clear 7 1007 82 0 0.91 256.868 18:22 06.09.2019
2379 Clear 7 1007 82 0 0.91 256.868 17:57 06.09.2019
2380 Clear 7 1007 82 0 0.91 256.868 17:57 06.09.2019
2381 Clear 7 1007 82 0 0.91 256.868 17:37 06.09.2019
2382 Clear 7 1007 82 0 0.91 256.868 17:19 06.09.2019
2383 Clear 7 1007 82 0 0.91 256.868 16:39 06.09.2019
2384 Clear 7 1007 82 0 0.91 256.868 16:18 06.09.2019
2385 Clear 7 1007 82 0 0.91 256.868 15:42 06.09.2019
2386 Clear 7 1007 82 0 0.91 256.868 15:42 06.09.2019
2387 Clear 7 1007 82 0 0.91 256.868 15:42 06.09.2019
2388 Rain 12 1005 55 0 1.67 239.296 15:23 06.09.2019
2389 -273 0 0 0 0 0 14:55 06.09.2019
2390 Rain 12 1005 55 0 1.67 239.296 14:55 06.09.2019
2391 Rain 12 1005 55 0 1.67 239.296 14:37 06.09.2019
2392 Rain 12 1005 55 0 1.67 239.296 14:37 06.09.2019
2393 Rain 12 1005 55 0 1.67 239.296 14:18 06.09.2019
2394 Rain 12 1005 55 0 1.67 239.296 13:41 06.09.2019
2395 Rain 12 1005 55 0 1.67 239.296 13:41 06.09.2019
2396 Rain 12 1004 57 0 2.08 232.783 13:20 06.09.2019
2397 Rain 12 1004 57 0 2.08 232.783 12:38 06.09.2019
2398 Clear 14 1005 45 0 2.65 237.779 12:19 06.09.2019
2399 Clear 14 1005 45 0 2.65 237.779 11:54 06.09.2019
2400 Clear 14 1005 45 0 2.65 237.779 11:36 06.09.2019
2401 Clear 14 1005 45 0 2.65 237.779 11:18 06.09.2019
2402 Clear 14 1005 45 0 2.65 237.779 10:40 06.09.2019
2403 Clear 14 1005 45 0 2.7 232.49 10:22 06.09.2019
2404 Clear 14 1005 45 0 2.7 232.49 09:57 06.09.2019
2405 Clear 14 1005 45 0 2.7 232.49 09:36 06.09.2019
2406 Clear 12 1009 41 0 1.58 225.334 09:18 06.09.2019
2407 Clear 12 1009 41 0 1.58 225.334 08:43 06.09.2019
2408 Clear 12 1009 41 0 1.58 225.334 08:25 06.09.2019
2409 Clear 12 1009 41 0 1.58 225.334 07:48 06.09.2019
2410 Clear 12 1009 41 0 1.58 225.334 07:27 06.09.2019
2411 Clear 12 1009 41 0 1.58 225.334 06:58 06.09.2019
2412 Clear 12 1009 41 0 1.58 225.334 06:28 06.09.2019
2413 Clouds 8 1011 65 0 0.71 116.961 05:43 06.09.2019
2414 Clouds 8 1011 65 0 0.71 116.961 04:52 06.09.2019
2415 Clouds 8 1011 65 0 0.71 116.961 04:19 06.09.2019
2416 Clouds 5 1011 88 0 0.7 136.265 02:27 06.09.2019
2417 Clear 5 1011 84 0 0.64 119.668 00:48 06.09.2019
2418 Clear 5 1009 91 0 0.79 197.103 23:58 05.09.2019
2419 Clear 5 1009 91 0 0.79 197.103 23:40 05.09.2019
2420 Clear 5 1009 91 0 0.79 197.103 23:21 05.09.2019
2421 Clear 5 1009 91 0 0.79 197.103 22:45 05.09.2019
2422 Clear 5 1009 91 0 0.79 197.103 22:25 05.09.2019
2423 Clear 5 1009 91 0 0.79 197.103 21:57 05.09.2019
2424 Clear 5 1009 91 0 0.79 197.103 21:38 05.09.2019
2425 Clear 6 1010 89 0 0.85 216.992 21:20 05.09.2019
2426 Clear 6 1010 89 0 0.85 216.992 20:58 05.09.2019
2427 Clear 6 1009 88 0 0.85 228.878 20:38 05.09.2019
2428 Clear 6 1009 88 0 0.85 228.878 20:20 05.09.2019
2429 Clear 6 1009 88 0 0.85 228.878 19:57 05.09.2019
2430 Clear 6 1009 88 0 0.85 228.878 19:38 05.09.2019
2431 Clear 6 1009 88 0 0.85 228.878 19:19 05.09.2019
2432 Clear 6 1009 88 0 0.85 228.878 18:41 05.09.2019
2433 Clear 8 1007 82 0 0.71 218.736 18:23 05.09.2019
2434 Clear 8 1007 82 0 0.71 218.736 17:58 05.09.2019
2435 Clear 8 1007 82 0 0.71 218.736 17:39 05.09.2019
2436 Clear 8 1007 82 0 0.71 218.736 17:39 05.09.2019
2437 Clear 8 1007 82 0 0.71 218.736 17:39 05.09.2019
2438 Clear 8 1007 82 0 0.71 218.736 17:20 05.09.2019
2439 Clear 8 1007 82 0 0.71 218.736 17:20 05.09.2019
2440 Clear 8 1007 82 0 0.71 218.736 16:57 05.09.2019
2441 Clear 8 1007 82 0 0.71 218.736 16:39 05.09.2019
2442 Clear 8 1007 82 0 0.71 218.736 16:18 05.09.2019
2443 Clear 8 1007 82 0 0.71 218.736 15:40 05.09.2019
2444 Clear 8 1007 82 0 0.71 218.736 15:40 05.09.2019
2445 Rain 11 1006 63 0 1.25 230.376 15:19 05.09.2019
2446 Rain 11 1006 63 0 1.25 230.376 14:57 05.09.2019
2447 Rain 11 1006 63 0 1.25 230.376 14:57 05.09.2019
2448 Rain 11 1006 63 0 1.25 230.376 14:38 05.09.2019
2449 Rain 11 1006 63 0 1.25 230.376 14:38 05.09.2019
2450 Rain 11 1006 63 0 1.25 230.376 14:18 05.09.2019
2451 Rain 11 1006 63 0 1.25 230.376 13:43 05.09.2019
2452 Rain 12 1005 61 0 1.35 240.287 13:20 05.09.2019
2453 Rain 12 1005 61 0 1.35 240.287 12:45 05.09.2019
2454 Rain 12 1005 61 0 1.35 240.287 12:26 05.09.2019
2455 Rain 14 1006 50 0 2.27 232.092 11:57 05.09.2019
2456 Rain 14 1006 50 0 2.27 232.092 11:39 05.09.2019
2457 Rain 14 1006 50 0 2.27 232.092 11:18 05.09.2019
2458 Rain 14 1006 50 0 2.27 232.092 10:41 05.09.2019
2459 Rain 14 1006 50 0 2.27 232.092 10:22 05.09.2019
2460 Rain 14 1006 50 0 2.27 232.092 09:58 05.09.2019
2461 Rain 14 1006 50 0 2.27 232.092 09:58 05.09.2019
2462 Clear 14 1006 46 0 2.37 241.042 09:38 05.09.2019
2463 Clouds 12 1010 38 0 1.49 231.748 09:18 05.09.2019
2464 Clouds 12 1010 38 0 1.49 231.748 09:18 05.09.2019
2465 Clouds 12 1010 38 0 1.49 231.748 09:18 05.09.2019
2466 Clouds 12 1010 38 0 1.49 231.748 08:45 05.09.2019
2467 Clouds 12 1010 38 0 1.49 231.748 08:26 05.09.2019
2468 Clouds 12 1010 38 0 1.49 231.748 07:46 05.09.2019
2469 Clouds 12 1010 38 0 1.49 231.748 07:27 05.09.2019
2470 Clouds 12 1010 38 0 1.49 231.748 06:57 05.09.2019
2471 Clouds 12 1010 38 0 1.49 231.748 06:31 05.09.2019
2472 Clouds 8 1012 66 0 0.73 145.877 05:50 05.09.2019
2473 Clouds 8 1012 66 0 0.73 145.877 05:30 05.09.2019
2474 Clouds 8 1012 66 0 0.73 145.877 04:50 05.09.2019
2475 Clouds 8 1012 66 0 0.73 145.877 04:25 05.09.2019
2476 Clouds 8 1012 66 0 0.73 145.877 03:40 05.09.2019
2477 Clouds 5 1012 89 0 0.79 217.78 02:51 05.09.2019
2478 Clouds 5 1012 89 0 0.79 217.78 02:27 05.09.2019
2479 Clouds 5 1012 89 0 0.79 217.78 01:37 05.09.2019
2480 Clouds 5 1012 89 0 0.79 217.78 01:37 05.09.2019
2481 Clear 3 1012 94 0 0.44 136.008 00:44 05.09.2019
2482 Clear 5 1010 92 0 0.38 238.283 00:21 05.09.2019
2483 Clear 5 1010 92 0 0.38 238.283 23:56 04.09.2019
2484 Clear 5 1010 92 0 0.38 238.283 23:37 04.09.2019
2485 Clear 5 1010 92 0 0.38 238.283 23:18 04.09.2019
2486 Clear 5 1010 92 0 0.38 238.283 22:42 04.09.2019
2487 Clear 5 1010 92 0 0.38 238.283 22:19 04.09.2019
2488 Clear 5 1010 93 0 0.81 214.417 21:40 04.09.2019
2489 Clouds 7 1009 82 0 1.17 233.15 21:20 04.09.2019
2490 Clouds 7 1009 82 0 1.17 233.15 21:20 04.09.2019
2491 Clouds 7 1009 82 0 1.17 233.15 21:20 04.09.2019
2492 Clouds 7 1009 82 0 1.17 233.15 20:57 04.09.2019
2493 Clouds 7 1009 82 0 1.17 233.15 20:39 04.09.2019
2494 Clouds 7 1009 82 0 1.17 233.15 20:19 04.09.2019
2495 Clouds 7 1009 82 0 1.17 233.15 19:57 04.09.2019
2496 Clouds 7 1009 82 0 1.17 233.15 19:38 04.09.2019
2497 Clouds 7 1009 82 0 1.17 233.15 19:19 04.09.2019
2498 Clouds 7 1009 82 0 1.17 233.15 18:39 04.09.2019
2499 Clouds 9 1007 73 0 0.5 290.343 18:20 04.09.2019
2500 Clouds 9 1007 73 0 0.5 290.343 17:54 04.09.2019
2501 Clouds 9 1007 73 0 0.5 290.343 17:36 04.09.2019
2502 Clouds 9 1007 73 0 0.5 290.343 17:18 04.09.2019
2503 Clouds 9 1007 73 0 0.5 290.343 16:46 04.09.2019
2504 Clouds 9 1007 73 0 0.5 290.343 16:28 04.09.2019
2505 Clouds 9 1007 73 0 0.5 290.343 15:58 04.09.2019
2506 Clouds 9 1007 73 0 0.5 290.343 15:39 04.09.2019
2507 Rain 10 1005 73 0 1.35 226.832 15:20 04.09.2019
2508 Rain 10 1005 73 0 1.35 226.832 14:56 04.09.2019
2509 Rain 10 1005 73 0 1.35 226.832 14:37 04.09.2019
2510 Rain 10 1005 73 0 1.35 226.832 14:19 04.09.2019
2511 Rain 10 1005 73 0 1.35 226.832 13:40 04.09.2019
2512 Rain 10 1004 72 0 1.29 230.917 13:22 04.09.2019
2513 Rain 10 1004 72 0 1.29 230.917 12:59 04.09.2019
2514 Rain 10 1004 72 0 1.29 230.917 12:39 04.09.2019
2515 Rain 12 1006 61 0 2.91 222.078 12:21 04.09.2019
2516 Rain 12 1006 61 0 2.91 222.078 11:55 04.09.2019
2517 Rain 12 1006 61 0 2.91 222.078 11:37 04.09.2019
2518 Rain 12 1006 61 0 2.91 222.078 11:18 04.09.2019
2519 Rain 12 1006 61 0 2.91 222.078 10:44 04.09.2019
2520 Rain 12 1006 61 0 2.91 222.078 10:25 04.09.2019
2521 Rain 12 1006 65 0 3.2 216.623 09:57 04.09.2019
2522 Rain 12 1006 65 0 3.2 216.623 09:39 04.09.2019
2523 Clouds 12 1008 46 0 1.45 242.869 09:18 04.09.2019
2524 Clouds 12 1008 46 0 1.45 242.869 08:41 04.09.2019
2525 Clouds 12 1008 46 0 1.45 242.869 08:23 04.09.2019
2526 Clouds 12 1008 46 0 1.45 242.869 08:23 04.09.2019
2527 Clouds 12 1008 46 0 1.45 242.869 07:56 04.09.2019
2528 Clouds 12 1008 46 0 1.45 242.869 07:33 04.09.2019
2529 Clouds 12 1008 46 0 1.45 242.869 06:49 04.09.2019
2530 Clouds 8 1011 64 0 0.73 212.471 06:21 04.09.2019
2531 Clouds 8 1011 64 0 0.73 212.471 04:53 04.09.2019
2532 Clouds 8 1011 64 0 0.73 212.471 04:20 04.09.2019
2533 Clouds 6 1011 88 0 0.55 231.422 02:21 04.09.2019
2534 Clear 5 1010 89 0 0.13 322.512 00:56 04.09.2019
2535 Clear 5 1010 89 0 0.13 322.512 00:36 04.09.2019
2536 Clear 5 1009 91 0 0.88 177.079 00:00 04.09.2019
2537 Clear 5 1009 91 0 0.88 177.079 23:38 03.09.2019
2538 Clear 5 1009 91 0 0.88 177.079 23:20 03.09.2019
2539 Clear 5 1009 91 0 0.88 177.079 22:40 03.09.2019
2540 Clear 5 1009 91 0 0.88 177.079 22:22 03.09.2019
2541 Clear 5 1009 90 0 0.92 178.939 21:56 03.09.2019
2542 Clear 5 1009 90 0 0.92 178.939 21:38 03.09.2019
2543 Clouds 7 1009 85 0 1.18 228.865 21:20 03.09.2019
2544 Clouds 7 1009 85 0 1.18 228.865 20:54 03.09.2019
2545 Clouds 7 1009 85 0 1.18 228.865 20:36 03.09.2019
2546 Clouds 7 1009 85 0 1.18 228.865 20:36 03.09.2019
2547 Clouds 7 1009 85 0 1.18 228.865 20:18 03.09.2019
2548 Clouds 7 1009 85 0 1.18 228.865 19:42 03.09.2019
2549 Clouds 7 1009 85 0 1.18 228.865 19:19 03.09.2019
2550 Clouds 7 1009 85 0 1.18 228.865 18:56 03.09.2019
2551 Clouds 7 1009 85 0 1.18 228.865 18:38 03.09.2019
2552 Clouds 8 1008 85 0 0.92 226.01 18:18 03.09.2019
2553 Clouds 8 1008 85 0 0.92 226.01 17:43 03.09.2019
2554 Clouds 8 1008 85 0 0.92 226.01 17:43 03.09.2019
2555 Clouds 8 1008 85 0 0.92 226.01 17:23 03.09.2019
2556 Clouds 8 1008 85 0 0.92 226.01 17:00 03.09.2019
2557 Clouds 8 1008 85 0 0.92 226.01 16:41 03.09.2019
2558 Clouds 8 1008 85 0 0.92 226.01 16:22 03.09.2019
2559 Clouds 8 1008 85 0 0.92 226.01 15:55 03.09.2019
2560 Clouds 8 1008 85 0 0.92 226.01 15:37 03.09.2019
2561 Rain 11 1006 72 0 1.48 224.289 15:19 03.09.2019
2562 Rain 11 1006 72 0 1.48 224.289 14:55 03.09.2019
2563 Rain 11 1006 72 0 1.48 224.289 14:36 03.09.2019
2564 Rain 11 1006 72 0 1.48 224.289 14:18 03.09.2019
2565 Rain 11 1006 72 0 1.48 224.289 13:55 03.09.2019
2566 Rain 11 1006 72 0 1.48 224.289 13:36 03.09.2019
2567 Rain 11 1005 71 0 1.53 232.349 13:18 03.09.2019
2568 Rain 11 1005 71 0 1.53 232.349 12:45 03.09.2019
2569 Rain 11 1005 71 0 1.53 232.349 12:26 03.09.2019
2570 Rain 13 1007 58 0 2.92 219.439 11:43 03.09.2019
2571 Rain 13 1007 58 0 2.92 219.439 11:23 03.09.2019
2572 Rain 13 1007 58 0 2.92 219.439 10:58 03.09.2019
2573 Rain 13 1007 58 0 2.92 219.439 10:39 03.09.2019
2574 Rain 13 1007 58 0 2.92 219.439 10:21 03.09.2019
2575 Rain 13 1007 58 0 2.92 219.439 09:49 03.09.2019
2576 Rain 13 1007 63 0 3.31 223.64 09:31 03.09.2019
2577 Clear 13 1009 49 0 1.28 227.06 08:57 03.09.2019
2578 Clear 13 1009 49 0 1.28 227.06 08:37 03.09.2019
2579 Clear 13 1009 49 0 1.28 227.06 08:19 03.09.2019
2580 Clear 13 1009 49 0 1.28 227.06 07:43 03.09.2019
2581 Clear 13 1009 49 0 1.28 227.06 07:24 03.09.2019
2582 Clear 13 1009 49 0 1.28 227.06 06:47 03.09.2019
2583 Clear 13 1009 49 0 1.28 227.06 06:28 03.09.2019
2584 Clear 8 1011 76 0 0.4 136.108 03:44 03.09.2019
2585 Clear 4 1011 96 0 0.48 177.354 02:48 03.09.2019
2586 Clear 4 1011 96 0 0.48 177.354 02:27 03.09.2019
2587 Clear 4 1011 96 0 0.48 177.354 01:53 03.09.2019
2588 Clear 4 1011 95 0 0.55 228.658 01:34 03.09.2019
2589 Clear 4 1011 95 0 0.55 228.658 00:57 03.09.2019
2590 Clear 4 1011 95 0 0.55 228.658 00:27 03.09.2019
2591 Clear 5 1010 95 0 0.55 256.958 23:41 02.09.2019
2592 Clear 5 1010 95 0 0.55 256.958 23:21 02.09.2019
2593 Clear 5 1010 95 0 0.55 256.958 23:21 02.09.2019
2594 Clear 5 1010 95 0 0.55 256.958 22:58 02.09.2019
2595 Clear 5 1010 95 0 0.55 256.958 22:58 02.09.2019
2596 Clear 5 1010 95 0 0.55 256.958 22:39 02.09.2019
2597 Clear 5 1010 95 0 0.55 256.958 22:21 02.09.2019
2598 Clear 5 1010 95 0 0.55 256.958 21:58 02.09.2019
2599 Clear 5 1009 94 0 0.57 224.929 21:40 02.09.2019
2600 Clouds 6 1009 91 0 0.92 215.711 21:20 02.09.2019
2601 Clouds 6 1009 91 0 0.92 215.711 20:59 02.09.2019
2602 Clouds 6 1009 91 0 0.92 215.711 20:40 02.09.2019
2603 Clouds 6 1009 91 0 0.92 215.711 20:19 02.09.2019
2604 Clouds 6 1009 91 0 0.92 215.711 19:57 02.09.2019
2605 Clouds 6 1009 91 0 0.92 215.711 19:57 02.09.2019
2606 Clouds 6 1009 91 0 0.92 215.711 19:39 02.09.2019
2607 Clouds 6 1009 91 0 0.92 215.711 19:20 02.09.2019
2608 Clouds 6 1009 91 0 0.92 215.711 18:41 02.09.2019
2609 Clear 8 1009 87 0 0.95 233.13 18:22 02.09.2019
2610 Clear 8 1009 87 0 0.95 233.13 17:58 02.09.2019
2611 Clear 8 1009 87 0 0.95 233.13 17:39 02.09.2019
2612 Clear 8 1009 87 0 0.95 233.13 17:21 02.09.2019
2613 Clear 8 1009 87 0 0.95 233.13 17:21 02.09.2019
2614 Clear 8 1009 87 0 0.95 233.13 16:58 02.09.2019
2615 Clear 8 1009 87 0 0.95 233.13 16:38 02.09.2019
2616 Clear 8 1009 87 0 0.95 233.13 16:20 02.09.2019
2617 Clear 8 1009 87 0 0.95 233.13 15:45 02.09.2019
2618 Clear 8 1009 87 0 0.95 233.13 15:26 02.09.2019
2619 Rain 11 1006 69 0 1.31 243.103 14:57 02.09.2019
2620 Rain 11 1006 69 0 1.31 243.103 14:38 02.09.2019
2621 Rain 11 1006 69 0 1.31 243.103 14:20 02.09.2019
2622 Rain 11 1006 69 0 1.31 243.103 13:55 02.09.2019
2623 Rain 11 1006 69 0 1.31 243.103 13:55 02.09.2019
2624 Rain 11 1006 69 0 1.31 243.103 13:36 02.09.2019
2625 Rain 11 1006 71 0 1.38 240.527 13:18 02.09.2019
2626 Rain 11 1006 71 0 1.38 240.527 12:43 02.09.2019
2627 Rain 12 1008 62 0 2.44 229.289 12:24 02.09.2019
2628 Rain 12 1008 62 0 2.44 229.289 11:58 02.09.2019
2629 Rain 12 1008 62 0 2.44 229.289 11:38 02.09.2019
2630 Rain 12 1008 62 0 2.44 229.289 11:20 02.09.2019
2631 Rain 12 1008 62 0 2.44 229.289 10:56 02.09.2019
2632 Rain 12 1008 62 0 2.44 229.289 10:37 02.09.2019
2633 Rain 12 1008 62 0 2.44 229.289 10:19 02.09.2019
2634 Rain 12 1008 62 0 2.44 229.289 09:45 02.09.2019
2635 Clouds 12 1010 55 0 1.08 219.724 09:22 02.09.2019
2636 Clouds 12 1010 55 0 1.08 219.724 09:22 02.09.2019
2637 Clouds 12 1010 55 0 1.08 219.724 08:45 02.09.2019
2638 Clouds 12 1010 55 0 1.08 219.724 08:24 02.09.2019
2639 Clouds 12 1010 55 0 1.08 219.724 07:59 02.09.2019
2640 Clouds 12 1010 55 0 1.08 219.724 07:40 02.09.2019
2641 Clouds 12 1010 55 0 1.08 219.724 07:21 02.09.2019
2642 Clouds 12 1010 55 0 1.08 219.724 06:44 02.09.2019
2643 -273 0 0 0 0 0 06:25 02.09.2019
2644 Clear 8 1013 74 0 0.31 49.521 05:47 02.09.2019
2645 Clear 8 1013 74 0 0.31 49.521 05:18 02.09.2019
2646 Clear 8 1013 74 0 0.31 49.521 04:18 02.09.2019
2647 Clouds 4 1012 93 0 0.5 184.16 01:45 02.09.2019
2648 Clouds 4 1012 93 0 0.69 163 00:48 02.09.2019
2649 Clouds 4 1012 93 0 0.69 163 00:30 02.09.2019
2650 Clouds 5 1010 92 0 0.43 202.467 23:44 01.09.2019
2651 Clouds 5 1010 92 0 0.43 202.467 23:22 01.09.2019
2652 Clouds 5 1010 92 0 0.43 202.467 22:59 01.09.2019
2653 Clouds 5 1010 92 0 0.43 202.467 22:39 01.09.2019
2654 Clouds 5 1010 92 0 0.43 202.467 22:19 01.09.2019
2655 Clouds 5 1010 92 0 0.43 202.467 21:57 01.09.2019
2656 Clouds 5 1010 93 0 0.71 216.966 21:38 01.09.2019
2657 Clouds 6 1010 90 0 0.7 279.032 21:20 01.09.2019
2658 Clouds 6 1010 90 0 0.7 279.032 20:56 01.09.2019
2659 Clouds 6 1010 90 0 0.7 279.032 20:38 01.09.2019
2660 Clouds 6 1010 90 0 0.7 279.032 20:18 01.09.2019
2661 Clouds 6 1010 90 0 0.7 279.032 19:57 01.09.2019
2662 Clouds 6 1010 90 0 0.7 279.032 19:37 01.09.2019
2663 Clouds 6 1010 90 0 0.7 279.032 19:19 01.09.2019
2664 Clouds 6 1010 90 0 0.7 279.032 18:43 01.09.2019
2665 Rain 8 1010 87 0 0.57 295.85 18:25 01.09.2019
2666 Rain 8 1010 87 0 0.57 295.85 17:55 01.09.2019
2667 Rain 8 1010 87 0 0.57 295.85 17:55 01.09.2019
2668 Rain 8 1010 87 0 0.57 295.85 17:37 01.09.2019
2669 Rain 8 1010 87 0 0.57 295.85 17:19 01.09.2019
2670 Rain 8 1010 87 0 0.57 295.85 16:41 01.09.2019
2671 Rain 8 1010 87 0 0.57 295.85 16:19 01.09.2019
2672 Rain 8 1010 87 0 0.57 295.85 15:48 01.09.2019
2673 Rain 8 1010 87 0 0.57 295.85 15:29 01.09.2019
2674 Rain 10 1008 76 0 1.57 220.98 14:59 01.09.2019
2675 Rain 10 1008 76 0 1.57 220.98 14:40 01.09.2019
2676 Rain 10 1008 76 0 1.57 220.98 14:20 01.09.2019
2677 Rain 10 1008 76 0 1.57 220.98 13:54 01.09.2019
2678 Rain 10 1008 76 0 1.57 220.98 13:54 01.09.2019
2679 Rain 10 1008 76 0 1.57 220.98 13:36 01.09.2019
2680 Rain 10 1007 77 0 2.55 227.784 13:18 01.09.2019
2681 Rain 10 1007 77 0 2.55 227.784 12:41 01.09.2019
2682 Rain 12 1008 66 0 3.24 235.541 12:23 01.09.2019
2683 Rain 12 1008 66 0 3.24 235.541 11:41 01.09.2019
2684 Rain 12 1008 66 0 3.24 235.541 11:41 01.09.2019
2685 Rain 12 1008 66 0 3.24 235.541 11:20 01.09.2019
2686 Rain 12 1008 66 0 3.24 235.541 10:59 01.09.2019
2687 Rain 12 1008 66 0 3.24 235.541 10:41 01.09.2019
2688 Rain 12 1008 66 0 3.24 235.541 10:23 01.09.2019
2689 Rain 12 1008 66 0 3.24 235.541 09:43 01.09.2019
2690 Rain 12 1008 61 0 3.07 234.849 09:25 01.09.2019
2691 Rain 13 1009 52 0 1.78 235.818 08:45 01.09.2019
2692 Rain 13 1009 52 0 1.78 235.818 08:24 01.09.2019
2693 Rain 13 1009 52 0 1.78 235.818 07:58 01.09.2019
2694 Rain 13 1009 52 0 1.78 235.818 07:40 01.09.2019
2695 Rain 13 1009 52 0 1.78 235.818 06:59 01.09.2019
2696 Rain 13 1009 52 0 1.78 235.818 06:34 01.09.2019
2697 Clear 9 1012 70 0 0.54 209.034 05:57 01.09.2019
2698 Clear 9 1012 70 0 0.54 209.034 04:34 01.09.2019
2699 Clear 9 1012 70 0 0.54 209.034 03:43 01.09.2019
2700 Clear 4 1011 91 0 0.57 114.712 02:59 01.09.2019
2701 Clear 4 1011 91 0 0.57 114.712 02:29 01.09.2019
2702 Clear 4 1011 91 0 0.57 114.712 01:52 01.09.2019
2703 Clear 4 1011 93 0 0.27 107.504 01:25 01.09.2019
2704 Clear 4 1011 93 0 0.27 107.504 00:47 01.09.2019
2705 Clear 5 1010 91 0 0.58 173.452 00:23 01.09.2019
2706 Clear 5 1010 91 0 0.58 173.452 23:56 31.08.2019
2707 Clear 5 1010 91 0 0.58 173.452 23:38 31.08.2019
2708 Clear 5 1010 91 0 0.58 173.452 23:18 31.08.2019
2709 Clear 5 1010 91 0 0.58 173.452 22:54 31.08.2019
2710 Clear 5 1010 91 0 0.58 173.452 22:36 31.08.2019
2711 Clear 5 1010 91 0 0.58 173.452 22:36 31.08.2019
2712 Clear 5 1010 91 0 0.58 173.452 22:36 31.08.2019
2713 Clear 5 1010 91 0 0.58 173.452 22:18 31.08.2019
2714 Clear 5 1010 91 0 0.58 173.452 21:40 31.08.2019
2715 Clear 5 1010 91 0 0.58 173.452 21:40 31.08.2019
2716 Clear 7 1009 89 0 0.37 194.76 21:21 31.08.2019
2717 Clear 7 1009 89 0 0.37 194.76 20:50 31.08.2019
2718 Clear 7 1009 89 0 0.37 194.76 20:31 31.08.2019
2719 Clear 7 1009 89 0 0.37 194.76 19:59 31.08.2019
2720 Clear 7 1009 89 0 0.37 194.76 19:40 31.08.2019
2721 Clear 7 1009 89 0 0.37 194.76 19:21 31.08.2019
2722 Clear 7 1009 89 0 0.37 194.76 18:41 31.08.2019
2723 Rain 8 1008 86 0 0.46 261.339 18:21 31.08.2019
2724 Rain 8 1008 86 0 0.46 261.339 17:58 31.08.2019
2725 Rain 8 1008 86 0 0.46 261.339 17:37 31.08.2019
2726 Rain 8 1008 86 0 0.46 261.339 17:19 31.08.2019
2727 Rain 8 1008 86 0 0.46 261.339 16:59 31.08.2019
2728 Rain 8 1008 86 0 0.46 261.339 16:41 31.08.2019
2729 Rain 8 1008 86 0 0.46 261.339 16:21 31.08.2019
2730 Rain 8 1008 86 0 0.46 261.339 15:59 31.08.2019
2731 Rain 8 1008 86 0 0.46 261.339 15:38 31.08.2019
2732 Rain 8 1008 86 0 0.46 261.339 15:38 31.08.2019
2733 Rain 10 1005 74 0 2.11 231.323 15:18 31.08.2019
2734 Rain 10 1005 74 0 2.11 231.323 14:42 31.08.2019
2735 Rain 10 1005 74 0 2.11 231.323 14:24 31.08.2019
2736 Rain 10 1005 74 0 2.11 231.323 13:57 31.08.2019
2737 Rain 10 1005 74 0 2.11 231.323 13:37 31.08.2019
2738 Rain 10 1004 73 0 2.42 228.333 13:18 31.08.2019
2739 Rain 10 1004 73 0 2.42 228.333 12:42 31.08.2019
2740 Rain 12 1006 64 0 2.74 228.25 12:21 31.08.2019
2741 Rain 12 1006 64 0 2.74 228.25 11:59 31.08.2019
2742 Rain 12 1006 64 0 2.74 228.25 11:41 31.08.2019
2743 Rain 12 1006 64 0 2.74 228.25 11:23 31.08.2019
2744 Rain 12 1006 64 0 2.74 228.25 10:55 31.08.2019
2745 Rain 12 1006 64 0 2.74 228.25 10:36 31.08.2019
2746 Rain 12 1006 64 0 2.74 228.25 10:18 31.08.2019
2747 Rain 13 1005 59 0 2.78 228.457 09:40 31.08.2019
2748 Rain 13 1005 59 0 2.78 228.457 09:40 31.08.2019
2749 Clear 13 1007 48 0 1.8 230.243 09:21 31.08.2019
2750 Clear 13 1007 48 0 1.8 230.243 08:45 31.08.2019
2751 Clear 13 1007 48 0 1.8 230.243 08:27 31.08.2019
2752 Clear 13 1007 48 0 1.8 230.243 07:58 31.08.2019
2753 Clear 13 1007 48 0 1.8 230.243 07:37 31.08.2019
2754 Clear 13 1007 48 0 1.8 230.243 07:18 31.08.2019
2755 Clear 13 1007 48 0 1.8 230.243 06:26 31.08.2019
2756 Clear 13 1007 48 0 1.8 230.243 06:26 31.08.2019
2757 Clear 9 1010 68 0 0.61 154.859 05:50 31.08.2019
2758 Clear 9 1010 68 0 0.61 154.859 05:27 31.08.2019
2759 Clear 9 1010 68 0 0.61 154.859 04:28 31.08.2019
2760 Clear 9 1010 68 0 0.61 154.859 03:42 31.08.2019
2761 Clear 5 1009 93 0 0.34 17.577 02:22 31.08.2019
2762 Clear 5 1009 93 0 0.34 17.577 01:47 31.08.2019
2763 Clear 5 1009 94 0 0.03 50.194 01:28 31.08.2019
2764 Clear 5 1009 94 0 0.03 50.194 00:46 31.08.2019
2765 Clear 5 1009 94 0 0.03 50.194 00:46 31.08.2019
2766 Clear 5 1009 94 0 0.03 50.194 00:27 31.08.2019
2767 Clear 6 1008 93 0 0.9 193.138 23:49 30.08.2019
2768 Clear 6 1008 93 0 0.9 193.138 23:19 30.08.2019
2769 Clear 6 1008 93 0 0.9 193.138 22:58 30.08.2019
2770 Clear 6 1008 93 0 0.9 193.138 22:38 30.08.2019
2771 Clear 6 1008 93 0 0.9 193.138 22:19 30.08.2019
2772 Clear 6 1008 93 0 0.9 193.138 21:57 30.08.2019
2773 Clear 6 1008 92 0 0.8 179.141 21:36 30.08.2019
2774 Rain 7 1008 91 0 0.92 232.382 21:18 30.08.2019
2775 Rain 7 1008 91 0 0.92 232.382 21:18 30.08.2019
2776 Rain 7 1008 91 0 0.92 232.382 20:56 30.08.2019
2777 Rain 7 1008 91 0 0.92 232.382 20:37 30.08.2019
2778 Rain 7 1008 91 0 0.92 232.382 20:18 30.08.2019
2779 Rain 7 1008 91 0 0.92 232.382 19:55 30.08.2019
2780 Rain 7 1008 91 0 0.92 232.382 19:36 30.08.2019
2781 Rain 7 1008 91 0 0.92 232.382 19:18 30.08.2019
2782 Rain 7 1008 91 0 0.92 232.382 18:44 30.08.2019
2783 Rain 9 1008 87 0 0.82 263.032 18:24 30.08.2019
2784 Rain 9 1008 87 0 0.82 263.032 17:56 30.08.2019
2785 Rain 9 1008 87 0 0.82 263.032 17:56 30.08.2019
2786 Rain 9 1008 87 0 0.82 263.032 17:38 30.08.2019
2787 Rain 9 1008 87 0 0.82 263.032 17:19 30.08.2019
2788 Rain 9 1008 87 0 0.82 263.032 16:49 30.08.2019
2789 Rain 9 1008 87 0 0.82 263.032 16:29 30.08.2019
2790 Rain 9 1008 87 0 0.82 263.032 15:59 30.08.2019
2791 Rain 9 1008 87 0 0.82 263.032 15:39 30.08.2019
2792 Rain 12 1006 67 0 1.13 253.369 15:20 30.08.2019
2793 Rain 12 1006 67 0 1.13 253.369 15:20 30.08.2019
2794 Rain 12 1006 67 0 1.13 253.369 14:45 30.08.2019
2795 Rain 12 1006 67 0 1.13 253.369 14:25 30.08.2019
2796 Rain 12 1006 67 0 1.13 253.369 13:56 30.08.2019
2797 Rain 12 1006 67 0 1.13 253.369 13:38 30.08.2019
2798 Rain 12 1006 67 0 1.22 241.078 13:20 30.08.2019
2799 Rain 12 1006 67 0 1.22 241.078 12:44 30.08.2019
2800 Rain 13 1007 57 0 2.73 232.669 12:25 30.08.2019
2801 Rain 13 1007 57 0 2.73 232.669 11:55 30.08.2019
2802 Rain 13 1007 57 0 2.73 232.669 11:37 30.08.2019
2803 Rain 13 1007 57 0 2.73 232.669 11:18 30.08.2019
2804 Rain 13 1007 57 0 2.73 232.669 10:37 30.08.2019
2805 Rain 13 1007 57 0 2.73 232.669 10:19 30.08.2019
2806 Rain 13 1007 57 0 2.73 232.669 09:55 30.08.2019
2807 Rain 13 1007 57 0 2.73 232.669 09:36 30.08.2019
2808 Clear 14 1010 44 0 1.27 251.092 09:18 30.08.2019
2809 Clear 14 1010 44 0 1.27 251.092 08:42 30.08.2019
2810 Clear 14 1010 44 0 1.27 251.092 08:23 30.08.2019
2811 Clear 14 1010 44 0 1.27 251.092 07:46 30.08.2019
2812 Clear 14 1010 44 0 1.27 251.092 07:25 30.08.2019
2813 Clear 14 1010 44 0 1.27 251.092 06:49 30.08.2019
2814 Clear 14 1010 44 0 1.27 251.092 06:31 30.08.2019
2815 Clear 9 1012 72 0 0.82 7.664 05:59 30.08.2019
2816 Clear 9 1012 72 0 0.82 7.664 05:24 30.08.2019
2817 Clear 9 1012 72 0 0.82 7.664 03:56 30.08.2019
2818 Clear 9 1012 72 0 0.82 7.664 03:56 30.08.2019
2819 Clear 9 1012 72 0 0.82 7.664 03:37 30.08.2019
2820 Clear 9 1012 72 0 0.82 7.664 03:37 30.08.2019
2821 Clouds 4 1012 94 0 1.04 26.245 02:37 30.08.2019
2822 Clouds 4 1012 94 0 1.04 26.245 01:40 30.08.2019
2823 Clouds 4 1012 95 0 0.62 13.167 00:47 30.08.2019
2824 Clouds 6 1012 94 0 0.61 348.304 00:19 30.08.2019
2825 Clouds 6 1012 94 0 0.61 348.304 23:47 29.08.2019
2826 Clouds 6 1012 94 0 0.61 348.304 23:22 29.08.2019
2827 Clouds 6 1012 94 0 0.61 348.304 23:22 29.08.2019
2828 Clouds 6 1012 94 0 0.61 348.304 23:22 29.08.2019
2829 Clouds 6 1012 94 0 0.61 348.304 22:45 29.08.2019
2830 Clouds 6 1012 94 0 0.61 348.304 22:27 29.08.2019
2831 Clouds 6 1011 94 0 0.25 356.987 21:59 29.08.2019
2832 Clouds 6 1011 94 0 0.25 356.987 21:41 29.08.2019
2833 Clouds 7 1011 92 0 0.41 283.594 21:21 29.08.2019
2834 Clouds 7 1011 92 0 0.41 283.594 20:58 29.08.2019
2835 Clouds 7 1011 92 0 0.41 283.594 20:39 29.08.2019
2836 Clouds 7 1011 92 0 0.41 283.594 20:19 29.08.2019
2837 Clouds 7 1011 92 0 0.41 283.594 19:47 29.08.2019
2838 Clouds 7 1011 92 0 0.41 283.594 19:26 29.08.2019
2839 Clouds 7 1011 92 0 0.41 283.594 18:59 29.08.2019
2840 Clouds 7 1011 92 0 0.41 283.594 18:41 29.08.2019
2841 Clouds 8 1012 88 0 0.69 263.926 18:19 29.08.2019
2842 Clouds 8 1012 88 0 0.69 263.926 17:56 29.08.2019
2843 Clouds 8 1012 88 0 0.69 263.926 17:36 29.08.2019
2844 Clouds 8 1012 88 0 0.69 263.926 17:18 29.08.2019
2845 Clouds 8 1012 88 0 0.69 263.926 16:43 29.08.2019
2846 Clouds 8 1012 88 0 0.69 263.926 16:23 29.08.2019
2847 Clouds 8 1012 88 0 0.69 263.926 15:57 29.08.2019
2848 Clouds 8 1012 88 0 0.69 263.926 15:37 29.08.2019
2849 Rain 11 1009 68 0 0.95 241.24 15:18 29.08.2019
2850 Rain 11 1009 68 0 0.95 241.24 14:43 29.08.2019
2851 Rain 11 1009 68 0 0.95 241.24 14:21 29.08.2019
2852 Rain 11 1009 68 0 0.95 241.24 13:58 29.08.2019
2853 Rain 11 1009 68 0 0.95 241.24 13:58 29.08.2019
2854 Rain 11 1009 68 0 0.95 241.24 13:39 29.08.2019
2855 Rain 11 1009 70 0 1.18 236.756 13:20 29.08.2019
2856 Rain 11 1009 70 0 1.18 236.756 12:58 29.08.2019
2857 Rain 11 1009 70 0 1.18 236.756 12:39 29.08.2019
2858 Rain 12 1011 63 0 1.49 233.076 12:20 29.08.2019
2859 Rain 12 1011 63 0 1.49 233.076 11:58 29.08.2019
2860 Rain 12 1011 63 0 1.49 233.076 11:37 29.08.2019
2861 Rain 12 1011 63 0 1.49 233.076 11:18 29.08.2019
2862 Rain 12 1011 63 0 1.49 233.076 10:42 29.08.2019
2863 Rain 12 1011 63 0 1.49 233.076 10:24 29.08.2019
2864 Rain 12 1011 66 0 2.87 222.4 09:42 29.08.2019
2865 Clouds 12 1013 54 0 0.71 222.382 09:21 29.08.2019
2866 Clouds 12 1013 54 0 0.71 222.382 08:59 29.08.2019
2867 Clouds 12 1013 54 0 0.71 222.382 08:40 29.08.2019
2868 Clouds 12 1013 54 0 0.71 222.382 08:21 29.08.2019
2869 Clouds 12 1013 54 0 0.71 222.382 07:48 29.08.2019
2870 Clouds 12 1013 54 0 0.71 222.382 07:26 29.08.2019
2871 Clouds 12 1013 54 0 0.71 222.382 06:48 29.08.2019
2872 Clouds 12 1013 54 0 0.71 222.382 06:30 29.08.2019
2873 Clear 8 1016 72 0 0.49 55.037 05:42 29.08.2019
2874 Clear 8 1016 72 0 0.49 55.037 04:51 29.08.2019
2875 Clear 8 1016 72 0 0.49 55.037 04:29 29.08.2019
2876 Clear 4 1015 94 0 0.57 16.612 03:20 29.08.2019
2877 Clear 4 1015 94 0 0.57 16.612 01:49 29.08.2019
2878 Clouds 4 1015 93 0 0.75 9.84 01:30 29.08.2019
2879 Clouds 4 1015 93 0 0.75 9.84 00:42 29.08.2019
2880 Clear 5 1014 92 0 0.63 119.472 00:21 29.08.2019
2881 Clear 5 1014 92 0 0.63 119.472 23:44 28.08.2019
2882 Clear 5 1014 92 0 0.63 119.472 23:25 28.08.2019
2883 Clear 5 1014 92 0 0.63 119.472 22:59 28.08.2019
2884 Clear 5 1014 92 0 0.63 119.472 22:39 28.08.2019
2885 Clear 5 1014 92 0 0.63 119.472 22:18 28.08.2019
2886 Rain 6 1014 90 0 0.95 137.888 21:58 28.08.2019
2887 Rain 6 1014 90 0 0.95 137.888 21:39 28.08.2019
2888 Clear 7 1013 90 0 1.37 167.489 21:20 28.08.2019
2889 Clear 7 1013 90 0 1.37 167.489 20:42 28.08.2019
2890 Clear 7 1013 90 0 1.37 167.489 20:24 28.08.2019
2891 Clear 7 1013 90 0 1.37 167.489 19:59 28.08.2019
2892 Clear 7 1013 90 0 1.37 167.489 19:39 28.08.2019
2893 Clear 7 1013 90 0 1.37 167.489 19:21 28.08.2019
2894 Clear 7 1013 90 0 1.37 167.489 18:42 28.08.2019
2895 Rain 8 1012 89 0 0.53 207.784 18:22 28.08.2019
2896 Rain 8 1012 89 0 0.53 207.784 17:57 28.08.2019
2897 Rain 8 1012 89 0 0.53 207.784 17:37 28.08.2019
2898 Rain 8 1012 89 0 0.53 207.784 17:19 28.08.2019
2899 Rain 8 1012 89 0 0.53 207.784 16:43 28.08.2019
2900 Rain 8 1012 89 0 0.53 207.784 16:19 28.08.2019
2901 Rain 8 1012 89 0 0.53 207.784 15:58 28.08.2019
2902 Rain 8 1012 89 0 0.53 207.784 15:37 28.08.2019
2903 Rain 11 1009 72 0 1.69 237.267 15:19 28.08.2019
2904 Rain 11 1009 72 0 1.69 237.267 14:56 28.08.2019
2905 Rain 11 1009 72 0 1.69 237.267 14:37 28.08.2019
2906 Rain 11 1009 72 0 1.69 237.267 14:19 28.08.2019
2907 Rain 11 1009 72 0 1.69 237.267 13:56 28.08.2019
2908 Rain 11 1009 72 0 1.69 237.267 13:37 28.08.2019
2909 Rain 11 1009 70 0 1.13 252.589 13:18 28.08.2019
2910 Rain 11 1009 70 0 1.13 252.589 12:41 28.08.2019
2911 Rain 12 1010 64 0 1.96 230.191 12:23 28.08.2019
2912 Rain 12 1010 64 0 1.96 230.191 11:54 28.08.2019
2913 Rain 12 1010 64 0 1.96 230.191 11:36 28.08.2019
2914 Rain 12 1010 64 0 1.96 230.191 11:18 28.08.2019
2915 Rain 12 1010 64 0 1.96 230.191 10:41 28.08.2019
2916 Rain 12 1010 64 0 1.96 230.191 10:21 28.08.2019
2917 Rain 12 1010 64 0 1.96 230.191 09:58 28.08.2019
2918 Rain 12 1010 64 0 1.96 230.191 09:58 28.08.2019
2919 Rain 12 1010 64 0 1.96 230.191 09:40 28.08.2019
2920 Rain 11 1013 64 0 1.27 203.829 09:19 28.08.2019
2921 Rain 11 1013 64 0 1.27 203.829 08:39 28.08.2019
2922 Rain 11 1013 64 0 1.27 203.829 08:20 28.08.2019
2923 Rain 11 1013 64 0 1.27 203.829 07:42 28.08.2019
2924 Rain 11 1013 64 0 1.27 203.829 07:24 28.08.2019
2925 Rain 11 1013 64 0 1.27 203.829 06:55 28.08.2019
2926 Rain 11 1013 64 0 1.27 203.829 06:36 28.08.2019
2927 Rain 8 1014 77 0 0.19 32.167 05:43 28.08.2019
2928 Rain 6 1013 92 0 0.22 13.65 02:50 28.08.2019
2929 Rain 6 1013 92 0 0.22 13.65 01:37 28.08.2019
2930 Rain 4 1013 92 0 1.67 63.497 01:18 28.08.2019
2931 Rain 4 1013 92 0 1.67 63.497 00:41 28.08.2019
2932 Rain 6 1012 91 0 0.8 171.303 23:59 27.08.2019
2933 Rain 6 1012 91 0 0.8 171.303 23:40 27.08.2019
2934 Rain 6 1012 91 0 0.8 171.303 23:21 27.08.2019
2935 Rain 6 1012 91 0 0.8 171.303 22:56 27.08.2019
2936 Rain 6 1012 91 0 0.8 171.303 22:38 27.08.2019
2937 Rain 6 1012 91 0 0.8 171.303 22:19 27.08.2019
2938 Rain 7 1012 84 0 1.29 131.027 21:55 27.08.2019
2939 Rain 7 1012 84 0 1.29 131.027 21:36 27.08.2019
2940 Clouds 7 1012 87 0 0.76 107.202 21:18 27.08.2019
2941 Clouds 7 1012 87 0 0.76 107.202 20:41 27.08.2019
2942 Clouds 7 1012 87 0 0.76 107.202 20:21 27.08.2019
2943 Clouds 7 1012 87 0 0.76 107.202 19:58 27.08.2019
2944 Clouds 7 1012 87 0 0.76 107.202 19:39 27.08.2019
2945 Clouds 7 1012 87 0 0.76 107.202 19:21 27.08.2019
2946 Clouds 7 1012 87 0 0.76 107.202 18:43 27.08.2019
2947 Rain 7 1011 91 0 1.75 115.161 18:19 27.08.2019
2948 Rain 7 1011 91 0 1.75 115.161 18:19 27.08.2019
2949 Rain 7 1011 91 0 1.75 115.161 17:59 27.08.2019
2950 Rain 7 1011 91 0 1.75 115.161 17:41 27.08.2019
2951 Rain 7 1011 91 0 1.75 115.161 17:22 27.08.2019
2952 Rain 7 1011 91 0 1.75 115.161 16:47 27.08.2019
2953 Rain 7 1011 91 0 1.75 115.161 16:28 27.08.2019
2954 Rain 7 1011 91 0 1.75 115.161 15:58 27.08.2019
2955 Rain 7 1011 91 0 1.75 115.161 15:40 27.08.2019
2956 Rain 8 1009 85 0 2.32 218.675 15:21 27.08.2019
2957 Rain 8 1009 85 0 2.32 218.675 14:57 27.08.2019
2958 Rain 8 1009 85 0 2.32 218.675 14:39 27.08.2019
2959 Rain 8 1009 85 0 2.32 218.675 14:19 27.08.2019
2960 Rain 8 1009 85 0 2.32 218.675 13:42 27.08.2019
2961 Rain 9 1008 78 0 1.9 206.389 13:21 27.08.2019
2962 Rain 9 1008 78 0 1.9 206.389 12:55 27.08.2019
2963 Rain 9 1008 78 0 1.9 206.389 12:36 27.08.2019
2964 Rain 9 1009 83 0 2.26 230.22 12:18 27.08.2019
2965 Rain 9 1009 83 0 2.26 230.22 12:18 27.08.2019
2966 Rain 9 1009 83 0 2.26 230.22 11:42 27.08.2019
2967 Rain 9 1009 83 0 2.26 230.22 11:22 27.08.2019
2968 Rain 9 1009 83 0 2.26 230.22 10:42 27.08.2019
2969 Rain 9 1009 83 0 2.26 230.22 10:20 27.08.2019
2970 Rain 9 1009 83 0 2.26 230.22 09:57 27.08.2019
2971 Rain 9 1009 83 0 2.26 230.22 09:38 27.08.2019
2972 Rain 12 1011 57 0 2.13 204.32 09:20 27.08.2019
2973 Rain 12 1011 57 0 2.13 204.32 08:46 27.08.2019
2974 Rain 12 1011 57 0 2.13 204.32 08:27 27.08.2019
2975 Rain 12 1011 57 0 2.13 204.32 07:59 27.08.2019
2976 Rain 12 1011 57 0 2.13 204.32 07:37 27.08.2019
2977 Rain 12 1011 57 0 2.13 204.32 07:19 27.08.2019
2978 Rain 12 1011 57 0 2.13 204.32 06:50 27.08.2019
2979 Rain 12 1011 57 0 2.13 204.32 06:50 27.08.2019
2980 Clouds 9 1013 67 0 1.01 126.404 06:21 27.08.2019
2981 Clouds 9 1013 67 0 1.01 126.404 05:30 27.08.2019
2982 Clouds 9 1013 67 0 1.01 126.404 04:28 27.08.2019
2983 Clouds 9 1013 67 0 1.01 126.404 03:32 27.08.2019
2984 Clouds 6 1012 88 0 0.61 99.124 02:23 27.08.2019
2985 Clouds 6 1012 88 0 0.61 99.124 01:35 27.08.2019
2986 Clouds 6 1012 88 0 0.7 81.835 00:54 27.08.2019
2987 Clouds 6 1012 88 0 0.7 81.835 00:29 27.08.2019
2988 Rain 6 1012 86 0 0.91 197.478 23:59 26.08.2019
2989 Rain 6 1012 86 0 0.91 197.478 23:37 26.08.2019
2990 Rain 6 1012 86 0 0.91 197.478 23:19 26.08.2019
2991 Rain 6 1012 86 0 0.91 197.478 22:38 26.08.2019
2992 Rain 6 1012 86 0 0.91 197.478 22:19 26.08.2019
2993 Clouds 6 1011 84 0 0.26 305.228 21:57 26.08.2019
2994 Clouds 6 1011 84 0 0.26 305.228 21:37 26.08.2019
2995 Clouds 6 1012 88 0 0.37 9.591 21:18 26.08.2019
2996 Clouds 6 1012 88 0 0.37 9.591 20:54 26.08.2019
2997 Clouds 6 1012 88 0 0.37 9.591 20:36 26.08.2019
2998 Clouds 6 1012 88 0 0.37 9.591 20:18 26.08.2019
2999 Clouds 6 1012 88 0 0.37 9.591 19:42 26.08.2019
3000 Clouds 6 1012 88 0 0.37 9.591 19:19 26.08.2019
3001 Clouds 6 1012 88 0 0.37 9.591 19:19 26.08.2019
3002 Clouds 6 1012 88 0 0.37 9.591 19:19 26.08.2019
3003 Clouds 6 1012 88 0 0.37 9.591 18:58 26.08.2019
3004 Clouds 6 1012 88 0 0.37 9.591 18:38 26.08.2019
3005 Rain 7 1010 84 0 1.41 34.097 18:19 26.08.2019
3006 Rain 7 1010 84 0 1.41 34.097 17:44 26.08.2019
3007 Rain 7 1010 84 0 1.41 34.097 17:20 26.08.2019
3008 Rain 7 1010 84 0 1.41 34.097 16:57 26.08.2019
3009 Rain 7 1010 84 0 1.41 34.097 16:39 26.08.2019
3010 Rain 7 1010 84 0 1.41 34.097 16:18 26.08.2019
3011 Rain 7 1010 84 0 1.41 34.097 15:55 26.08.2019
3012 Rain 7 1010 84 0 1.41 34.097 15:37 26.08.2019
3013 Rain 7 1008 88 0 0.11 126.027 15:18 26.08.2019
3014 Rain 7 1008 88 0 0.11 126.027 14:43 26.08.2019
3015 Rain 7 1008 88 0 0.11 126.027 14:23 26.08.2019
3016 Rain 7 1008 88 0 0.11 126.027 13:56 26.08.2019
3017 Rain 7 1008 88 0 0.11 126.027 13:36 26.08.2019
3018 Rain 8 1008 87 0 1.42 257.38 13:18 26.08.2019
3019 Rain 8 1008 87 0 1.42 257.38 12:42 26.08.2019
3020 Rain 9 1009 81 0 2.92 200.949 12:21 26.08.2019
3021 Rain 9 1009 81 0 2.92 200.949 11:43 26.08.2019
3022 Rain 9 1009 81 0 2.92 200.949 11:25 26.08.2019
3023 Rain 9 1009 81 0 2.92 200.949 11:25 26.08.2019
3024 Rain 9 1009 81 0 2.92 200.949 10:58 26.08.2019
3025 Rain 9 1009 81 0 2.92 200.949 10:58 26.08.2019
3026 Rain 9 1009 81 0 2.92 200.949 10:40 26.08.2019
3027 Rain 9 1009 81 0 2.92 200.949 10:19 26.08.2019
3028 Rain 9 1009 81 0 2.92 200.949 09:45 26.08.2019
3029 Rain 9 1009 80 0 2.99 221.067 09:25 26.08.2019
3030 Rain 11 1011 58 0 0.36 239.119 08:59 26.08.2019
3031 Rain 11 1011 58 0 0.36 239.119 08:40 26.08.2019
3032 Rain 11 1011 58 0 0.36 239.119 08:21 26.08.2019
3033 Rain 11 1011 58 0 0.36 239.119 07:45 26.08.2019
3034 Rain 11 1011 58 0 0.36 239.119 07:25 26.08.2019
3035 Rain 11 1011 58 0 0.36 239.119 06:58 26.08.2019
3036 Rain 11 1011 58 0 0.36 239.119 06:39 26.08.2019
3037 Clouds 8 1013 73 0 0.09 31.522 06:19 26.08.2019
3038 Clouds 8 1013 73 0 0.09 31.522 05:41 26.08.2019
3039 Clouds 8 1013 73 0 0.09 31.522 04:22 26.08.2019
3040 Rain 6 1013 84 0 0.3 181.916 02:40 26.08.2019
3041 Clouds 6 1012 78 0 0.82 323.088 01:23 26.08.2019
3042 Clouds 6 1012 78 0 0.82 323.088 00:45 26.08.2019
3043 Clouds 6 1012 78 0 0.82 323.088 00:27 26.08.2019
3044 Clouds 6 1012 84 0 0.48 269.64 23:46 25.08.2019
3045 Clouds 6 1012 84 0 0.48 269.64 23:21 25.08.2019
3046 Clouds 6 1012 84 0 0.48 269.64 22:59 25.08.2019
3047 Clouds 6 1012 84 0 0.48 269.64 22:41 25.08.2019
3048 Clouds 6 1012 84 0 0.48 269.64 22:21 25.08.2019
3049 Clouds 6 1012 84 0 0.48 269.64 21:59 25.08.2019
3050 Clouds 6 1012 87 0 0.7 224.536 21:41 25.08.2019
3051 Clouds 6 1012 87 0 0.7 224.536 21:41 25.08.2019
3052 Clear 6 1012 89 0 1.13 241.398 21:19 25.08.2019
3053 Clear 6 1012 89 0 1.13 241.398 20:57 25.08.2019
3054 Clear 6 1012 89 0 1.13 241.398 20:39 25.08.2019
3055 Clear 6 1012 89 0 1.13 241.398 20:19 25.08.2019
3056 Clear 6 1012 89 0 1.13 241.398 19:55 25.08.2019
3057 Clear 6 1012 89 0 1.13 241.398 19:36 25.08.2019
3058 Clear 6 1012 89 0 1.13 241.398 19:18 25.08.2019
3059 -273 0 0 0 0 0 18:55 25.08.2019
3060 Clear 6 1012 89 0 1.13 241.398 18:37 25.08.2019
3061 Clear 7 1011 87 0 1.14 233.422 18:18 25.08.2019
3062 Clear 7 1011 87 0 1.14 233.422 17:40 25.08.2019
3063 Clear 7 1011 87 0 1.14 233.422 17:21 25.08.2019
3064 Clear 7 1011 87 0 1.14 233.422 16:41 25.08.2019
3065 Clear 7 1011 87 0 1.14 233.422 16:23 25.08.2019
3066 Clear 7 1011 87 0 1.14 233.422 15:57 25.08.2019
3067 Clear 7 1011 87 0 1.14 233.422 15:38 25.08.2019
3068 Rain 11 1009 64 0 1.34 248.626 15:20 25.08.2019
3069 Rain 11 1009 64 0 1.34 248.626 14:40 25.08.2019
3070 Rain 11 1009 64 0 1.34 248.626 14:22 25.08.2019
3071 Rain 11 1009 64 0 1.34 248.626 13:46 25.08.2019
3072 Clouds 11 1008 59 0 1.5 250.782 13:22 25.08.2019
3073 Clouds 11 1008 59 0 1.5 250.782 12:56 25.08.2019
3074 Clouds 11 1008 59 0 1.5 250.782 12:38 25.08.2019
3075 Clear 13 1009 45 0 1.6 321.402 12:20 25.08.2019
3076 Clear 13 1009 45 0 1.6 321.402 11:56 25.08.2019
3077 Clear 13 1009 45 0 1.6 321.402 11:36 25.08.2019
3078 Clear 13 1009 45 0 1.6 321.402 11:18 25.08.2019
3079 Clear 13 1009 45 0 1.6 321.402 10:55 25.08.2019
3080 Clear 13 1009 45 0 1.6 321.402 10:36 25.08.2019
3081 Clear 13 1009 45 0 1.6 321.402 10:18 25.08.2019
3082 Clear 13 1009 45 0 1.6 321.402 09:42 25.08.2019
3083 Clear 12 1011 35 0 1.59 206.904 09:23 25.08.2019
3084 Clear 12 1011 35 0 1.59 206.904 08:44 25.08.2019
3085 Clear 12 1011 35 0 1.59 206.904 08:23 25.08.2019
3086 Clear 12 1011 35 0 1.59 206.904 07:46 25.08.2019
3087 Clear 12 1011 35 0 1.59 206.904 07:23 25.08.2019
3088 Clear 12 1011 35 0 1.59 206.904 06:31 25.08.2019
3089 Clear 7 1012 57 0 0.8 101.114 05:27 25.08.2019
3090 Clear 7 1012 57 0 0.8 101.114 03:43 25.08.2019
3091 Clouds 5 1012 80 0 0.96 30.381 02:42 25.08.2019
3092 Clouds 5 1012 80 0 0.96 30.381 01:45 25.08.2019
3093 Clouds 3 1012 86 0 1.31 29.718 00:42 25.08.2019
3094 Clouds 4 1011 86 0 0.55 289.492 00:22 25.08.2019
3095 Clouds 4 1011 86 0 0.55 289.492 23:54 24.08.2019
3096 Clouds 4 1011 86 0 0.55 289.492 23:24 24.08.2019
3097 Clouds 4 1011 86 0 0.55 289.492 22:59 24.08.2019
3098 Clouds 4 1011 86 0 0.55 289.492 22:40 24.08.2019
3099 Clouds 4 1011 86 0 0.55 289.492 22:19 24.08.2019
3100 Clouds 4 1011 86 0 0.55 289.492 21:57 24.08.2019
3101 Clouds 4 1011 86 0 0.55 289.492 21:39 24.08.2019
3102 Clouds 7 1012 75 0 1.02 235.936 21:21 24.08.2019
3103 Clouds 7 1012 75 0 1.02 235.936 20:57 24.08.2019
3104 Clouds 7 1012 75 0 1.02 235.936 20:38 24.08.2019
3105 Clouds 7 1012 75 0 1.02 235.936 20:18 24.08.2019
3106 Clouds 7 1012 75 0 1.02 235.936 19:57 24.08.2019
3107 Clouds 7 1012 75 0 1.02 235.936 19:38 24.08.2019
3108 Clouds 7 1012 75 0 1.02 235.936 19:20 24.08.2019
3109 Clouds 7 1012 75 0 1.02 235.936 18:46 24.08.2019
3110 Rain 7 1010 85 0 0.67 216.268 18:24 24.08.2019
3111 Rain 7 1010 85 0 0.67 216.268 17:46 24.08.2019
3112 -273 0 0 0 0 0 17:27 24.08.2019
3113 Rain 7 1010 85 0 0.67 216.268 16:56 24.08.2019
3114 Rain 7 1010 85 0 0.67 216.268 16:37 24.08.2019
3115 Rain 7 1010 85 0 0.67 216.268 16:19 24.08.2019
3116 Rain 7 1010 85 0 0.67 216.268 15:44 24.08.2019
3117 Rain 7 1010 85 0 0.67 216.268 15:25 24.08.2019
3118 Rain 10 1009 71 0 1.63 222.459 14:57 24.08.2019
3119 Rain 10 1009 71 0 1.63 222.459 14:38 24.08.2019
3120 Rain 10 1009 71 0 1.63 222.459 14:18 24.08.2019
3121 Rain 10 1009 71 0 1.63 222.459 13:43 24.08.2019
3122 Rain 10 1008 69 0 1.33 227.078 13:22 24.08.2019
3123 Rain 10 1008 69 0 1.33 227.078 12:59 24.08.2019
3124 Rain 10 1008 69 0 1.33 227.078 12:40 24.08.2019
3125 Rain 10 1008 69 0 1.33 227.078 12:40 24.08.2019
3126 Rain 10 1009 70 0 1.8 256.75 12:22 24.08.2019
3127 Rain 10 1009 70 0 1.8 256.75 11:46 24.08.2019
3128 Rain 10 1009 70 0 1.8 256.75 11:26 24.08.2019
3129 Rain 10 1009 70 0 1.8 256.75 10:59 24.08.2019
3130 Rain 10 1009 70 0 1.8 256.75 10:38 24.08.2019
3131 Rain 10 1009 70 0 1.8 256.75 10:20 24.08.2019
3132 Rain 10 1009 70 0 1.8 256.75 09:42 24.08.2019
3133 Clouds 11 1012 57 0 0.52 259.169 09:19 24.08.2019
3134 Clouds 11 1012 57 0 0.52 259.169 08:43 24.08.2019
3135 Clouds 11 1012 57 0 0.52 259.169 08:25 24.08.2019
3136 Clouds 11 1012 57 0 0.52 259.169 07:53 24.08.2019
3137 Clouds 11 1012 57 0 0.52 259.169 07:30 24.08.2019
3138 Clouds 11 1012 57 0 0.52 259.169 07:30 24.08.2019
3139 Clouds 11 1012 57 0 0.52 259.169 06:52 24.08.2019
3140 Clear 7 1013 71 0 0.54 94.326 06:21 24.08.2019
3141 Clear 7 1013 71 0 0.54 94.326 05:36 24.08.2019
3142 Clear 7 1013 71 0 0.54 94.326 03:48 24.08.2019
3143 Clear 7 1013 71 0 0.54 94.326 03:28 24.08.2019
3144 Clouds 3 1013 87 0 0.7 49.123 02:19 24.08.2019
3145 Clouds 3 1013 87 0 0.98 36.718 01:29 24.08.2019
3146 Clouds 3 1013 87 0 0.98 36.718 00:48 24.08.2019
3147 Clouds 3 1012 90 0 0.62 62.614 00:24 24.08.2019
3148 Clouds 3 1012 90 0 0.62 62.614 23:45 23.08.2019
3149 Clouds 3 1012 90 0 0.62 62.614 23:21 23.08.2019
3150 Clouds 3 1012 90 0 0.62 62.614 22:46 23.08.2019
3151 Clouds 3 1012 90 0 0.62 62.614 22:27 23.08.2019
3152 Clouds 3 1012 90 0 0.62 62.614 21:56 23.08.2019
3153 Clouds 5 1012 84 0 0.75 164.752 21:37 23.08.2019
3154 Clouds 5 1012 90 0 0.76 162.633 21:19 23.08.2019
3155 Clouds 5 1012 90 0 0.76 162.633 20:53 23.08.2019
3156 Clouds 5 1012 90 0 0.76 162.633 20:35 23.08.2019
3157 Clouds 5 1012 90 0 0.76 162.633 19:54 23.08.2019
3158 Clouds 5 1012 90 0 0.76 162.633 19:54 23.08.2019
3159 Clouds 5 1012 90 0 0.76 162.633 19:36 23.08.2019
3160 Clouds 5 1012 90 0 0.76 162.633 19:18 23.08.2019
3161 Clouds 5 1012 90 0 0.76 162.633 19:18 23.08.2019
3162 Clouds 5 1012 90 0 0.76 162.633 18:42 23.08.2019
3163 Rain 6 1010 90 0 0.72 196.066 18:24 23.08.2019
3164 Rain 6 1010 90 0 0.72 196.066 17:46 23.08.2019
3165 Rain 6 1010 90 0 0.72 196.066 17:28 23.08.2019
3166 Rain 6 1010 90 0 0.72 196.066 16:59 23.08.2019
3167 Rain 6 1010 90 0 0.72 196.066 16:40 23.08.2019
3168 Rain 6 1010 90 0 0.72 196.066 16:22 23.08.2019
3169 Rain 6 1010 90 0 0.72 196.066 15:41 23.08.2019
3170 Rain 10 1009 73 0 1.35 217.607 15:22 23.08.2019
3171 Rain 10 1009 73 0 1.35 217.607 14:58 23.08.2019
3172 Rain 10 1009 73 0 1.35 217.607 14:40 23.08.2019
3173 Rain 10 1009 73 0 1.35 217.607 14:20 23.08.2019
3174 Rain 10 1009 73 0 1.35 217.607 13:56 23.08.2019
3175 Rain 10 1009 73 0 1.35 217.607 13:38 23.08.2019
3176 Rain 9 1009 75 0 1.14 223.896 13:19 23.08.2019
3177 Rain 9 1009 75 0 1.14 223.896 12:54 23.08.2019
3178 Rain 9 1009 75 0 1.14 223.896 12:36 23.08.2019
3179 Rain 10 1009 62 0 1.19 295.724 12:18 23.08.2019
3180 Rain 10 1009 62 0 1.19 295.724 11:41 23.08.2019
3181 Rain 10 1009 62 0 1.19 295.724 11:20 23.08.2019
3182 Rain 10 1009 62 0 1.19 295.724 10:59 23.08.2019
3183 Rain 10 1009 62 0 1.19 295.724 10:59 23.08.2019
3184 Rain 10 1009 62 0 1.19 295.724 10:41 23.08.2019
3185 Rain 11 1009 63 0 3.46 224.005 10:21 23.08.2019
3186 Rain 11 1009 63 0 3.46 224.005 09:48 23.08.2019
3187 Rain 11 1009 63 0 3.46 224.005 09:30 23.08.2019
3188 Rain 8 1012 71 0 1.01 196.852 08:59 23.08.2019
3189 Rain 8 1012 71 0 1.01 196.852 08:39 23.08.2019
3190 Rain 8 1012 71 0 1.01 196.852 08:39 23.08.2019
3191 Rain 8 1012 71 0 1.01 196.852 08:19 23.08.2019
3192 Rain 8 1012 71 0 1.01 196.852 07:42 23.08.2019
3193 Rain 8 1012 71 0 1.01 196.852 07:24 23.08.2019
3194 Rain 8 1012 71 0 1.01 196.852 06:57 23.08.2019
3195 Rain 8 1012 71 0 1.01 196.852 06:37 23.08.2019
3196 Rain 5 1013 81 0 1.07 32.467 06:19 23.08.2019
3197 Rain 5 1013 81 0 1.07 32.467 05:33 23.08.2019
3198 Rain 5 1013 81 0 1.07 32.467 04:20 23.08.2019
3199 Clear 2 1014 87 0 1.29 50.337 02:53 23.08.2019
3200 Clear 2 1014 87 0 1.29 50.337 02:22 23.08.2019
3201 Clear 2 1014 87 0 1.29 50.337 01:39 23.08.2019
3202 Clear 2 1014 83 0 0.94 65.901 00:45 23.08.2019
3203 Clear 3 1013 86 0 0.79 134.026 00:19 23.08.2019
3204 Clear 3 1013 86 0 0.79 134.026 00:19 23.08.2019
3205 Clear 3 1013 86 0 0.79 134.026 23:47 22.08.2019
3206 Clear 3 1013 86 0 0.79 134.026 23:24 22.08.2019
3207 Clear 3 1013 86 0 0.79 134.026 22:56 22.08.2019
3208 Clear 3 1013 86 0 0.79 134.026 22:38 22.08.2019
3209 Clear 3 1013 86 0 0.79 134.026 22:19 22.08.2019
3210 Clear 3 1013 86 0 0.79 134.026 21:55 22.08.2019
3211 Clear 2 1012 86 0 0.87 123.927 21:37 22.08.2019
3212 Clouds 4 1012 86 0 0.29 105.17 21:18 22.08.2019
3213 Clouds 4 1012 86 0 0.29 105.17 20:56 22.08.2019
3214 Clouds 4 1012 86 0 0.29 105.17 20:38 22.08.2019
3215 Clouds 4 1012 86 0 0.29 105.17 20:18 22.08.2019
3216 Clouds 4 1012 86 0 0.29 105.17 19:40 22.08.2019
3217 Clouds 4 1012 86 0 0.29 105.17 19:22 22.08.2019
3218 Clouds 4 1012 86 0 0.29 105.17 18:59 22.08.2019
3219 Clouds 4 1012 86 0 0.29 105.17 18:41 22.08.2019
3220 Rain 6 1011 82 0 0.78 70.633 18:20 22.08.2019
3221 Rain 6 1011 82 0 0.78 70.633 17:59 22.08.2019
3222 Rain 6 1011 82 0 0.78 70.633 17:41 22.08.2019
3223 Rain 6 1011 82 0 0.78 70.633 17:41 22.08.2019
3224 Rain 6 1011 82 0 0.78 70.633 17:20 22.08.2019
3225 Rain 6 1011 82 0 0.78 70.633 16:57 22.08.2019
3226 Rain 6 1011 82 0 0.78 70.633 16:38 22.08.2019
3227 Rain 6 1011 82 0 0.78 70.633 16:20 22.08.2019
3228 Rain 6 1011 82 0 0.78 70.633 16:20 22.08.2019
3229 Rain 6 1011 82 0 0.78 70.633 15:57 22.08.2019
3230 Rain 6 1011 82 0 0.78 70.633 15:57 22.08.2019
3231 Rain 6 1011 82 0 0.78 70.633 15:38 22.08.2019
3232 Rain 8 1009 71 0 1.51 35.493 15:18 22.08.2019
3233 Rain 8 1009 71 0 1.51 35.493 15:18 22.08.2019
3234 Rain 8 1009 71 0 1.51 35.493 15:18 22.08.2019
3235 Rain 8 1009 71 0 1.51 35.493 14:41 22.08.2019
3236 Rain 8 1009 71 0 1.51 35.493 14:22 22.08.2019
3237 Rain 8 1009 71 0 1.51 35.493 13:59 22.08.2019
3238 Rain 8 1009 71 0 1.51 35.493 13:41 22.08.2019
3239 Rain 8 1009 71 0 1.51 35.493 13:41 22.08.2019
3240 Rain 8 1009 67 0 0.35 6.7 13:21 22.08.2019
3241 Rain 8 1009 67 0 0.35 6.7 12:58 22.08.2019
3242 Rain 8 1009 67 0 0.35 6.7 12:38 22.08.2019
3243 Rain 10 1009 47 0 1.01 267.623 12:19 22.08.2019
3244 Rain 10 1009 47 0 1.01 267.623 11:42 22.08.2019
3245 Rain 10 1009 47 0 1.01 267.623 11:21 22.08.2019
3246 Rain 10 1009 47 0 1.01 267.623 10:59 22.08.2019
3247 Rain 10 1009 47 0 1.01 267.623 10:59 22.08.2019
3248 Rain 10 1009 47 0 1.01 267.623 10:41 22.08.2019
3249 Rain 10 1009 47 0 1.01 267.623 10:22 22.08.2019
3250 Rain 11 1010 47 0 3.45 227.935 09:58 22.08.2019
3251 Rain 11 1010 47 0 3.45 227.935 09:39 22.08.2019
3252 Clear 10 1012 31 0 1.46 196.82 09:21 22.08.2019
3253 Clear 10 1012 31 0 1.46 196.82 08:56 22.08.2019
3254 Clear 10 1012 31 0 1.46 196.82 08:38 22.08.2019
3255 Clear 10 1012 31 0 1.46 196.82 08:20 22.08.2019
3256 Clear 10 1012 31 0 1.46 196.82 07:41 22.08.2019
3257 Clear 10 1012 31 0 1.46 196.82 07:20 22.08.2019
3258 Clear 10 1012 31 0 1.46 196.82 06:55 22.08.2019
3259 Clear 6 1013 51 0 0.99 65.095 06:24 22.08.2019
3260 Clear 6 1013 51 0 0.99 65.095 05:58 22.08.2019
3261 Clear 6 1013 51 0 0.99 65.095 04:38 22.08.2019
3262 Clear 0 1013 86 0 0.56 86.622 02:51 22.08.2019
3263 Clear 0 1013 86 0 0.56 86.622 02:33 22.08.2019
3264 Clear 0 1013 86 0 0.78 56.127 01:25 22.08.2019
3265 Clear 0 1013 86 0 0.78 56.127 00:45 22.08.2019
3266 Clear 0 1013 86 0 0.78 56.127 00:27 22.08.2019
3267 Clear 2 1013 83 0 0.35 146.4 23:55 21.08.2019
3268 Clear 2 1013 83 0 0.35 146.4 23:37 21.08.2019
3269 Clear 2 1013 83 0 0.35 146.4 23:18 21.08.2019
3270 Clear 2 1013 83 0 0.35 146.4 22:55 21.08.2019
3271 Clear 2 1013 83 0 0.35 146.4 22:36 21.08.2019
3272 Clear 2 1013 83 0 0.35 146.4 22:18 21.08.2019
3273 Clear 2 1013 83 0 0.35 146.4 21:55 21.08.2019
3274 Clear 2 1012 79 0 0.35 148.5 21:36 21.08.2019
3275 Clouds 3 1012 78 0 0.41 356.75 21:18 21.08.2019
3276 Clouds 3 1012 78 0 0.41 356.75 20:42 21.08.2019
3277 Clouds 3 1012 78 0 0.41 356.75 20:42 21.08.2019
3278 Clouds 3 1012 78 0 0.41 356.75 20:23 21.08.2019
3279 Clouds 3 1012 78 0 0.41 356.75 19:56 21.08.2019
3280 Clouds 3 1012 78 0 0.41 356.75 19:38 21.08.2019
3281 Clouds 3 1012 78 0 0.41 356.75 19:19 21.08.2019
3282 Clouds 3 1012 78 0 0.41 356.75 18:43 21.08.2019
3283 Clouds 4 1011 76 0 0.38 74.982 18:23 21.08.2019
3284 Clouds 4 1011 76 0 0.38 74.982 17:56 21.08.2019
3285 Clouds 4 1011 76 0 0.38 74.982 17:37 21.08.2019
3286 Clouds 4 1011 76 0 0.38 74.982 17:19 21.08.2019
3287 Clouds 4 1011 76 0 0.38 74.982 16:44 21.08.2019
3288 Clouds 4 1011 76 0 0.38 74.982 16:44 21.08.2019
3289 Clouds 4 1011 76 0 0.38 74.982 16:24 21.08.2019
3290 Clouds 4 1011 76 0 0.38 74.982 15:59 21.08.2019
3291 Clouds 4 1011 76 0 0.38 74.982 15:41 21.08.2019
3292 Clouds 4 1011 76 0 0.38 74.982 15:41 21.08.2019
3293 Rain 7 1009 66 0 1.32 230.954 15:21 21.08.2019
3294 Rain 7 1009 66 0 1.32 230.954 14:57 21.08.2019
3295 Rain 7 1009 66 0 1.32 230.954 14:39 21.08.2019
3296 Rain 7 1009 66 0 1.32 230.954 14:20 21.08.2019
3297 Rain 7 1009 66 0 1.32 230.954 13:56 21.08.2019
3298 Rain 7 1009 66 0 1.32 230.954 13:38 21.08.2019
3299 Rain 8 1008 54 0 2.15 219.942 13:19 21.08.2019
3300 Rain 8 1008 54 0 2.15 219.942 12:43 21.08.2019
3301 Clear 11 1009 25 0 1.01 256.308 12:25 21.08.2019
3302 Clear 11 1009 25 0 1.01 256.308 11:59 21.08.2019
3303 Clear 11 1009 25 0 1.01 256.308 11:41 21.08.2019
3304 Clear 11 1009 25 0 1.01 256.308 11:22 21.08.2019
3305 Clear 11 1009 25 0 1.01 256.308 10:57 21.08.2019
3306 Clear 11 1009 25 0 1.01 256.308 10:38 21.08.2019
3307 Clear 11 1009 25 0 1.01 256.308 10:20 21.08.2019
3308 Clear 11 1009 25 0 1.01 256.308 09:57 21.08.2019
3309 Clear 11 1009 25 0 1.01 256.308 09:37 21.08.2019
3310 Clear 10 1012 21 0 1.64 175.765 09:18 21.08.2019
3311 Clear 10 1012 21 0 1.64 175.765 09:18 21.08.2019
3312 Clear 10 1012 21 0 1.64 175.765 08:46 21.08.2019
3313 Clear 10 1012 21 0 1.64 175.765 08:24 21.08.2019
3314 Clear 10 1012 21 0 1.64 175.765 07:44 21.08.2019
3315 Clear 10 1012 21 0 1.64 175.765 07:24 21.08.2019
3316 Clear 10 1012 21 0 1.64 175.765 06:50 21.08.2019
3317 Clear 10 1012 21 0 1.64 175.765 06:32 21.08.2019
3318 Clear 5 1013 41 0 0.87 89.538 05:56 21.08.2019
3319 Clear 5 1013 41 0 0.87 89.538 05:28 21.08.2019
3320 Clear 5 1013 41 0 0.87 89.538 04:26 21.08.2019
3321 Clear 0 1013 86 0 0.54 54.772 01:55 21.08.2019
3322 Clear 0 1013 86 0 0.78 41.682 01:24 21.08.2019
3323 Clear 0 1013 86 0 0.78 41.682 00:39 21.08.2019
3324 Clear 1 1013 88 0 0.54 98.6 00:20 21.08.2019
3325 Clear 1 1013 88 0 0.54 98.6 23:44 20.08.2019
3326 Clear 1 1013 88 0 0.54 98.6 23:20 20.08.2019
3327 Clear 1 1013 88 0 0.54 98.6 22:59 20.08.2019
3328 Clear 1 1013 88 0 0.54 98.6 22:40 20.08.2019
3329 Clear 1 1013 88 0 0.54 98.6 22:21 20.08.2019
3330 Clear 1 1013 88 0 0.54 98.6 21:58 20.08.2019
3331 Clear 1 1012 89 0 0.44 128.579 21:39 20.08.2019
3332 Clear 2 1012 82 0 0.24 52.358 21:19 20.08.2019
3333 Clear 2 1012 82 0 0.24 52.358 20:58 20.08.2019
3334 Clear 2 1012 82 0 0.24 52.358 20:40 20.08.2019
3335 Clear 2 1012 82 0 0.24 52.358 20:21 20.08.2019
3336 Clear 2 1012 82 0 0.24 52.358 19:39 20.08.2019
3337 Clear 2 1012 82 0 0.24 52.358 19:21 20.08.2019
3338 Clear 2 1012 82 0 0.24 52.358 18:57 20.08.2019
3339 Clear 2 1012 82 0 0.24 52.358 18:39 20.08.2019
3340 Rain 4 1012 80 0 0.88 249.122 18:19 20.08.2019
3341 Rain 4 1012 80 0 0.88 249.122 17:57 20.08.2019
3342 Rain 4 1012 80 0 0.88 249.122 17:38 20.08.2019
3343 Rain 4 1012 80 0 0.88 249.122 17:19 20.08.2019
3344 Rain 4 1012 80 0 0.88 249.122 16:44 20.08.2019
3345 Rain 4 1012 80 0 0.88 249.122 16:26 20.08.2019
3346 Rain 4 1012 80 0 0.88 249.122 15:56 20.08.2019
3347 Rain 4 1012 80 0 0.88 249.122 15:38 20.08.2019
3348 Rain 8 1009 57 0 2.46 245.797 15:18 20.08.2019
3349 Rain 8 1009 57 0 2.46 245.797 14:43 20.08.2019
3350 Rain 8 1009 57 0 2.46 245.797 14:22 20.08.2019
3351 Rain 8 1009 57 0 2.46 245.797 14:22 20.08.2019
3352 Rain 8 1009 57 0 2.46 245.797 13:57 20.08.2019
3353 Rain 8 1009 57 0 2.46 245.797 13:39 20.08.2019
3354 Rain 8 1009 54 0 2.4 245.475 13:20 20.08.2019
3355 Rain 8 1009 54 0 2.4 245.475 12:51 20.08.2019
3356 Rain 8 1009 54 0 2.4 245.475 12:31 20.08.2019
3357 Rain 10 1010 53 0 3.68 223.191 11:59 20.08.2019
3358 Rain 10 1010 53 0 3.68 223.191 11:40 20.08.2019
3359 Rain 10 1010 53 0 3.68 223.191 11:21 20.08.2019
3360 Rain 10 1010 53 0 3.68 223.191 10:57 20.08.2019
3361 Rain 10 1010 53 0 3.68 223.191 10:38 20.08.2019
3362 Rain 10 1010 53 0 3.68 223.191 10:20 20.08.2019
3363 Rain 10 1010 53 0 3.68 223.191 09:56 20.08.2019
3364 Rain 10 1010 53 0 3.68 223.191 09:38 20.08.2019
3365 Clouds 10 1014 46 0 1.92 195.671 09:20 20.08.2019
3366 Clouds 10 1014 46 0 1.92 195.671 08:41 20.08.2019
3367 Clouds 10 1014 46 0 1.92 195.671 08:23 20.08.2019
3368 Clouds 10 1014 46 0 1.92 195.671 07:57 20.08.2019
3369 Clouds 10 1014 46 0 1.92 195.671 07:38 20.08.2019
3370 Clouds 10 1014 46 0 1.92 195.671 07:20 20.08.2019
3371 Clouds 10 1014 46 0 1.92 195.671 06:43 20.08.2019
3372 Clear 5 1015 65 0 0.91 102.46 06:19 20.08.2019
3373 Clear 5 1015 65 0 0.91 102.46 05:41 20.08.2019
3374 Clear 5 1015 65 0 0.91 102.46 04:23 20.08.2019
3375 Clear 0 1015 91 0 0.73 58.861 02:48 20.08.2019
3376 Clear 0 1015 91 0 0.73 58.861 01:53 20.08.2019
3377 Clear 0 1015 91 0 0.87 62.61 01:20 20.08.2019
3378 Clear 0 1015 91 0 0.87 62.61 00:44 20.08.2019
3379 Clouds 1 1015 92 0 0.48 103.51 00:21 20.08.2019
3380 Clouds 1 1015 92 0 0.48 103.51 23:42 19.08.2019
3381 Clouds 1 1015 92 0 0.48 103.51 23:19 19.08.2019
3382 Clouds 1 1015 92 0 0.48 103.51 22:58 19.08.2019
3383 Clouds 1 1015 92 0 0.48 103.51 22:40 19.08.2019
3384 Clouds 1 1015 92 0 0.48 103.51 22:20 19.08.2019
3385 Clouds 1 1015 92 0 0.48 103.51 21:57 19.08.2019
3386 Rain 1 1014 91 0 0.58 136.757 21:38 19.08.2019
3387 Rain 2 1015 90 0 0.66 180.779 21:19 19.08.2019
3388 Rain 2 1015 90 0 0.66 180.779 20:54 19.08.2019
3389 Rain 2 1015 90 0 0.66 180.779 20:36 19.08.2019
3390 Rain 2 1015 90 0 0.66 180.779 20:18 19.08.2019
3391 Rain 2 1015 90 0 0.66 180.779 19:54 19.08.2019
3392 Rain 2 1015 90 0 0.66 180.779 19:36 19.08.2019
3393 Rain 2 1015 90 0 0.66 180.779 19:18 19.08.2019
3394 Rain 2 1015 90 0 0.66 180.779 18:40 19.08.2019
3395 Rain 4 1014 88 0 1.3 172.601 18:22 19.08.2019
3396 Rain 4 1014 88 0 1.3 172.601 17:56 19.08.2019
3397 Rain 4 1014 88 0 1.3 172.601 17:38 19.08.2019
3398 Rain 4 1014 88 0 1.3 172.601 17:19 19.08.2019
3399 Rain 4 1014 88 0 1.3 172.601 16:54 19.08.2019
3400 Rain 4 1014 88 0 1.3 172.601 16:36 19.08.2019
3401 Rain 4 1014 88 0 1.3 172.601 16:18 19.08.2019
3402 Rain 4 1014 88 0 1.3 172.601 15:44 19.08.2019
3403 Rain 6 1011 79 0 1.85 214.266 15:19 19.08.2019
3404 Rain 6 1011 79 0 1.85 214.266 14:54 19.08.2019
3405 Rain 6 1011 79 0 1.85 214.266 14:36 19.08.2019
3406 Rain 6 1011 79 0 1.85 214.266 14:18 19.08.2019
3407 Rain 6 1011 79 0 1.85 214.266 13:54 19.08.2019
3408 Rain 6 1011 79 0 1.85 214.266 13:36 19.08.2019
3409 Rain 5 1011 85 0 1.72 161.88 13:18 19.08.2019
3410 Rain 5 1011 85 0 1.72 161.88 12:41 19.08.2019
3411 Rain 6 1012 83 0 2.05 194.408 12:22 19.08.2019
3412 Rain 6 1012 83 0 2.05 194.408 11:43 19.08.2019
3413 Rain 6 1012 83 0 2.05 194.408 11:25 19.08.2019
3414 Rain 6 1012 83 0 2.05 194.408 10:59 19.08.2019
3415 Rain 6 1012 83 0 2.05 194.408 10:39 19.08.2019
3416 Rain 6 1012 83 0 2.05 194.408 10:19 19.08.2019
3417 Rain 6 1012 83 0 2.05 194.408 09:55 19.08.2019
3418 Rain 6 1012 83 0 2.05 194.408 09:37 19.08.2019
3419 Rain 5 1015 81 0 0.84 124.238 09:19 19.08.2019
3420 Rain 5 1015 81 0 0.84 124.238 08:42 19.08.2019
3421 Rain 5 1015 81 0 0.84 124.238 08:22 19.08.2019
3422 Rain 5 1015 81 0 0.84 124.238 07:57 19.08.2019
3423 Rain 5 1015 81 0 0.84 124.238 07:39 19.08.2019
3424 Rain 5 1015 81 0 0.84 124.238 07:19 19.08.2019
3425 Rain 5 1015 81 0 0.84 124.238 06:36 19.08.2019
3426 Clear 2 1016 91 0 1.4 58.726 05:28 19.08.2019
3427 Clear 2 1016 91 0 1.4 58.726 04:34 19.08.2019
3428 Clear 2 1016 91 0 1.4 58.726 03:27 19.08.2019
3429 Clear -1 1016 92 0 1.89 58.422 02:53 19.08.2019
3430 Clear -1 1016 92 0 1.89 58.422 01:37 19.08.2019
3431 Clouds 0 1016 92 0 2.41 49.72 00:49 19.08.2019
3432 Clear 0 1016 95 0 1.16 46.537 00:25 19.08.2019
3433 Clear 0 1016 95 0 1.16 46.537 23:57 18.08.2019
3434 Clear 0 1016 95 0 1.16 46.537 23:37 18.08.2019
3435 Clear 0 1016 95 0 1.16 46.537 23:19 18.08.2019
3436 Clear 0 1016 95 0 1.16 46.537 22:40 18.08.2019
3437 Clear 0 1016 95 0 1.16 46.537 22:21 18.08.2019
3438 Clear 0 1016 95 0 1.16 46.537 21:57 18.08.2019
3439 Clear 0 1016 95 0 1.16 46.537 21:39 18.08.2019
3440 Clouds 2 1015 94 0 0.59 311.131 21:20 18.08.2019
3441 Clouds 2 1015 94 0 0.59 311.131 20:57 18.08.2019
3442 Clouds 2 1015 94 0 0.59 311.131 20:38 18.08.2019
3443 Clouds 2 1015 94 0 0.59 311.131 20:20 18.08.2019
3444 Clouds 2 1015 94 0 0.59 311.131 19:42 18.08.2019
3445 Clouds 2 1015 94 0 0.59 311.131 19:23 18.08.2019
3446 Clouds 2 1015 94 0 0.59 311.131 18:57 18.08.2019
3447 Clouds 2 1015 94 0 0.59 311.131 18:39 18.08.2019
3448 Clouds 3 1013 99 0 0.71 9.383 18:21 18.08.2019
3449 Clouds 3 1013 99 0 0.71 9.383 17:55 18.08.2019
3450 Clouds 3 1013 99 0 0.71 9.383 17:36 18.08.2019
3451 Clouds 3 1013 99 0 0.71 9.383 17:18 18.08.2019
3452 Clouds 3 1013 99 0 0.71 9.383 16:55 18.08.2019
3453 Clouds 3 1013 99 0 0.71 9.383 16:36 18.08.2019
3454 Clouds 3 1013 99 0 0.71 9.383 16:18 18.08.2019
3455 Clouds 3 1013 99 0 0.71 9.383 15:40 18.08.2019
3456 Rain 3 1010 100 0 0.78 14.018 15:20 18.08.2019
3457 Rain 3 1010 100 0 0.78 14.018 14:58 18.08.2019
3458 Rain 3 1010 100 0 0.78 14.018 14:39 18.08.2019
3459 Rain 3 1010 100 0 0.78 14.018 14:19 18.08.2019
3460 Rain 3 1010 100 0 0.78 14.018 13:56 18.08.2019
3461 Rain 3 1010 100 0 0.78 14.018 13:38 18.08.2019
3462 Rain 3 1010 100 0 0.78 14.018 13:20 18.08.2019
3463 Rain 3 1010 100 0 0.78 14.018 12:45 18.08.2019
3464 Rain 3 1011 100 0 1.11 50.994 12:23 18.08.2019
3465 Rain 3 1011 100 0 1.11 50.994 11:59 18.08.2019
3466 Rain 3 1011 100 0 1.11 50.994 11:40 18.08.2019
3467 Rain 3 1011 100 0 1.11 50.994 11:21 18.08.2019
3468 Rain 3 1011 100 0 1.11 50.994 10:41 18.08.2019
3469 Rain 3 1011 100 0 1.11 50.994 10:22 18.08.2019
3470 Rain 3 1011 100 0 1.11 50.994 09:56 18.08.2019
3471 Rain 3 1011 100 0 1.11 50.994 09:37 18.08.2019
3472 Rain 0 1011 100 0 0.37 33.218 09:18 18.08.2019
3473 Rain 0 1011 100 0 0.37 33.218 08:42 18.08.2019
3474 Rain 0 1011 100 0 0.37 33.218 08:24 18.08.2019
3475 Rain 0 1011 100 0 0.37 33.218 07:49 18.08.2019
3476 Rain 0 1011 100 0 0.37 33.218 07:29 18.08.2019
3477 Rain 0 1011 100 0 1.05 87.591 05:50 18.08.2019
3478 Rain 0 1011 100 0 1.05 87.591 04:58 18.08.2019
3479 Rain 0 1011 100 0 1.05 87.591 03:46 18.08.2019
3480 Rain 0 1009 99 0 1.24 214.048 02:50 18.08.2019
3481 Rain 0 1009 99 0 1.24 214.048 02:26 18.08.2019
3482 Rain 0 1009 99 0 1.24 214.048 01:48 18.08.2019
3483 Rain 0 1008 100 0 0.56 305.777 01:25 18.08.2019
3484 Rain 0 1008 100 0 0.56 305.777 01:25 18.08.2019
3485 Rain 0 1008 100 0 0.56 305.777 00:40 18.08.2019
3486 Rain 1 1009 99 0 1.63 268.275 00:19 18.08.2019
3487 Rain 1 1009 99 0 1.63 268.275 23:57 17.08.2019
3488 Rain 1 1009 99 0 1.63 268.275 23:37 17.08.2019
3489 Rain 1 1009 99 0 1.63 268.275 23:19 17.08.2019
3490 Rain 1 1009 99 0 1.63 268.275 22:56 17.08.2019
3491 Rain 1 1009 99 0 1.63 268.275 22:56 17.08.2019
3492 Rain 1 1009 99 0 1.63 268.275 22:38 17.08.2019
3493 Rain 1 1009 99 0 1.63 268.275 22:20 17.08.2019
3494 Rain 1 1009 99 0 1.63 268.275 21:43 17.08.2019
3495 Rain 4 1009 96 0 2.12 36.999 21:25 17.08.2019
3496 Rain 4 1009 96 0 2.12 36.999 20:59 17.08.2019
3497 Rain 4 1009 96 0 2.12 36.999 20:37 17.08.2019
3498 Rain 4 1009 96 0 2.12 36.999 20:19 17.08.2019
3499 Rain 4 1009 96 0 2.12 36.999 19:43 17.08.2019
3500 Rain 4 1009 96 0 2.12 36.999 19:24 17.08.2019
3501 Rain 4 1009 96 0 2.12 36.999 18:59 17.08.2019
3502 Rain 4 1009 96 0 2.12 36.999 18:39 17.08.2019
3503 Rain 4 1010 96 0 1.69 26.99 18:18 17.08.2019
3504 Rain 4 1010 96 0 1.69 26.99 17:55 17.08.2019
3505 Rain 4 1010 96 0 1.69 26.99 17:37 17.08.2019
3506 Rain 4 1010 96 0 1.69 26.99 17:18 17.08.2019
3507 Rain 4 1010 96 0 1.69 26.99 16:41 17.08.2019
3508 Rain 4 1010 96 0 1.69 26.99 16:22 17.08.2019
3509 Rain 4 1010 96 0 1.69 26.99 15:56 17.08.2019
3510 Rain 4 1010 96 0 1.69 26.99 15:37 17.08.2019
3511 Rain 6 1008 93 0 1.45 325.783 15:19 17.08.2019
3512 Rain 6 1008 93 0 1.45 325.783 14:40 17.08.2019
3513 Rain 6 1008 93 0 1.45 325.783 14:22 17.08.2019
3514 Rain 6 1008 93 0 1.45 325.783 13:46 17.08.2019
3515 Rain 4 1007 94 0 3.28 44.605 13:22 17.08.2019
3516 Rain 4 1007 94 0 3.28 44.605 12:57 17.08.2019
3517 Rain 4 1007 94 0 3.28 44.605 12:39 17.08.2019
3518 Rain 6 1008 90 0 1.94 43.916 12:18 17.08.2019
3519 Rain 6 1008 90 0 1.94 43.916 11:43 17.08.2019
3520 Rain 6 1008 90 0 1.94 43.916 11:21 17.08.2019
3521 Rain 6 1008 90 0 1.94 43.916 10:56 17.08.2019
3522 Rain 6 1008 90 0 1.94 43.916 10:38 17.08.2019
3523 Rain 6 1008 90 0 1.94 43.916 10:18 17.08.2019
3524 Rain 6 1008 90 0 1.94 43.916 09:44 17.08.2019
3525 Rain 6 1008 90 0 1.94 43.916 09:26 17.08.2019
3526 Rain 6 1009 90 0 0.09 240.173 08:54 17.08.2019
3527 Rain 6 1009 90 0 0.09 240.173 08:25 17.08.2019
3528 Rain 6 1009 90 0 0.09 240.173 07:46 17.08.2019
3529 Rain 6 1009 90 0 0.09 240.173 07:21 17.08.2019
3530 Rain 6 1009 90 0 0.09 240.173 06:42 17.08.2019
3531 Rain 5 1010 93 0 0.29 2.931 05:31 17.08.2019
3532 Rain 5 1010 93 0 0.29 2.931 04:29 17.08.2019
3533 Rain 4 1008 95 0 2.08 140.23 03:20 17.08.2019
3534 Rain 4 1008 95 0 2.08 140.23 01:46 17.08.2019
3535 Rain 5 1008 92 0 0.83 257.92 01:27 17.08.2019
3536 Rain 5 1008 92 0 0.83 257.92 00:55 17.08.2019
3537 Rain 5 1008 92 0 0.83 257.92 00:28 17.08.2019
3538 Rain 7 1008 89 0 1.18 214.631 23:50 16.08.2019
3539 Rain 7 1008 89 0 1.18 214.631 23:27 16.08.2019
3540 Rain 7 1008 89 0 1.18 214.631 22:56 16.08.2019
3541 Rain 7 1008 89 0 1.18 214.631 22:38 16.08.2019
3542 Rain 7 1008 89 0 1.18 214.631 22:19 16.08.2019
3543 Rain 7 1008 89 0 1.18 214.631 21:40 16.08.2019
3544 Rain 7 1008 90 0 1.5 217.942 21:20 16.08.2019
3545 Rain 7 1008 90 0 1.5 217.942 20:56 16.08.2019
3546 Rain 7 1008 90 0 1.5 217.942 20:37 16.08.2019
3547 Rain 7 1008 90 0 1.5 217.942 20:18 16.08.2019
3548 Rain 7 1008 90 0 1.5 217.942 19:43 16.08.2019
3549 Rain 7 1008 90 0 1.5 217.942 19:23 16.08.2019
3550 Rain 7 1008 90 0 1.5 217.942 18:54 16.08.2019
3551 Rain 7 1008 90 0 1.5 217.942 18:36 16.08.2019
3552 Rain 8 1007 86 0 1.27 220.66 18:18 16.08.2019
3553 Rain 8 1007 86 0 1.27 220.66 17:41 16.08.2019
3554 Rain 8 1007 86 0 1.27 220.66 17:41 16.08.2019
3555 Rain 8 1007 86 0 1.27 220.66 17:23 16.08.2019
3556 Rain 8 1007 86 0 1.27 220.66 17:23 16.08.2019
3557 Rain 8 1007 86 0 1.27 220.66 16:56 16.08.2019
3558 Rain 8 1007 86 0 1.27 220.66 16:37 16.08.2019
3559 Rain 8 1007 86 0 1.27 220.66 16:18 16.08.2019
3560 Rain 8 1007 86 0 1.27 220.66 15:40 16.08.2019
3561 Rain 10 1005 73 0 2.15 241.71 15:21 16.08.2019
3562 Rain 10 1005 73 0 2.15 241.71 15:21 16.08.2019
3563 Rain 10 1005 73 0 2.15 241.71 14:58 16.08.2019
3564 Rain 10 1005 73 0 2.15 241.71 14:39 16.08.2019
3565 Rain 10 1005 73 0 2.15 241.71 14:19 16.08.2019
3566 Rain 10 1005 73 0 2.15 241.71 13:57 16.08.2019
3567 Rain 10 1005 73 0 2.15 241.71 13:37 16.08.2019
3568 Rain 9 1005 78 0 0.99 259.316 13:19 16.08.2019
3569 Rain 9 1005 78 0 0.99 259.316 12:39 16.08.2019
3570 Rain 10 1005 78 0 3.46 219.448 12:20 16.08.2019
3571 Rain 10 1005 78 0 3.46 219.448 11:42 16.08.2019
3572 Rain 10 1005 78 0 3.46 219.448 11:24 16.08.2019
3573 Rain 10 1005 78 0 3.46 219.448 10:54 16.08.2019
3574 Rain 10 1005 78 0 3.46 219.448 10:36 16.08.2019
3575 Rain 10 1005 78 0 3.46 219.448 10:18 16.08.2019
3576 Rain 10 1005 78 0 3.46 219.448 09:38 16.08.2019
3577 Clouds 13 1008 53 0 1.67 211.693 09:18 16.08.2019
3578 Clouds 13 1008 53 0 1.67 211.693 08:56 16.08.2019
3579 Clouds 13 1008 53 0 1.67 211.693 08:37 16.08.2019
3580 Clouds 13 1008 53 0 1.67 211.693 08:18 16.08.2019
3581 Clouds 13 1008 53 0 1.67 211.693 07:42 16.08.2019
3582 Clouds 13 1008 53 0 1.67 211.693 07:24 16.08.2019
3583 Clouds 13 1008 53 0 1.67 211.693 06:33 16.08.2019
3584 Clear 9 1010 71 0 0.8 332.054 05:43 16.08.2019
3585 Clear 9 1010 71 0 0.8 332.054 04:33 16.08.2019
3586 Clouds 5 1010 93 0 0.43 152.727 03:19 16.08.2019
3587 Clouds 5 1010 93 0 0.43 152.727 01:44 16.08.2019
3588 Clouds 5 1010 93 0 0.38 142.828 01:24 16.08.2019
3589 Clouds 5 1010 93 0 0.38 142.828 00:43 16.08.2019
3590 Clouds 6 1009 91 0 1.07 147.095 00:22 16.08.2019
3591 Clouds 6 1009 91 0 1.07 147.095 23:46 15.08.2019
3592 Clouds 6 1009 91 0 1.07 147.095 23:24 15.08.2019
3593 Clouds 6 1009 91 0 1.07 147.095 22:59 15.08.2019
3594 Clouds 6 1009 91 0 1.07 147.095 22:40 15.08.2019
3595 Clouds 6 1009 91 0 1.07 147.095 22:21 15.08.2019
3596 Clouds 6 1009 91 0 1.07 147.095 21:56 15.08.2019
3597 Clouds 6 1009 91 0 1.24 118.636 21:38 15.08.2019
3598 Clouds 7 1009 88 0 1.24 159.39 21:19 15.08.2019
3599 Clouds 7 1009 88 0 1.24 159.39 20:45 15.08.2019
3600 Clouds 7 1009 88 0 1.24 159.39 20:22 15.08.2019
3601 Clouds 7 1009 88 0 1.24 159.39 19:59 15.08.2019
3602 Clouds 7 1009 88 0 1.24 159.39 19:39 15.08.2019
3603 Clouds 7 1009 88 0 1.24 159.39 19:21 15.08.2019
3604 Clouds 7 1009 88 0 1.24 159.39 18:48 15.08.2019
3605 Rain 9 1008 84 0 0.84 191.592 18:24 15.08.2019
3606 Rain 9 1008 84 0 0.84 191.592 17:59 15.08.2019
3607 Rain 9 1008 84 0 0.84 191.592 17:39 15.08.2019
3608 Rain 9 1008 84 0 0.84 191.592 17:20 15.08.2019
3609 Rain 9 1008 84 0 0.84 191.592 16:58 15.08.2019
3610 Rain 9 1008 84 0 0.84 191.592 16:40 15.08.2019
3611 Rain 9 1008 84 0 0.84 191.592 16:22 15.08.2019
3612 Rain 9 1008 84 0 0.84 191.592 15:39 15.08.2019
3613 Rain 12 1005 62 0 1.45 232.72 15:20 15.08.2019
3614 Rain 12 1005 62 0 1.45 232.72 14:57 15.08.2019
3615 Rain 12 1005 62 0 1.45 232.72 14:38 15.08.2019
3616 Rain 12 1005 62 0 1.45 232.72 14:20 15.08.2019
3617 Rain 12 1005 62 0 1.45 232.72 13:56 15.08.2019
3618 Rain 12 1005 62 0 1.45 232.72 13:38 15.08.2019
3619 Rain 12 1004 65 0 1.9 223.184 13:19 15.08.2019
3620 Rain 12 1004 65 0 1.9 223.184 12:40 15.08.2019
3621 Rain 12 1006 67 0 2.62 233.424 12:22 15.08.2019
3622 Rain 12 1006 67 0 2.62 233.424 12:22 15.08.2019
3623 Rain 12 1006 67 0 2.62 233.424 11:59 15.08.2019
3624 Rain 12 1006 67 0 2.62 233.424 11:39 15.08.2019
3625 Rain 12 1006 67 0 2.62 233.424 11:20 15.08.2019
3626 Rain 12 1006 67 0 2.62 233.424 10:59 15.08.2019
3627 Rain 12 1006 67 0 2.62 233.424 10:59 15.08.2019
3628 Rain 12 1006 67 0 2.62 233.424 10:59 15.08.2019
3629 Rain 12 1006 67 0 2.62 233.424 10:37 15.08.2019
3630 Rain 12 1006 67 0 2.62 233.424 10:37 15.08.2019
3631 Rain 12 1006 67 0 2.62 233.424 10:19 15.08.2019
3632 Rain 12 1006 67 0 2.62 233.424 09:44 15.08.2019
3633 Rain 12 1010 58 0 1.82 222.545 09:23 15.08.2019
3634 Rain 12 1010 58 0 1.82 222.545 08:55 15.08.2019
3635 Rain 12 1010 58 0 1.82 222.545 08:36 15.08.2019
3636 Rain 12 1010 58 0 1.82 222.545 08:18 15.08.2019
3637 Rain 12 1010 58 0 1.82 222.545 07:41 15.08.2019
3638 Rain 12 1010 58 0 1.82 222.545 07:21 15.08.2019
3639 Rain 12 1010 58 0 1.82 222.545 06:53 15.08.2019
3640 Rain 12 1010 58 0 1.82 222.545 06:32 15.08.2019
3641 Rain 9 1012 74 0 0.76 211.79 05:43 15.08.2019
3642 Rain 9 1012 74 0 0.76 211.79 05:23 15.08.2019
3643 Rain 9 1012 74 0 0.76 211.79 04:30 15.08.2019
3644 Rain 9 1012 74 0 0.76 211.79 03:30 15.08.2019
3645 Rain 7 1012 88 0 1.07 280.9 02:37 15.08.2019
3646 Rain 7 1012 88 0 1.07 280.9 01:50 15.08.2019
3647 Rain 6 1012 89 0 1.17 301.777 01:27 15.08.2019
3648 Rain 6 1012 89 0 1.17 301.777 00:39 15.08.2019
3649 Rain 7 1011 87 0 0.73 216.212 00:20 15.08.2019
3650 Rain 7 1011 87 0 0.73 216.212 23:57 14.08.2019
3651 Rain 7 1011 87 0 0.73 216.212 23:37 14.08.2019
3652 Rain 7 1011 87 0 0.73 216.212 23:19 14.08.2019
3653 Rain 7 1011 87 0 0.73 216.212 22:55 14.08.2019
3654 Rain 7 1011 87 0 0.73 216.212 22:37 14.08.2019
3655 Rain 7 1011 87 0 0.73 216.212 22:18 14.08.2019
3656 Rain 7 1011 87 0 0.73 216.212 21:55 14.08.2019
3657 Rain 7 1011 89 0 1.05 180.932 21:36 14.08.2019
3658 Clouds 7 1011 91 0 1.1 167.602 21:18 14.08.2019
3659 Clouds 7 1011 91 0 1.1 167.602 20:41 14.08.2019
3660 Clouds 7 1011 91 0 1.1 167.602 20:20 14.08.2019
3661 Clouds 7 1011 91 0 1.1 167.602 19:56 14.08.2019
3662 Clouds 7 1011 91 0 1.1 167.602 19:37 14.08.2019
3663 Clouds 7 1011 91 0 1.1 167.602 19:19 14.08.2019
3664 Clouds 7 1011 91 0 1.1 167.602 18:56 14.08.2019
3665 Clouds 7 1011 91 0 1.1 167.602 18:38 14.08.2019
3666 Clouds 7 1011 91 0 1.1 167.602 18:38 14.08.2019
3667 Rain 8 1011 84 0 0.35 235.483 18:19 14.08.2019
3668 Rain 8 1011 84 0 0.35 235.483 17:56 14.08.2019
3669 Rain 8 1011 84 0 0.35 235.483 17:36 14.08.2019
3670 Rain 8 1011 84 0 0.35 235.483 17:18 14.08.2019
3671 Rain 8 1011 84 0 0.35 235.483 16:41 14.08.2019
3672 Rain 8 1011 84 0 0.35 235.483 16:20 14.08.2019
3673 Rain 8 1011 84 0 0.35 235.483 15:45 14.08.2019
3674 Rain 10 1008 72 0 0.58 241.499 15:24 14.08.2019
3675 Rain 10 1008 72 0 0.58 241.499 14:59 14.08.2019
3676 Rain 10 1008 72 0 0.58 241.499 14:39 14.08.2019
3677 Rain 10 1008 72 0 0.58 241.499 14:19 14.08.2019
3678 Rain 10 1008 72 0 0.58 241.499 13:55 14.08.2019
3679 Rain 10 1008 72 0 0.58 241.499 13:37 14.08.2019
3680 Rain 10 1006 71 0 0.93 201.904 13:19 14.08.2019
3681 Rain 10 1006 71 0 0.93 201.904 12:56 14.08.2019
3682 Rain 10 1006 71 0 0.93 201.904 12:37 14.08.2019
3683 Rain 10 1006 71 0 0.93 201.904 12:37 14.08.2019
3684 Rain 7 1008 80 0 1.07 75.316 12:19 14.08.2019
3685 Rain 7 1008 80 0 1.07 75.316 11:45 14.08.2019
3686 Rain 7 1008 80 0 1.07 75.316 11:23 14.08.2019
3687 Rain 7 1008 80 0 1.07 75.316 10:57 14.08.2019
3688 Rain 7 1008 80 0 1.07 75.316 10:38 14.08.2019
3689 Rain 7 1008 80 0 1.07 75.316 10:20 14.08.2019
3690 Rain 7 1008 80 0 1.07 75.316 09:42 14.08.2019
3691 Rain 4 1009 96 0 0.24 133.119 09:21 14.08.2019
3692 Rain 4 1009 96 0 0.24 133.119 09:21 14.08.2019
3693 Rain 8 1009 84 0 1.98 147.391 08:45 14.08.2019
3694 Rain 8 1009 84 0 1.98 147.391 08:27 14.08.2019
3695 Rain 8 1009 84 0 1.98 147.391 07:57 14.08.2019
3696 Rain 8 1009 84 0 1.98 147.391 07:37 14.08.2019
3697 Rain 8 1009 84 0 1.98 147.391 07:37 14.08.2019
3698 Rain 8 1009 84 0 1.98 147.391 06:53 14.08.2019
3699 Rain 8 1009 84 0 1.98 147.391 06:35 14.08.2019
3700 Rain 8 1011 84 0 1.27 294.571 05:35 14.08.2019
3701 Rain 8 1011 84 0 1.27 294.571 04:43 14.08.2019
3702 Rain 7 1010 89 0 0.94 348.165 02:44 14.08.2019
3703 Rain 7 1010 89 0 0.94 348.165 02:18 14.08.2019
3704 Rain 7 1009 93 0 1.09 15.163 01:30 14.08.2019
3705 Rain 7 1009 93 0 1.09 15.163 00:47 14.08.2019
3706 Clouds 6 1009 95 0 0.46 285.036 23:45 13.08.2019
3707 Clouds 6 1009 95 0 0.46 285.036 23:20 13.08.2019
3708 Clouds 6 1009 95 0 0.46 285.036 22:57 13.08.2019
3709 Clouds 6 1009 95 0 0.46 285.036 22:38 13.08.2019
3710 Clouds 6 1009 95 0 0.46 285.036 22:20 13.08.2019
3711 Clouds 6 1009 95 0 0.46 285.036 21:56 13.08.2019
3712 Clouds 6 1009 95 0 0.46 285.036 21:36 13.08.2019
3713 Rain 8 1010 94 0 0.52 198.295 21:18 13.08.2019
3714 Rain 8 1010 94 0 0.52 198.295 20:44 13.08.2019
3715 Rain 8 1010 94 0 0.52 198.295 20:20 13.08.2019
3716 Rain 8 1010 94 0 0.52 198.295 19:57 13.08.2019
3717 Rain 8 1010 94 0 0.52 198.295 19:39 13.08.2019
3718 Rain 8 1010 94 0 0.52 198.295 19:20 13.08.2019
3719 Rain 8 1010 94 0 0.52 198.295 18:42 13.08.2019
3720 Rain 9 1009 87 0 1.26 237.763 18:22 13.08.2019
3721 Rain 9 1009 87 0 1.26 237.763 17:57 13.08.2019
3722 Rain 9 1009 87 0 1.26 237.763 17:39 13.08.2019
3723 Rain 9 1009 87 0 1.26 237.763 17:19 13.08.2019
3724 -273 0 0 0 0 0 16:56 13.08.2019
3725 Rain 9 1009 87 0 1.26 237.763 16:37 13.08.2019
3726 Rain 9 1009 87 0 1.26 237.763 16:19 13.08.2019
3727 Rain 9 1009 87 0 1.26 237.763 15:39 13.08.2019
3728 Rain 11 1005 78 0 1.95 232.673 15:20 13.08.2019
3729 Rain 11 1005 78 0 1.95 232.673 15:20 13.08.2019
3730 Rain 11 1005 78 0 1.95 232.673 14:57 13.08.2019
3731 Rain 11 1005 78 0 1.95 232.673 14:57 13.08.2019
3732 Rain 11 1005 78 0 1.95 232.673 14:38 13.08.2019
3733 Rain 11 1005 78 0 1.95 232.673 14:18 13.08.2019
3734 Rain 11 1005 78 0 1.95 232.673 13:41 13.08.2019
3735 Rain 10 1004 82 0 0.82 219.275 13:21 13.08.2019
3736 Rain 10 1004 82 0 0.82 219.275 12:58 13.08.2019
3737 Rain 10 1004 82 0 0.82 219.275 12:40 13.08.2019
3738 Rain 13 1005 69 0 2.84 230.915 12:21 13.08.2019
3739 Rain 13 1005 69 0 2.84 230.915 11:58 13.08.2019
3740 Rain 13 1005 69 0 2.84 230.915 11:37 13.08.2019
3741 Rain 13 1005 69 0 2.84 230.915 11:18 13.08.2019
3742 Rain 13 1005 69 0 2.84 230.915 10:55 13.08.2019
3743 Rain 13 1005 69 0 2.84 230.915 10:36 13.08.2019
3744 Rain 13 1005 69 0 2.84 230.915 10:18 13.08.2019
3745 Rain 13 1005 69 0 2.84 230.915 09:42 13.08.2019
3746 Rain 14 1006 54 0 1.42 210.908 09:23 13.08.2019
3747 Rain 14 1006 54 0 1.42 210.908 08:43 13.08.2019
3748 Rain 14 1006 54 0 1.42 210.908 08:22 13.08.2019
3749 Rain 14 1006 54 0 1.42 210.908 07:57 13.08.2019
3750 Rain 14 1006 54 0 1.42 210.908 07:34 13.08.2019
3751 Rain 14 1006 54 0 1.42 210.908 06:56 13.08.2019
3752 Rain 14 1006 54 0 1.42 210.908 06:36 13.08.2019
3753 Clouds 10 1009 68 0 1.09 127.069 05:35 13.08.2019
3754 Clouds 10 1009 68 0 1.09 127.069 03:35 13.08.2019
3755 Clouds 7 1008 87 0 0.91 123.813 02:19 13.08.2019
3756 Clouds 6 1007 91 0 0.83 136.269 01:18 13.08.2019
3757 Clouds 6 1007 91 0 0.83 136.269 00:42 13.08.2019
3758 Clouds 7 1007 93 0 0.87 179.075 23:57 12.08.2019
3759 Clouds 7 1007 93 0 0.87 179.075 23:38 12.08.2019
3760 Clouds 7 1007 93 0 0.87 179.075 23:19 12.08.2019
3761 Clouds 7 1007 93 0 0.87 179.075 22:40 12.08.2019
3762 Clouds 7 1007 93 0 0.87 179.075 22:20 12.08.2019
3763 Clouds 7 1007 93 0 0.87 179.075 22:20 12.08.2019
3764 Clouds 7 1007 93 0 0.87 179.075 21:56 12.08.2019
3765 Clouds 7 1007 93 0 0.87 179.075 21:37 12.08.2019
3766 Clouds 8 1007 91 0 0.67 195.792 21:19 12.08.2019
3767 Clouds 8 1007 91 0 0.67 195.792 20:57 12.08.2019
3768 Clouds 8 1007 91 0 0.67 195.792 20:38 12.08.2019
3769 Clouds 8 1007 91 0 0.67 195.792 20:20 12.08.2019
3770 Clouds 8 1007 91 0 0.67 195.792 19:56 12.08.2019
3771 Clouds 8 1007 91 0 0.67 195.792 19:37 12.08.2019
3772 Clouds 8 1007 91 0 0.67 195.792 19:19 12.08.2019
3773 Clouds 8 1007 91 0 0.67 195.792 18:55 12.08.2019
3774 Clouds 8 1007 91 0 0.67 195.792 18:37 12.08.2019
3775 Rain 9 1006 87 0 0.26 185.398 18:19 12.08.2019
3776 Rain 9 1006 87 0 0.26 185.398 17:47 12.08.2019
3777 Rain 9 1006 87 0 0.26 185.398 17:28 12.08.2019
3778 Rain 9 1006 87 0 0.26 185.398 16:58 12.08.2019
3779 Rain 9 1006 87 0 0.26 185.398 16:39 12.08.2019
3780 Rain 9 1006 87 0 0.26 185.398 16:20 12.08.2019
3781 Rain 9 1006 87 0 0.26 185.398 16:20 12.08.2019
3782 Rain 9 1006 87 0 0.26 185.398 15:59 12.08.2019
3783 Rain 9 1006 87 0 0.26 185.398 15:41 12.08.2019
3784 Rain 9 1006 87 0 0.26 185.398 15:41 12.08.2019
3785 -273 0 0 0 0 0 15:40 12.08.2019
3786 Rain 12 1003 74 0 1.66 234.026 15:21 12.08.2019
3787 Rain 12 1003 74 0 1.66 234.026 14:55 12.08.2019
3788 Rain 12 1003 74 0 1.66 234.026 14:37 12.08.2019
3789 Rain 12 1003 74 0 1.66 234.026 14:18 12.08.2019
3790 Rain 12 1003 74 0 1.66 234.026 14:18 12.08.2019
3791 Rain 12 1003 74 0 1.66 234.026 13:43 12.08.2019
3792 Rain 12 1003 72 0 1.82 231.679 13:24 12.08.2019
3793 Rain 12 1003 72 0 1.82 231.679 12:57 12.08.2019
3794 Rain 12 1003 72 0 1.82 231.679 12:57 12.08.2019
3795 Rain 12 1003 72 0 1.82 231.679 12:39 12.08.2019
3796 Rain 13 1003 69 0 2.66 225.183 12:18 12.08.2019
3797 Rain 13 1003 69 0 2.66 225.183 11:41 12.08.2019
3798 Rain 13 1003 69 0 2.66 225.183 11:41 12.08.2019
3799 Rain 13 1003 69 0 2.66 225.183 11:23 12.08.2019
3800 Rain 13 1003 69 0 2.66 225.183 10:43 12.08.2019
3801 Rain 13 1003 69 0 2.66 225.183 10:23 12.08.2019
3802 Rain 13 1003 69 0 2.66 225.183 10:23 12.08.2019
3803 Rain 13 1003 69 0 2.66 225.183 10:23 12.08.2019
3804 Rain 13 1003 69 0 2.66 225.183 09:56 12.08.2019
3805 Rain 13 1003 69 0 2.66 225.183 09:38 12.08.2019
3806 Rain 13 1003 69 0 2.66 225.183 09:38 12.08.2019
3807 Clear 15 1005 53 0 1.91 229.707 09:19 12.08.2019
3808 -273 0 0 0 0 0 08:58 12.08.2019
3809 Clear 15 1005 53 0 1.91 229.707 08:38 12.08.2019
3810 Clear 15 1005 53 0 1.91 229.707 08:19 12.08.2019
3811 Clear 15 1005 53 0 1.91 229.707 07:52 12.08.2019
3812 Clear 15 1005 53 0 1.91 229.707 07:27 12.08.2019
3813 Clear 15 1005 53 0 1.91 229.707 06:50 12.08.2019
3814 Clear 10 1008 69 0 0.41 297.067 05:39 12.08.2019
3815 Clear 5 1007 93 0 0.76 278.226 02:44 12.08.2019
3816 Clear 5 1007 93 0 0.76 278.226 01:55 12.08.2019
3817 Clear 5 1007 93 0 0.76 278.226 01:21 12.08.2019
3818 Clear 5 1007 93 0 0.76 278.226 00:58 12.08.2019
3819 Clear 5 1007 93 0 0.76 278.226 00:39 12.08.2019
3820 Clear 6 1007 92 0 0.7 303.69 00:20 12.08.2019
3821 Clear 6 1007 92 0 0.7 303.69 23:55 11.08.2019
3822 Clear 6 1007 92 0 0.7 303.69 23:37 11.08.2019
3823 Clear 6 1007 92 0 0.7 303.69 23:18 11.08.2019
3824 Clear 6 1007 92 0 0.7 303.69 22:40 11.08.2019
3825 Clear 6 1007 92 0 0.7 303.69 22:20 11.08.2019
3826 Clear 6 1007 92 0 0.7 303.69 22:20 11.08.2019
3827 Clear 6 1007 92 0 0.7 303.69 21:59 11.08.2019
3828 Clear 6 1007 92 0 0.7 303.69 21:41 11.08.2019
3829 Clouds 8 1008 89 0 0.94 261.827 21:22 11.08.2019
3830 Clouds 8 1007 89 0 0.95 267.777 20:58 11.08.2019
3831 Clouds 8 1007 89 0 0.95 267.777 20:40 11.08.2019
3832 Clouds 8 1007 89 0 0.95 267.777 20:22 11.08.2019
3833 Clouds 8 1007 89 0 0.95 267.777 19:45 11.08.2019
3834 Clouds 8 1007 89 0 0.95 267.777 19:20 11.08.2019
3835 Clouds 8 1007 89 0 0.95 267.777 18:54 11.08.2019
3836 Clouds 8 1007 89 0 0.95 267.777 18:36 11.08.2019
3837 Rain 9 1006 84 0 0.69 242.354 18:18 11.08.2019
3838 Rain 9 1006 84 0 0.69 242.354 17:41 11.08.2019
3839 Rain 9 1006 84 0 0.69 242.354 17:20 11.08.2019
3840 Rain 9 1006 84 0 0.69 242.354 16:57 11.08.2019
3841 Rain 9 1006 84 0 0.69 242.354 16:38 11.08.2019
3842 Rain 9 1006 84 0 0.69 242.354 16:20 11.08.2019
3843 Rain 9 1006 84 0 0.69 242.354 16:20 11.08.2019
3844 Rain 9 1006 84 0 0.69 242.354 15:44 11.08.2019
3845 Rain 9 1006 84 0 0.69 242.354 15:26 11.08.2019
3846 Rain 9 1006 84 0 0.69 242.354 15:26 11.08.2019
3847 Rain 11 1004 74 0 2.06 244.692 14:59 11.08.2019
3848 Rain 11 1004 74 0 2.06 244.692 14:40 11.08.2019
3849 Rain 11 1004 74 0 2.06 244.692 14:21 11.08.2019
3850 Rain 11 1004 74 0 2.06 244.692 13:46 11.08.2019
3851 Rain 12 1003 72 0 1.85 241.982 13:26 11.08.2019
3852 Rain 12 1003 72 0 1.85 241.982 12:58 11.08.2019
3853 Rain 12 1003 72 0 1.85 241.982 12:38 11.08.2019
3854 Rain 13 1004 66 0 2.83 238.323 12:20 11.08.2019
3855 Rain 13 1004 66 0 2.83 238.323 11:40 11.08.2019
3856 Rain 13 1004 66 0 2.83 238.323 11:40 11.08.2019
3857 Rain 13 1004 66 0 2.83 238.323 11:22 11.08.2019
3858 Rain 13 1004 66 0 2.83 238.323 10:56 11.08.2019
3859 Rain 13 1004 66 0 2.83 238.323 10:38 11.08.2019
3860 Rain 13 1004 66 0 2.83 238.323 10:19 11.08.2019
3861 Rain 13 1004 66 0 2.83 238.323 10:19 11.08.2019
3862 Rain 13 1004 66 0 2.83 238.323 09:54 11.08.2019
3863 -273 0 0 0 0 0 09:36 11.08.2019
3864 Rain 13 1004 66 0 2.83 238.323 09:36 11.08.2019
3865 Rain 13 1007 66 0 2.49 223.109 09:18 11.08.2019
3866 Rain 13 1006 66 0 2.44 221.358 08:40 11.08.2019
3867 Rain 13 1006 66 0 2.44 221.358 08:21 11.08.2019
3868 Rain 13 1006 66 0 2.44 221.358 07:46 11.08.2019
3869 Rain 13 1006 66 0 2.44 221.358 07:19 11.08.2019
3870 Rain 13 1006 66 0 2.44 221.358 06:38 11.08.2019
3871 Rain 10 1009 75 0 0.49 215.059 05:28 11.08.2019
3872 Rain 7 1008 92 0 0.39 230.138 02:54 11.08.2019
3873 Rain 7 1008 92 0 0.39 230.138 02:25 11.08.2019
3874 Rain 7 1008 92 0 0.39 230.138 01:33 11.08.2019
3875 Clouds 7 1008 88 0 0.25 228.308 00:56 11.08.2019
3876 Clouds 7 1008 88 0 0.25 228.308 00:36 11.08.2019
3877 Clouds 7 1008 88 0 0.25 228.308 00:36 11.08.2019
3878 Clouds 7 1008 92 0 0.3 303.104 00:18 11.08.2019
3879 Clouds 7 1008 92 0 0.3 303.104 23:39 10.08.2019
3880 Clouds 7 1008 92 0 0.3 303.104 23:20 10.08.2019
3881 Clouds 7 1008 92 0 0.3 303.104 22:42 10.08.2019
3882 Clouds 7 1008 92 0 0.3 303.104 22:23 10.08.2019
3883 Clouds 7 1008 92 0 0.3 303.104 21:56 10.08.2019
3884 Clouds 7 1008 92 0 0.3 303.104 21:56 10.08.2019
3885 Clouds 7 1008 92 0 0.3 303.104 21:36 10.08.2019
3886 Rain 8 1008 89 0 0.91 282.358 21:18 10.08.2019
3887 Rain 8 1008 89 0 0.91 282.358 20:42 10.08.2019
3888 Rain 8 1008 89 0 0.91 282.358 20:21 10.08.2019
3889 Rain 8 1008 89 0 0.91 282.358 19:57 10.08.2019
3890 Rain 8 1008 89 0 0.91 282.358 19:37 10.08.2019
3891 Rain 8 1008 89 0 0.91 282.358 19:19 10.08.2019
3892 Rain 8 1008 89 0 0.91 282.358 18:39 10.08.2019
3893 Rain 8 1008 89 0 0.91 282.358 18:39 10.08.2019
3894 Rain 9 1007 88 0 0.44 42.212 18:21 10.08.2019
3895 Rain 9 1007 88 0 0.44 42.212 17:44 10.08.2019
3896 Rain 9 1007 88 0 0.44 42.212 17:24 10.08.2019
3897 Rain 9 1007 88 0 0.44 42.212 16:47 10.08.2019
3898 Rain 9 1007 88 0 0.44 42.212 16:28 10.08.2019
3899 Rain 9 1007 88 0 0.44 42.212 15:54 10.08.2019
3900 Rain 9 1007 88 0 0.44 42.212 15:25 10.08.2019
3901 Rain 11 1004 76 0 2.54 236.466 14:45 10.08.2019
3902 Rain 11 1004 76 0 2.54 236.466 14:23 10.08.2019
3903 Rain 11 1004 76 0 2.54 236.466 13:57 10.08.2019
3904 Rain 11 1004 76 0 2.54 236.466 13:39 10.08.2019
3905 -273 0 0 0 0 0 13:18 10.08.2019
3906 Rain 11 1003 75 0 2.59 239.659 13:18 10.08.2019
3907 Rain 11 1003 75 0 2.59 239.659 12:41 10.08.2019
3908 Rain 12 1005 70 0 2.82 234.368 12:21 10.08.2019
3909 Rain 12 1005 70 0 2.82 234.368 11:57 10.08.2019
3910 Rain 12 1005 70 0 2.82 234.368 11:38 10.08.2019
3911 Rain 12 1005 70 0 2.82 234.368 11:20 10.08.2019
3912 Rain 12 1005 70 0 2.82 234.368 10:39 10.08.2019
3913 Rain 12 1005 70 0 2.82 234.368 10:20 10.08.2019
3914 Rain 12 1005 70 0 2.82 234.368 09:59 10.08.2019
3915 Rain 12 1005 70 0 2.82 234.368 09:38 10.08.2019
3916 Rain 13 1007 59 0 2.91 203.803 09:20 10.08.2019
3917 Rain 13 1007 59 0 2.83 199.748 08:39 10.08.2019
3918 Rain 13 1007 59 0 2.83 199.748 08:19 10.08.2019
3919 Rain 13 1007 59 0 2.83 199.748 07:52 10.08.2019
3920 Rain 13 1007 59 0 2.83 199.748 07:27 10.08.2019
3921 Rain 13 1007 59 0 2.83 199.748 06:48 10.08.2019
3922 Clear 10 1009 69 0 0.72 109.137 06:21 10.08.2019
3923 Clear 10 1009 69 0 0.72 109.137 05:24 10.08.2019
3924 Clear 10 1009 69 0 0.72 109.137 04:21 10.08.2019
3925 Clouds 5 1009 92 0 0.61 12.396 02:54 10.08.2019
3926 Clouds 5 1009 92 0 0.61 12.396 01:59 10.08.2019
3927 Clouds 5 1009 92 0 0.61 12.396 01:40 10.08.2019
3928 Clouds 5 1009 90 0 0.73 32.005 01:20 10.08.2019
3929 Clouds 5 1009 90 0 0.73 32.005 00:44 10.08.2019
3930 Rain 8 1009 85 0 1.02 109.552 00:22 10.08.2019
3931 Rain 8 1009 85 0 1.02 109.552 23:43 09.08.2019
3932 Rain 8 1009 85 0 1.02 109.552 23:23 09.08.2019
3933 Rain 8 1009 85 0 1.02 109.552 22:57 09.08.2019
3934 Rain 8 1009 85 0 1.02 109.552 22:38 09.08.2019
3935 Rain 8 1009 85 0 1.02 109.552 22:20 09.08.2019
3936 Rain 8 1009 85 0 1.02 109.552 21:43 09.08.2019
3937 Rain 8 1009 87 0 1.72 176.459 21:23 09.08.2019
3938 Rain 8 1009 87 0 1.72 176.459 20:59 09.08.2019
3939 Rain 8 1009 87 0 1.72 176.459 20:59 09.08.2019
3940 Rain 8 1009 83 0 0.79 163.142 20:40 09.08.2019
3941 Rain 8 1009 83 0 0.79 163.142 20:21 09.08.2019
3942 Rain 8 1009 83 0 0.79 163.142 19:59 09.08.2019
3943 Rain 8 1009 83 0 0.79 163.142 19:41 09.08.2019
3944 Rain 8 1009 83 0 0.79 163.142 19:18 09.08.2019
3945 Rain 8 1009 83 0 0.79 163.142 18:41 09.08.2019
3946 Rain 8 1007 83 0 1.65 168.983 18:22 09.08.2019
3947 Rain 8 1007 83 0 1.65 168.983 17:58 09.08.2019
3948 Rain 8 1007 83 0 1.65 168.983 17:39 09.08.2019
3949 Rain 8 1007 83 0 1.65 168.983 17:21 09.08.2019
3950 -273 0 0 0 0 0 16:41 09.08.2019
3951 Rain 8 1007 83 0 1.65 168.983 16:41 09.08.2019
3952 Rain 8 1007 83 0 1.65 168.983 16:41 09.08.2019
3953 Rain 8 1007 83 0 1.65 168.983 16:22 09.08.2019
3954 Rain 8 1007 83 0 1.65 168.983 15:56 09.08.2019
3955 Rain 8 1007 83 0 1.65 168.983 15:38 09.08.2019
3956 Rain 9 1005 90 0 3.22 220.129 15:19 09.08.2019
3957 Rain 9 1005 90 0 3.22 220.129 14:44 09.08.2019
3958 Rain 9 1005 90 0 3.22 220.129 14:23 09.08.2019
3959 Rain 9 1005 90 0 3.22 220.129 13:59 09.08.2019
3960 Rain 9 1005 90 0 3.22 220.129 13:40 09.08.2019
3961 Rain 8 1004 90 0 2.7 233.088 13:20 09.08.2019
3962 Rain 8 1004 90 0 2.7 233.088 12:46 09.08.2019
3963 Rain 11 1005 81 0 2.31 227.67 12:24 09.08.2019
3964 Rain 11 1005 81 0 2.31 227.67 11:58 09.08.2019
3965 Rain 11 1005 81 0 2.31 227.67 11:37 09.08.2019
3966 Rain 11 1005 81 0 2.31 227.67 11:18 09.08.2019
3967 Rain 11 1005 81 0 2.31 227.67 10:40 09.08.2019
3968 Rain 11 1005 81 0 2.31 227.67 10:21 09.08.2019
3969 Rain 11 1005 81 0 2.31 227.67 09:46 09.08.2019
3970 Rain 13 1006 64 0 2.2 225.055 09:20 09.08.2019
3971 Rain 13 1006 64 0 2.2 225.055 08:57 09.08.2019
3972 Rain 14 1006 59 0 2.42 203.513 08:39 09.08.2019
3973 Rain 14 1006 59 0 2.42 203.513 08:19 09.08.2019
3974 Rain 14 1006 59 0 2.42 203.513 07:43 09.08.2019
3975 Rain 14 1006 59 0 2.42 203.513 07:43 09.08.2019
3976 Rain 14 1006 59 0 2.42 203.513 07:23 09.08.2019
3977 Rain 14 1006 59 0 2.42 203.513 06:56 09.08.2019
3978 Rain 14 1006 59 0 2.42 203.513 06:29 09.08.2019
3979 Clouds 10 1007 66 0 0.73 295.517 05:55 09.08.2019
3980 Clouds 10 1007 66 0 0.73 295.517 04:21 09.08.2019
3981 Clouds 6 1006 87 0 0.64 302.714 01:45 09.08.2019
3982 Clouds 6 1006 86 0 0.77 258.806 00:48 09.08.2019
3983 Clouds 6 1006 86 0 0.77 258.806 00:26 09.08.2019
3984 Clouds 8 1005 81 0 0.77 340.176 23:59 08.08.2019
3985 Clouds 8 1005 81 0 0.77 340.176 23:38 08.08.2019
3986 Clouds 8 1005 81 0 0.77 340.176 23:19 08.08.2019
3987 Clouds 8 1005 81 0 0.77 340.176 22:58 08.08.2019
3988 Clouds 8 1005 81 0 0.77 340.176 22:37 08.08.2019
3989 Clouds 8 1005 81 0 0.77 340.176 22:37 08.08.2019
3990 Clouds 8 1005 81 0 0.77 340.176 22:18 08.08.2019
3991 Clouds 8 1005 81 0 0.77 340.176 21:57 08.08.2019
3992 Clouds 8 1005 81 0 0.77 340.176 21:39 08.08.2019
3993 Rain 7 1006 82 0 1.83 16.07 21:20 08.08.2019
3994 Rain 8 1006 78 0 1.21 49.783 20:42 08.08.2019
3995 Rain 8 1006 78 0 1.21 49.783 20:22 08.08.2019
3996 Rain 8 1006 78 0 1.21 49.783 19:59 08.08.2019
3997 Rain 8 1006 78 0 1.21 49.783 19:41 08.08.2019
3998 Rain 8 1006 78 0 1.21 49.783 19:20 08.08.2019
3999 Rain 8 1006 78 0 1.21 49.783 18:43 08.08.2019
4000 Rain 9 1004 80 0 3.14 36.479 18:23 08.08.2019
4001 -273 0 0 0 0 0 17:56 08.08.2019
4002 Rain 9 1004 80 0 3.14 36.479 17:37 08.08.2019
4003 Rain 9 1004 80 0 3.14 36.479 17:19 08.08.2019
4004 Rain 9 1004 80 0 3.14 36.479 16:42 08.08.2019
4005 Rain 9 1004 80 0 3.14 36.479 16:24 08.08.2019
4006 Rain 9 1004 80 0 3.14 36.479 15:59 08.08.2019
4007 Rain 9 1004 80 0 3.14 36.479 15:40 08.08.2019
4008 Rain 10 1001 78 0 2.91 318.76 15:22 08.08.2019
4009 Rain 10 1001 78 0 2.91 318.76 14:42 08.08.2019
4010 Rain 10 1001 78 0 2.91 318.76 14:23 08.08.2019
4011 Rain 10 1001 78 0 2.91 318.76 13:59 08.08.2019
4012 Rain 10 1001 78 0 2.91 318.76 13:59 08.08.2019
4013 Rain 10 1001 78 0 2.91 318.76 13:38 08.08.2019
4014 Rain 10 1001 76 0 2.17 324.478 13:18 08.08.2019
4015 Rain 10 1001 76 0 2.17 324.478 13:18 08.08.2019
4016 Rain 10 1001 76 0 2.17 324.478 12:40 08.08.2019
4017 Rain 12 1002 72 0 2.83 261.288 12:20 08.08.2019
4018 Rain 12 1002 72 0 2.83 261.288 11:56 08.08.2019
4019 Rain 12 1002 72 0 2.83 261.288 11:37 08.08.2019
4020 Rain 12 1002 72 0 2.83 261.288 11:19 08.08.2019
4021 Rain 12 1002 72 0 2.83 261.288 10:41 08.08.2019
4022 Rain 12 1002 72 0 2.83 261.288 10:41 08.08.2019
4023 Rain 12 1002 72 0 2.83 261.288 10:21 08.08.2019
4024 Rain 12 1002 72 0 2.83 261.288 09:49 08.08.2019
4025 Rain 12 1002 72 0 2.83 261.288 09:30 08.08.2019
4026 Rain 13 1004 61 0 1.34 232.643 08:57 08.08.2019
4027 Rain 13 1004 59 0 1.76 223.805 08:38 08.08.2019
4028 Rain 13 1004 59 0 1.76 223.805 08:19 08.08.2019
4029 Rain 13 1004 59 0 1.76 223.805 07:40 08.08.2019
4030 Rain 13 1004 59 0 1.76 223.805 07:20 08.08.2019
4031 Rain 13 1004 59 0 1.76 223.805 06:48 08.08.2019
4032 Rain 13 1004 59 0 1.76 223.805 06:27 08.08.2019
4033 Clear 10 1006 70 0 0.59 327.44 05:53 08.08.2019
4034 Clear 10 1006 70 0 0.59 327.44 04:54 08.08.2019
4035 Clear 10 1006 70 0 0.59 327.44 03:53 08.08.2019
4036 Clouds 7 1006 94 0 0.63 107.484 02:30 08.08.2019
4037 Clouds 7 1006 94 0 0.63 107.484 01:37 08.08.2019
4038 Rain 6 1006 95 0 0.35 101.821 00:26 08.08.2019
4039 Rain 7 1006 91 0 0.25 25.959 23:51 07.08.2019
4040 Rain 7 1006 91 0 0.25 25.959 23:20 07.08.2019
4041 Rain 7 1006 91 0 0.25 25.959 22:57 07.08.2019
4042 Rain 7 1006 91 0 0.25 25.959 22:39 07.08.2019
4043 Rain 7 1006 91 0 0.25 25.959 22:20 07.08.2019
4044 Rain 7 1006 91 0 0.25 25.959 21:56 07.08.2019
4045 Rain 7 1006 91 0 0.25 25.959 21:37 07.08.2019
4046 Rain 7 1006 91 0 0.25 25.959 21:37 07.08.2019
4047 Rain 8 1006 82 0 0.51 333.083 21:18 07.08.2019
4048 Rain 8 1005 88 0 1.45 215.138 20:43 07.08.2019
4049 Rain 8 1005 88 0 1.45 215.138 20:24 07.08.2019
4050 Rain 8 1005 88 0 1.45 215.138 19:59 07.08.2019
4051 Rain 8 1005 88 0 1.45 215.138 19:39 07.08.2019
4052 Rain 8 1005 88 0 1.45 215.138 19:21 07.08.2019
4053 Rain 8 1005 88 0 1.45 215.138 18:44 07.08.2019
4054 Rain 9 1004 81 0 0.87 294.862 18:22 07.08.2019
4055 Rain 9 1004 81 0 0.87 294.862 17:59 07.08.2019
4056 Rain 9 1004 81 0 0.87 294.862 17:41 07.08.2019
4057 Rain 9 1004 81 0 0.87 294.862 17:22 07.08.2019
4058 Rain 9 1004 81 0 0.87 294.862 16:57 07.08.2019
4059 Rain 9 1004 81 0 0.87 294.862 16:39 07.08.2019
4060 Rain 9 1004 81 0 0.87 294.862 16:21 07.08.2019
4061 Rain 9 1004 81 0 0.87 294.862 15:58 07.08.2019
4062 Rain 9 1004 81 0 0.87 294.862 15:40 07.08.2019
4063 Rain 10 1002 74 0 1.83 248.053 15:19 07.08.2019
4064 Rain 10 1002 74 0 1.83 248.053 14:49 07.08.2019
4065 Rain 10 1002 74 0 1.83 248.053 14:29 07.08.2019
4066 Rain 10 1002 74 0 1.83 248.053 13:57 07.08.2019
4067 Rain 10 1002 74 0 1.83 248.053 13:38 07.08.2019
4068 Rain 10 1002 75 0 1.9 253.852 13:18 07.08.2019
4069 Rain 10 1002 75 0 1.9 253.852 12:56 07.08.2019
4070 Rain 10 1002 75 0 1.9 253.852 12:36 07.08.2019
4071 Rain 11 1003 74 0 2.85 235.954 12:18 07.08.2019
4072 Rain 11 1003 74 0 2.85 235.954 11:43 07.08.2019
4073 Rain 11 1003 74 0 2.85 235.954 11:21 07.08.2019
4074 Rain 11 1003 74 0 2.85 235.954 10:58 07.08.2019
4075 Rain 11 1003 74 0 2.85 235.954 10:39 07.08.2019
4076 Rain 11 1003 74 0 2.85 235.954 10:19 07.08.2019
4077 Rain 11 1003 74 0 2.85 235.954 09:46 07.08.2019
4078 Rain 13 1005 58 0 2.46 204.668 09:22 07.08.2019
4079 Rain 13 1005 58 0 2.46 204.668 08:59 07.08.2019
4080 Rain 13 1005 60 0 2.49 207.007 08:41 07.08.2019
4081 Rain 13 1005 60 0 2.49 207.007 08:23 07.08.2019
4082 Rain 13 1005 60 0 2.49 207.007 07:43 07.08.2019
4083 Rain 13 1005 60 0 2.49 207.007 07:21 07.08.2019
4084 Rain 13 1005 60 0 2.49 207.007 06:40 07.08.2019
4085 Clear 9 1006 68 0 0.94 151.046 05:59 07.08.2019
4086 Clear 9 1006 68 0 0.94 151.046 04:58 07.08.2019
4087 Clouds 5 1005 89 0 0.79 120.059 03:23 07.08.2019
4088 Clouds 5 1005 89 0 0.79 120.059 02:51 07.08.2019
4089 Clouds 5 1005 89 0 0.79 120.059 02:26 07.08.2019
4090 Clouds 5 1005 89 0 0.79 120.059 01:45 07.08.2019
4091 Clouds 5 1005 90 0 0.98 121.493 00:53 07.08.2019
4092 Clouds 7 1005 88 0 0.57 142.73 00:23 07.08.2019
4093 Clouds 7 1005 88 0 0.57 142.73 23:47 06.08.2019
4094 Clouds 7 1005 88 0 0.57 142.73 23:23 06.08.2019
4095 Clouds 7 1005 88 0 0.57 142.73 22:59 06.08.2019
4096 Clouds 7 1005 88 0 0.57 142.73 22:40 06.08.2019
4097 Clouds 7 1005 88 0 0.57 142.73 22:20 06.08.2019
4098 Clouds 7 1005 88 0 0.57 142.73 21:44 06.08.2019
4099 Clouds 7 1005 88 0 0.57 142.73 21:26 06.08.2019
4100 Clouds 7 1005 85 0 0.92 220.791 20:59 06.08.2019
4101 Clear 8 1005 84 0 1.23 197.151 20:41 06.08.2019
4102 Clear 8 1005 84 0 1.23 197.151 20:23 06.08.2019
4103 Clear 8 1005 84 0 1.23 197.151 19:48 06.08.2019
4104 Clear 8 1005 84 0 1.23 197.151 19:48 06.08.2019
4105 Clear 8 1005 84 0 1.23 197.151 19:29 06.08.2019
4106 Clear 8 1005 84 0 1.23 197.151 18:57 06.08.2019
4107 Clear 8 1005 84 0 1.23 197.151 18:38 06.08.2019
4108 Rain 9 1004 81 0 1.07 208.619 18:19 06.08.2019
4109 Rain 9 1004 81 0 1.07 208.619 17:56 06.08.2019
4110 Rain 9 1004 81 0 1.07 208.619 17:37 06.08.2019
4111 Rain 9 1004 81 0 1.07 208.619 17:18 06.08.2019
4112 Rain 9 1004 81 0 1.07 208.619 16:43 06.08.2019
4113 Rain 9 1004 81 0 1.07 208.619 16:24 06.08.2019
4114 Rain 9 1004 81 0 1.07 208.619 15:58 06.08.2019
4115 Rain 9 1004 81 0 1.07 208.619 15:39 06.08.2019
4116 Rain 11 1001 69 0 2.42 228.406 15:21 06.08.2019
4117 Rain 11 1001 69 0 2.42 228.406 14:46 06.08.2019
4118 Rain 11 1001 69 0 2.42 228.406 14:27 06.08.2019
4119 Rain 11 1001 69 0 2.42 228.406 13:59 06.08.2019
4120 Rain 11 1001 69 0 2.42 228.406 13:41 06.08.2019
4121 Rain 11 1000 70 0 2.58 222.719 13:23 06.08.2019
4122 Rain 11 1000 70 0 2.58 222.719 12:59 06.08.2019
4123 Rain 11 1000 70 0 2.58 222.719 12:39 06.08.2019
4124 Rain 13 1001 63 0 3.27 221.706 12:21 06.08.2019
4125 Rain 13 1001 63 0 3.27 221.706 11:43 06.08.2019
4126 Rain 13 1001 63 0 3.27 221.706 11:20 06.08.2019
4127 Rain 13 1001 63 0 3.27 221.706 10:56 06.08.2019
4128 Rain 13 1001 63 0 3.27 221.706 10:38 06.08.2019
4129 Rain 13 1001 63 0 3.27 221.706 10:20 06.08.2019
4130 Rain 13 1001 63 0 3.27 221.706 09:41 06.08.2019
4131 Clear 14 1003 46 0 1.67 190.13 09:21 06.08.2019
4132 Clear 14 1003 46 0 1.67 190.13 08:51 06.08.2019
4133 Clear 14 1004 50 0 2.06 205.807 08:28 06.08.2019
4134 Clear 14 1004 50 0 2.06 205.807 07:59 06.08.2019
4135 Clear 14 1004 50 0 2.06 205.807 07:29 06.08.2019
4136 Clear 14 1004 50 0 2.06 205.807 06:44 06.08.2019
4137 Clear 10 1005 67 0 0.55 207.549 06:22 06.08.2019
4138 Clear 10 1005 67 0 0.55 207.549 05:31 06.08.2019
4139 Clear 5 1005 91 0 0.53 252.284 02:48 06.08.2019
4140 Clear 5 1005 93 0 0.27 248.552 01:25 06.08.2019
4141 Clear 5 1005 93 0 0.27 248.552 00:51 06.08.2019
4142 Clear 6 1005 91 0 0.75 323.899 00:00 06.08.2019
4143 Clear 6 1005 91 0 0.75 323.899 23:20 05.08.2019
4144 Clear 6 1005 91 0 0.75 323.899 22:57 05.08.2019
4145 Clear 6 1005 91 0 0.75 323.899 22:38 05.08.2019
4146 Clear 6 1005 91 0 0.75 323.899 22:20 05.08.2019
4147 Clear 6 1005 91 0 0.75 323.899 21:42 05.08.2019
4148 Clear 7 1005 89 0 0.54 246.955 21:20 05.08.2019
4149 Clear 8 1004 88 0 0.74 246.508 20:57 05.08.2019
4150 Clear 8 1004 88 0 0.74 246.508 20:39 05.08.2019
4151 Clear 8 1004 88 0 0.74 246.508 20:21 05.08.2019
4152 Clear 8 1004 88 0 0.74 246.508 19:55 05.08.2019
4153 Clear 8 1004 88 0 0.74 246.508 19:55 05.08.2019
4154 Clear 8 1004 88 0 0.74 246.508 19:37 05.08.2019
4155 Clear 8 1004 88 0 0.74 246.508 19:18 05.08.2019
4156 Clear 8 1004 88 0 0.74 246.508 18:41 05.08.2019
4157 Rain 9 1002 83 0 0.75 246.63 18:20 05.08.2019
4158 Rain 9 1002 83 0 0.75 246.63 17:48 05.08.2019
4159 Rain 9 1002 83 0 0.75 246.63 17:29 05.08.2019
4160 Rain 9 1002 83 0 0.75 246.63 16:59 05.08.2019
4161 Rain 9 1002 83 0 0.75 246.63 16:41 05.08.2019
4162 Rain 9 1002 83 0 0.75 246.63 16:22 05.08.2019
4163 Rain 9 1002 83 0 0.75 246.63 15:41 05.08.2019
4164 Rain 12 1000 68 0 1.88 233.356 15:20 05.08.2019
4165 Rain 12 1000 68 0 1.88 233.356 14:42 05.08.2019
4166 Rain 12 1000 68 0 1.88 233.356 14:22 05.08.2019
4167 Rain 12 1000 68 0 1.88 233.356 13:50 05.08.2019
4168 Rain 12 1000 66 0 1.72 237.327 13:24 05.08.2019
4169 Rain 12 1000 66 0 1.72 237.327 12:59 05.08.2019
4170 Rain 12 1000 66 0 1.72 237.327 12:41 05.08.2019
4171 Rain 13 1001 66 0 3.03 225.281 12:18 05.08.2019
4172 Rain 13 1001 66 0 3.03 225.281 11:43 05.08.2019
4173 Rain 13 1001 66 0 3.03 225.281 11:25 05.08.2019
4174 Rain 13 1001 66 0 3.03 225.281 10:47 05.08.2019
4175 Rain 13 1001 66 0 3.03 225.281 10:28 05.08.2019
4176 Rain 13 1001 66 0 3.03 225.281 09:56 05.08.2019
4177 Rain 13 1001 66 0 3.03 225.281 09:56 05.08.2019
4178 Rain 13 1001 66 0 3.03 225.281 09:37 05.08.2019
4179 Clear 14 1003 45 0 1.46 198.013 09:19 05.08.2019
4180 Clear 15 1004 42 0 1.4 203.419 08:43 05.08.2019
4181 Clear 15 1004 42 0 1.4 203.419 08:24 05.08.2019
4182 Clear 15 1004 42 0 1.4 203.419 07:47 05.08.2019
4183 Clear 15 1004 42 0 1.4 203.419 07:28 05.08.2019
4184 Clear 15 1004 42 0 1.4 203.419 06:53 05.08.2019
4185 Clear 10 1005 66 0 0.88 128.782 06:21 05.08.2019
4186 Clear 10 1005 66 0 0.88 128.782 05:28 05.08.2019
4187 Clear 10 1005 66 0 0.88 128.782 04:41 05.08.2019
4188 Clear 10 1005 66 0 0.88 128.782 03:50 05.08.2019
4189 Clear 6 1005 88 0 0.54 93.385 02:38 05.08.2019
4190 Clear 6 1005 88 0 0.54 93.385 01:47 05.08.2019
4191 Clear 6 1006 89 0 0.14 337.964 01:19 05.08.2019
4192 Clear 6 1006 89 0 0.14 337.964 00:39 05.08.2019
4193 Clear 6 1005 89 0 0.47 207.6 00:19 05.08.2019
4194 Clear 6 1005 89 0 0.47 207.6 23:42 04.08.2019
4195 Clear 6 1005 89 0 0.47 207.6 23:23 04.08.2019
4196 Clear 6 1005 89 0 0.47 207.6 22:57 04.08.2019
4197 Clear 6 1005 89 0 0.47 207.6 22:38 04.08.2019
4198 Clear 6 1005 89 0 0.47 207.6 22:19 04.08.2019
4199 -273 0 0 0 0 0 21:45 04.08.2019
4200 Clouds 8 1005 90 0 1.34 172.928 21:24 04.08.2019
4201 Clouds 9 1004 84 0 1.17 205.516 20:59 04.08.2019
4202 Clouds 9 1004 84 0 1.17 205.516 20:41 04.08.2019
4203 Clouds 9 1004 84 0 1.17 205.516 20:41 04.08.2019
4204 Clouds 9 1004 84 0 1.17 205.516 20:18 04.08.2019
4205 Clouds 9 1004 84 0 1.17 205.516 19:48 04.08.2019
4206 Clouds 9 1004 84 0 1.17 205.516 19:28 04.08.2019
4207 Clouds 9 1004 84 0 1.17 205.516 18:58 04.08.2019
4208 Clouds 9 1004 84 0 1.17 205.516 18:40 04.08.2019
4209 Rain 10 1003 83 0 0.79 225.826 18:20 04.08.2019
4210 Rain 10 1003 83 0 0.79 225.826 17:43 04.08.2019
4211 Rain 10 1003 83 0 0.79 225.826 17:22 04.08.2019
4212 Rain 10 1003 83 0 0.79 225.826 16:45 04.08.2019
4213 Rain 10 1003 83 0 0.79 225.826 16:27 04.08.2019
4214 Rain 10 1003 83 0 0.79 225.826 15:56 04.08.2019
4215 Rain 10 1003 83 0 0.79 225.826 15:37 04.08.2019
4216 Rain 10 1003 83 0 0.79 225.826 15:37 04.08.2019
4217 Rain 12 1001 70 0 1.93 228.357 15:18 04.08.2019
4218 Rain 12 1001 70 0 1.93 228.357 14:42 04.08.2019
4219 Rain 12 1001 70 0 1.93 228.357 14:21 04.08.2019
4220 Rain 12 1001 70 0 1.93 228.357 13:43 04.08.2019
4221 Rain 12 1000 69 0 1.75 233.595 13:24 04.08.2019
4222 Rain 12 1000 69 0 1.75 233.595 13:24 04.08.2019
4223 Rain 12 1000 69 0 1.75 233.595 12:55 04.08.2019
4224 Rain 12 1000 69 0 1.75 233.595 12:37 04.08.2019
4225 Rain 12 1000 69 0 1.75 233.595 12:37 04.08.2019
4226 Rain 13 1002 66 0 3.53 218.026 12:19 04.08.2019
4227 Rain 13 1002 66 0 3.53 218.026 11:41 04.08.2019
4228 Rain 13 1002 66 0 3.53 218.026 11:22 04.08.2019
4229 Rain 13 1002 66 0 3.53 218.026 10:47 04.08.2019
4230 Rain 13 1002 66 0 3.53 218.026 10:22 04.08.2019
4231 Rain 13 1002 66 0 3.53 218.026 09:46 04.08.2019
4232 Rain 13 1002 66 0 3.53 218.026 09:26 04.08.2019
4233 Clouds 14 1005 47 0 1.3 215.292 08:58 04.08.2019
4234 Clouds 14 1005 47 0 1.3 215.292 08:34 04.08.2019
4235 Clouds 14 1005 47 0 1.3 215.292 07:55 04.08.2019
4236 Clouds 14 1005 47 0 1.3 215.292 07:29 04.08.2019
4237 Clouds 14 1005 47 0 1.3 215.292 06:42 04.08.2019
4238 Clouds 10 1008 61 0 0.84 157.027 06:19 04.08.2019
4239 Clouds 10 1008 61 0 0.84 157.027 03:37 04.08.2019
4240 Clouds 6 1008 84 0 0.59 235.416 01:55 04.08.2019
4241 Clouds 5 1008 89 0 0.44 290.663 01:32 04.08.2019
4242 Clouds 5 1008 89 0 0.44 290.663 00:42 04.08.2019
4243 Rain 6 1008 87 0 1.33 227.067 00:24 04.08.2019
4244 Rain 6 1008 87 0 1.33 227.067 23:56 03.08.2019
4245 Rain 6 1008 87 0 1.33 227.067 23:37 03.08.2019
4246 Rain 6 1008 87 0 1.33 227.067 23:18 03.08.2019
4247 Rain 6 1008 87 0 1.33 227.067 22:40 03.08.2019
4248 Rain 6 1008 87 0 1.33 227.067 22:19 03.08.2019
4249 Rain 6 1008 87 0 1.33 227.067 21:39 03.08.2019
4250 Rain 7 1008 85 0 1.23 199.378 21:21 03.08.2019
4251 Clouds 8 1007 79 0 1.13 196.098 20:45 03.08.2019
4252 Clouds 8 1007 79 0 1.13 196.098 20:24 03.08.2019
4253 Clouds 8 1007 79 0 1.13 196.098 19:55 03.08.2019
4254 Clouds 8 1007 79 0 1.13 196.098 19:37 03.08.2019
4255 Clouds 8 1007 79 0 1.13 196.098 19:19 03.08.2019
4256 Clouds 8 1007 79 0 1.13 196.098 18:40 03.08.2019
4257 Rain 9 1006 81 0 0.75 216.365 18:22 03.08.2019
4258 Rain 9 1006 81 0 0.75 216.365 17:43 03.08.2019
4259 Rain 9 1006 81 0 0.75 216.365 17:20 03.08.2019
4260 Rain 9 1006 81 0 0.75 216.365 16:39 03.08.2019
4261 Rain 9 1006 81 0 0.75 216.365 16:21 03.08.2019
4262 Rain 9 1006 81 0 0.75 216.365 15:55 03.08.2019
4263 Rain 9 1006 81 0 0.75 216.365 15:37 03.08.2019
4264 Rain 10 1003 74 0 2.3 233.364 15:18 03.08.2019
4265 Rain 10 1003 74 0 2.3 233.364 14:36 03.08.2019
4266 Rain 10 1003 74 0 2.3 233.364 14:18 03.08.2019
4267 Rain 10 1003 74 0 2.3 233.364 13:43 03.08.2019
4268 Rain 11 1003 72 0 1.95 233.007 13:23 03.08.2019
4269 Rain 11 1003 72 0 1.95 233.007 12:56 03.08.2019
4270 Rain 11 1003 72 0 1.95 233.007 12:37 03.08.2019
4271 Rain 12 1004 68 0 3.02 233.047 12:19 03.08.2019
4272 Rain 12 1004 68 0 3.02 233.047 11:39 03.08.2019
4273 Rain 12 1004 68 0 3.02 233.047 11:20 03.08.2019
4274 Rain 12 1004 68 0 3.02 233.047 10:38 03.08.2019
4275 Rain 12 1004 68 0 3.02 233.047 10:19 03.08.2019
4276 Rain 12 1004 68 0 3.02 233.047 09:38 03.08.2019
4277 Rain 12 1006 61 0 2.3 171.944 09:18 03.08.2019
4278 Rain 12 1006 57 0 1.78 186.244 08:43 03.08.2019
4279 Rain 12 1006 57 0 1.78 186.244 07:40 03.08.2019
4280 Rain 12 1006 57 0 1.78 186.244 06:57 03.08.2019
4281 Clouds 8 1007 68 0 0.73 99.358 06:18 03.08.2019
4282 Clouds 8 1007 68 0 0.73 99.358 03:35 03.08.2019
4283 Clouds 5 1008 86 0 0.66 103.316 02:26 03.08.2019
4284 Clouds 4 1008 90 0 0.53 129.167 00:59 03.08.2019
4285 Clouds 4 1008 90 0 0.53 129.167 00:32 03.08.2019
4286 Clouds 4 1008 90 0 0.53 129.167 00:32 03.08.2019
4287 Clouds 6 1008 82 0 0.96 133.727 23:42 02.08.2019
4288 Clouds 6 1008 82 0 0.96 133.727 23:20 02.08.2019
4289 Clouds 6 1008 82 0 0.96 133.727 22:59 02.08.2019
4290 Clouds 6 1008 82 0 0.96 133.727 22:40 02.08.2019
4291 Clouds 6 1008 82 0 0.96 133.727 22:22 02.08.2019
4292 Clouds 6 1008 82 0 0.96 133.727 21:56 02.08.2019
4293 Clouds 6 1008 82 0 0.96 133.727 21:38 02.08.2019
4294 Clouds 7 1008 82 0 0.92 129.373 21:20 02.08.2019
4295 Clouds 7 1008 79 0 0.85 140.479 20:43 02.08.2019
4296 Clouds 7 1008 79 0 0.85 140.479 20:23 02.08.2019
4297 Clouds 7 1008 79 0 0.85 140.479 19:55 02.08.2019
4298 Clouds 7 1008 79 0 0.85 140.479 19:33 02.08.2019
4299 Clouds 7 1008 79 0 0.85 140.479 18:57 02.08.2019
4300 Clouds 7 1008 79 0 0.85 140.479 18:38 02.08.2019
4301 Rain 7 1007 82 0 1.31 114.76 18:18 02.08.2019
4302 Rain 7 1007 82 0 1.31 114.76 17:39 02.08.2019
4303 Rain 7 1007 82 0 1.31 114.76 17:20 02.08.2019
4304 Rain 7 1007 82 0 1.31 114.76 16:40 02.08.2019
4305 Rain 7 1007 82 0 1.31 114.76 16:21 02.08.2019
4306 Rain 7 1007 82 0 1.31 114.76 15:57 02.08.2019
4307 Rain 7 1007 82 0 1.31 114.76 15:37 02.08.2019
4308 Rain 8 1004 90 0 1.81 190.455 15:18 02.08.2019
4309 Rain 8 1004 90 0 1.81 190.455 14:44 02.08.2019
4310 Rain 8 1004 90 0 1.81 190.455 14:18 02.08.2019
4311 Rain 8 1004 90 0 1.81 190.455 13:46 02.08.2019
4312 Rain 8 1004 86 0 1.83 244.413 13:23 02.08.2019
4313 Rain 8 1004 86 0 1.83 244.413 12:44 02.08.2019
4314 Rain 10 1004 79 0 3.64 214.849 12:21 02.08.2019
4315 Rain 10 1004 79 0 3.64 214.849 11:42 02.08.2019
4316 Rain 10 1004 79 0 3.64 214.849 11:24 02.08.2019
4317 Rain 10 1004 79 0 3.64 214.849 10:49 02.08.2019
4318 Rain 10 1004 79 0 3.64 214.849 10:24 02.08.2019
4319 Rain 10 1004 79 0 3.64 214.849 09:59 02.08.2019
4320 Rain 10 1004 79 0 3.64 214.849 09:41 02.08.2019
4321 Rain 11 1006 65 0 2.61 181.935 09:23 02.08.2019
4322 Rain 11 1006 68 0 2.98 196.149 08:42 02.08.2019
4323 Rain 11 1006 68 0 2.98 196.149 08:20 02.08.2019
4324 Rain 11 1006 68 0 2.98 196.149 07:46 02.08.2019
4325 Rain 11 1006 68 0 2.98 196.149 07:28 02.08.2019
4326 Rain 11 1006 68 0 2.98 196.149 06:41 02.08.2019
4327 Clouds 8 1007 73 0 1.34 148.574 05:50 02.08.2019
4328 Clouds 8 1007 73 0 1.34 148.574 03:54 02.08.2019
4329 Rain 6 1007 90 0 0.82 154.773 03:24 02.08.2019
4330 Rain 6 1007 90 0 0.82 154.773 01:44 02.08.2019
4331 Rain 6 1007 91 0 0.22 224.44 00:34 02.08.2019
4332 Rain 7 1007 79 0 1.04 187.693 23:46 01.08.2019
4333 Rain 7 1007 79 0 1.04 187.693 23:27 01.08.2019
4334 Rain 7 1007 79 0 1.04 187.693 22:46 01.08.2019
4335 Rain 7 1007 79 0 1.04 187.693 22:26 01.08.2019
4336 Rain 7 1007 79 0 1.04 187.693 21:59 01.08.2019
4337 Rain 7 1007 79 0 1.04 187.693 21:41 01.08.2019
4338 Rain 8 1007 82 0 0.73 238.686 21:23 01.08.2019
4339 Rain 7 1007 89 0 1.08 225.225 20:47 01.08.2019
4340 Rain 7 1007 89 0 1.08 225.225 20:23 01.08.2019
4341 Rain 7 1007 89 0 1.08 225.225 19:59 01.08.2019
4342 Rain 7 1007 89 0 1.08 225.225 19:38 01.08.2019
4343 Rain 7 1007 89 0 1.08 225.225 19:19 01.08.2019
4344 Rain 7 1007 89 0 1.08 225.225 18:43 01.08.2019
4345 Rain 9 1006 80 0 1.22 239.706 18:24 01.08.2019
4346 Rain 9 1006 80 0 1.22 239.706 17:51 01.08.2019
4347 Rain 9 1006 80 0 1.22 239.706 17:32 01.08.2019
4348 Rain 9 1006 80 0 1.22 239.706 16:45 01.08.2019
4349 Rain 9 1006 80 0 1.22 239.706 16:23 01.08.2019
4350 Rain 9 1006 80 0 1.22 239.706 15:59 01.08.2019
4351 Rain 9 1006 80 0 1.22 239.706 15:41 01.08.2019
4352 Rain 11 1004 77 0 2.34 236.249 15:19 01.08.2019
4353 Rain 11 1004 77 0 2.34 236.249 14:42 01.08.2019
4354 Rain 11 1004 77 0 2.34 236.249 14:19 01.08.2019
4355 -273 0 0 0 0 0 13:58 01.08.2019
4356 Rain 11 1004 77 0 2.34 236.249 13:39 01.08.2019
4357 Rain 10 1004 77 0 2.17 236.156 13:20 01.08.2019
4358 Rain 10 1004 77 0 2.17 236.156 12:45 01.08.2019
4359 Rain 10 1004 77 0 2.17 236.156 12:26 01.08.2019
4360 Rain 13 1004 67 0 3.12 219.13 11:43 01.08.2019
4361 Rain 13 1004 67 0 3.12 219.13 11:24 01.08.2019
4362 Rain 13 1004 67 0 3.12 219.13 10:56 01.08.2019
4363 Rain 13 1004 67 0 3.12 219.13 10:56 01.08.2019
4364 Rain 13 1004 67 0 3.12 219.13 10:38 01.08.2019
4365 Rain 13 1004 67 0 3.12 219.13 10:20 01.08.2019
4366 Rain 13 1004 67 0 3.12 219.13 09:43 01.08.2019
4367 Rain 12 1005 66 0 2.94 233.922 09:23 01.08.2019
4368 Rain 12 1006 68 0 3 226.646 08:47 01.08.2019
4369 Rain 12 1006 68 0 3 226.646 08:21 01.08.2019
4370 Rain 12 1006 68 0 3 226.646 07:51 01.08.2019
4371 Rain 12 1006 68 0 3 226.646 07:28 01.08.2019
4372 Rain 12 1006 68 0 3 226.646 06:49 01.08.2019
4373 Rain 12 1006 68 0 3 226.646 06:49 01.08.2019
4374 Rain 12 1006 68 0 3 226.646 06:29 01.08.2019
4375 Rain 9 1007 78 0 1.46 175.598 05:30 01.08.2019
4376 Rain 8 1006 88 0 1.44 207.705 02:35 01.08.2019
4377 Rain 8 1006 88 0 1.46 233.594 00:51 01.08.2019
4378 Rain 8 1006 90 0 1.19 270.435 00:25 01.08.2019
4379 Rain 8 1006 90 0 1.19 270.435 23:44 31.07.2019
4380 Rain 8 1006 90 0 1.19 270.435 23:21 31.07.2019
4381 Rain 8 1006 90 0 1.19 270.435 23:21 31.07.2019
4382 Rain 8 1006 90 0 1.19 270.435 22:59 31.07.2019
4383 Rain 8 1006 90 0 1.19 270.435 22:41 31.07.2019
4384 Rain 8 1006 90 0 1.19 270.435 22:23 31.07.2019
4385 Rain 8 1006 90 0 1.19 270.435 21:39 31.07.2019
4386 Rain 8 1006 94 0 1.69 241.124 21:21 31.07.2019
4387 Rain 10 1006 84 0 1.61 218.333 20:48 31.07.2019
4388 Rain 10 1006 84 0 1.61 218.333 20:22 31.07.2019
4389 Rain 10 1006 84 0 1.61 218.333 19:48 31.07.2019
4390 Rain 10 1006 84 0 1.61 218.333 19:28 31.07.2019
4391 Rain 10 1006 84 0 1.61 218.333 18:55 31.07.2019
4392 Rain 10 1006 84 0 1.61 218.333 18:37 31.07.2019
4393 Rain 10 1005 81 0 1.16 234.963 18:18 31.07.2019
4394 Rain 10 1005 81 0 1.16 234.963 17:43 31.07.2019
4395 Rain 10 1005 81 0 1.16 234.963 17:20 31.07.2019
4396 Rain 10 1005 81 0 1.16 234.963 16:47 31.07.2019
4397 Rain 10 1005 81 0 1.16 234.963 16:21 31.07.2019
4398 Rain 10 1005 81 0 1.16 234.963 15:54 31.07.2019
4399 Rain 10 1005 81 0 1.16 234.963 15:36 31.07.2019
4400 Rain 12 1003 76 0 2.09 238.047 15:18 31.07.2019
4401 Rain 12 1003 76 0 2.09 238.047 14:42 31.07.2019
4402 Rain 12 1003 76 0 2.09 238.047 14:42 31.07.2019
4403 Rain 12 1003 76 0 2.09 238.047 14:19 31.07.2019
4404 Rain 12 1003 76 0 2.09 238.047 13:45 31.07.2019
4405 -273 0 0 0 0 0 13:27 31.07.2019
4406 Rain 12 1002 78 0 1.48 244.77 12:58 31.07.2019
4407 Rain 12 1002 78 0 1.48 244.77 12:40 31.07.2019
4408 Rain 14 1004 68 0 3.02 226.114 12:21 31.07.2019
4409 Rain 14 1004 68 0 3.02 226.114 11:39 31.07.2019
4410 Rain 14 1004 68 0 3.02 226.114 11:20 31.07.2019
4411 Rain 14 1004 68 0 3.02 226.114 10:45 31.07.2019
4412 Rain 14 1004 68 0 3.02 226.114 10:21 31.07.2019
4413 Rain 14 1004 68 0 3.02 226.114 09:59 31.07.2019
4414 Rain 14 1004 68 0 3.02 226.114 09:41 31.07.2019
4415 Clouds 13 1006 57 0 1.53 254.442 09:23 31.07.2019
4416 Clouds 14 1006 59 0 1.63 251.498 08:42 31.07.2019
4417 Clouds 14 1006 59 0 1.63 251.498 08:22 31.07.2019
4418 Clouds 14 1006 59 0 1.63 251.498 07:42 31.07.2019
4419 Clouds 14 1006 59 0 1.63 251.498 07:22 31.07.2019
4420 Clouds 12 1007 59 0 1.82 226.583 04:56 31.07.2019
4421 Clouds 12 1007 59 0 1.82 226.583 03:33 31.07.2019
4422 Clouds 9 1007 79 0 1.27 310.416 00:30 31.07.2019
4423 Rain 8 1007 89 0 1.14 268.688 23:42 30.07.2019
4424 Rain 8 1007 89 0 1.14 268.688 23:20 30.07.2019
4425 Rain 8 1007 89 0 1.14 268.688 22:48 30.07.2019
4426 Rain 8 1007 89 0 1.14 268.688 22:25 30.07.2019
4427 Rain 8 1007 89 0 1.14 268.688 21:57 30.07.2019
4428 Rain 8 1007 89 0 1.14 268.688 21:37 30.07.2019
4429 Clouds 9 1006 89 0 2.01 233.784 21:19 30.07.2019
4430 Rain 9 1006 94 0 1.79 229.862 20:44 30.07.2019
4431 Rain 9 1006 94 0 1.79 229.862 20:24 30.07.2019
4432 Rain 9 1006 94 0 1.79 229.862 19:59 30.07.2019
4433 Rain 9 1006 94 0 1.79 229.862 19:40 30.07.2019
4434 Rain 9 1006 94 0 1.79 229.862 19:21 30.07.2019
4435 Rain 9 1006 94 0 1.79 229.862 18:44 30.07.2019
4436 Rain 10 1005 89 0 1.55 241.632 18:20 30.07.2019
4437 Rain 10 1005 89 0 1.55 241.632 17:42 30.07.2019
4438 Rain 10 1005 89 0 1.55 241.632 17:20 30.07.2019
4439 Rain 10 1005 89 0 1.55 241.632 16:53 30.07.2019
4440 Rain 10 1005 89 0 1.55 241.632 16:22 30.07.2019
4441 Rain 10 1005 89 0 1.55 241.632 16:22 30.07.2019
4442 Rain 10 1005 89 0 1.55 241.632 15:59 30.07.2019
4443 Rain 10 1005 89 0 1.55 241.632 15:38 30.07.2019
4444 Rain 13 1003 71 0 1.96 239.697 15:19 30.07.2019
4445 Rain 13 1003 71 0 1.96 239.697 14:43 30.07.2019
4446 Rain 13 1003 71 0 1.96 239.697 14:22 30.07.2019
4447 Rain 13 1003 71 0 1.96 239.697 13:55 30.07.2019
4448 Rain 13 1003 71 0 1.96 239.697 13:36 30.07.2019
4449 Rain 14 1003 71 0 1.9 242.475 13:18 30.07.2019
4450 Rain 14 1003 71 0 1.9 242.475 12:41 30.07.2019
4451 Rain 15 1005 65 0 3.02 227.388 12:23 30.07.2019
4452 Rain 15 1005 65 0 3.02 227.388 11:44 30.07.2019
4453 Rain 15 1005 65 0 3.02 227.388 11:23 30.07.2019
4454 Rain 15 1004 63 0 2.67 225.909 10:55 30.07.2019
4455 Rain 15 1004 63 0 2.67 225.909 10:37 30.07.2019
4456 Rain 15 1004 63 0 2.67 225.909 10:19 30.07.2019
4457 Rain 15 1004 63 0 2.67 225.909 09:46 30.07.2019
4458 Rain 15 1004 63 0 2.67 225.909 09:26 30.07.2019
4459 Rain 14 1007 57 0 1.11 236.196 08:35 30.07.2019
4460 Rain 14 1007 57 0 1.11 236.196 07:53 30.07.2019
4461 Rain 14 1007 57 0 1.11 236.196 07:34 30.07.2019
4462 Rain 14 1007 57 0 1.11 236.196 06:52 30.07.2019
4463 Rain 14 1007 57 0 1.11 236.196 06:33 30.07.2019
4464 Clouds 11 1010 68 0 0.24 331.128 05:35 30.07.2019
4465 Clouds 11 1010 68 0 0.24 331.128 03:32 30.07.2019
4466 Clouds 9 1009 87 0 0.88 257.308 01:23 30.07.2019
4467 Clouds 9 1009 87 0 0.88 257.308 00:27 30.07.2019
4468 Clouds 9 1009 89 0 1.05 246.536 23:59 29.07.2019
4469 Clouds 9 1009 89 0 1.05 246.536 23:39 29.07.2019
4470 Clouds 9 1009 89 0 1.05 246.536 23:20 29.07.2019
4471 Clouds 9 1009 89 0 1.05 246.536 22:55 29.07.2019
4472 Clouds 9 1009 89 0 1.05 246.536 22:37 29.07.2019
4473 Clouds 9 1009 89 0 1.05 246.536 22:18 29.07.2019
4474 Clouds 9 1009 89 0 1.05 246.536 21:41 29.07.2019
4475 Clouds 10 1009 82 0 0.83 221.348 21:23 29.07.2019
4476 Clouds 10 1009 82 0 0.83 221.348 20:57 29.07.2019
4477 Clouds 10 1009 82 0 0.83 221.348 20:57 29.07.2019
4478 Clouds 10 1009 82 0 0.83 221.348 20:38 29.07.2019
4479 Clouds 10 1009 82 0 0.83 221.348 20:19 29.07.2019
4480 Clouds 10 1009 82 0 0.83 221.348 19:45 29.07.2019
4481 Clouds 10 1009 82 0 0.83 221.348 19:23 29.07.2019
4482 Clouds 10 1009 82 0 0.83 221.348 18:58 29.07.2019
4483 Clouds 10 1009 82 0 0.83 221.348 18:38 29.07.2019
4484 Rain 11 1007 81 0 0.75 262.592 18:19 29.07.2019
4485 Rain 11 1007 81 0 0.75 262.592 17:47 29.07.2019
4486 Rain 11 1007 81 0 0.75 262.592 17:28 29.07.2019
4487 Rain 11 1007 81 0 0.75 262.592 16:55 29.07.2019
4488 Rain 11 1007 81 0 0.75 262.592 16:36 29.07.2019
4489 Rain 11 1007 81 0 0.75 262.592 16:18 29.07.2019
4490 Rain 11 1007 81 0 0.75 262.592 15:43 29.07.2019
4491 Rain 12 1005 76 0 2.14 235.96 15:24 29.07.2019
4492 Rain 12 1005 76 0 2.14 235.96 14:42 29.07.2019
4493 Rain 12 1005 76 0 2.14 235.96 14:21 29.07.2019
4494 Rain 12 1005 76 0 2.14 235.96 13:46 29.07.2019
4495 Rain 13 1004 74 0 1.75 239.137 13:24 29.07.2019
4496 Rain 13 1004 74 0 1.75 239.137 12:57 29.07.2019
4497 Rain 13 1004 74 0 1.75 239.137 12:38 29.07.2019
4498 Rain 14 1006 61 0 2.51 226.274 12:19 29.07.2019
4499 Rain 14 1006 61 0 2.51 226.274 11:40 29.07.2019
4500 Rain 14 1006 61 0 2.51 226.274 11:19 29.07.2019
4501 Rain 14 1006 61 0 2.51 226.274 10:42 29.07.2019
4502 Rain 14 1006 61 0 2.51 226.274 10:21 29.07.2019
4503 Rain 14 1006 61 0 2.51 226.274 10:21 29.07.2019
4504 Rain 14 1006 61 0 2.51 226.274 09:44 29.07.2019
4505 Clouds 14 1009 53 0 1.71 245.803 09:21 29.07.2019
4506 Clouds 14 1009 53 0 1.25 236.716 08:43 29.07.2019
4507 Clouds 14 1009 53 0 1.25 236.716 08:24 29.07.2019
4508 Clouds 14 1009 53 0 1.25 236.716 07:46 29.07.2019
4509 Clouds 14 1009 53 0 1.25 236.716 07:27 29.07.2019
4510 Clouds 14 1009 53 0 1.25 236.716 06:40 29.07.2019
4511 Clouds 11 1011 64 0 0.53 343.568 05:36 29.07.2019
4512 Clouds 8 1011 84 0 0.68 350.134 02:54 29.07.2019
4513 Clouds 8 1011 84 0 0.68 350.134 01:50 29.07.2019
4514 Clouds 4 1012 94 0 0.4 316.614 01:31 29.07.2019
4515 Clouds 4 1012 94 0 0.4 316.614 00:57 29.07.2019
4516 Clouds 5 1012 94 0 0.56 213.011 00:24 29.07.2019
4517 Clouds 5 1012 94 0 0.56 213.011 23:42 28.07.2019
4518 Clouds 5 1012 94 0 0.56 213.011 23:24 28.07.2019
4519 Clouds 5 1012 94 0 0.56 213.011 22:43 28.07.2019
4520 Clouds 5 1012 94 0 0.56 213.011 22:25 28.07.2019
4521 Clouds 5 1012 94 0 0.56 213.011 21:51 28.07.2019
4522 Clouds 6 1011 95 0 0.66 233.391 21:20 28.07.2019
4523 Clouds 7 1011 91 0 0.49 227.569 20:49 28.07.2019
4524 Clouds 7 1011 91 0 0.49 227.569 20:31 28.07.2019
4525 Clouds 7 1011 91 0 0.49 227.569 19:58 28.07.2019
4526 Clouds 7 1011 91 0 0.49 227.569 19:40 28.07.2019
4527 Clouds 7 1011 91 0 0.49 227.569 19:20 28.07.2019
4528 Clouds 7 1011 91 0 0.49 227.569 19:20 28.07.2019
4529 Clouds 7 1011 91 0 0.49 227.569 18:46 28.07.2019
4530 Rain 8 1010 90 0 0.77 276.653 18:26 28.07.2019
4531 Rain 8 1010 90 0 0.77 276.653 17:56 28.07.2019
4532 Rain 8 1010 90 0 0.77 276.653 17:37 28.07.2019
4533 Rain 8 1010 90 0 0.77 276.653 17:19 28.07.2019
4534 Rain 8 1010 90 0 0.77 276.653 17:19 28.07.2019
4535 Rain 8 1010 90 0 0.77 276.653 16:42 28.07.2019
4536 Rain 8 1010 90 0 0.77 276.653 16:23 28.07.2019
4537 Rain 8 1010 90 0 0.77 276.653 15:46 28.07.2019
4538 Rain 8 1010 90 0 0.77 276.653 15:26 28.07.2019
4539 Rain 11 1007 78 0 2.13 232.097 14:40 28.07.2019
4540 Rain 11 1007 78 0 2.13 232.097 14:20 28.07.2019
4541 Rain 11 1007 78 0 2.13 232.097 13:56 28.07.2019
4542 Rain 11 1007 78 0 2.13 232.097 13:38 28.07.2019
4543 Rain 11 1005 78 0 1.97 234.165 13:19 28.07.2019
4544 Rain 11 1005 78 0 1.97 234.165 12:42 28.07.2019
4545 Rain 11 1007 74 0 2.86 238.387 12:24 28.07.2019
4546 Rain 11 1007 74 0 2.86 238.387 11:50 28.07.2019
4547 Rain 11 1007 74 0 2.86 238.387 11:29 28.07.2019
4548 Rain 11 1007 74 0 2.86 238.387 10:58 28.07.2019
4549 Rain 11 1007 74 0 2.86 238.387 10:38 28.07.2019
4550 Rain 11 1007 74 0 2.86 238.387 10:18 28.07.2019
4551 Rain 11 1007 74 0 2.86 238.387 09:40 28.07.2019
4552 Rain 9 1009 75 0 2.25 185.148 09:21 28.07.2019
4553 Rain 9 1009 75 0 1.89 194.102 08:42 28.07.2019
4554 Rain 9 1009 75 0 1.89 194.102 08:22 28.07.2019
4555 Rain 9 1009 75 0 1.89 194.102 07:42 28.07.2019
4556 Rain 9 1009 75 0 1.89 194.102 07:24 28.07.2019
4557 Rain 9 1009 75 0 1.89 194.102 06:35 28.07.2019
4558 Rain 7 1011 86 0 1.56 48.18 05:20 28.07.2019
4559 Rain 6 1010 94 0 0.9 108.415 02:37 28.07.2019
4560 Rain 6 1010 94 0 0.9 108.415 01:40 28.07.2019
4561 Rain 6 1010 95 0 0.9 98.949 00:56 28.07.2019
4562 Rain 6 1010 95 0 0.9 98.949 00:37 28.07.2019
4563 Clouds 6 1009 87 0 0.73 35.703 23:53 27.07.2019
4564 Clouds 6 1009 87 0 0.73 35.703 23:28 27.07.2019
4565 Clouds 6 1009 87 0 0.73 35.703 22:46 27.07.2019
4566 Clouds 6 1009 87 0 0.73 35.703 22:28 27.07.2019
4567 Clouds 6 1009 87 0 0.73 35.703 21:59 27.07.2019
4568 Clouds 6 1009 87 0 0.73 35.703 21:37 27.07.2019
4569 Rain 6 1009 89 0 0.83 101.269 21:18 27.07.2019
4570 Rain 6 1009 92 0 1.4 127.796 20:44 27.07.2019
4571 Rain 6 1009 92 0 1.4 127.796 20:19 27.07.2019
4572 Rain 6 1009 92 0 1.4 127.796 19:41 27.07.2019
4573 Rain 6 1009 92 0 1.4 127.796 19:22 27.07.2019
4574 Rain 6 1009 92 0 1.4 127.796 18:48 27.07.2019
4575 Rain 6 1009 92 0 1.4 127.796 18:30 27.07.2019
4576 Rain 7 1008 88 0 1.95 112.167 17:52 27.07.2019
4577 Rain 7 1008 88 0 1.95 112.167 17:32 27.07.2019
4578 Rain 7 1008 88 0 1.95 112.167 16:56 27.07.2019
4579 Rain 7 1008 88 0 1.95 112.167 16:37 27.07.2019
4580 Rain 7 1008 88 0 1.95 112.167 16:18 27.07.2019
4581 Rain 7 1008 88 0 1.95 112.167 15:43 27.07.2019
4582 Rain 7 1005 85 0 2.08 146.929 15:19 27.07.2019
4583 Rain 7 1005 85 0 2.08 146.929 14:46 27.07.2019
4584 Rain 7 1005 85 0 2.08 146.929 14:27 27.07.2019
4585 Rain 7 1005 85 0 2.08 146.929 13:51 27.07.2019
4586 Rain 8 1005 84 0 2.27 150.857 13:25 27.07.2019
4587 Rain 8 1005 84 0 2.27 150.857 12:54 27.07.2019
4588 Rain 8 1005 84 0 2.27 150.857 12:36 27.07.2019
4589 Rain 9 1005 84 0 1.94 190.207 12:18 27.07.2019
4590 Rain 9 1005 84 0 1.94 190.207 11:39 27.07.2019
4591 Rain 9 1005 84 0 1.94 190.207 11:20 27.07.2019
4592 Rain 9 1005 84 0 1.94 190.207 10:41 27.07.2019
4593 Rain 9 1005 84 0 1.94 190.207 10:22 27.07.2019
4594 Rain 9 1005 84 0 1.94 190.207 09:41 27.07.2019
4595 Rain 10 1005 75 0 2.69 187.811 09:23 27.07.2019
4596 Rain 10 1006 75 0 2.48 208.241 08:49 27.07.2019
4597 Rain 10 1006 75 0 2.48 208.241 08:49 27.07.2019
4598 Rain 10 1006 75 0 2.48 208.241 08:30 27.07.2019
4599 Rain 10 1006 75 0 2.48 208.241 07:55 27.07.2019
4600 Rain 10 1006 75 0 2.48 208.241 07:33 27.07.2019
4601 Rain 10 1006 75 0 2.48 208.241 06:57 27.07.2019
4602 Rain 10 1006 75 0 2.48 208.241 06:32 27.07.2019
4603 Clouds 8 1007 81 0 1.32 160.743 05:54 27.07.2019
4604 Clouds 8 1007 81 0 1.32 160.743 05:32 27.07.2019
4605 Clouds 8 1007 81 0 1.32 160.743 04:35 27.07.2019
4606 Clouds 8 1007 81 0 1.32 160.743 03:37 27.07.2019
4607 Rain 7 1006 88 0 0.38 162.278 02:41 27.07.2019
4608 Rain 7 1006 88 0 0.38 162.278 01:52 27.07.2019
4609 Rain 7 1006 88 0 0.29 150.828 01:28 27.07.2019
4610 Rain 7 1006 88 0 0.29 150.828 00:33 27.07.2019
4611 Rain 7 1006 86 0 1.38 258.015 23:58 26.07.2019
4612 Rain 7 1006 86 0 1.38 258.015 23:38 26.07.2019
4613 Rain 7 1006 86 0 1.38 258.015 23:20 26.07.2019
4614 Rain 7 1006 86 0 1.38 258.015 22:42 26.07.2019
4615 Rain 7 1006 86 0 1.38 258.015 22:23 26.07.2019
4616 Rain 7 1006 86 0 1.38 258.015 21:49 26.07.2019
4617 Rain 8 1006 88 0 0.38 165.671 21:20 26.07.2019
4618 Rain 7 1006 92 0 0.79 205.686 20:45 26.07.2019
4619 Rain 7 1006 92 0 0.79 205.686 20:27 26.07.2019
4620 Rain 7 1006 92 0 0.79 205.686 19:44 26.07.2019
4621 Rain 7 1006 92 0 0.79 205.686 19:26 26.07.2019
4622 Rain 7 1006 92 0 0.79 205.686 18:59 26.07.2019
4623 Rain 7 1006 92 0 0.79 205.686 18:40 26.07.2019
4624 Rain 8 1005 87 0 1.69 234.285 18:20 26.07.2019
4625 Rain 8 1005 87 0 1.69 234.285 17:48 26.07.2019
4626 Rain 8 1005 87 0 1.69 234.285 17:20 26.07.2019
4627 Rain 8 1005 87 0 1.69 234.285 16:59 26.07.2019
4628 Rain 8 1005 87 0 1.69 234.285 16:41 26.07.2019
4629 Rain 8 1005 87 0 1.69 234.285 16:21 26.07.2019
4630 Rain 8 1005 87 0 1.69 234.285 15:59 26.07.2019
4631 Rain 8 1005 87 0 1.69 234.285 15:40 26.07.2019
4632 Rain 10 1002 77 0 2.65 229.453 15:20 26.07.2019
4633 Rain 10 1002 77 0 2.65 229.453 14:44 26.07.2019
4634 Rain 10 1002 77 0 2.65 229.453 14:23 26.07.2019
4635 Rain 10 1002 77 0 2.65 229.453 13:47 26.07.2019
4636 Rain 10 1002 76 0 2.56 236.452 13:27 26.07.2019
4637 Rain 10 1002 76 0 2.56 236.452 12:49 26.07.2019
4638 Rain 11 1004 75 0 3.25 228.022 12:23 26.07.2019
4639 Rain 11 1004 75 0 3.25 228.022 11:56 26.07.2019
4640 Rain 11 1004 75 0 3.25 228.022 11:37 26.07.2019
4641 Rain 11 1004 75 0 3.25 228.022 11:18 26.07.2019
4642 Rain 11 1004 75 0 3.25 228.022 10:39 26.07.2019
4643 Rain 11 1004 75 0 3.25 228.022 10:20 26.07.2019
4644 Rain 11 1004 75 0 3.25 228.022 09:50 26.07.2019
4645 Rain 11 1004 75 0 3.25 228.022 09:28 26.07.2019
4646 Rain 12 1006 66 0 2.87 218.23 08:41 26.07.2019
4647 Rain 12 1006 66 0 2.87 218.23 08:21 26.07.2019
4648 Rain 12 1006 66 0 2.87 218.23 07:40 26.07.2019
4649 Rain 12 1006 66 0 2.87 218.23 07:22 26.07.2019
4650 Rain 12 1006 66 0 2.87 218.23 06:30 26.07.2019
4651 Clouds 8 1008 80 0 1.11 151.131 04:30 26.07.2019
4652 Clouds 8 1008 80 0 1.11 151.131 03:54 26.07.2019
4653 Rain 6 1007 91 0 0.29 272.951 01:50 26.07.2019
4654 Rain 7 1006 89 0 0.65 351.482 01:24 26.07.2019
4655 Rain 7 1006 89 0 0.65 351.482 00:32 26.07.2019
4656 Clouds 7 1007 89 0 0.63 196.235 23:48 25.07.2019
4657 Clouds 7 1007 89 0 0.63 196.235 23:23 25.07.2019
4658 Clouds 7 1007 89 0 0.63 196.235 22:42 25.07.2019
4659 Clouds 7 1007 89 0 0.63 196.235 22:23 25.07.2019
4660 Clouds 7 1007 89 0 0.63 196.235 21:58 25.07.2019
4661 Clouds 7 1007 89 0 0.63 196.235 21:40 25.07.2019
4662 Clouds 7 1007 87 0 1 192.926 21:20 25.07.2019
4663 Rain 7 1007 89 0 1.28 191.511 20:41 25.07.2019
4664 Rain 7 1007 89 0 1.28 191.511 20:21 25.07.2019
4665 Rain 7 1007 89 0 1.28 191.511 19:41 25.07.2019
4666 Rain 7 1007 89 0 1.28 191.511 19:23 25.07.2019
4667 Rain 7 1007 89 0 1.28 191.511 18:45 25.07.2019
4668 Rain 7 1007 89 0 1.28 191.511 18:27 25.07.2019
4669 Rain 8 1006 85 0 1.27 207.089 17:52 25.07.2019
4670 Rain 8 1006 85 0 1.27 207.089 17:34 25.07.2019
4671 Rain 8 1006 85 0 1.27 207.089 16:59 25.07.2019
4672 Rain 8 1006 85 0 1.27 207.089 16:41 25.07.2019
4673 Rain 8 1006 85 0 1.27 207.089 16:22 25.07.2019
4674 Rain 8 1006 85 0 1.27 207.089 15:50 25.07.2019
4675 Rain 8 1005 90 0 0.62 116.194 15:21 25.07.2019
4676 Rain 8 1005 90 0 0.62 116.194 14:43 25.07.2019
4677 Rain 8 1005 90 0 0.62 116.194 14:24 25.07.2019
4678 Rain 8 1005 90 0 0.62 116.194 13:59 25.07.2019
4679 Rain 8 1005 90 0 0.62 116.194 13:37 25.07.2019
4680 Rain 8 1004 88 0 2.14 251.59 13:19 25.07.2019
4681 Rain 8 1004 88 0 2.14 251.59 12:34 25.07.2019
4682 Rain 10 1005 80 0 3.26 197.445 11:58 25.07.2019
4683 Rain 10 1005 80 0 3.26 197.445 11:40 25.07.2019
4684 Rain 10 1005 80 0 3.26 197.445 11:21 25.07.2019
4685 Rain 10 1005 80 0 3.26 197.445 10:43 25.07.2019
4686 Rain 10 1005 80 0 3.26 197.445 10:23 25.07.2019
4687 Rain 10 1005 80 0 3.26 197.445 09:45 25.07.2019
4688 Rain 10 1005 80 0 3.26 197.445 09:45 25.07.2019
4689 Rain 10 1005 80 0 3.26 197.445 09:27 25.07.2019
4690 Rain 12 1006 66 0 2.36 217.302 08:48 25.07.2019
4691 Rain 12 1006 66 0 2.36 217.302 08:29 25.07.2019
4692 Rain 12 1006 66 0 2.36 217.302 07:40 25.07.2019
4693 Rain 12 1006 66 0 2.36 217.302 06:45 25.07.2019
4694 Clouds 9 1008 75 0 0.24 243 06:19 25.07.2019
4695 Clouds 9 1008 75 0 0.24 243 05:34 25.07.2019
4696 Clouds 9 1008 75 0 0.24 243 04:45 25.07.2019
4697 Clouds 5 1006 95 0 0.11 268.363 02:24 25.07.2019
4698 Clouds 5 1006 96 0 0.82 111.956 01:21 25.07.2019
4699 Clouds 6 1007 94 0 1.11 205.39 00:23 25.07.2019
4700 Clouds 6 1007 94 0 1.11 205.39 23:56 24.07.2019
4701 Clouds 6 1007 94 0 1.11 205.39 23:37 24.07.2019
4702 Clouds 6 1007 94 0 1.11 205.39 23:18 24.07.2019
4703 Clouds 6 1007 94 0 1.11 205.39 22:44 24.07.2019
4704 Clouds 6 1007 94 0 1.11 205.39 22:22 24.07.2019
4705 Clouds 6 1007 94 0 1.11 205.39 21:55 24.07.2019
4706 Clouds 6 1007 94 0 1.11 205.39 21:37 24.07.2019
4707 Clouds 8 1006 88 0 0.9 233.117 21:18 24.07.2019
4708 Rain 7 1006 91 0 0.82 217.108 20:40 24.07.2019
4709 Rain 7 1006 91 0 0.82 217.108 20:22 24.07.2019
4710 Rain 7 1006 91 0 0.82 217.108 19:56 24.07.2019
4711 Rain 7 1006 91 0 0.82 217.108 19:38 24.07.2019
4712 Rain 7 1006 91 0 0.82 217.108 19:19 24.07.2019
4713 Rain 7 1006 91 0 0.82 217.108 18:42 24.07.2019
4714 Rain 9 1006 91 0 1.28 201.718 18:23 24.07.2019
4715 Rain 9 1006 91 0 1.28 201.718 17:44 24.07.2019
4716 Rain 9 1006 91 0 1.28 201.718 17:20 24.07.2019
4717 Rain 9 1006 91 0 1.28 201.718 16:43 24.07.2019
4718 Rain 9 1006 91 0 1.28 201.718 16:23 24.07.2019
4719 Rain 9 1006 91 0 1.28 201.718 16:23 24.07.2019
4720 Rain 9 1006 91 0 1.28 201.718 16:23 24.07.2019
4721 Rain 9 1006 91 0 1.28 201.718 15:58 24.07.2019
4722 Rain 9 1006 91 0 1.28 201.718 15:36 24.07.2019
4723 Rain 11 1002 73 0 1.42 270.607 15:18 24.07.2019
4724 Rain 11 1002 73 0 1.42 270.607 14:43 24.07.2019
4725 Rain 11 1002 73 0 1.42 270.607 14:19 24.07.2019
4726 Rain 11 1002 73 0 1.42 270.607 13:38 24.07.2019
4727 Rain 12 1002 71 0 1.39 284.076 13:19 24.07.2019
4728 Rain 12 1002 71 0 1.39 284.076 12:51 24.07.2019
4729 Rain 12 1002 71 0 1.39 284.076 12:33 24.07.2019
4730 Rain 14 1003 66 0 3.99 219.243 11:40 24.07.2019
4731 Rain 14 1003 66 0 3.99 219.243 11:21 24.07.2019
4732 Rain 14 1003 66 0 3.99 219.243 10:46 24.07.2019
4733 Rain 14 1003 66 0 3.99 219.243 10:26 24.07.2019
4734 Rain 14 1003 66 0 3.99 219.243 09:52 24.07.2019
4735 Rain 14 1003 66 0 3.99 219.243 09:26 24.07.2019
4736 Rain 15 1004 48 0 2.26 225.269 08:58 24.07.2019
4737 Rain 14 1005 55 0 2.17 217.45 08:32 24.07.2019
4738 Rain 14 1005 55 0 2.17 217.45 07:52 24.07.2019
4739 Rain 14 1005 55 0 2.17 217.45 07:31 24.07.2019
4740 Rain 14 1005 55 0 2.17 217.45 07:31 24.07.2019
4741 Rain 14 1005 55 0 2.17 217.45 06:49 24.07.2019
4742 Clear 10 1007 72 0 0.55 300.249 06:23 24.07.2019
4743 Clear 5 1007 95 0 0.14 230.565 02:56 24.07.2019
4744 Clear 5 1007 95 0 0.14 230.565 01:44 24.07.2019
4745 Clear 5 1006 95 0 0.4 46.642 00:57 24.07.2019
4746 Clear 5 1006 95 0 0.4 46.642 00:30 24.07.2019
4747 Clear 6 1007 92 0 0.75 207.322 23:47 23.07.2019
4748 Clear 6 1007 92 0 0.75 207.322 23:25 23.07.2019
4749 Clear 6 1007 92 0 0.75 207.322 22:56 23.07.2019
4750 Clear 6 1007 92 0 0.75 207.322 22:36 23.07.2019
4751 Clear 6 1007 92 0 0.75 207.322 22:18 23.07.2019
4752 Clear 6 1007 92 0 0.75 207.322 21:44 23.07.2019
4753 Rain 8 1007 89 0 0.64 208.568 21:25 23.07.2019
4754 Clouds 8 1006 89 0 0.59 201.873 20:49 23.07.2019
4755 Clouds 8 1006 89 0 0.59 201.873 20:29 23.07.2019
4756 Clouds 8 1006 89 0 0.59 201.873 19:43 23.07.2019
4757 Clouds 8 1006 89 0 0.59 201.873 19:24 23.07.2019
4758 Clouds 8 1006 89 0 0.59 201.873 18:57 23.07.2019
4759 Clouds 8 1006 89 0 0.59 201.873 18:39 23.07.2019
4760 Rain 9 1006 86 0 0.66 271.924 18:19 23.07.2019
4761 Rain 9 1006 86 0 0.66 271.924 17:42 23.07.2019
4762 Rain 9 1006 86 0 0.66 271.924 17:42 23.07.2019
4763 Rain 9 1006 86 0 0.66 271.924 17:21 23.07.2019
4764 Rain 9 1006 86 0 0.66 271.924 16:44 23.07.2019
4765 Rain 9 1006 86 0 0.66 271.924 16:26 23.07.2019
4766 Rain 9 1006 86 0 0.66 271.924 15:51 23.07.2019
4767 Rain 9 1006 86 0 0.66 271.924 15:32 23.07.2019
4768 Rain 12 1005 74 0 1.94 235.146 14:56 23.07.2019
4769 Rain 12 1005 74 0 1.94 235.146 14:36 23.07.2019
4770 Rain 12 1005 74 0 1.94 235.146 14:18 23.07.2019
4771 Rain 12 1005 74 0 1.94 235.146 14:18 23.07.2019
4772 Rain 12 1005 74 0 1.94 235.146 13:55 23.07.2019
4773 Rain 12 1005 74 0 1.94 235.146 13:36 23.07.2019
4774 Rain 11 1004 75 0 1.91 235.254 13:18 23.07.2019
4775 Rain 11 1004 75 0 1.91 235.254 12:42 23.07.2019
4776 Rain 13 1006 66 0 2.76 222.126 12:22 23.07.2019
4777 Rain 13 1006 66 0 2.76 222.126 11:41 23.07.2019
4778 Rain 13 1006 66 0 2.76 222.126 11:21 23.07.2019
4779 Rain 13 1006 66 0 2.76 222.126 10:49 23.07.2019
4780 Rain 13 1006 66 0 2.76 222.126 10:23 23.07.2019
4781 Rain 13 1006 66 0 2.76 222.126 09:43 23.07.2019
4782 Rain 13 1006 66 0 2.76 222.126 09:43 23.07.2019
4783 Clear 14 1007 50 0 1.73 225.375 09:22 23.07.2019
4784 Clear 14 1007 50 0 1.73 225.375 08:54 23.07.2019
4785 Clear 14 1007 50 0 1.4 212.437 08:36 23.07.2019
4786 Clear 14 1007 50 0 1.4 212.437 08:36 23.07.2019
4787 Clear 14 1007 50 0 1.4 212.437 08:18 23.07.2019
4788 Clear 14 1007 50 0 1.4 212.437 07:38 23.07.2019
4789 Clear 14 1007 50 0 1.4 212.437 06:57 23.07.2019
4790 Clear 14 1007 50 0 1.4 212.437 06:36 23.07.2019
4791 Clear 10 1009 68 0 0.24 296.035 04:27 23.07.2019
4792 Clear 4 1009 93 0 1.03 63.41 01:40 23.07.2019
4793 Clear 4 1009 94 0 0.51 57.598 00:46 23.07.2019
4794 Clear 5 1009 94 0 0.42 143.863 00:19 23.07.2019
4795 Clear 5 1009 94 0 0.42 143.863 23:39 22.07.2019
4796 Clear 5 1009 94 0 0.42 143.863 23:20 22.07.2019
4797 Clear 5 1009 94 0 0.42 143.863 22:45 22.07.2019
4798 Clear 5 1009 94 0 0.42 143.863 22:24 22.07.2019
4799 Clear 5 1009 94 0 0.42 143.863 21:56 22.07.2019
4800 Clear 5 1009 94 0 0.42 143.863 21:36 22.07.2019
4801 Clouds 6 1009 92 0 0.22 172.129 21:18 22.07.2019
4802 Clouds 6 1009 92 0 0.22 172.129 21:18 22.07.2019
4803 Clouds 6 1009 92 0 0.22 77.869 20:41 22.07.2019
4804 Clouds 6 1009 92 0 0.22 77.869 20:22 22.07.2019
4805 Clouds 6 1009 92 0 0.22 77.869 19:42 22.07.2019
4806 Clouds 6 1009 92 0 0.22 77.869 19:23 22.07.2019
4807 Clouds 6 1009 92 0 0.22 77.869 18:48 22.07.2019
4808 Clouds 6 1009 92 0 0.22 77.869 18:28 22.07.2019
4809 Rain 8 1009 86 0 0.65 223.573 17:59 22.07.2019
4810 Rain 8 1009 86 0 0.65 223.573 17:38 22.07.2019
4811 Rain 8 1009 86 0 0.65 223.573 17:20 22.07.2019
4812 Rain 8 1009 86 0 0.65 223.573 16:41 22.07.2019
4813 Rain 8 1009 86 0 0.65 223.573 16:21 22.07.2019
4814 Rain 8 1009 86 0 0.65 223.573 15:46 22.07.2019
4815 Rain 11 1006 67 0 1.85 233.909 15:22 22.07.2019
4816 Rain 11 1006 67 0 1.85 233.909 14:59 22.07.2019
4817 Rain 11 1006 67 0 1.85 233.909 14:41 22.07.2019
4818 Rain 11 1006 67 0 1.85 233.909 14:19 22.07.2019
4819 Rain 11 1006 67 0 1.85 233.909 13:45 22.07.2019
4820 Rain 11 1006 67 0 1.85 233.909 13:22 22.07.2019
4821 Rain 11 1006 67 0 1.85 233.909 12:44 22.07.2019
4822 Rain 12 1008 59 0 3.24 221.392 12:23 22.07.2019
4823 Rain 12 1007 67 0 3.01 225.094 11:44 22.07.2019
4824 Rain 12 1007 67 0 3.01 225.094 11:20 22.07.2019
4825 Rain 12 1007 67 0 3.01 225.094 10:43 22.07.2019
4826 Rain 12 1007 67 0 3.01 225.094 10:25 22.07.2019
4827 Rain 12 1007 67 0 3.01 225.094 09:43 22.07.2019
4828 Clear 13 1008 46 0 1.93 194.455 09:24 22.07.2019
4829 Clear 13 1008 46 0 1.93 194.455 08:44 22.07.2019
4830 Clear 13 1008 46 0 1.93 194.455 08:25 22.07.2019
4831 Clear 13 1008 46 0 1.93 194.455 08:25 22.07.2019
4832 Clear 13 1008 46 0 1.93 194.455 07:55 22.07.2019
4833 Clear 13 1008 46 0 1.93 194.455 07:32 22.07.2019
4834 Clear 13 1008 46 0 1.93 194.455 06:44 22.07.2019
4835 Clear 9 1010 57 0 0.51 137.303 03:55 22.07.2019
4836 Clear 3 1010 86 0 0.73 142.283 02:24 22.07.2019
4837 Clear 3 1010 87 0 0.45 141.042 00:54 22.07.2019
4838 Clear 4 1010 86 0 0.99 27.032 00:25 22.07.2019
4839 Clear 4 1010 86 0 0.99 27.032 23:55 21.07.2019
4840 Clear 4 1010 86 0 0.99 27.032 23:55 21.07.2019
4841 Clear 4 1010 86 0 0.99 27.032 23:28 21.07.2019
4842 Clear 4 1010 86 0 0.99 27.032 22:42 21.07.2019
4843 Clear 4 1010 86 0 0.99 27.032 22:22 21.07.2019
4844 Clear 4 1010 86 0 0.99 27.032 21:57 21.07.2019
4845 Clear 4 1010 86 0 0.99 27.032 21:37 21.07.2019
4846 Clouds 6 1011 88 0 0.9 58.872 21:19 21.07.2019
4847 Clouds 6 1010 86 0 0.66 57.009 20:44 21.07.2019
4848 Clouds 6 1010 86 0 0.66 57.009 20:26 21.07.2019
4849 Clouds 6 1010 86 0 0.66 57.009 19:55 21.07.2019
4850 Clouds 6 1010 86 0 0.66 57.009 19:36 21.07.2019
4851 Clouds 6 1010 86 0 0.66 57.009 19:18 21.07.2019
4852 Clouds 6 1010 86 0 0.66 57.009 18:44 21.07.2019
4853 Rain 7 1010 86 0 0.44 68.703 18:25 21.07.2019
4854 Rain 7 1010 86 0 0.44 68.703 18:25 21.07.2019
4855 Rain 7 1010 86 0 0.44 68.703 17:42 21.07.2019
4856 Rain 7 1010 86 0 0.44 68.703 17:20 21.07.2019
4857 Rain 7 1010 86 0 0.44 68.703 16:47 21.07.2019
4858 Rain 7 1010 86 0 0.44 68.703 16:25 21.07.2019
4859 Rain 7 1010 86 0 0.44 68.703 15:57 21.07.2019
4860 Rain 7 1010 86 0 0.44 68.703 15:37 21.07.2019
4861 Rain 9 1008 75 0 0.61 230.704 15:18 21.07.2019
4862 Rain 9 1008 75 0 0.61 230.704 14:41 21.07.2019
4863 Rain 9 1008 75 0 0.61 230.704 14:22 21.07.2019
4864 Rain 9 1008 75 0 0.61 230.704 13:49 21.07.2019
4865 Rain 9 1007 73 0 0.64 347.471 13:29 21.07.2019
4866 Rain 9 1007 73 0 0.64 347.471 12:43 21.07.2019
4867 Rain 11 1008 63 0 2.33 239.171 12:24 21.07.2019
4868 Rain 11 1008 63 0 2.33 239.171 11:49 21.07.2019
4869 Rain 11 1008 63 0 2.33 239.171 11:29 21.07.2019
4870 Rain 11 1008 63 0 2.33 239.171 10:57 21.07.2019
4871 Rain 11 1008 63 0 2.33 239.171 10:39 21.07.2019
4872 Rain 11 1008 63 0 2.33 239.171 10:20 21.07.2019
4873 Rain 11 1008 63 0 2.33 239.171 09:38 21.07.2019
4874 Rain 11 1008 63 0 2.33 239.171 09:38 21.07.2019
4875 Rain 12 1010 55 0 2.16 211.834 09:19 21.07.2019
4876 Rain 12 1010 58 0 2.32 212.231 08:41 21.07.2019
4877 Rain 12 1010 58 0 2.32 212.231 08:23 21.07.2019
4878 Rain 12 1010 58 0 2.32 212.231 07:35 21.07.2019
4879 Rain 12 1010 58 0 2.32 212.231 06:45 21.07.2019
4880 Clouds 8 1012 67 0 0.51 131.587 05:28 21.07.2019
4881 Clear 3 1011 92 0 0.55 126.66 02:27 21.07.2019
4882 Clouds 4 1011 90 0 0.5 56.342 00:57 21.07.2019
4883 Clouds 4 1011 92 0 0.18 62.736 00:24 21.07.2019
4884 Clouds 4 1011 92 0 0.18 62.736 23:59 20.07.2019
4885 Clouds 4 1011 92 0 0.18 62.736 23:39 20.07.2019
4886 Clouds 4 1011 92 0 0.18 62.736 23:19 20.07.2019
4887 Clouds 4 1011 92 0 0.18 62.736 22:43 20.07.2019
4888 Clouds 4 1011 92 0 0.18 62.736 22:21 20.07.2019
4889 Clouds 4 1011 92 0 0.18 62.736 21:45 20.07.2019
4890 Clouds 4 1011 92 0 0.18 62.736 21:26 20.07.2019
4891 Clouds 6 1012 92 0 1.05 78.401 20:56 20.07.2019
4892 Clouds 6 1011 85 0 1.18 37.601 20:38 20.07.2019
4893 Clouds 6 1011 85 0 1.18 37.601 20:18 20.07.2019
4894 Clouds 6 1011 85 0 1.18 37.601 19:44 20.07.2019
4895 Clouds 6 1011 85 0 1.18 37.601 19:19 20.07.2019
4896 Clouds 6 1011 85 0 1.18 37.601 18:41 20.07.2019
4897 Rain 7 1011 84 0 1.2 1.055 18:20 20.07.2019
4898 Rain 7 1011 84 0 1.2 1.055 17:51 20.07.2019
4899 Rain 7 1011 84 0 1.2 1.055 17:20 20.07.2019
4900 Rain 7 1011 84 0 1.2 1.055 16:44 20.07.2019
4901 Rain 7 1011 84 0 1.2 1.055 16:26 20.07.2019
4902 Rain 7 1011 84 0 1.2 1.055 15:57 20.07.2019
4903 Rain 7 1011 84 0 1.2 1.055 15:38 20.07.2019
4904 Rain 9 1008 77 0 1.85 249.386 15:19 20.07.2019
4905 Rain 9 1008 77 0 1.85 249.386 14:47 20.07.2019
4906 Rain 9 1008 77 0 1.85 249.386 14:22 20.07.2019
4907 Rain 9 1008 77 0 1.85 249.386 13:39 20.07.2019
4908 Rain 8 1008 76 0 1.38 332.616 13:20 20.07.2019
4909 Rain 8 1008 76 0 1.38 332.616 12:54 20.07.2019
4910 Rain 10 1009 66 0 3.03 219.275 12:21 20.07.2019
4911 Rain 10 1009 66 0 3.03 219.275 11:56 20.07.2019
4912 Rain 10 1009 66 0 3.03 219.275 11:24 20.07.2019
4913 Rain 10 1009 66 0 3.03 219.275 10:55 20.07.2019
4914 Rain 10 1009 66 0 3.03 219.275 10:36 20.07.2019
4915 Rain 10 1009 66 0 3.03 219.275 10:18 20.07.2019
4916 Rain 10 1009 66 0 3.03 219.275 09:45 20.07.2019
4917 Rain 11 1011 51 0 1.62 197.652 09:22 20.07.2019
4918 Rain 12 1011 50 0 1.88 194.931 08:45 20.07.2019
4919 Rain 12 1011 50 0 1.88 194.931 08:20 20.07.2019
4920 Rain 12 1011 50 0 1.88 194.931 07:21 20.07.2019
4921 Rain 12 1011 50 0 1.88 194.931 06:41 20.07.2019
4922 Clear 8 1013 61 0 0.81 126.208 04:31 20.07.2019
4923 Clear 8 1013 61 0 0.81 126.208 03:40 20.07.2019
4924 Clouds 3 1012 85 0 0.71 102.084 01:21 20.07.2019
4925 Clouds 3 1012 85 0 0.71 102.084 00:47 20.07.2019
4926 Clear 4 1012 86 0 0.44 71.769 00:21 20.07.2019
4927 Clear 4 1012 86 0 0.44 71.769 23:45 19.07.2019
4928 Clear 4 1012 86 0 0.44 71.769 23:26 19.07.2019
4929 Clear 4 1012 86 0 0.44 71.769 22:50 19.07.2019
4930 Clear 4 1012 86 0 0.44 71.769 22:26 19.07.2019
4931 Clear 4 1012 86 0 0.44 71.769 21:53 19.07.2019
4932 Clear 4 1012 86 0 0.44 71.769 21:34 19.07.2019
4933 Rain 5 1011 89 0 0.76 130.143 20:59 19.07.2019
4934 Rain 5 1011 89 0 0.76 130.143 20:40 19.07.2019
4935 Rain 5 1011 89 0 0.76 130.143 20:22 19.07.2019
4936 Rain 5 1011 89 0 0.76 130.143 19:35 19.07.2019
4937 Rain 5 1011 89 0 0.76 130.143 18:46 19.07.2019
4938 Rain 6 1011 86 0 2.61 200.098 18:25 19.07.2019
4939 Rain 6 1011 86 0 2.61 200.098 17:57 19.07.2019
4940 Rain 6 1011 86 0 2.61 200.098 17:29 19.07.2019
4941 Rain 6 1011 86 0 2.61 200.098 16:59 19.07.2019
4942 Rain 6 1011 86 0 2.61 200.098 16:40 19.07.2019
4943 Rain 6 1011 86 0 2.61 200.098 16:18 19.07.2019
4944 Rain 6 1011 86 0 2.61 200.098 15:47 19.07.2019
4945 Rain 6 1011 86 0 2.61 200.098 15:29 19.07.2019
4946 Rain 8 1008 75 0 2.39 217.254 14:47 19.07.2019
4947 Rain 8 1008 75 0 2.39 217.254 14:27 19.07.2019
4948 Rain 8 1008 75 0 2.39 217.254 13:58 19.07.2019
4949 Rain 8 1008 75 0 2.39 217.254 13:39 19.07.2019
4950 Rain 9 1008 74 0 2.45 214.351 13:20 19.07.2019
4951 Rain 9 1008 74 0 2.45 214.351 12:45 19.07.2019
4952 Rain 9 1008 74 0 2.45 214.351 12:26 19.07.2019
4953 Rain 10 1008 66 0 2.92 221.245 11:46 19.07.2019
4954 Rain 10 1008 66 0 2.92 221.245 11:19 19.07.2019
4955 Rain 10 1008 66 0 2.92 221.245 10:57 19.07.2019
4956 Rain 10 1008 66 0 2.92 221.245 10:38 19.07.2019
4957 Rain 10 1008 66 0 2.92 221.245 10:18 19.07.2019
4958 Rain 10 1008 66 0 2.92 221.245 09:43 19.07.2019
4959 Rain 10 1010 60 0 3.18 203.853 09:22 19.07.2019
4960 Rain 10 1010 61 0 2.92 218.262 08:50 19.07.2019
4961 Rain 10 1010 61 0 2.92 218.262 08:28 19.07.2019
4962 Rain 10 1010 61 0 2.92 218.262 07:33 19.07.2019
4963 Rain 10 1010 61 0 2.92 218.262 06:37 19.07.2019
4964 Rain 10 1010 61 0 2.92 218.262 06:37 19.07.2019
4965 Clouds 8 1011 66 0 0.86 163.097 03:53 19.07.2019
4966 Clouds 3 1010 91 0 0.64 75.92 01:44 19.07.2019
4967 Clouds 2 1010 92 0 0.61 69.586 00:58 19.07.2019
4968 Clear 3 1010 93 0 0.44 48.753 00:21 19.07.2019
4969 Clear 3 1010 93 0 0.44 48.753 23:41 18.07.2019
4970 Clear 3 1010 93 0 0.44 48.753 23:23 18.07.2019
4971 Clear 3 1010 93 0 0.44 48.753 22:55 18.07.2019
4972 Clear 3 1010 93 0 0.44 48.753 22:36 18.07.2019
4973 Clear 3 1010 93 0 0.44 48.753 22:18 18.07.2019
4974 Clear 3 1010 93 0 0.44 48.753 21:39 18.07.2019
4975 Rain 4 1010 92 0 0.76 126.9 21:19 18.07.2019
4976 Clouds 5 1010 92 0 0.54 134.397 20:46 18.07.2019
4977 Clouds 5 1010 92 0 0.54 134.397 20:25 18.07.2019
4978 Clouds 5 1010 92 0 0.54 134.397 19:49 18.07.2019
4979 Clouds 5 1010 92 0 0.54 134.397 19:27 18.07.2019
4980 Clouds 5 1010 92 0 0.54 134.397 18:52 18.07.2019
4981 Rain 6 1009 89 0 0.83 219.523 18:23 18.07.2019
4982 Rain 6 1009 89 0 0.83 219.523 17:57 18.07.2019
4983 Rain 6 1009 89 0 0.83 219.523 17:37 18.07.2019
4984 Rain 6 1009 89 0 0.83 219.523 17:19 18.07.2019
4985 Rain 6 1009 89 0 0.83 219.523 16:49 18.07.2019
4986 Rain 6 1009 89 0 0.83 219.523 16:26 18.07.2019
4987 Rain 6 1009 89 0 0.83 219.523 15:58 18.07.2019
4988 Rain 6 1009 89 0 0.83 219.523 15:36 18.07.2019
4989 Rain 9 1007 74 0 2.34 232.041 14:56 18.07.2019
4990 Rain 9 1007 74 0 2.34 232.041 14:38 18.07.2019
4991 Rain 9 1007 74 0 2.34 232.041 14:19 18.07.2019
4992 Rain 9 1007 74 0 2.34 232.041 13:42 18.07.2019
4993 Rain 9 1006 75 0 2.48 244.603 13:21 18.07.2019
4994 Rain 9 1006 75 0 2.48 244.603 12:46 18.07.2019
4995 Rain 10 1006 74 0 2.81 221.564 12:21 18.07.2019
4996 Rain 10 1006 74 0 2.81 221.564 11:52 18.07.2019
4997 Rain 10 1006 74 0 2.81 221.564 11:33 18.07.2019
4998 Rain 10 1006 74 0 2.81 221.564 10:53 18.07.2019
4999 Rain 10 1006 74 0 2.81 221.564 10:35 18.07.2019
5000 Rain 10 1006 74 0 2.81 221.564 09:47 18.07.2019
5001 Rain 10 1008 66 0 2.72 213.462 09:24 18.07.2019
5002 Rain 11 1008 62 0 2.47 204.2 08:49 18.07.2019
5003 Rain 11 1008 62 0 2.47 204.2 08:20 18.07.2019
5004 Rain 11 1008 62 0 2.47 204.2 07:44 18.07.2019
5005 Rain 11 1008 62 0 2.47 204.2 07:26 18.07.2019
5006 Rain 11 1008 62 0 2.47 204.2 06:38 18.07.2019
5007 Clouds 7 1008 72 0 1.02 159.023 05:35 18.07.2019
5008 Clouds 1 1008 94 0 0.72 131.035 03:23 18.07.2019
5009 Clear 1 1008 94 0 0.55 107.705 01:52 18.07.2019
5010 Clear 1 1008 94 0 0.55 107.705 01:18 18.07.2019
5011 Clear 2 1008 93 0 0.86 177.797 23:55 17.07.2019
5012 Clear 2 1008 93 0 0.86 177.797 23:20 17.07.2019
5013 Clear 2 1008 93 0 0.86 177.797 22:58 17.07.2019
5014 Clear 2 1008 93 0 0.86 177.797 22:39 17.07.2019
5015 Clear 2 1008 93 0 0.86 177.797 22:20 17.07.2019
5016 Clear 2 1008 93 0 0.86 177.797 21:45 17.07.2019
5017 Clear 2 1008 93 0 0.86 177.797 21:27 17.07.2019
5018 Clouds 4 1009 92 0 0.6 155.824 20:58 17.07.2019
5019 Clouds 4 1009 92 0 0.6 155.824 20:40 17.07.2019
5020 Clouds 4 1009 92 0 0.6 155.824 20:21 17.07.2019
5021 Clouds 4 1009 92 0 0.6 155.824 19:57 17.07.2019
5022 Clouds 4 1009 92 0 0.6 155.824 19:39 17.07.2019
5023 Clouds 4 1009 92 0 0.6 155.824 19:18 17.07.2019
5024 Clouds 4 1009 92 0 0.6 155.824 18:41 17.07.2019
5025 Clouds 5 1008 90 0 0.36 183.32 18:20 17.07.2019
5026 Clouds 5 1008 90 0 0.36 183.32 17:50 17.07.2019
5027 Clouds 5 1008 90 0 0.36 183.32 17:27 17.07.2019
5028 Clouds 5 1008 90 0 0.36 183.32 16:58 17.07.2019
5029 Clouds 5 1008 90 0 0.36 183.32 16:38 17.07.2019
5030 Clouds 5 1008 90 0 0.36 183.32 16:18 17.07.2019
5031 Clouds 5 1008 90 0 0.36 183.32 15:51 17.07.2019
5032 Clouds 5 1008 90 0 0.36 183.32 15:29 17.07.2019
5033 Clouds 5 1008 90 0 0.36 183.32 15:29 17.07.2019
5034 Rain 8 1006 73 0 1.45 259.117 14:55 17.07.2019
5035 Rain 8 1006 73 0 1.45 259.117 14:37 17.07.2019
5036 Rain 8 1006 73 0 1.45 259.117 14:18 17.07.2019
5037 Rain 8 1006 73 0 1.45 259.117 13:42 17.07.2019
5038 Rain 7 1006 77 0 1.59 248.078 13:24 17.07.2019
5039 Rain 7 1006 77 0 1.59 248.078 12:41 17.07.2019
5040 Rain 8 1006 75 0 2.46 222.542 12:21 17.07.2019
5041 Rain 8 1006 75 0 2.46 222.542 11:56 17.07.2019
5042 Rain 8 1006 75 0 2.46 222.542 11:37 17.07.2019
5043 Rain 8 1006 75 0 2.46 222.542 11:18 17.07.2019
5044 Rain 8 1006 75 0 2.46 222.542 10:42 17.07.2019
5045 Rain 8 1006 75 0 2.46 222.542 10:18 17.07.2019
5046 Rain 8 1006 75 0 2.46 222.542 09:44 17.07.2019
5047 Rain 8 1006 75 0 2.46 222.542 09:44 17.07.2019
5048 Rain 11 1008 49 0 1.93 215.704 09:25 17.07.2019
5049 Clouds 12 1008 44 0 1.66 201.584 08:44 17.07.2019
5050 Clouds 12 1008 44 0 1.66 201.584 08:22 17.07.2019
5051 Clouds 12 1008 44 0 1.66 201.584 07:51 17.07.2019
5052 Clouds 12 1008 44 0 1.66 201.584 07:51 17.07.2019
5053 Clouds 12 1008 44 0 1.66 201.584 07:26 17.07.2019
5054 Clouds 12 1008 44 0 1.66 201.584 06:58 17.07.2019
5055 Clouds 12 1008 44 0 1.66 201.584 06:31 17.07.2019
5056 Clouds 12 1008 44 0 1.66 201.584 06:31 17.07.2019
5057 Clouds 8 1009 59 0 0.82 112.593 05:59 17.07.2019
5058 Clouds 8 1009 59 0 0.82 112.593 05:32 17.07.2019
5059 Clouds 8 1009 59 0 0.82 112.593 04:48 17.07.2019
5060 Clouds 8 1009 59 0 0.82 112.593 03:46 17.07.2019
5061 Rain 2 1009 87 0 1.5 79.126 02:31 17.07.2019
5062 Clouds 1 1009 93 0 0.67 75.322 01:28 17.07.2019
5063 Clouds 1 1009 93 0 0.67 75.322 00:59 17.07.2019
5064 Clouds 1 1009 93 0 0.67 75.322 00:59 17.07.2019
5065 Clouds 1 1009 93 0 0.67 75.322 00:38 17.07.2019
5066 Clouds 3 1008 93 0 0.49 75.305 00:19 17.07.2019
5067 Clouds 3 1008 93 0 0.49 75.305 23:42 16.07.2019
5068 Clouds 3 1008 93 0 0.49 75.305 23:22 16.07.2019
5069 Clouds 3 1008 93 0 0.49 75.305 22:43 16.07.2019
5070 Clouds 3 1008 93 0 0.49 75.305 22:24 16.07.2019
5071 Clouds 3 1008 93 0 0.49 75.305 21:56 16.07.2019
5072 Clouds 3 1008 93 0 0.49 75.305 21:36 16.07.2019
5073 Rain 5 1010 87 0 1.06 24.034 21:18 16.07.2019
5074 Rain 4 1009 90 0 0.8 28.203 20:41 16.07.2019
5075 Rain 4 1009 90 0 0.8 28.203 20:22 16.07.2019
5076 Rain 4 1009 90 0 0.8 28.203 19:54 16.07.2019
5077 Rain 4 1009 90 0 0.8 28.203 19:30 16.07.2019
5078 Rain 4 1009 90 0 0.8 28.203 18:59 16.07.2019
5079 Rain 4 1009 90 0 0.8 28.203 18:40 16.07.2019
5080 Rain 5 1009 91 0 2.01 83.157 18:20 16.07.2019
5081 Rain 5 1009 91 0 2.01 83.157 17:49 16.07.2019
5082 Rain 5 1009 91 0 2.01 83.157 17:49 16.07.2019
5083 Rain 5 1009 91 0 2.01 83.157 17:28 16.07.2019
5084 Rain 5 1009 91 0 2.01 83.157 16:50 16.07.2019
5085 Rain 5 1009 91 0 2.01 83.157 16:27 16.07.2019
5086 Rain 5 1009 91 0 2.01 83.157 15:57 16.07.2019
5087 Rain 5 1009 91 0 2.01 83.157 15:39 16.07.2019
5088 Rain 6 1007 88 0 0.88 207.35 15:19 16.07.2019
5089 Rain 6 1007 88 0 0.88 207.35 14:55 16.07.2019
5090 Rain 6 1007 88 0 0.88 207.35 14:37 16.07.2019
5091 Rain 6 1007 88 0 0.88 207.35 14:18 16.07.2019
5092 Rain 6 1007 88 0 0.88 207.35 13:43 16.07.2019
5093 Rain 6 1006 88 0 1.2 194.522 13:18 16.07.2019
5094 Rain 6 1006 88 0 1.2 194.522 12:44 16.07.2019
5095 Rain 7 1006 87 0 2.58 236.015 12:20 16.07.2019
5096 Rain 7 1006 87 0 2.58 236.015 11:55 16.07.2019
5097 Rain 7 1006 87 0 2.58 236.015 11:36 16.07.2019
5098 Rain 7 1006 87 0 2.58 236.015 11:18 16.07.2019
5099 Rain 7 1006 87 0 2.58 236.015 10:44 16.07.2019
5100 Rain 7 1006 87 0 2.58 236.015 10:20 16.07.2019
5101 Rain 7 1006 87 0 2.58 236.015 09:44 16.07.2019
5102 Rain 9 1008 63 0 1.03 140.337 09:21 16.07.2019
5103 Rain 9 1008 63 0 1.03 140.337 08:58 16.07.2019
5104 Rain 9 1007 62 0 2.06 203.37 08:40 16.07.2019
5105 Rain 9 1007 62 0 2.06 203.37 08:18 16.07.2019
5106 Rain 9 1007 62 0 2.06 203.37 07:40 16.07.2019
5107 Rain 9 1007 62 0 2.06 203.37 07:18 16.07.2019
5108 Rain 9 1007 62 0 2.06 203.37 06:43 16.07.2019
5109 Clouds 5 1007 75 0 0.63 76.408 05:59 16.07.2019
5110 Clouds 5 1007 75 0 0.63 76.408 05:32 16.07.2019
5111 Clouds 5 1007 75 0 0.63 76.408 04:54 16.07.2019
5112 Clouds 5 1007 75 0 0.63 76.408 03:44 16.07.2019
5113 Clouds 4 1006 85 0 1.4 42.081 02:55 16.07.2019
5114 Clouds 4 1006 85 0 1.4 42.081 02:28 16.07.2019
5115 Clouds 4 1006 85 0 1.4 42.081 01:40 16.07.2019
5116 Clouds 4 1006 85 0 1.4 42.081 00:41 16.07.2019
5117 Clouds 5 1005 88 0 0.56 263.932 00:19 16.07.2019
5118 Clouds 5 1005 88 0 0.56 263.932 23:44 15.07.2019
5119 Clouds 5 1005 88 0 0.56 263.932 23:25 15.07.2019
5120 Clouds 5 1005 88 0 0.56 263.932 22:47 15.07.2019
5121 Clouds 5 1005 88 0 0.56 263.932 22:22 15.07.2019
5122 Clouds 5 1005 88 0 0.56 263.932 21:58 15.07.2019
5123 Clouds 5 1005 88 0 0.56 263.932 21:39 15.07.2019
5124 Rain 5 1007 90 0 0.83 79.956 21:19 15.07.2019
5125 Rain 5 1007 90 0 0.83 79.956 20:54 15.07.2019
5126 Rain 5 1007 90 0 0.83 79.956 20:36 15.07.2019
5127 Rain 5 1007 90 0 0.83 79.956 20:18 15.07.2019
5128 Rain 5 1007 90 0 0.83 79.956 19:39 15.07.2019
5129 Rain 5 1007 90 0 0.83 79.956 19:19 15.07.2019
5130 Rain 5 1007 90 0 0.83 79.956 18:50 15.07.2019
5131 Rain 5 1005 89 0 0.77 259.403 18:23 15.07.2019
5132 Rain 5 1005 89 0 0.77 259.403 17:59 15.07.2019
5133 Rain 5 1005 89 0 0.77 259.403 17:41 15.07.2019
5134 Rain 5 1005 89 0 0.77 259.403 17:22 15.07.2019
5135 Rain 5 1005 89 0 0.77 259.403 16:58 15.07.2019
5136 Rain 5 1005 89 0 0.77 259.403 16:38 15.07.2019
5137 Rain 5 1005 89 0 0.77 259.403 16:20 15.07.2019
5138 Rain 5 1005 89 0 0.77 259.403 15:45 15.07.2019
5139 Rain 5 1005 89 0 0.77 259.403 15:27 15.07.2019
5140 Rain 4 1002 94 0 1.34 259.051 14:59 15.07.2019
5141 Rain 4 1002 94 0 1.34 259.051 14:40 15.07.2019
5142 Rain 4 1002 94 0 1.34 259.051 14:21 15.07.2019
5143 Rain 4 1002 94 0 1.34 259.051 13:48 15.07.2019
5144 Rain 5 1002 91 0 1.37 239.036 13:21 15.07.2019
5145 Rain 5 1002 91 0 1.37 239.036 12:57 15.07.2019
5146 Rain 5 1002 91 0 1.37 239.036 12:39 15.07.2019
5147 Rain 6 1002 89 0 2.98 230.685 12:20 15.07.2019
5148 Rain 6 1002 89 0 2.98 230.685 11:41 15.07.2019
5149 Rain 6 1002 89 0 2.98 230.685 11:21 15.07.2019
5150 Rain 6 1002 89 0 2.98 230.685 10:43 15.07.2019
5151 Rain 6 1002 89 0 2.98 230.685 10:24 15.07.2019
5152 Rain 6 1002 89 0 2.98 230.685 09:44 15.07.2019
5153 Rain 9 1003 69 0 2.45 229.592 09:25 15.07.2019
5154 Rain 9 1003 67 0 2.9 228.885 08:49 15.07.2019
5155 Rain 9 1003 67 0 2.9 228.885 08:27 15.07.2019
5156 Rain 9 1003 67 0 2.9 228.885 07:57 15.07.2019
5157 Rain 9 1003 67 0 2.9 228.885 07:36 15.07.2019
5158 Rain 9 1003 67 0 2.9 228.885 06:51 15.07.2019
5159 Rain 9 1003 67 0 2.9 228.885 06:32 15.07.2019
5160 Clouds 7 1004 65 0 0.46 230.544 05:44 15.07.2019
5161 Clouds 7 1004 65 0 0.46 230.544 05:19 15.07.2019
5162 Clouds 7 1004 65 0 0.46 230.544 04:41 15.07.2019
5163 Clouds 7 1004 65 0 0.46 230.544 03:33 15.07.2019
5164 Rain 5 1004 83 0 0.79 351.193 02:30 15.07.2019
5165 Rain 5 1004 83 0 0.79 351.193 01:39 15.07.2019
5166 Rain 4 1004 93 0 0.68 220.72 01:20 15.07.2019
5167 Rain 4 1004 93 0 0.68 220.72 00:46 15.07.2019
5168 Rain 5 1004 88 0 0.24 281.681 00:19 15.07.2019
5169 Rain 5 1004 88 0 0.24 281.681 23:42 14.07.2019
5170 Rain 5 1004 88 0 0.24 281.681 23:21 14.07.2019
5171 Rain 5 1004 88 0 0.24 281.681 22:59 14.07.2019
5172 Rain 5 1004 88 0 0.24 281.681 22:39 14.07.2019
5173 Rain 5 1004 88 0 0.24 281.681 22:21 14.07.2019
5174 Rain 5 1004 88 0 0.24 281.681 21:57 14.07.2019
5175 Rain 5 1004 88 0 0.24 281.681 21:39 14.07.2019
5176 Rain 6 1005 91 0 0.63 319.339 21:18 14.07.2019
5177 Rain 6 1005 91 0 0.63 319.339 20:39 14.07.2019
5178 Rain 6 1005 91 0 0.63 319.339 20:21 14.07.2019
5179 Rain 6 1005 91 0 0.63 319.339 19:59 14.07.2019
5180 Rain 6 1005 91 0 0.63 319.339 19:39 14.07.2019
5181 Rain 6 1005 91 0 0.63 319.339 19:21 14.07.2019
5182 Rain 6 1005 91 0 0.63 319.339 18:43 14.07.2019
5183 Rain 6 1004 94 0 0.51 276.578 18:25 14.07.2019
5184 Rain 6 1004 94 0 0.51 276.578 17:58 14.07.2019
5185 Rain 6 1004 94 0 0.51 276.578 17:39 14.07.2019
5186 Rain 6 1004 94 0 0.51 276.578 17:18 14.07.2019
5187 Rain 6 1004 94 0 0.51 276.578 16:44 14.07.2019
5188 Rain 6 1004 94 0 0.51 276.578 16:21 14.07.2019
5189 Rain 6 1004 94 0 0.51 276.578 15:43 14.07.2019
5190 Rain 6 1002 91 0 0.83 282.268 15:24 14.07.2019
5191 Rain 6 1002 91 0 0.83 282.268 14:47 14.07.2019
5192 Rain 6 1002 91 0 0.83 282.268 14:20 14.07.2019
5193 Rain 6 1002 91 0 0.83 282.268 13:47 14.07.2019
5194 Rain 6 1001 92 0 1.07 248.119 13:25 14.07.2019
5195 Rain 6 1001 92 0 1.07 248.119 12:58 14.07.2019
5196 Rain 6 1001 92 0 1.07 248.119 12:40 14.07.2019
5197 Rain 8 1002 82 0 3.08 215.923 12:19 14.07.2019
5198 Rain 8 1002 82 0 3.08 215.923 11:50 14.07.2019
5199 Rain 8 1002 82 0 3.08 215.923 11:22 14.07.2019
5200 Rain 8 1002 82 0 3.08 215.923 10:49 14.07.2019
5201 Rain 8 1002 82 0 3.08 215.923 10:21 14.07.2019
5202 Rain 8 1002 82 0 3.08 215.923 09:50 14.07.2019
5203 Rain 8 1002 82 0 3.08 215.923 09:30 14.07.2019
5204 Rain 10 1004 61 0 2.09 185.071 08:57 14.07.2019
5205 Rain 10 1004 61 0 2.09 185.071 08:39 14.07.2019
5206 Rain 10 1004 61 0 2.09 185.071 07:46 14.07.2019
5207 Rain 10 1004 61 0 2.09 185.071 07:22 14.07.2019
5208 Clouds 7 1006 66 0 0.81 210.732 05:47 14.07.2019
5209 Clouds 7 1006 66 0 0.81 210.732 05:25 14.07.2019
5210 Clouds 7 1006 66 0 0.81 210.732 03:44 14.07.2019
5211 Clear 1 1006 91 0 0.46 346.269 03:25 14.07.2019
5212 Clear 1 1006 91 0 0.46 346.269 02:38 14.07.2019
5213 Clear 1 1006 91 0 0.46 346.269 02:20 14.07.2019
5214 Clouds 1 1006 91 0 0.6 308.555 01:30 14.07.2019
5215 Clouds 1 1006 91 0 0.6 308.555 00:55 14.07.2019
5216 Clouds 1 1006 91 0 0.6 308.555 00:36 14.07.2019
5217 Clouds 3 1006 90 0 1.44 318.09 00:18 14.07.2019
5218 Clouds 3 1006 90 0 1.44 318.09 23:41 13.07.2019
5219 Clouds 3 1006 90 0 1.44 318.09 23:22 13.07.2019
5220 Clouds 3 1006 90 0 1.44 318.09 22:43 13.07.2019
5221 Clouds 3 1006 90 0 1.44 318.09 22:22 13.07.2019
5222 Clouds 3 1006 90 0 1.44 318.09 21:49 13.07.2019
5223 Clouds 5 1008 90 0 1.65 330.939 21:22 13.07.2019
5224 Rain 5 1008 88 0 1.7 302.922 20:53 13.07.2019
5225 Rain 5 1008 88 0 1.7 302.922 20:34 13.07.2019
5226 Rain 5 1008 88 0 1.7 302.922 19:59 13.07.2019
5227 Rain 5 1008 88 0 1.7 302.922 19:37 13.07.2019
5228 Rain 5 1008 88 0 1.7 302.922 19:19 13.07.2019
5229 Rain 5 1008 88 0 1.7 302.922 18:39 13.07.2019
5230 Rain 6 1007 87 0 1.84 286.803 18:19 13.07.2019
5231 Rain 6 1007 87 0 1.84 286.803 17:38 13.07.2019
5232 Rain 6 1007 87 0 1.84 286.803 17:19 13.07.2019
5233 Rain 6 1007 87 0 1.84 286.803 17:19 13.07.2019
5234 Rain 6 1007 87 0 1.84 286.803 16:44 13.07.2019
5235 Rain 6 1007 87 0 1.84 286.803 16:26 13.07.2019
5236 Rain 6 1007 87 0 1.84 286.803 16:26 13.07.2019
5237 Rain 6 1007 87 0 1.84 286.803 15:48 13.07.2019
5238 Rain 8 1005 78 0 1.94 279.351 15:24 13.07.2019
5239 Rain 8 1005 78 0 1.94 279.351 14:57 13.07.2019
5240 Rain 8 1005 78 0 1.94 279.351 14:39 13.07.2019
5241 Rain 8 1005 78 0 1.94 279.351 14:20 13.07.2019
5242 Rain 8 1005 78 0 1.94 279.351 13:43 13.07.2019
5243 Rain 6 1004 89 0 1.94 265.526 13:19 13.07.2019
5244 Rain 6 1004 89 0 1.94 265.526 12:41 13.07.2019
5245 Rain 8 1004 84 0 2.27 238.617 12:23 13.07.2019
5246 Rain 8 1004 84 0 2.27 238.617 11:57 13.07.2019
5247 Rain 8 1004 84 0 2.27 238.617 11:37 13.07.2019
5248 Rain 8 1004 84 0 2.27 238.617 11:18 13.07.2019
5249 Rain 8 1004 84 0 2.27 238.617 10:40 13.07.2019
5250 Rain 8 1004 84 0 2.27 238.617 10:22 13.07.2019
5251 Rain 8 1004 84 0 2.27 238.617 09:43 13.07.2019
5252 Rain 11 1005 64 0 1.64 242.483 09:24 13.07.2019
5253 Rain 10 1005 67 0 2.41 236.185 08:56 13.07.2019
5254 Rain 10 1005 67 0 2.41 236.185 08:28 13.07.2019
5255 Rain 10 1005 67 0 2.41 236.185 07:53 13.07.2019
5256 Rain 10 1005 67 0 2.41 236.185 07:25 13.07.2019
5257 Rain 10 1005 67 0 2.41 236.185 06:31 13.07.2019
5258 Clouds 7 1007 78 0 1.2 299.91 05:47 13.07.2019
5259 Clouds 7 1007 78 0 1.2 299.91 04:40 13.07.2019
5260 Clouds 7 1007 78 0 1.2 299.91 04:20 13.07.2019
5261 Clouds 7 1007 78 0 1.2 299.91 03:41 13.07.2019
5262 Rain 5 1007 96 0 1.42 303.039 03:18 13.07.2019
5263 Rain 5 1007 96 0 1.42 303.039 01:53 13.07.2019
5264 Rain 6 1007 89 0 1.2 329.554 01:21 13.07.2019
5265 Rain 6 1007 89 0 1.2 329.554 00:59 13.07.2019
5266 Rain 6 1007 93 0 1.23 259.24 00:21 13.07.2019
5267 Rain 6 1007 93 0 1.23 259.24 23:55 12.07.2019
5268 Rain 6 1007 93 0 1.23 259.24 23:34 12.07.2019
5269 Rain 6 1007 93 0 1.23 259.24 22:59 12.07.2019
5270 Rain 6 1007 93 0 1.23 259.24 22:40 12.07.2019
5271 Rain 6 1007 93 0 1.23 259.24 22:22 12.07.2019
5272 Rain 6 1007 93 0 1.23 259.24 21:42 12.07.2019
5273 Rain 6 1007 93 0 1.57 276.642 21:21 12.07.2019
5274 Rain 6 1007 93 0 1.57 276.642 20:52 12.07.2019
5275 Rain 6 1007 93 0 1.57 276.642 20:23 12.07.2019
5276 Rain 6 1007 93 0 1.57 276.642 19:45 12.07.2019
5277 Rain 6 1007 93 0 1.57 276.642 19:26 12.07.2019
5278 Rain 6 1007 93 0 1.57 276.642 18:58 12.07.2019
5279 Rain 6 1007 93 0 1.57 276.642 18:37 12.07.2019
5280 Rain 7 1006 88 0 1.32 255.208 18:19 12.07.2019
5281 Rain 7 1006 88 0 1.32 255.208 17:46 12.07.2019
5282 Rain 7 1006 88 0 1.32 255.208 17:27 12.07.2019
5283 Rain 7 1006 88 0 1.32 255.208 16:43 12.07.2019
5284 Rain 7 1006 88 0 1.32 255.208 16:20 12.07.2019
5285 Rain 7 1006 88 0 1.32 255.208 15:41 12.07.2019
5286 Rain 9 1004 78 0 1.24 226.113 15:21 12.07.2019
5287 Rain 9 1004 78 0 1.24 226.113 14:56 12.07.2019
5288 Rain 9 1004 78 0 1.24 226.113 14:38 12.07.2019
5289 Rain 9 1004 78 0 1.24 226.113 14:19 12.07.2019
5290 Rain 9 1004 78 0 1.24 226.113 13:39 12.07.2019
5291 Rain 9 1004 78 0 1.24 226.113 13:39 12.07.2019
5292 Rain 9 1003 80 0 1.32 230.49 12:59 12.07.2019
5293 Rain 9 1003 80 0 1.32 230.49 12:40 12.07.2019
5294 Rain 10 1003 77 0 2.72 228.083 12:20 12.07.2019
5295 Rain 10 1003 77 0 2.72 228.083 11:44 12.07.2019
5296 Rain 10 1003 77 0 2.72 228.083 11:22 12.07.2019
5297 Rain 10 1003 77 0 2.72 228.083 10:44 12.07.2019
5298 Rain 10 1003 77 0 2.72 228.083 10:24 12.07.2019
5299 Rain 10 1003 77 0 2.72 228.083 09:54 12.07.2019
5300 Rain 10 1003 77 0 2.72 228.083 09:31 12.07.2019
5301 -273 0 0 0 0 0 08:59 12.07.2019
5302 Rain 12 1004 61 0 2.17 217.07 08:41 12.07.2019
5303 Rain 12 1004 61 0 2.17 217.07 08:19 12.07.2019
5304 Rain 12 1004 61 0 2.17 217.07 07:46 12.07.2019
5305 Rain 12 1004 61 0 2.17 217.07 07:27 12.07.2019
5306 Rain 12 1004 61 0 2.17 217.07 06:29 12.07.2019
5307 Clouds 9 1006 74 0 0.66 171.181 05:48 12.07.2019
5308 Clouds 4 1006 94 0 0.98 199.622 03:23 12.07.2019
5309 Clouds 4 1006 94 0 0.98 199.622 01:46 12.07.2019
5310 Rain 5 1006 92 0 1.13 255.569 01:26 12.07.2019
5311 Rain 5 1006 92 0 1.13 255.569 00:31 12.07.2019
5312 Rain 6 1005 88 0 1.36 245.504 23:50 11.07.2019
5313 Rain 6 1005 88 0 1.36 245.504 23:27 11.07.2019
5314 Rain 6 1005 88 0 1.36 245.504 22:59 11.07.2019
5315 Rain 6 1005 88 0 1.36 245.504 22:40 11.07.2019
5316 Rain 6 1005 88 0 1.36 245.504 22:21 11.07.2019
5317 Rain 6 1005 88 0 1.36 245.504 21:42 11.07.2019
5318 Rain 8 1006 81 0 1.34 253.937 21:19 11.07.2019
5319 Rain 8 1006 81 0 1.34 253.937 20:56 11.07.2019
5320 Rain 8 1006 81 0 1.34 253.937 20:37 11.07.2019
5321 Rain 8 1006 81 0 1.34 253.937 20:19 11.07.2019
5322 Rain 8 1006 81 0 1.34 253.937 19:47 11.07.2019
5323 Rain 8 1006 81 0 1.34 253.937 19:25 11.07.2019
5324 Rain 8 1006 81 0 1.34 253.937 18:54 11.07.2019
5325 Rain 8 1006 81 0 1.34 253.937 18:36 11.07.2019
5326 Rain 8 1004 81 0 1.05 265.836 18:18 11.07.2019
5327 Rain 8 1004 81 0 1.05 265.836 17:42 11.07.2019
5328 Rain 8 1004 81 0 1.05 265.836 17:23 11.07.2019
5329 Rain 8 1004 81 0 1.05 265.836 16:51 11.07.2019
5330 Rain 8 1004 81 0 1.05 265.836 16:24 11.07.2019
5331 Rain 8 1004 81 0 1.05 265.836 15:55 11.07.2019
5332 Rain 8 1004 81 0 1.05 265.836 15:36 11.07.2019
5333 Rain 9 1001 78 0 1.94 242.484 15:18 11.07.2019
5334 Rain 9 1001 78 0 1.94 242.484 14:43 11.07.2019
5335 Rain 9 1001 78 0 1.94 242.484 14:21 11.07.2019
5336 Rain 9 1001 78 0 1.94 242.484 13:47 11.07.2019
5337 Rain 10 1000 76 0 2.28 245.055 13:28 11.07.2019
5338 Rain 10 1000 76 0 2.28 245.055 12:46 11.07.2019
5339 Rain 10 1000 76 0 2.28 245.055 12:28 11.07.2019
5340 Rain 11 1001 75 0 2.32 237.673 11:58 11.07.2019
5341 Rain 11 1001 75 0 2.32 237.673 11:39 11.07.2019
5342 Rain 11 1001 75 0 2.32 237.673 11:21 11.07.2019
5343 Rain 11 1001 75 0 2.32 237.673 10:45 11.07.2019
5344 Rain 11 1001 75 0 2.32 237.673 10:19 11.07.2019
5345 Rain 11 1001 75 0 2.32 237.673 09:47 11.07.2019
5346 Rain 11 1001 75 0 2.32 237.673 09:28 11.07.2019
5347 Clouds 13 1002 56 0 1.49 238.481 08:52 11.07.2019
5348 -273 0 0 0 0 0 08:26 11.07.2019
5349 Clouds 13 1002 56 0 1.49 238.481 07:55 11.07.2019
5350 Clouds 13 1002 56 0 1.49 238.481 07:36 11.07.2019
5351 Clouds 13 1002 56 0 1.49 238.481 06:41 11.07.2019
5352 Clouds 10 1003 59 0 1.48 55.957 05:53 11.07.2019
5353 Clouds 10 1003 59 0 1.48 55.957 05:30 11.07.2019
5354 Clouds 10 1003 59 0 1.48 55.957 04:55 11.07.2019
5355 Clouds 6 1003 83 0 0.98 45.454 02:41 11.07.2019
5356 Clouds 6 1003 83 0 0.98 45.454 01:41 11.07.2019
5357 Rain 7 1004 86 0 0.65 328.088 00:30 11.07.2019
5358 Rain 6 1003 90 0 0.85 233.469 23:38 10.07.2019
5359 Rain 6 1003 90 0 0.85 233.469 23:20 10.07.2019
5360 Rain 6 1003 90 0 0.85 233.469 22:48 10.07.2019
5361 Rain 6 1003 90 0 0.85 233.469 22:22 10.07.2019
5362 Rain 6 1003 90 0 0.85 233.469 21:48 10.07.2019
5363 Rain 6 1003 90 0 0.85 233.469 21:28 10.07.2019
5364 Rain 7 1004 92 0 1.3 258.578 20:58 10.07.2019
5365 Rain 7 1004 92 0 1.3 258.578 20:39 10.07.2019
5366 Rain 7 1004 92 0 1.3 258.578 20:19 10.07.2019
5367 Rain 7 1004 92 0 1.3 258.578 19:54 10.07.2019
5368 Rain 7 1004 92 0 1.3 258.578 19:22 10.07.2019
5369 Rain 7 1004 92 0 1.3 258.578 18:59 10.07.2019
5370 Rain 7 1004 92 0 1.3 258.578 18:41 10.07.2019
5371 Rain 8 1002 86 0 1.16 237.268 18:22 10.07.2019
5372 Rain 8 1002 86 0 1.16 237.268 17:42 10.07.2019
5373 Rain 8 1002 86 0 1.16 237.268 17:22 10.07.2019
5374 Rain 8 1002 86 0 1.16 237.268 16:39 10.07.2019
5375 Rain 8 1002 86 0 1.16 237.268 16:19 10.07.2019
5376 Rain 8 1002 86 0 1.16 237.268 15:47 10.07.2019
5377 Rain 11 1000 68 0 1.5 244.785 15:22 10.07.2019
5378 Rain 11 1000 68 0 1.5 244.785 14:43 10.07.2019
5379 Rain 11 1000 68 0 1.5 244.785 14:24 10.07.2019
5380 Rain 11 1000 68 0 1.5 244.785 13:53 10.07.2019
5381 Rain 11 999 69 0 1.68 238.18 13:19 10.07.2019
5382 Rain 11 999 69 0 1.68 238.18 12:58 10.07.2019
5383 Rain 11 999 69 0 1.68 238.18 12:38 10.07.2019
5384 Rain 12 1000 68 0 2.87 227.035 12:19 10.07.2019
5385 Rain 12 1000 68 0 2.87 227.035 11:47 10.07.2019
5386 Rain 12 1000 68 0 2.87 227.035 11:21 10.07.2019
5387 Rain 12 1000 68 0 2.87 227.035 10:52 10.07.2019
5388 Rain 12 1000 68 0 2.87 227.035 10:23 10.07.2019
5389 Rain 12 1000 68 0 2.87 227.035 09:44 10.07.2019
5390 Rain 12 1002 60 0 1.6 256.38 09:21 10.07.2019
5391 Clear 13 1002 51 0 1.17 255.655 08:55 10.07.2019
5392 Clear 13 1002 51 0 1.17 255.655 08:37 10.07.2019
5393 Clear 13 1002 51 0 1.17 255.655 08:18 10.07.2019
5394 Clear 13 1002 51 0 1.17 255.655 07:42 10.07.2019
5395 Clear 13 1002 51 0 1.17 255.655 07:21 10.07.2019
5396 Clear 9 1004 66 0 0.84 14.566 06:21 10.07.2019
5397 Clear 9 1004 66 0 0.84 14.566 05:39 10.07.2019
5398 Clear 9 1004 66 0 0.84 14.566 04:30 10.07.2019
5399 Clouds 4 1005 93 0 1.08 295.004 01:25 10.07.2019
5400 Clouds 4 1005 93 0 1.08 295.004 00:42 10.07.2019
5401 Clouds 5 1005 95 0 0.47 300.546 23:42 09.07.2019
5402 Clouds 5 1005 95 0 0.47 300.546 23:22 09.07.2019
5403 Clouds 5 1005 95 0 0.47 300.546 22:54 09.07.2019
5404 Clouds 5 1005 95 0 0.47 300.546 22:36 09.07.2019
5405 Clouds 5 1005 95 0 0.47 300.546 22:18 09.07.2019
5406 Clouds 5 1005 95 0 0.47 300.546 21:43 09.07.2019
5407 Clouds 7 1006 88 0 0.66 231.731 21:24 09.07.2019
5408 Rain 7 1005 92 0 1.13 237.256 20:43 09.07.2019
5409 Rain 7 1005 92 0 1.13 237.256 20:25 09.07.2019
5410 Rain 7 1005 92 0 1.13 237.256 19:43 09.07.2019
5411 Rain 7 1005 92 0 1.13 237.256 19:24 09.07.2019
5412 Rain 7 1005 92 0 1.13 237.256 18:49 09.07.2019
5413 Rain 7 1005 92 0 1.13 237.256 18:49 09.07.2019
5414 Rain 7 1005 92 0 1.13 237.256 18:27 09.07.2019
5415 Rain 8 1003 87 0 1.28 234.817 17:57 09.07.2019
5416 Rain 8 1003 87 0 1.28 234.817 17:39 09.07.2019
5417 Rain 8 1003 87 0 1.28 234.817 17:20 09.07.2019
5418 Rain 8 1003 87 0 1.28 234.817 16:50 09.07.2019
5419 Rain 8 1003 87 0 1.28 234.817 16:25 09.07.2019
5420 Rain 8 1003 87 0 1.28 234.817 15:55 09.07.2019
5421 Rain 8 1003 87 0 1.28 234.817 15:36 09.07.2019
5422 Rain 11 1001 76 0 2.14 229.317 14:59 09.07.2019
5423 Rain 11 1001 76 0 2.14 229.317 14:40 09.07.2019
5424 Rain 11 1001 76 0 2.14 229.317 14:20 09.07.2019
5425 Rain 11 1001 76 0 2.14 229.317 13:45 09.07.2019
5426 Rain 11 1000 76 0 2.04 236.653 13:27 09.07.2019
5427 Rain 11 1000 76 0 2.04 236.653 12:42 09.07.2019
5428 Rain 12 1001 67 0 2.36 234.66 12:24 09.07.2019
5429 Rain 12 1001 67 0 2.36 234.66 11:59 09.07.2019
5430 Rain 12 1001 67 0 2.36 234.66 11:41 09.07.2019
5431 Rain 12 1001 67 0 2.36 234.66 11:22 09.07.2019
5432 Rain 12 1001 67 0 2.36 234.66 10:58 09.07.2019
5433 Rain 12 1001 67 0 2.36 234.66 10:34 09.07.2019
5434 Rain 12 1001 67 0 2.36 234.66 09:56 09.07.2019
5435 Rain 12 1001 67 0 2.36 234.66 09:37 09.07.2019
5436 Clouds 13 1002 55 0 1.35 226.532 09:19 09.07.2019
5437 Clouds 13 1002 55 0 1.35 226.532 08:41 09.07.2019
5438 Clear 7 1007 64 0 1.14 27.535 04:19 05.07.2019
5439 Clear 7 1007 64 0 1.14 27.535 03:39 05.07.2019
5440 Clear 2 1008 82 0 1.59 18.446 03:20 05.07.2019
5441 Clear 2 1008 82 0 1.59 18.446 02:52 05.07.2019
5442 Clear 2 1008 82 0 1.59 18.446 01:56 05.07.2019
5443 Clouds 2 1008 84 0 1.55 16.529 01:28 05.07.2019
5444 Clouds 2 1008 84 0 1.55 16.529 00:51 05.07.2019
5445 Clouds 2 1008 84 0 1.55 16.529 00:29 05.07.2019
5446 Clouds 4 1008 82 0 1.55 346.917 23:40 04.07.2019
5447 Clouds 4 1008 82 0 1.55 346.917 23:19 04.07.2019
5448 Clouds 4 1008 82 0 1.55 346.917 22:42 04.07.2019
5449 Clouds 4 1008 82 0 1.55 346.917 22:23 04.07.2019
5450 Clouds 4 1008 82 0 1.55 346.917 21:45 04.07.2019
5451 Rain 5 1009 85 0 1.89 330.116 21:26 04.07.2019
5452 Rain 6 1008 82 0 1.43 281.059 20:59 04.07.2019
5453 Rain 6 1008 82 0 1.43 281.059 20:38 04.07.2019
5454 Rain 6 1008 82 0 1.43 281.059 20:19 04.07.2019
5455 Rain 6 1008 82 0 1.43 281.059 19:42 04.07.2019
5456 Rain 6 1008 82 0 1.43 281.059 19:22 04.07.2019
5457 Rain 6 1008 82 0 1.43 281.059 18:56 04.07.2019
5458 Rain 6 1008 82 0 1.43 281.059 18:36 04.07.2019
5459 Rain 7 1007 86 0 2.47 256.11 18:18 04.07.2019
5460 Rain 7 1007 86 0 2.47 256.11 17:42 04.07.2019
5461 Rain 7 1007 86 0 2.47 256.11 17:18 04.07.2019
5462 Rain 7 1007 86 0 2.47 256.11 15:57 04.07.2019
5463 Rain 7 1007 86 0 2.47 256.11 15:39 04.07.2019
5464 Rain 10 1005 69 0 1.99 249.65 15:18 04.07.2019
5465 Rain 10 1005 69 0 1.99 249.65 14:41 04.07.2019
5466 Rain 10 1005 69 0 1.99 249.65 14:22 04.07.2019
5467 Rain 10 1005 69 0 1.99 249.65 13:58 04.07.2019
5468 Rain 10 1005 69 0 1.99 249.65 13:39 04.07.2019
5469 Rain 10 1005 69 0 2.21 243.852 13:21 04.07.2019
5470 Rain 10 1005 69 0 2.21 243.852 12:40 04.07.2019
5471 Rain 11 1006 65 0 2.1 221.335 12:21 04.07.2019
5472 Rain 11 1006 65 0 2.1 221.335 11:57 04.07.2019
5473 Rain 11 1006 65 0 2.1 221.335 11:37 04.07.2019
5474 Rain 11 1006 65 0 2.1 221.335 11:19 04.07.2019
5475 Rain 11 1006 65 0 2.1 221.335 10:39 04.07.2019
5476 Rain 11 1006 65 0 2.1 221.335 10:19 04.07.2019
5477 Rain 11 1006 65 0 2.1 221.335 09:41 04.07.2019
5478 Clear 13 1008 39 0 1.08 234.698 09:21 04.07.2019
5479 Clear 13 1008 39 0 1.08 234.698 08:56 04.07.2019
5480 Clear 13 1008 39 0 1.08 234.698 08:22 04.07.2019
5481 Clear 13 1008 39 0 1.08 234.698 07:43 04.07.2019
5482 Clear 13 1008 39 0 1.08 234.698 07:22 04.07.2019
5483 Clear 13 1008 39 0 1.08 234.698 06:39 04.07.2019
5484 Clear 8 1010 42 0 0.83 2.293 05:51 04.07.2019
5485 Clear 8 1010 42 0 0.83 2.293 05:32 04.07.2019
5486 Clear 1 1011 52 0 1.31 29.772 02:42 04.07.2019
5487 Clear 1 1011 52 0 1.31 29.772 01:41 04.07.2019
5488 Clear 2 1010 56 0 1.26 23.588 01:21 04.07.2019
5489 Clear 3 1010 55 0 1.06 21.045 23:56 03.07.2019
5490 Clear 3 1010 55 0 1.06 21.045 23:37 03.07.2019
5491 Clear 3 1010 55 0 1.06 21.045 23:18 03.07.2019
5492 Clear 3 1010 55 0 1.06 21.045 22:40 03.07.2019
5493 Clear 3 1010 63 0 0.91 15.703 22:21 03.07.2019
5494 Clear 3 1010 63 0 0.91 15.703 21:58 03.07.2019
5495 Clear 3 1010 63 0 0.91 15.703 21:39 03.07.2019
5496 Clouds 5 1010 62 0 1.3 24.349 21:20 03.07.2019
5497 Clouds 5 1010 62 0 1.3 24.349 20:43 03.07.2019
5498 Clouds 5 1010 62 0 1.3 24.349 20:23 03.07.2019
5499 Clouds 5 1010 62 0 1.3 24.349 19:50 03.07.2019
5500 Clouds 5 1010 62 0 1.3 24.349 19:50 03.07.2019
5501 Clouds 5 1010 62 0 1.3 24.349 19:32 03.07.2019
5502 Clouds 5 1010 62 0 1.3 24.349 18:48 03.07.2019
5503 Clouds 5 1010 62 0 1.3 24.349 18:29 03.07.2019
5504 Rain 7 1008 82 0 0.18 350.747 17:57 03.07.2019
5505 Rain 7 1008 82 0 0.18 350.747 17:37 03.07.2019
5506 Rain 7 1008 82 0 0.18 350.747 17:18 03.07.2019
5507 Rain 7 1008 82 0 0.18 350.747 16:43 03.07.2019
5508 Rain 7 1008 82 0 0.18 350.747 16:22 03.07.2019
5509 Rain 7 1008 82 0 0.18 350.747 15:49 03.07.2019
5510 Rain 7 1008 82 0 0.18 350.747 15:31 03.07.2019
5511 Rain 11 1006 56 0 0.88 221.493 14:57 03.07.2019
5512 Rain 11 1006 56 0 0.88 221.493 14:38 03.07.2019
5513 Rain 11 1006 56 0 0.88 221.493 14:18 03.07.2019
5514 Rain 11 1006 56 0 0.88 221.493 13:39 03.07.2019
5515 Clouds 12 1006 49 0 0.53 201.262 13:18 03.07.2019
5516 Clouds 12 1006 49 0 0.53 201.262 12:43 03.07.2019
5517 Clear 14 1007 33 0 0.93 317.089 12:18 03.07.2019
5518 Clear 14 1007 33 0 0.93 317.089 11:42 03.07.2019
5519 Clear 14 1007 33 0 0.93 317.089 11:21 03.07.2019
5520 Clear 14 1007 33 0 0.93 317.089 10:43 03.07.2019
5521 Clear 14 1007 33 0 0.93 317.089 10:24 03.07.2019
5522 Clear 14 1007 33 0 0.93 317.089 09:55 03.07.2019
5523 Clear 14 1007 33 0 0.93 317.089 09:36 03.07.2019
5524 Clear 12 1010 33 0 1.3 334.084 09:18 03.07.2019
5525 Clear 12 1010 33 0 1.3 334.084 08:41 03.07.2019
5526 Clear 13 1009 30 0 0.41 316.893 08:22 03.07.2019
5527 Clear 13 1009 30 0 0.41 316.893 07:38 03.07.2019
5528 Clear 13 1009 30 0 0.41 316.893 06:56 03.07.2019
5529 Clear 8 1012 41 0 1.93 41.407 06:19 03.07.2019
5530 Clear 8 1012 41 0 1.93 41.407 05:29 03.07.2019
5531 Clear 8 1012 41 0 1.93 41.407 04:27 03.07.2019
5532 Clear 1 1013 59 0 1.81 41.231 02:58 03.07.2019
5533 Clear 0 1012 59 0 1.65 43.871 01:42 03.07.2019
5534 Clear 0 1012 59 0 1.65 43.871 01:21 03.07.2019
5535 Clear 0 1012 59 0 1.65 43.871 00:42 03.07.2019
5536 Clear 1 1012 53 0 1.52 33.628 23:58 02.07.2019
5537 Clear 1 1012 53 0 1.52 33.628 23:37 02.07.2019
5538 Clear 1 1012 53 0 1.52 33.628 23:19 02.07.2019
5539 Clear 1 1012 53 0 1.52 33.628 22:55 02.07.2019
5540 Clear 1 1012 53 0 1.52 33.628 22:37 02.07.2019
5541 Clear 1 1012 53 0 1.52 33.628 22:18 02.07.2019
5542 Clear 1 1012 53 0 1.52 33.628 21:42 02.07.2019
5543 Clouds 2 1012 49 0 1.96 32.76 21:21 02.07.2019
5544 Clouds 2 1012 49 0 2.08 32.6 20:57 02.07.2019
5545 Clouds 2 1012 49 0 2.08 32.6 20:39 02.07.2019
5546 Clouds 2 1012 49 0 2.08 32.6 20:20 02.07.2019
5547 Clouds 2 1012 49 0 2.08 32.6 19:42 02.07.2019
5548 Clouds 2 1012 49 0 2.08 32.6 19:23 02.07.2019
5549 Clouds 2 1012 49 0 2.08 32.6 18:48 02.07.2019
5550 Clouds 4 1011 75 0 0.87 50.253 18:19 02.07.2019
5551 Clouds 4 1011 75 0 0.87 50.253 17:44 02.07.2019
5552 Clouds 4 1011 75 0 0.87 50.253 17:23 02.07.2019
5553 Clouds 4 1011 75 0 0.87 50.253 16:53 02.07.2019
5554 Clouds 4 1011 75 0 0.87 50.253 16:34 02.07.2019
5555 Clouds 4 1011 75 0 0.87 50.253 15:48 02.07.2019
5556 Clouds 4 1011 75 0 0.87 50.253 15:27 02.07.2019
5557 Rain 6 1009 67 0 2.06 294.559 14:59 02.07.2019
5558 Rain 6 1009 67 0 2.06 294.559 14:40 02.07.2019
5559 Rain 6 1009 67 0 2.06 294.559 14:20 02.07.2019
5560 Rain 6 1009 67 0 2.06 294.559 13:42 02.07.2019
5561 Rain 7 1008 64 0 1.64 271.366 13:19 02.07.2019
5562 Rain 7 1008 64 0 1.64 271.366 13:18 02.07.2019
5563 Rain 7 1008 64 0 1.64 271.366 12:44 02.07.2019
5564 Rain 10 1009 48 0 1.7 145.488 12:22 02.07.2019
5565 Rain 10 1009 48 0 1.7 145.488 11:44 02.07.2019
5566 Rain 10 1009 48 0 1.7 145.488 11:23 02.07.2019
5567 Rain 10 1009 48 0 1.7 145.488 10:58 02.07.2019
5568 Rain 10 1009 48 0 1.7 145.488 10:32 02.07.2019
5569 Rain 10 1009 48 0 1.7 145.488 09:57 02.07.2019
5570 Clouds 9 1011 40 0 0.7 172.742 09:22 02.07.2019
5571 Clouds 9 1011 40 0 0.7 172.742 08:59 02.07.2019
5572 Clear 10 1010 33 0 0.64 108.97 08:38 02.07.2019
5573 Clear 10 1010 33 0 0.64 108.97 08:19 02.07.2019
5574 Clear 10 1010 33 0 0.64 108.97 07:43 02.07.2019
5575 Clear 10 1010 33 0 0.64 108.97 07:20 02.07.2019
5576 Clear 10 1010 33 0 0.64 108.97 06:38 02.07.2019
5577 Clear 5 1012 58 0 1.73 49.032 05:46 02.07.2019
5578 Clouds 0 1013 70 0 2.18 37.023 02:43 02.07.2019
5579 Clear 0 1013 55 0 1.92 41.057 00:31 02.07.2019
5580 Clear 0 1012 61 0 1.45 49.536 23:40 01.07.2019
5581 Clear 0 1012 61 0 1.45 49.536 23:19 01.07.2019
5582 Clear 0 1012 61 0 1.45 49.536 22:44 01.07.2019
5583 Clear 0 1012 61 0 1.45 49.536 22:26 01.07.2019
5584 Clear 0 1012 61 0 1.45 49.536 21:45 01.07.2019
5585 Clouds 2 1011 66 0 1.87 41.422 21:25 01.07.2019
5586 Clouds 2 1011 76 0 2.05 51.995 20:51 01.07.2019
5587 Clouds 2 1011 76 0 2.05 51.995 20:21 01.07.2019
5588 Clouds 2 1011 76 0 2.05 51.995 19:57 01.07.2019
5589 Clouds 2 1011 76 0 2.05 51.995 19:39 01.07.2019
5590 Clouds 2 1011 76 0 2.05 51.995 19:21 01.07.2019
5591 Clouds 2 1011 76 0 2.05 51.995 18:50 01.07.2019
5592 Clouds 2 1011 76 0 2.05 51.995 18:28 01.07.2019
5593 Rain 4 1010 85 0 1.19 153.046 17:55 01.07.2019
5594 Rain 4 1010 85 0 1.19 153.046 17:37 01.07.2019
5595 Rain 4 1010 85 0 1.19 153.046 17:19 01.07.2019
5596 Rain 4 1010 85 0 1.19 153.046 16:44 01.07.2019
5597 Rain 4 1010 85 0 1.19 153.046 16:24 01.07.2019
5598 Rain 4 1010 85 0 1.19 153.046 15:46 01.07.2019
5599 Rain 7 1008 63 0 0.98 220.181 15:26 01.07.2019
5600 Rain 7 1008 63 0 0.98 220.181 14:45 01.07.2019
5601 Rain 7 1008 63 0 0.98 220.181 14:45 01.07.2019
5602 Rain 7 1008 63 0 0.98 220.181 14:24 01.07.2019
5603 Rain 7 1008 63 0 0.98 220.181 13:55 01.07.2019
5604 Rain 7 1008 63 0 0.98 220.181 13:37 01.07.2019
5605 Rain 7 1007 65 0 1 183.738 13:18 01.07.2019
5606 Rain 7 1007 65 0 1 183.738 12:40 01.07.2019
5607 Rain 7 1007 65 0 1 183.738 12:40 01.07.2019
5608 Rain 9 1008 44 0 1.48 7.704 12:22 01.07.2019
5609 Rain 9 1008 44 0 1.48 7.704 11:56 01.07.2019
5610 Rain 9 1008 44 0 1.48 7.704 11:38 01.07.2019
5611 Rain 9 1008 44 0 1.48 7.704 11:18 01.07.2019
5612 Rain 9 1008 44 0 1.48 7.704 10:42 01.07.2019
5613 Rain 9 1008 44 0 1.48 7.704 10:20 01.07.2019
5614 Rain 9 1008 44 0 1.48 7.704 09:44 01.07.2019
5615 Rain 9 1008 44 0 1.48 7.704 09:26 01.07.2019
5616 Clear 9 1010 42 0 0.92 307.443 08:44 01.07.2019
5617 Clear 9 1010 42 0 0.92 307.443 08:25 01.07.2019
5618 Clear 9 1010 42 0 0.92 307.443 07:35 01.07.2019
5619 Clear 9 1010 42 0 0.92 307.443 06:51 01.07.2019
5620 Clear 4 1012 66 0 1.08 39.67 04:45 01.07.2019
5621 Clear 0 1012 75 0 1.5 41.545 01:20 01.07.2019
5622 Clear 0 1012 75 0 1.5 41.545 00:42 01.07.2019
5623 Clear 0 1011 77 0 1 45.974 00:21 01.07.2019
5624 Clear 0 1011 77 0 1 45.974 23:26 30.06.2019
5625 Clear 0 1011 77 0 1 45.974 22:58 30.06.2019
5626 Clear 0 1011 77 0 1 45.974 22:38 30.06.2019
5627 Clear 0 1011 77 0 1 45.974 22:18 30.06.2019
5628 Clear 0 1011 77 0 1 45.974 21:41 30.06.2019
5629 Clouds 2 1011 80 0 1.52 34.224 21:19 30.06.2019
5630 Clouds 2 1011 80 0 1.52 34.224 20:54 30.06.2019
5631 Clouds 1 1011 81 0 1.23 34.283 20:36 30.06.2019
5632 Clouds 1 1011 81 0 1.23 34.283 20:18 30.06.2019
5633 Clouds 1 1011 81 0 1.23 34.283 19:42 30.06.2019
5634 Clouds 1 1011 81 0 1.23 34.283 19:24 30.06.2019
5635 Rain 3 1010 85 0 1.85 31.478 18:26 30.06.2019
5636 Rain 3 1010 85 0 1.85 31.478 17:57 30.06.2019
5637 Rain 3 1010 85 0 1.85 31.478 17:38 30.06.2019
5638 Rain 3 1010 85 0 1.85 31.478 17:18 30.06.2019
5639 Rain 3 1010 85 0 1.85 31.478 16:45 30.06.2019
5640 Rain 3 1010 85 0 1.85 31.478 16:25 30.06.2019
5641 Rain 3 1010 85 0 1.85 31.478 15:37 30.06.2019
5642 Rain 6 1008 75 0 0.69 46.753 15:18 30.06.2019
5643 Rain 6 1008 75 0 0.69 46.753 14:50 30.06.2019
5644 Rain 6 1008 75 0 0.69 46.753 14:30 30.06.2019
5645 Rain 6 1008 75 0 0.69 46.753 13:48 30.06.2019
5646 Rain 7 1007 63 0 1.51 276.899 13:29 30.06.2019
5647 Rain 7 1007 63 0 1.51 276.899 12:53 30.06.2019
5648 Rain 7 1007 63 0 1.51 276.899 12:29 30.06.2019
5649 Rain 7 1008 68 0 1.05 271.809 11:58 30.06.2019
5650 Rain 7 1008 68 0 1.05 271.809 11:39 30.06.2019
5651 Rain 7 1008 68 0 1.05 271.809 11:20 30.06.2019
5652 Rain 7 1008 68 0 1.05 271.809 11:20 30.06.2019
5653 Rain 7 1008 68 0 1.05 271.809 10:54 30.06.2019
5654 Rain 7 1008 68 0 1.05 271.809 10:36 30.06.2019
5655 Rain 7 1008 68 0 1.05 271.809 10:18 30.06.2019
5656 Rain 7 1008 68 0 1.05 271.809 09:41 30.06.2019
5657 Rain 7 1010 57 0 0.88 282.902 09:19 30.06.2019
5658 Rain 7 1009 55 0 0.89 86.002 08:40 30.06.2019
5659 Rain 7 1009 55 0 0.89 86.002 08:21 30.06.2019
5660 Rain 7 1009 55 0 0.89 86.002 07:47 30.06.2019
5661 Rain 7 1009 55 0 0.89 86.002 07:24 30.06.2019
5662 Rain 7 1009 55 0 0.89 86.002 06:37 30.06.2019
5663 Clouds 3 1011 68 0 2.12 42.663 03:32 30.06.2019
5664 Clouds 3 1011 68 0 2.12 42.663 03:32 30.06.2019
5665 Clouds 0 1011 77 0 1.59 61.811 01:53 30.06.2019
5666 Clouds -1 1011 71 0 1.89 44.785 00:48 30.06.2019
5667 Clear -1 1010 72 0 1.62 40.101 00:24 30.06.2019
5668 Clear -1 1010 72 0 1.62 40.101 23:53 29.06.2019
5669 Clear -1 1010 72 0 1.62 40.101 23:23 29.06.2019
5670 Clear -1 1010 72 0 1.62 40.101 22:48 29.06.2019
5671 Clear -1 1010 72 0 1.62 40.101 22:25 29.06.2019
5672 Clouds -2 1010 77 0 1.35 43.89 21:56 29.06.2019
5673 Clouds -2 1010 77 0 1.35 43.89 21:38 29.06.2019
5674 Clouds 0 1010 91 0 0.78 12.593 21:19 29.06.2019
5675 Clouds 0 1010 91 0 0.78 12.593 20:36 29.06.2019
5676 Clouds 0 1010 91 0 0.78 12.593 20:18 29.06.2019
5677 Clouds 0 1010 91 0 0.78 12.593 19:43 29.06.2019
5678 Clouds 0 1010 91 0 0.78 12.593 19:22 29.06.2019
5679 Clouds 0 1010 91 0 0.78 12.593 18:48 29.06.2019
5680 Clouds 0 1009 99 0 1.13 351.489 18:25 29.06.2019
5681 Clouds 0 1009 99 0 1.13 351.489 17:40 29.06.2019
5682 Clouds 0 1009 99 0 1.13 351.489 17:22 29.06.2019
5683 Clouds 0 1009 99 0 1.13 351.489 16:51 29.06.2019
5684 Clouds 0 1009 99 0 1.13 351.489 16:28 29.06.2019
5685 Clouds 0 1009 99 0 1.13 351.489 15:42 29.06.2019
5686 Rain 2 1006 96 0 2.8 60.253 15:23 29.06.2019
5687 Rain 2 1006 96 0 2.8 60.253 14:43 29.06.2019
5688 Rain 2 1006 96 0 2.8 60.253 14:25 29.06.2019
5689 Rain 2 1006 96 0 2.8 60.253 13:46 29.06.2019
5690 Rain 3 1005 94 0 1.7 74.615 13:26 29.06.2019
5691 Rain 3 1005 94 0 1.7 74.615 12:49 29.06.2019
5692 Rain 3 1005 94 0 1.7 74.615 12:31 29.06.2019
5693 Rain 8 1007 53 0 0.59 146.31 11:53 29.06.2019
5694 Rain 8 1007 53 0 0.59 146.31 11:31 29.06.2019
5695 Rain 8 1007 53 0 0.59 146.31 10:53 29.06.2019
5696 Rain 8 1007 53 0 0.59 146.31 10:32 29.06.2019
5697 Rain 8 1007 53 0 0.59 146.31 09:59 29.06.2019
5698 Rain 8 1007 53 0 0.59 146.31 09:36 29.06.2019
5699 Clear 8 1008 41 0 1.28 267.399 08:41 29.06.2019
5700 Clear 9 1008 33 0 0.76 275.763 07:46 29.06.2019
5701 Clear 9 1008 33 0 0.76 275.763 07:21 29.06.2019
5702 Clear 9 1008 33 0 0.76 275.763 06:44 29.06.2019
5703 Clear 5 1010 44 0 1.53 31.566 06:21 29.06.2019
5704 Clear -1 1011 56 0 1.74 36.982 02:37 29.06.2019
5705 Clear -1 1010 57 0 1.64 37.85 00:57 29.06.2019
5706 Clear -1 1010 64 0 1.51 32.457 00:23 29.06.2019
5707 Clear -1 1010 64 0 1.51 32.457 23:27 28.06.2019
5708 Clear -1 1010 64 0 1.51 32.457 22:57 28.06.2019
5709 Clear -1 1010 64 0 1.51 32.457 22:36 28.06.2019
5710 Clear -1 1010 64 0 1.51 32.457 21:52 28.06.2019
5711 Clouds 1 1010 61 0 2.17 35.381 21:25 28.06.2019
5712 Clouds 1 1010 61 0 1.96 35.681 20:49 28.06.2019
5713 Clouds 1 1010 61 0 1.96 35.681 20:28 28.06.2019
5714 Clouds 1 1010 61 0 1.96 35.681 19:54 28.06.2019
5715 Clouds 1 1010 61 0 1.96 35.681 19:30 28.06.2019
5716 Clouds 1 1010 61 0 1.96 35.681 18:59 28.06.2019
5717 Clouds 1 1010 61 0 1.96 35.681 18:38 28.06.2019
5718 Rain 4 1008 71 0 1.12 6.492 18:20 28.06.2019
5719 Rain 4 1008 71 0 1.12 6.492 17:30 28.06.2019
5720 Rain 4 1008 71 0 1.12 6.492 16:51 28.06.2019
5721 Rain 4 1008 71 0 1.12 6.492 16:27 28.06.2019
5722 Rain 4 1008 71 0 1.12 6.492 15:48 28.06.2019
5723 Rain 4 1008 71 0 1.12 6.492 15:48 28.06.2019
5724 Rain 8 1006 54 0 0.96 277.398 15:26 28.06.2019
5725 Rain 8 1006 54 0 0.96 277.398 14:56 28.06.2019
5726 -273 0 0 0 0 0 14:37 28.06.2019
5727 Rain 8 1006 54 0 0.96 277.398 14:18 28.06.2019
5728 Rain 8 1006 54 0 0.96 277.398 13:44 28.06.2019
5729 Clouds 8 1005 48 0 0.95 306.041 13:21 28.06.2019
5730 Clouds 8 1005 48 0 0.95 306.041 12:48 28.06.2019
5731 Clear 9 1006 36 0 1.36 281.962 11:57 28.06.2019
5732 Clear 9 1006 36 0 1.36 281.962 11:27 28.06.2019
5733 Clear 9 1006 36 0 1.36 281.962 10:47 28.06.2019
5734 Clear 9 1006 36 0 1.36 281.962 10:23 28.06.2019
5735 Clear 9 1006 36 0 1.36 281.962 10:23 28.06.2019
5736 Clear 9 1006 36 0 1.36 281.962 09:49 28.06.2019
5737 Clear 9 1006 36 0 1.36 281.962 09:31 28.06.2019
5738 Clear 7 1009 38 0 1.24 280.449 08:50 28.06.2019
5739 Clear 8 1009 31 0 0.65 299.976 08:27 28.06.2019
5740 Clear 8 1009 31 0 0.65 299.976 07:58 28.06.2019
5741 Clear 8 1009 31 0 0.65 299.976 07:40 28.06.2019
5742 Clear 8 1009 31 0 0.65 299.976 06:40 28.06.2019
5743 Clouds -1 1011 71 0 1.25 39.994 02:56 28.06.2019
5744 Clouds -1 1010 70 0 1.29 46.728 00:45 28.06.2019
5745 Clouds -1 1010 76 0 1.71 37.689 23:58 27.06.2019
5746 Clouds -1 1010 76 0 1.71 37.689 23:40 27.06.2019
5747 Clouds -1 1010 76 0 1.71 37.689 23:21 27.06.2019
5748 Clouds -1 1010 76 0 1.71 37.689 22:42 27.06.2019
5749 Clouds -1 1010 76 0 1.71 37.689 22:24 27.06.2019
5750 Clouds -1 1010 76 0 1.71 37.689 21:57 27.06.2019
5751 Clouds -1 1010 76 0 1.71 37.689 21:38 27.06.2019
5752 Clouds 1 1011 84 0 1.21 18.105 21:19 27.06.2019
5753 Clouds 1 1010 78 0 1.78 48.966 20:45 27.06.2019
5754 Clouds 1 1010 78 0 1.78 48.966 20:26 27.06.2019
5755 Clouds 1 1010 78 0 1.78 48.966 19:47 27.06.2019
5756 Clouds 1 1010 78 0 1.78 48.966 19:27 27.06.2019
5757 Clouds 1 1010 78 0 1.78 48.966 18:51 27.06.2019
5758 Clouds 1 1010 78 0 1.78 48.966 18:30 27.06.2019
5759 Clouds 1 1010 85 0 0.96 51.843 17:47 27.06.2019
5760 Clouds 1 1010 85 0 0.96 51.843 17:24 27.06.2019
5761 Clouds 1 1010 85 0 0.96 51.843 16:55 27.06.2019
5762 Clouds 1 1010 85 0 0.96 51.843 16:37 27.06.2019
5763 Clouds 1 1010 85 0 0.96 51.843 16:18 27.06.2019
5764 Clouds 1 1010 85 0 0.96 51.843 15:45 27.06.2019
5765 Clouds 3 1007 89 0 0.73 86.615 15:21 27.06.2019
5766 Clouds 3 1007 89 0 0.73 86.615 14:46 27.06.2019
5767 Clouds 3 1007 89 0 0.73 86.615 14:28 27.06.2019
5768 Clouds 3 1007 89 0 0.73 86.615 13:49 27.06.2019
5769 Clouds 3 1006 88 0 0.84 82.219 13:30 27.06.2019
5770 Clouds 3 1006 88 0 0.84 82.219 12:55 27.06.2019
5771 Clouds 3 1006 88 0 0.84 82.219 12:35 27.06.2019
5772 Clouds 8 1008 49 0 0.56 179.491 11:59 27.06.2019
5773 Clouds 8 1008 49 0 0.56 179.491 11:39 27.06.2019
5774 Clouds 8 1008 49 0 0.56 179.491 11:20 27.06.2019
5775 Clouds 8 1008 49 0 0.56 179.491 10:45 27.06.2019
5776 Clouds 8 1008 49 0 0.56 179.491 10:22 27.06.2019
5777 Clouds 8 1008 49 0 0.56 179.491 09:55 27.06.2019
5778 Clear 7 1009 42 0 0.73 289.996 09:22 27.06.2019
5779 Clear 7 1009 42 0 0.73 289.996 08:55 27.06.2019
5780 Clear 8 1009 40 0 0.27 252.231 08:37 27.06.2019
5781 Clear 8 1009 40 0 0.27 252.231 08:19 27.06.2019
5782 Clear 8 1009 40 0 0.27 252.231 07:31 27.06.2019
5783 Clear 8 1009 40 0 0.27 252.231 06:53 27.06.2019
5784 Clear 3 1011 62 0 1.63 42.692 06:24 27.06.2019
5785 Clouds -2 1012 74 0 1.9 41.486 03:21 27.06.2019
5786 Clouds -2 1012 74 0 1.9 41.486 02:30 27.06.2019
5787 Clear -2 1012 70 0 1.75 43.562 00:59 27.06.2019
5788 Clear -2 1012 70 0 1.75 43.562 00:41 27.06.2019
5789 Clouds -1 1012 79 0 2.22 39.835 00:19 27.06.2019
5790 Clouds -1 1012 79 0 2.22 39.835 23:42 26.06.2019
5791 Clouds -1 1012 79 0 2.22 39.835 23:22 26.06.2019
5792 Clouds -1 1012 79 0 2.22 39.835 22:46 26.06.2019
5793 Clouds -1 1012 79 0 2.22 39.835 22:27 26.06.2019
5794 Clouds -1 1012 79 0 2.22 39.835 21:59 26.06.2019
5795 Clouds -1 1012 79 0 2.22 39.835 21:39 26.06.2019
5796 Clouds 1 1012 87 0 1.34 68.063 21:19 26.06.2019
5797 Clouds 0 1012 88 0 1.1 56.586 20:49 26.06.2019
5798 Clouds 0 1012 88 0 1.1 56.586 20:30 26.06.2019
5799 Clouds 0 1012 88 0 1.1 56.586 19:50 26.06.2019
5800 Clouds 0 1012 88 0 1.1 56.586 19:31 26.06.2019
5801 -273 0 0 0 0 0 18:58 26.06.2019
5802 Clouds 0 1012 88 0 1.1 56.586 18:39 26.06.2019
5803 Clouds 2 1012 90 0 0.18 270.313 18:19 26.06.2019
5804 Clouds 2 1012 90 0 0.18 270.313 18:19 26.06.2019
5805 Clouds 2 1012 90 0 0.18 270.313 17:46 26.06.2019
5806 Clouds 2 1012 90 0 0.18 270.313 17:46 26.06.2019
5807 Clouds 2 1012 90 0 0.18 270.313 17:27 26.06.2019
5808 Clouds 2 1012 90 0 0.18 270.313 17:27 26.06.2019
5809 Clouds 2 1012 90 0 0.18 270.313 17:27 26.06.2019
5810 Clouds 2 1012 90 0 0.18 270.313 17:27 26.06.2019
5811 Clouds 2 1012 90 0 0.18 270.313 16:52 26.06.2019
5812 Clouds 2 1012 90 0 0.18 270.313 16:30 26.06.2019
5813 Clouds 2 1012 90 0 0.18 270.313 16:30 26.06.2019
5814 Clouds 2 1012 90 0 0.18 270.313 15:58 26.06.2019
5815 Clouds 2 1012 90 0 0.18 270.313 15:58 26.06.2019
5816 Clouds 2 1012 90 0 0.18 270.313 15:28 26.06.2019
5817 Rain 5 1009 71 0 1.13 246.562 14:57 26.06.2019
5818 Rain 5 1009 71 0 1.13 246.562 14:57 26.06.2019
5819 Rain 5 1009 71 0 1.13 246.562 14:37 26.06.2019
5820 Rain 5 1009 71 0 1.13 246.562 14:18 26.06.2019
5821 Rain 5 1009 71 0 1.13 246.562 13:39 26.06.2019
5822 Rain 5 1008 76 0 0.91 228.773 13:18 26.06.2019
5823 Rain 5 1008 76 0 0.91 228.773 12:40 26.06.2019
5824 Rain 7 1010 58 0 1.09 212.989 12:20 26.06.2019
5825 Rain 7 1010 58 0 1.09 212.989 11:37 26.06.2019
5826 Rain 7 1010 58 0 1.09 212.989 11:18 26.06.2019
5827 Rain 7 1010 58 0 1.09 212.989 10:39 26.06.2019
5828 Rain 7 1010 58 0 1.09 212.989 10:20 26.06.2019
5829 Rain 7 1010 58 0 1.09 212.989 09:36 26.06.2019
5830 Clear 7 1012 45 0 1.12 226.123 09:18 26.06.2019
5831 Clear 7 1012 45 0 1.12 226.123 08:38 26.06.2019
5832 Clear 3 1012 54 0 0.86 155.132 08:19 26.06.2019
5833 Clear 3 1012 54 0 0.86 155.132 07:41 26.06.2019
5834 Clear 3 1012 54 0 0.86 155.132 06:34 26.06.2019
5835 Clear 0 1014 92 0 1.24 49.999 03:34 26.06.2019
5836 Clouds -4 1014 87 0 1.35 55.85 00:45 26.06.2019
5837 Clouds -2 1014 87 0 1.39 44.243 00:19 26.06.2019
5838 Clouds -2 1014 87 0 1.39 44.243 23:39 25.06.2019
5839 Clouds -2 1014 87 0 1.39 44.243 23:20 25.06.2019
5840 Clouds -2 1014 87 0 1.39 44.243 22:55 25.06.2019
5841 Clouds -2 1014 87 0 1.39 44.243 22:37 25.06.2019
5842 Clouds -2 1014 87 0 1.39 44.243 22:18 25.06.2019
5843 Clouds -2 1014 87 0 1.39 44.243 21:37 25.06.2019
5844 Clouds 0 1014 96 0 1.25 42.699 21:19 25.06.2019
5845 Clouds 2 1014 91 0 0.94 44.439 20:38 25.06.2019
5846 Clouds 2 1014 91 0 0.94 44.439 20:19 25.06.2019
5847 Clouds 2 1014 91 0 0.94 44.439 19:45 25.06.2019
5848 Clouds 2 1014 91 0 0.94 44.439 19:22 25.06.2019
5849 Clouds 2 1014 91 0 0.94 44.439 18:43 25.06.2019
5850 Clouds 2 1014 91 0 0.94 44.439 18:43 25.06.2019
5851 Clouds 2 1014 95 0 1.26 47.864 18:25 25.06.2019
5852 Clouds 2 1014 95 0 1.26 47.864 18:25 25.06.2019
5853 -273 0 0 0 0 0 17:49 25.06.2019
5854 -273 0 0 0 0 0 17:49 25.06.2019
5855 Clouds 2 1014 95 0 1.26 47.864 17:28 25.06.2019
5856 -273 0 0 0 0 0 17:28 25.06.2019
5857 Clouds 2 1014 95 0 1.26 47.864 16:55 25.06.2019
5858 Clouds 2 1014 95 0 1.26 47.864 16:37 25.06.2019
5859 Clouds 2 1014 95 0 1.26 47.864 16:19 25.06.2019
5860 Clouds 2 1014 95 0 1.26 47.864 15:39 25.06.2019
5861 Rain 2 1011 93 0 0.69 327.706 15:20 25.06.2019
5862 Rain 2 1011 93 0 0.69 327.706 14:51 25.06.2019
5863 Rain 2 1011 93 0 0.69 327.706 14:51 25.06.2019
5864 Rain 2 1011 93 0 0.69 327.706 14:32 25.06.2019
5865 Rain 2 1011 93 0 0.69 327.706 13:43 25.06.2019
5866 Rain 3 1011 97 0 1.31 320.898 13:24 25.06.2019
5867 Rain 3 1011 97 0 1.31 320.898 12:43 25.06.2019
5868 Rain 3 1012 96 0 3.41 270.488 12:24 25.06.2019
5869 Rain 3 1012 96 0 3.41 270.488 11:47 25.06.2019
5870 Rain 3 1012 96 0 3.41 270.488 11:26 25.06.2019
5871 Rain 3 1012 96 0 3.41 270.488 10:59 25.06.2019
5872 Rain 3 1012 96 0 3.41 270.488 10:38 25.06.2019
5873 -273 0 0 0 0 0 10:19 25.06.2019
5874 Rain 3 1012 96 0 3.41 270.488 09:40 25.06.2019
5875 Rain 3 1014 97 0 2.46 181.937 09:22 25.06.2019
5876 Rain 3 1014 97 0 2.46 181.937 08:59 25.06.2019
5877 Rain 3 1014 97 0 2.46 181.937 08:31 25.06.2019
5878 Rain 4 1014 93 0 1.82 224.777 07:58 25.06.2019
5879 Rain 4 1014 93 0 1.82 224.777 07:36 25.06.2019
5880 Rain 4 1014 93 0 1.82 224.777 06:52 25.06.2019
5881 Rain 3 1016 95 0 1.36 167.207 06:25 25.06.2019
5882 Clouds 2 1015 97 0 1.86 138.113 02:45 25.06.2019
5883 Clouds 2 1015 97 0 1.86 138.113 01:38 25.06.2019
5884 Rain 1 1015 98 0 1.51 129.528 00:28 25.06.2019
5885 Clouds 1 1016 98 0 1.5 163.341 23:53 24.06.2019
5886 Clouds 1 1016 98 0 1.5 163.341 23:33 24.06.2019
5887 Clouds 1 1016 98 0 1.5 163.341 22:59 24.06.2019
5888 Clouds 1 1016 98 0 1.5 163.341 22:39 24.06.2019
5889 Clouds 1 1016 98 0 1.5 163.341 22:18 24.06.2019
5890 Clouds 1 1016 98 0 1.5 163.341 21:39 24.06.2019
5891 Rain 2 1016 96 0 1.89 182.944 21:19 24.06.2019
5892 Rain 2 1016 96 0 1.89 182.944 20:56 24.06.2019
5893 Rain 3 1016 93 0 1.43 108.6 20:37 24.06.2019
5894 Rain 3 1016 93 0 1.43 108.6 20:19 24.06.2019
5895 Rain 3 1016 93 0 1.43 108.6 19:43 24.06.2019
5896 Rain 3 1016 93 0 1.43 108.6 19:21 24.06.2019
5897 Rain 3 1016 93 0 1.43 108.6 18:44 24.06.2019
5898 Rain 4 1016 91 0 1.55 99.893 18:25 24.06.2019
5899 Rain 4 1016 91 0 1.55 99.893 17:47 24.06.2019
5900 Rain 4 1016 91 0 1.55 99.893 17:25 24.06.2019
5901 Rain 4 1016 91 0 1.55 99.893 16:48 24.06.2019
5902 Rain 4 1016 91 0 1.55 99.893 16:20 24.06.2019
5903 Rain 4 1016 91 0 1.55 99.893 15:49 24.06.2019
5904 Rain 4 1016 91 0 1.55 99.893 15:30 24.06.2019
5905 Rain 6 1013 77 0 0.74 276.701 14:55 24.06.2019
5906 Rain 6 1013 77 0 0.74 276.701 14:31 24.06.2019
5907 Rain 6 1013 77 0 0.74 276.701 13:49 24.06.2019
5908 Rain 6 1013 82 0 2.02 245.057 13:24 24.06.2019
5909 Rain 6 1013 82 0 2.02 245.057 12:44 24.06.2019
5910 Rain 3 1014 94 0 0.54 19.481 12:21 24.06.2019
5911 Rain 3 1014 94 0 0.54 19.481 11:46 24.06.2019
5912 Rain 3 1014 94 0 0.54 19.481 11:28 24.06.2019
5913 Rain 3 1014 94 0 0.54 19.481 10:58 24.06.2019
5914 Rain 3 1014 94 0 0.54 19.481 10:39 24.06.2019
5915 Rain 3 1014 94 0 0.54 19.481 10:20 24.06.2019
5916 Rain 3 1014 94 0 0.54 19.481 09:44 24.06.2019
5917 Clouds 9 1015 47 0 2.72 206.659 09:19 24.06.2019
5918 Clouds 9 1015 47 0 2.72 206.659 08:50 24.06.2019
5919 Clouds 10 1014 34 0 3.22 185.742 08:20 24.06.2019
5920 Clouds 10 1014 34 0 3.22 185.742 07:42 24.06.2019
5921 Clouds 10 1014 34 0 3.22 185.742 07:23 24.06.2019
5922 Clouds 4 1016 45 0 1.24 46.507 06:25 24.06.2019
5923 Clouds 4 1016 45 0 1.24 46.507 05:52 24.06.2019
5924 Clouds 4 1016 45 0 1.24 46.507 04:58 24.06.2019
5925 Clouds 4 1016 45 0 1.24 46.507 03:57 24.06.2019
5926 Clouds -1 1017 63 0 1.47 60.318 02:52 24.06.2019
5927 Clouds -1 1017 63 0 1.47 60.318 01:55 24.06.2019
5928 Clouds -1 1017 63 0 1.47 60.318 01:36 24.06.2019
5929 Clear -1 1017 62 0 1.47 53.286 00:55 24.06.2019
5930 Clear -1 1017 62 0 1.47 53.286 00:37 24.06.2019
5931 Clear -1 1015 65 0 1.07 39.206 00:18 24.06.2019
5932 Clear -1 1015 65 0 1.07 39.206 23:41 23.06.2019
5933 Clear -1 1015 65 0 1.07 39.206 23:20 23.06.2019
5934 Clear -1 1015 65 0 1.07 39.206 22:42 23.06.2019
5935 Clear -1 1015 65 0 1.07 39.206 22:20 23.06.2019
5936 Clear -1 1015 65 0 1.07 39.206 21:43 23.06.2019
5937 Clouds 1 1015 59 0 1.81 53.828 21:23 23.06.2019
5938 Clouds 1 1015 59 0 1.81 53.828 20:52 23.06.2019
5939 Clouds 1 1015 62 0 1.44 63.719 20:32 23.06.2019
5940 Clouds 1 1015 62 0 1.44 63.719 19:57 23.06.2019
5941 Clouds 1 1015 62 0 1.44 63.719 19:39 23.06.2019
5942 Clouds 1 1015 62 0 1.44 63.719 19:19 23.06.2019
5943 Clouds 1 1015 62 0 1.44 63.719 18:44 23.06.2019
5944 Rain 4 1013 69 0 2.17 101.413 18:20 23.06.2019
5945 Rain 4 1013 69 0 2.17 101.413 17:44 23.06.2019
5946 Rain 4 1013 69 0 2.17 101.413 17:24 23.06.2019
5947 Rain 4 1013 69 0 2.17 101.413 16:46 23.06.2019
5948 Rain 4 1013 69 0 2.17 101.413 16:26 23.06.2019
5949 Rain 4 1013 69 0 2.17 101.413 15:58 23.06.2019
5950 Rain 4 1013 69 0 2.17 101.413 15:37 23.06.2019
5951 Rain 8 1010 55 0 1.61 136.918 15:18 23.06.2019
5952 Rain 8 1010 55 0 1.61 136.918 14:39 23.06.2019
5953 Rain 8 1010 55 0 1.61 136.918 14:21 23.06.2019
5954 Rain 8 1010 55 0 1.61 136.918 13:46 23.06.2019
5955 Rain 7 1010 62 0 0.97 150.461 13:21 23.06.2019
5956 Rain 7 1010 62 0 0.97 150.461 12:59 23.06.2019
5957 Rain 7 1010 62 0 0.97 150.461 12:41 23.06.2019
5958 Clear 9 1011 45 0 1.43 163.216 12:19 23.06.2019
5959 Clear 9 1011 45 0 1.43 163.216 11:47 23.06.2019
5960 Clear 9 1011 45 0 1.43 163.216 11:27 23.06.2019
5961 Clear 9 1011 45 0 1.43 163.216 10:50 23.06.2019
5962 Clear 9 1011 45 0 1.43 163.216 10:21 23.06.2019
5963 Clear 9 1011 45 0 1.43 163.216 09:58 23.06.2019
5964 Clear 7 1013 43 0 0.68 286.223 09:24 23.06.2019
5965 Clear 7 1013 43 0 0.68 286.223 08:55 23.06.2019
5966 Clear 7 1013 43 0 0.68 286.223 08:36 23.06.2019
5967 Clear 8 1013 44 0 0.02 135 08:18 23.06.2019
5968 Clear 8 1013 44 0 0.02 135 07:45 23.06.2019
5969 Clear 8 1013 44 0 0.02 135 07:19 23.06.2019
5970 Clear 8 1013 44 0 0.02 135 06:52 23.06.2019
5971 Clear 3 1016 65 0 1.59 28.876 05:53 23.06.2019
5972 Clouds -1 1015 93 0 0.35 34.416 02:52 23.06.2019
5973 Clouds -1 1015 93 0 0.35 34.416 01:42 23.06.2019
5974 Clouds -1 1015 88 0 1.15 30.332 01:24 23.06.2019
5975 Clouds -1 1015 88 0 1.15 30.332 00:32 23.06.2019
5976 Clouds 0 1014 93 0 1.02 41.377 23:49 22.06.2019
5977 Clouds 0 1014 93 0 1.02 41.377 23:26 22.06.2019
5978 Clouds 0 1014 93 0 1.02 41.377 22:47 22.06.2019
5979 Clouds 0 1014 93 0 1.02 41.377 22:29 22.06.2019
5980 Clouds 0 1014 93 0 1.02 41.377 21:59 22.06.2019
5981 Clouds 0 1014 93 0 1.02 41.377 21:36 22.06.2019
5982 Clouds 0 1015 96 0 1.21 57.268 21:18 22.06.2019
5983 Clouds 0 1014 96 0 1.84 39.432 20:46 22.06.2019
5984 Clouds 0 1014 96 0 1.84 39.432 20:24 22.06.2019
5985 Clouds 0 1014 96 0 1.84 39.432 19:42 22.06.2019
5986 Clouds 0 1014 96 0 1.84 39.432 19:22 22.06.2019
5987 Clouds 0 1014 96 0 1.84 39.432 18:44 22.06.2019
5988 Clouds 1 1013 97 0 2.07 37.197 18:25 22.06.2019
5989 Clouds 1 1013 97 0 2.07 37.197 17:48 22.06.2019
5990 Clouds 1 1013 97 0 2.07 37.197 17:28 22.06.2019
5991 Clouds 1 1013 97 0 2.07 37.197 16:47 22.06.2019
5992 Clouds 1 1013 97 0 2.07 37.197 16:24 22.06.2019
5993 Clouds 1 1013 97 0 2.07 37.197 15:54 22.06.2019
5994 Clouds 1 1013 97 0 2.07 37.197 15:33 22.06.2019
5995 Rain 3 1010 91 0 0.7 61.104 14:53 22.06.2019
5996 Rain 3 1010 91 0 0.7 61.104 14:34 22.06.2019
5997 Rain 3 1010 91 0 0.7 61.104 13:59 22.06.2019
5998 Rain 3 1010 91 0 0.7 61.104 13:40 22.06.2019
5999 Rain 3 1010 91 0 0.64 72.705 13:19 22.06.2019
6000 Rain 3 1010 91 0 0.64 72.705 12:47 22.06.2019
6001 Rain 3 1010 91 0 0.64 72.705 12:29 22.06.2019
6002 Rain 7 1011 60 0 2.07 167.636 11:53 22.06.2019
6003 Rain 7 1011 60 0 2.07 167.636 11:29 22.06.2019
6004 Rain 7 1011 60 0 2.07 167.636 10:48 22.06.2019
6005 Rain 7 1011 60 0 2.07 167.636 10:19 22.06.2019
6006 Rain 7 1011 60 0 2.07 167.636 09:46 22.06.2019
6007 Clear 7 1013 41 0 1.3 212.759 09:18 22.06.2019
6008 Clear 8 1013 35 0 1 199.29 08:41 22.06.2019
6009 Clear 8 1013 35 0 1 199.29 08:19 22.06.2019
6010 Clear 8 1013 35 0 1 199.29 07:30 22.06.2019
6011 Clear 8 1013 35 0 1 199.29 06:46 22.06.2019
6012 Clear 4 1015 48 0 1.73 59.388 04:53 22.06.2019
6013 Clear -1 1016 62 0 1.67 54.514 02:32 22.06.2019
6014 Clear -1 1015 63 0 1.65 51.997 00:59 22.06.2019
6015 Clear -1 1015 63 0 1.65 51.997 00:35 22.06.2019
6016 Clear -1 1014 67 0 1.33 54.888 23:59 21.06.2019
6017 Clear -1 1014 67 0 1.33 54.888 23:39 21.06.2019
6018 Clear -1 1014 67 0 1.33 54.888 23:19 21.06.2019
6019 Clear -1 1014 67 0 1.33 54.888 23:19 21.06.2019
6020 Clear -1 1014 67 0 1.33 54.888 22:43 21.06.2019
6021 Clear -1 1014 67 0 1.33 54.888 22:23 21.06.2019
6022 Clear -1 1014 67 0 1.33 54.888 21:40 21.06.2019
6023 Clouds 0 1014 77 0 1.9 44.701 21:22 21.06.2019
6024 Clouds 0 1014 77 0 1.9 44.701 20:53 21.06.2019
6025 Clouds -1 1014 74 0 2.2 46.527 20:27 21.06.2019
6026 Clouds -1 1014 74 0 2.2 46.527 19:58 21.06.2019
6027 Clouds -1 1014 74 0 2.2 46.527 19:30 21.06.2019
6028 Clouds -1 1014 74 0 2.2 46.527 18:48 21.06.2019
6029 Clouds -1 1014 74 0 2.2 46.527 18:28 21.06.2019
6030 Clouds 2 1013 83 0 2.22 42.577 17:46 21.06.2019
6031 Clouds 2 1013 83 0 2.22 42.577 17:27 21.06.2019
6032 Clouds 2 1013 83 0 2.22 42.577 16:40 21.06.2019
6033 Clouds 2 1013 83 0 2.22 42.577 16:21 21.06.2019
6034 Clouds 2 1013 83 0 2.22 42.577 15:39 21.06.2019
6035 Clouds 3 1010 86 0 1.42 32.261 15:20 21.06.2019
6036 Clouds 3 1010 86 0 1.42 32.261 14:47 21.06.2019
6037 Clouds 3 1010 86 0 1.42 32.261 14:28 21.06.2019
6038 Clouds 3 1010 86 0 1.42 32.261 13:46 21.06.2019
6039 Rain 3 1010 88 0 0.52 180.988 13:27 21.06.2019
6040 Rain 3 1010 88 0 0.52 180.988 12:54 21.06.2019
6041 Clouds 7 1011 58 0 0.75 192.057 12:24 21.06.2019
6042 Clouds 7 1011 58 0 0.75 192.057 11:59 21.06.2019
6043 Clouds 7 1011 58 0 0.75 192.057 11:40 21.06.2019
6044 Clouds 7 1011 58 0 0.75 192.057 11:22 21.06.2019
6045 Clouds 7 1011 58 0 0.75 192.057 10:48 21.06.2019
6046 Clouds 7 1011 58 0 0.75 192.057 10:21 21.06.2019
6047 Clouds 7 1011 58 0 0.75 192.057 09:56 21.06.2019
6048 Clouds 7 1011 58 0 0.75 192.057 09:38 21.06.2019
6049 Clouds 6 1014 44 0 1.29 286.844 09:18 21.06.2019
6050 Clouds 6 1014 44 0 1.29 286.844 08:42 21.06.2019
6051 Clouds 7 1013 40 0 0.92 275.605 08:22 21.06.2019
6052 Clouds 7 1013 40 0 0.92 275.605 07:46 21.06.2019
6053 Clouds 7 1013 40 0 0.92 275.605 07:26 21.06.2019
6054 Clouds 7 1013 40 0 0.92 275.605 06:51 21.06.2019
6055 Clear 3 1014 55 0 0.74 0.463 06:19 21.06.2019
6056 Clear 3 1014 55 0 0.74 0.463 05:25 21.06.2019
6057 Clear 3 1014 55 0 0.74 0.463 04:22 21.06.2019
6058 Clear 3 1014 55 0 0.74 0.463 03:33 21.06.2019
6059 Clouds -2 1015 68 0 1.73 53.773 02:47 21.06.2019
6060 Clouds -2 1015 68 0 1.73 53.773 01:38 21.06.2019
6061 Clouds -2 1015 68 0 1.63 45.199 00:55 21.06.2019
6062 Clouds -2 1014 76 0 2.08 47.613 00:19 21.06.2019
6063 Clouds -2 1014 76 0 2.08 47.613 23:44 20.06.2019
6064 Clouds -2 1014 76 0 2.08 47.613 23:21 20.06.2019
6065 Clouds -2 1014 76 0 2.08 47.613 22:56 20.06.2019
6066 Clouds -2 1014 76 0 2.08 47.613 22:38 20.06.2019
6067 Clouds -2 1014 76 0 2.08 47.613 22:19 20.06.2019
6068 Clouds -2 1014 76 0 2.08 47.613 21:44 20.06.2019
6069 Clouds -1 1015 89 0 1.55 57.038 21:19 20.06.2019
6070 Clouds -1 1015 89 0 1.55 57.038 20:47 20.06.2019
6071 Clouds 0 1014 87 0 1.83 30.005 20:26 20.06.2019
6072 Clouds 0 1014 87 0 1.83 30.005 19:58 20.06.2019
6073 Clouds 0 1014 87 0 1.83 30.005 19:39 20.06.2019
6074 Clouds 0 1014 87 0 1.83 30.005 19:18 20.06.2019
6075 Clouds 0 1014 87 0 1.83 30.005 18:43 20.06.2019
6076 Clouds 1 1013 94 0 1.03 96.788 18:23 20.06.2019
6077 Clouds 1 1013 94 0 1.03 96.788 17:53 20.06.2019
6078 Clouds 1 1013 94 0 1.03 96.788 17:35 20.06.2019
6079 Clouds 1 1013 94 0 1.03 96.788 16:56 20.06.2019
6080 Clouds 1 1013 94 0 1.03 96.788 16:37 20.06.2019
6081 Clouds 1 1013 94 0 1.03 96.788 16:18 20.06.2019
6082 Clouds 1 1013 94 0 1.03 96.788 15:41 20.06.2019
6083 Clouds 3 1009 82 0 2.16 216.896 15:22 20.06.2019
6084 Clouds 3 1009 82 0 2.16 216.896 14:47 20.06.2019
6085 Clouds 3 1009 82 0 2.16 216.896 14:23 20.06.2019
6086 Clouds 3 1009 82 0 2.16 216.896 13:42 20.06.2019
6087 Clouds 3 1009 82 0 2.16 216.896 13:42 20.06.2019
6088 Clouds 2 1009 92 0 0.91 211.439 13:21 20.06.2019
6089 Clouds 2 1009 92 0 0.91 211.439 12:54 20.06.2019
6090 Clouds 2 1009 92 0 0.91 211.439 12:36 20.06.2019
6091 Clouds 3 1010 90 0 2.59 210.451 12:18 20.06.2019
6092 Clouds 3 1010 90 0 2.59 210.451 11:39 20.06.2019
6093 Clouds 3 1010 90 0 2.59 210.451 11:20 20.06.2019
6094 Clouds 3 1010 90 0 2.59 210.451 10:42 20.06.2019
6095 Clouds 3 1010 90 0 2.59 210.451 10:23 20.06.2019
6096 Clouds 3 1010 90 0 2.59 210.451 09:41 20.06.2019
6097 Clouds 3 1010 90 0 2.59 210.451 09:41 20.06.2019
6098 Clouds 6 1012 58 0 0.69 191.261 09:23 20.06.2019
6099 Clouds 4 1011 68 0 1.38 60.99 08:47 20.06.2019
6100 Clouds 4 1011 68 0 1.38 60.99 08:28 20.06.2019
6101 Clouds 4 1011 68 0 1.38 60.99 07:59 20.06.2019
6102 Clouds 4 1011 68 0 1.38 60.99 07:33 20.06.2019
6103 Clouds 4 1011 68 0 1.38 60.99 06:57 20.06.2019
6104 Clouds 1 1013 70 0 1.37 41.095 06:18 20.06.2019
6105 Clouds 1 1013 70 0 1.37 41.095 03:40 20.06.2019
6106 Clouds -4 1013 76 0 1.48 32.305 00:59 20.06.2019
6107 Clouds -4 1013 76 0 1.48 32.305 00:33 20.06.2019
6108 Clouds -3 1013 85 0 1.16 43.738 23:43 19.06.2019
6109 Clouds -3 1013 85 0 1.16 43.738 23:25 19.06.2019
6110 Clouds -3 1013 85 0 1.16 43.738 22:48 19.06.2019
6111 Clouds -3 1013 85 0 1.16 43.738 22:24 19.06.2019
6112 Clouds -3 1013 85 0 1.16 43.738 21:58 19.06.2019
6113 Clouds -3 1013 85 0 1.16 43.738 21:37 19.06.2019
6114 Clouds -2 1013 92 0 0.72 50.001 21:19 19.06.2019
6115 Clouds -2 1013 92 0 0.72 50.001 20:41 19.06.2019
6116 Clouds -2 1013 92 0 0.72 50.001 20:21 19.06.2019
6117 Clouds -2 1013 92 0 0.72 50.001 19:46 19.06.2019
6118 Clouds -2 1013 92 0 0.72 50.001 19:26 19.06.2019
6119 Clouds -2 1013 92 0 0.72 50.001 18:56 19.06.2019
6120 Clouds 0 1012 96 0 2.56 63.144 18:24 19.06.2019
6121 Clouds 0 1012 96 0 2.56 63.144 17:44 19.06.2019
6122 Clouds 0 1012 96 0 2.56 63.144 17:25 19.06.2019
6123 Clouds 0 1012 96 0 2.56 63.144 16:56 19.06.2019
6124 Clouds 0 1012 96 0 2.56 63.144 16:36 19.06.2019
6125 Clouds 0 1012 96 0 2.56 63.144 16:18 19.06.2019
6126 Clouds 0 1012 96 0 2.56 63.144 15:42 19.06.2019
6127 Clouds 1 1008 96 0 1.21 172.793 15:22 19.06.2019
6128 Clouds 1 1008 96 0 1.21 172.793 15:22 19.06.2019
6129 Clouds 1 1008 96 0 1.21 172.793 14:43 19.06.2019
6130 Clouds 1 1008 96 0 1.21 172.793 14:43 19.06.2019
6131 Clouds 1 1008 96 0 1.21 172.793 14:24 19.06.2019
6132 Clouds 1 1008 96 0 1.21 172.793 13:47 19.06.2019
6133 Clouds 2 1008 93 0 1.84 189.539 13:28 19.06.2019
6134 Clouds 2 1008 93 0 1.84 189.539 12:59 19.06.2019
6135 Clouds 2 1008 93 0 1.84 189.539 12:40 19.06.2019
6136 Clouds 6 1008 57 0 1.59 184.65 12:18 19.06.2019
6137 Clouds 6 1008 57 0 1.59 184.65 11:42 19.06.2019
6138 Clouds 6 1008 57 0 1.59 184.65 11:21 19.06.2019
6139 Clouds 6 1008 57 0 1.59 184.65 10:49 19.06.2019
6140 Clouds 6 1008 57 0 1.59 184.65 10:28 19.06.2019
6141 Clouds 6 1008 57 0 1.59 184.65 09:56 19.06.2019
6142 Clouds 6 1008 57 0 1.59 184.65 09:38 19.06.2019
6143 Clear 6 1010 42 0 0.13 120.353 09:19 19.06.2019
6144 Clouds 6 1011 43 0 2.1 163.691 08:44 19.06.2019
6145 Clouds 6 1011 43 0 2.1 163.691 08:25 19.06.2019
6146 Clouds 6 1011 43 0 2.1 163.691 07:44 19.06.2019
6147 Clouds 6 1011 43 0 2.1 163.691 07:23 19.06.2019
6148 Clouds 6 1011 43 0 2.1 163.691 06:44 19.06.2019
6149 Clouds 2 1012 52 0 1.68 62.824 06:22 19.06.2019
6150 Clouds 2 1012 52 0 1.68 62.824 05:41 19.06.2019
6151 Clouds 2 1012 52 0 1.68 62.824 03:58 19.06.2019
6152 Clouds -2 1013 73 0 1.76 58.019 02:59 19.06.2019
6153 Clouds -2 1013 73 0 1.76 58.019 01:48 19.06.2019
6154 Clouds -1 1012 68 0 0.86 53.344 00:57 19.06.2019
6155 Clouds -1 1012 68 0 0.86 53.344 00:39 19.06.2019
6156 Clouds -2 1011 79 0 1.24 31.917 00:19 19.06.2019
6157 Clouds -2 1011 79 0 1.24 31.917 23:46 18.06.2019
6158 Clouds -2 1011 79 0 1.24 31.917 23:25 18.06.2019
6159 Clouds -2 1011 79 0 1.24 31.917 22:43 18.06.2019
6160 Clouds -2 1011 79 0 1.24 31.917 22:24 18.06.2019
6161 Clouds -2 1011 79 0 1.24 31.917 21:56 18.06.2019
6162 Clouds -2 1011 79 0 1.24 31.917 21:38 18.06.2019
6163 Clouds -1 1012 91 0 0.95 48.939 21:19 18.06.2019
6164 Clouds -1 1012 84 0 2.14 49.622 20:42 18.06.2019
6165 Clouds -1 1012 84 0 2.14 49.622 20:24 18.06.2019
6166 Clouds -1 1012 84 0 2.14 49.622 19:41 18.06.2019
6167 Clouds -1 1012 84 0 2.14 49.622 19:23 18.06.2019
6168 Clouds -1 1012 84 0 2.14 49.622 18:56 18.06.2019
6169 Clouds -1 1012 84 0 2.14 49.622 18:28 18.06.2019
6170 Clouds 0 1011 94 0 2.34 134.118 17:59 18.06.2019
6171 Clouds 0 1011 94 0 2.34 134.118 17:38 18.06.2019
6172 Clouds 0 1011 94 0 2.34 134.118 17:19 18.06.2019
6173 Clouds 0 1011 94 0 2.34 134.118 16:43 18.06.2019
6174 Clouds 0 1011 94 0 2.34 134.118 16:24 18.06.2019
6175 Clouds 0 1011 94 0 2.34 134.118 15:43 18.06.2019
6176 Clouds 2 1007 80 0 1.97 180.815 15:24 18.06.2019
6177 Clouds 2 1007 80 0 1.97 180.815 14:58 18.06.2019
6178 Clouds 2 1007 80 0 1.97 180.815 14:40 18.06.2019
6179 Clouds 2 1007 80 0 1.97 180.815 14:20 18.06.2019
6180 Clouds 2 1007 80 0 1.97 180.815 13:52 18.06.2019
6181 Clouds 3 1007 75 0 1.43 107.177 13:31 18.06.2019
6182 Clouds 3 1007 75 0 1.43 107.177 12:48 18.06.2019
6183 Clouds 3 1007 75 0 1.43 107.177 12:29 18.06.2019
6184 Clouds 3 1008 81 0 2.83 230.929 11:59 18.06.2019
6185 Clouds 3 1008 81 0 2.83 230.929 11:40 18.06.2019
6186 Clouds 3 1008 81 0 2.83 230.929 11:20 18.06.2019
6187 Clouds 3 1008 81 0 2.83 230.929 10:55 18.06.2019
6188 Clouds 3 1008 81 0 2.83 230.929 10:36 18.06.2019
6189 Clouds 3 1008 81 0 2.83 230.929 10:18 18.06.2019
6190 Clouds 3 1008 81 0 2.83 230.929 09:36 18.06.2019
6191 Clouds 5 1010 50 0 0.83 252.596 09:18 18.06.2019
6192 Clouds 5 1010 50 0 0.83 252.596 08:42 18.06.2019
6193 Clouds 5 1010 53 0 1.54 223.188 08:21 18.06.2019
6194 Clouds 5 1010 53 0 1.54 223.188 07:37 18.06.2019
6195 Clouds 5 1010 53 0 1.54 223.188 07:18 18.06.2019
6196 Clouds 1 1011 60 0 0.62 84.679 05:38 18.06.2019
6197 Clouds 1 1011 60 0 0.62 84.679 04:23 18.06.2019
6198 Clear -3 1011 75 0 1.83 55.684 02:51 18.06.2019
6199 Clear -3 1011 75 0 1.83 55.684 01:52 18.06.2019
6200 Clouds -2 1011 68 0 1.84 55.836 01:24 18.06.2019
6201 Clouds -2 1011 68 0 1.84 55.836 00:41 18.06.2019
6202 Clear -2 1011 77 0 1.93 36.016 00:23 18.06.2019
6203 Clear -2 1011 77 0 1.93 36.016 23:39 17.06.2019
6204 Clear -2 1011 77 0 1.93 36.016 23:19 17.06.2019
6205 Clear -2 1011 77 0 1.93 36.016 23:19 17.06.2019
6206 Clear -2 1011 77 0 1.93 36.016 22:42 17.06.2019
6207 Clear -2 1011 77 0 1.93 36.016 22:22 17.06.2019
6208 Clear -2 1011 77 0 1.93 36.016 21:58 17.06.2019
6209 Clear -2 1011 77 0 1.93 36.016 21:40 17.06.2019
6210 Clouds -1 1012 88 0 1.18 9.622 21:20 17.06.2019
6211 Clouds -1 1012 88 0 1.18 9.622 20:37 17.06.2019
6212 Clouds -1 1011 82 0 1.49 24.237 20:18 17.06.2019
6213 Clouds -1 1011 82 0 1.49 24.237 20:18 17.06.2019
6214 Clouds -1 1011 82 0 1.49 24.237 19:42 17.06.2019
6215 Clouds -1 1011 82 0 1.49 24.237 19:42 17.06.2019
6216 Clouds -1 1011 82 0 1.49 24.237 19:22 17.06.2019
6217 Clouds -1 1011 82 0 1.49 24.237 18:57 17.06.2019
6218 Clouds -1 1011 82 0 1.49 24.237 18:37 17.06.2019
6219 Clouds 0 1011 87 0 1.34 19.763 18:18 17.06.2019
6220 Clouds 0 1011 87 0 1.34 19.763 17:44 17.06.2019
6221 Clouds 0 1011 87 0 1.34 19.763 17:26 17.06.2019
6222 Clouds 0 1011 87 0 1.34 19.763 16:47 17.06.2019
6223 Clouds 0 1011 87 0 1.34 19.763 16:29 17.06.2019
6224 Clouds 0 1011 87 0 1.34 19.763 15:57 17.06.2019
6225 Clouds 0 1011 87 0 1.34 19.763 15:38 17.06.2019
6226 Clouds 3 1007 80 0 2.67 259.586 15:19 17.06.2019
6227 Clouds 3 1007 80 0 2.67 259.586 14:51 17.06.2019
6228 Clouds 3 1007 80 0 2.67 259.586 14:31 17.06.2019
6229 Clouds 3 1007 80 0 2.67 259.586 13:54 17.06.2019
6230 Clouds 5 1007 60 0 2.42 240.331 13:36 17.06.2019
6231 Clouds 5 1007 60 0 2.42 240.331 13:18 17.06.2019
6232 Clouds 5 1007 60 0 2.42 240.331 12:32 17.06.2019
6233 Clouds 6 1007 58 0 2.28 233.441 11:58 17.06.2019
6234 Clouds 6 1007 58 0 2.28 233.441 11:38 17.06.2019
6235 Clouds 6 1007 58 0 2.28 233.441 11:18 17.06.2019
6236 Clouds 6 1007 58 0 2.28 233.441 10:44 17.06.2019
6237 Clouds 6 1007 58 0 2.28 233.441 10:25 17.06.2019
6238 Clouds 6 1007 58 0 2.28 233.441 09:55 17.06.2019
6239 Clouds 6 1007 58 0 2.28 233.441 09:31 17.06.2019
6240 Clouds 3 1009 72 0 1.87 131.264 08:44 17.06.2019
6241 Clouds 3 1009 72 0 1.87 131.264 08:24 17.06.2019
6242 Clouds 3 1009 72 0 1.87 131.264 07:52 17.06.2019
6243 Clouds 3 1009 72 0 1.87 131.264 07:32 17.06.2019
6244 Clouds 3 1009 72 0 1.87 131.264 06:50 17.06.2019
6245 Clear 1 1011 78 0 1 43.95 05:55 17.06.2019
6246 Clear 1 1011 78 0 1 43.95 04:59 17.06.2019
6247 Clear 1 1011 78 0 1 43.95 04:23 17.06.2019
6248 Clear 1 1011 78 0 1 43.95 03:30 17.06.2019
6249 Clouds -4 1012 88 0 0.92 66.81 02:43 17.06.2019
6250 Clouds -4 1012 88 0 0.92 66.81 02:25 17.06.2019
6251 Clouds -4 1012 88 0 0.92 66.81 01:35 17.06.2019
6252 Clouds -4 1012 76 0 1.22 55.165 00:57 17.06.2019
6253 Clouds -4 1012 76 0 1.22 55.165 00:36 17.06.2019
6254 Clouds -3 1012 83 0 1.1 46.798 00:18 17.06.2019
6255 Clouds -3 1012 83 0 1.1 46.798 23:39 16.06.2019
6256 Clouds -3 1012 83 0 1.1 46.798 23:20 16.06.2019
6257 Clouds -3 1012 83 0 1.1 46.798 22:45 16.06.2019
6258 Clouds -3 1012 83 0 1.1 46.798 22:20 16.06.2019
6259 Clouds -3 1012 83 0 1.1 46.798 21:57 16.06.2019
6260 Clouds -3 1012 83 0 1.1 46.798 21:39 16.06.2019
6261 Clouds -2 1012 91 0 1.31 50.335 21:20 16.06.2019
6262 Clouds -2 1012 92 0 1.15 38.05 20:40 16.06.2019
6263 Clouds -2 1012 92 0 1.15 38.05 20:19 16.06.2019
6264 Clouds -2 1012 92 0 1.15 38.05 19:58 16.06.2019
6265 Clouds -2 1012 92 0 1.15 38.05 19:39 16.06.2019
6266 Clouds -2 1012 92 0 1.15 38.05 19:21 16.06.2019
6267 Clouds -2 1012 92 0 1.15 38.05 18:57 16.06.2019
6268 Clouds -2 1012 92 0 1.15 38.05 18:36 16.06.2019
6269 Clouds 0 1011 97 0 2.16 92.044 18:18 16.06.2019
6270 Clouds 0 1011 97 0 2.16 92.044 17:42 16.06.2019
6271 Clouds 0 1011 97 0 2.16 92.044 17:21 16.06.2019
6272 Clouds 0 1011 97 0 2.16 92.044 16:56 16.06.2019
6273 Clouds 0 1011 97 0 2.16 92.044 16:38 16.06.2019
6274 Clouds 0 1011 97 0 2.16 92.044 16:19 16.06.2019
6275 Clouds 0 1011 97 0 2.16 92.044 15:41 16.06.2019
6276 Clouds 1 1008 97 0 0.54 238.834 15:23 16.06.2019
6277 Clouds 1 1008 97 0 0.54 238.834 14:42 16.06.2019
6278 Clouds 1 1008 97 0 0.54 238.834 14:23 16.06.2019
6279 Clouds 1 1008 97 0 0.54 238.834 14:23 16.06.2019
6280 Clouds 1 1008 97 0 0.54 238.834 13:51 16.06.2019
6281 Clouds 1 1008 97 0 0.54 238.834 13:26 16.06.2019
6282 Clouds 1 1008 96 0 2.29 117.102 12:57 16.06.2019
6283 Clouds 1 1008 96 0 2.29 117.102 12:38 16.06.2019
6284 Clouds 4 1009 82 0 2.71 222.126 12:18 16.06.2019
6285 Clouds 4 1009 82 0 2.71 222.126 11:44 16.06.2019
6286 Clouds 4 1009 82 0 2.71 222.126 11:19 16.06.2019
6287 Clouds 4 1009 82 0 2.71 222.126 10:45 16.06.2019
6288 Clouds 4 1009 82 0 2.71 222.126 10:21 16.06.2019
6289 Clouds 4 1009 82 0 2.71 222.126 09:48 16.06.2019
6290 Clouds 6 1011 46 0 1.82 259.616 09:26 16.06.2019
6291 Clouds 4 1011 43 0 1.36 309.1 08:57 16.06.2019
6292 Clouds 4 1011 43 0 1.36 309.1 08:38 16.06.2019
6293 Clouds 4 1011 43 0 1.36 309.1 08:18 16.06.2019
6294 Clouds 4 1011 43 0 1.36 309.1 07:43 16.06.2019
6295 Clouds 4 1011 43 0 1.36 309.1 06:57 16.06.2019
6296 Clouds 4 1011 43 0 1.36 309.1 06:37 16.06.2019
6297 Clear 0 1013 63 0 1.38 37.576 05:43 16.06.2019
6298 Clear 0 1013 63 0 1.38 37.576 04:36 16.06.2019
6299 Clear 0 1013 63 0 1.38 37.576 03:57 16.06.2019
6300 Clear 0 1013 63 0 1.38 37.576 03:57 16.06.2019
6301 Clear 0 1013 63 0 1.38 37.576 03:57 16.06.2019
6302 Clear 0 1013 63 0 1.38 37.576 03:32 16.06.2019
6303 Clouds -4 1014 82 0 1.7 52.623 02:26 16.06.2019
6304 Clouds -4 1014 82 0 1.7 52.623 01:42 16.06.2019
6305 Clouds -4 1014 82 0 1.7 52.623 01:24 16.06.2019
6306 Clear -4 1014 78 0 1.68 50.562 00:40 16.06.2019
6307 Clear -4 1013 85 0 1.79 45.203 00:20 16.06.2019
6308 Clear -4 1013 85 0 1.79 45.203 23:43 15.06.2019
6309 Clear -4 1013 85 0 1.79 45.203 23:25 15.06.2019
6310 Clear -4 1013 85 0 1.79 45.203 22:50 15.06.2019
6311 Clear -4 1013 85 0 1.79 45.203 22:27 15.06.2019
6312 Clear -4 1013 85 0 1.79 45.203 21:50 15.06.2019
6313 Clear -4 1013 85 0 1.79 45.203 21:29 15.06.2019
6314 Clouds -1 1015 85 0 1.45 53.193 20:59 15.06.2019
6315 Clouds -1 1015 85 0 1.45 53.193 20:41 15.06.2019
6316 Clouds -1 1015 85 0 1.45 53.193 20:22 15.06.2019
6317 Clouds -1 1015 85 0 1.45 53.193 19:42 15.06.2019
6318 Clouds -1 1015 85 0 1.45 53.193 19:23 15.06.2019
6319 Clouds -1 1015 85 0 1.45 53.193 18:41 15.06.2019
6320 Clouds 0 1012 89 0 0.87 98.232 18:21 15.06.2019
6321 Clouds 0 1012 89 0 0.87 98.232 17:43 15.06.2019
6322 Clouds 0 1012 89 0 0.87 98.232 17:23 15.06.2019
6323 Clouds 0 1012 89 0 0.87 98.232 16:48 15.06.2019
6324 Clouds 0 1012 89 0 0.87 98.232 16:20 15.06.2019
6325 Clouds 0 1012 89 0 0.87 98.232 15:44 15.06.2019
6326 Clouds 0 1010 98 0 1.71 209.637 15:24 15.06.2019
6327 Clouds 0 1010 98 0 1.71 209.637 15:24 15.06.2019
6328 Clouds 0 1010 98 0 1.71 209.637 14:44 15.06.2019
6329 Clouds 0 1010 98 0 1.71 209.637 14:19 15.06.2019
6330 Clouds 0 1010 98 0 1.71 209.637 13:58 15.06.2019
6331 Clouds 0 1010 98 0 1.71 209.637 13:40 15.06.2019
6332 Clouds 0 1010 98 0 1.71 209.637 13:19 15.06.2019
6333 Clouds 0 1010 98 0 1.71 209.637 12:51 15.06.2019
6334 Clouds 5 1010 55 0 3.21 213.329 12:26 15.06.2019
6335 Clouds 6 1009 51 0 2.54 212.036 11:53 15.06.2019
6336 Clouds 6 1009 51 0 2.54 212.036 11:53 15.06.2019
6337 Clouds 6 1009 51 0 2.54 212.036 11:33 15.06.2019
6338 Clouds 5 1009 64 0 2.95 227.628 10:54 15.06.2019
6339 Clouds 5 1009 64 0 2.95 227.628 10:36 15.06.2019
6340 Clouds 5 1009 64 0 2.95 227.628 10:18 15.06.2019
6341 Clouds 5 1009 64 0 2.95 227.628 09:42 15.06.2019
6342 Clear 6 1012 37 0 1.77 289.739 09:21 15.06.2019
6343 Clear 6 1012 37 0 1.77 289.739 08:48 15.06.2019
6344 Clear 6 1012 37 0 1.77 289.739 08:29 15.06.2019
6345 Clear 6 1012 37 0 1.77 289.739 07:43 15.06.2019
6346 Clear 6 1012 37 0 1.77 289.739 07:21 15.06.2019
6347 Clear 6 1012 37 0 1.77 289.739 07:21 15.06.2019
6348 Clear 6 1012 37 0 1.77 289.739 06:39 15.06.2019
6349 Clear 2 1013 66 0 1.5 25.026 06:00 15.06.2019
6350 Clear 2 1013 66 0 1.5 25.026 05:24 15.06.2019
6351 Clear 2 1013 66 0 1.5 25.026 04:42 15.06.2019
6352 Clear 2 1013 66 0 1.5 25.026 03:42 15.06.2019
6353 -273 0 0 0 0 0 02:56 15.06.2019
6354 Clouds -4 1014 82 0 1.52 36.825 02:21 15.06.2019
6355 Clouds -4 1014 82 0 1.52 36.825 01:43 15.06.2019
6356 Clouds -4 1014 82 0 1.52 36.825 00:56 15.06.2019
6357 Clouds -4 1014 82 0 1.52 36.825 00:37 15.06.2019
6358 Clouds -2 1014 85 0 1.35 36.199 23:54 14.06.2019
6359 Clear -3 1013 80 0 1.72 37.408 23:26 14.06.2019
6360 Clear -3 1013 80 0 1.72 37.408 22:45 14.06.2019
6361 Clear -3 1013 80 0 1.72 37.408 22:23 14.06.2019
6362 Clear -3 1013 80 0 1.72 37.408 22:00 14.06.2019
6363 Clear -3 1013 80 0 1.72 37.408 21:40 14.06.2019
6364 Clouds -2 1015 84 0 1.45 40.851 21:21 14.06.2019
6365 Clouds -2 1015 84 0 1.45 40.851 20:42 14.06.2019
6366 Clouds -2 1015 84 0 1.45 40.851 20:19 14.06.2019
6367 Clouds -2 1015 84 0 1.45 40.851 19:56 14.06.2019
6368 Clouds -2 1015 84 0 1.45 40.851 19:36 14.06.2019
6369 Clouds -2 1015 84 0 1.45 40.851 19:18 14.06.2019
6370 Clouds -2 1015 84 0 1.45 40.851 18:42 14.06.2019
6371 Clouds 0 1012 97 0 2.13 40.706 18:24 14.06.2019
6372 Clouds 0 1012 97 0 2.13 40.706 18:24 14.06.2019
6373 Clouds 0 1012 97 0 2.13 40.706 17:55 14.06.2019
6374 Clouds 0 1012 97 0 2.13 40.706 17:37 14.06.2019
6375 Clouds 0 1012 97 0 2.13 40.706 17:19 14.06.2019
6376 Clouds 0 1012 97 0 2.13 40.706 16:45 14.06.2019
6377 -273 0 0 0 0 0 16:20 14.06.2019
6378 Clouds 0 1012 97 0 2.13 40.706 15:42 14.06.2019
6379 Clouds 3 1009 84 0 1.96 253.071 15:24 14.06.2019
6380 Clouds 3 1009 84 0 1.96 253.071 15:24 14.06.2019
6381 Clouds 3 1009 84 0 1.96 253.071 14:59 14.06.2019
6382 Clouds 3 1009 84 0 1.96 253.071 14:59 14.06.2019
6383 Clouds 3 1009 84 0 1.96 253.071 14:59 14.06.2019
6384 Clouds 3 1009 84 0 1.96 253.071 14:40 14.06.2019
6385 Clouds 3 1009 84 0 1.96 253.071 14:21 14.06.2019
6386 Clouds 3 1009 87 0 1.5 264.495 13:42 14.06.2019
6387 Clouds 3 1009 87 0 1.5 264.495 13:24 14.06.2019
6388 Clouds 3 1009 87 0 1.5 264.495 12:44 14.06.2019
6389 Clear 7 1009 45 0 1.29 274.092 12:26 14.06.2019
6390 Clear 7 1009 45 0 1.29 274.092 11:58 14.06.2019
6391 Clear 7 1009 45 0 1.29 274.092 11:39 14.06.2019
6392 Clear 7 1009 45 0 1.29 274.092 11:20 14.06.2019
6393 Clear 7 1009 45 0 1.29 274.092 10:44 14.06.2019
6394 Clear 7 1009 45 0 1.29 274.092 10:20 14.06.2019
6395 Clear 7 1009 45 0 1.29 274.092 09:48 14.06.2019
6396 Clear 2 1012 100 0 1.01 70.667 09:25 14.06.2019
6397 Clear 2 1012 100 0 1.01 70.667 08:47 14.06.2019
6398 Clear 2 1012 100 0 1.01 70.667 08:19 14.06.2019
6399 Clear 2 1012 100 0 1.01 70.667 07:51 14.06.2019
6400 Clear 2 1012 100 0 1.01 70.667 07:22 14.06.2019
6401 Clear 2 1012 100 0 1.01 70.667 06:48 14.06.2019
6402 Clear 0 1014 72 0 3.72 55.605 05:58 14.06.2019
6403 Clear 0 1014 72 0 3.72 55.605 05:33 14.06.2019
6404 Clear 0 1014 72 0 3.72 55.605 04:51 14.06.2019
6405 Clear 0 1014 72 0 3.72 55.605 03:59 14.06.2019
6406 Clear -8 1016 54 0 4.37 57.874 03:26 14.06.2019
6407 -273 0 0 0 0 0 02:58 14.06.2019
6408 Clear -8 1016 54 0 4.37 57.874 02:28 14.06.2019
6409 Clear -8 1016 54 0 4.37 57.874 02:28 14.06.2019
6410 -273 0 0 0 0 0 01:35 14.06.2019
6411 Clear -8 1016 54 0 4.37 57.874 00:36 14.06.2019
6412 Clear -8 1016 55 0 4.21 58.558 00:18 14.06.2019
6413 Clear -8 1016 55 0 4.21 58.558 23:47 13.06.2019
6414 Clear -8 1016 55 0 4.21 58.558 23:24 13.06.2019
6415 Clear -8 1016 55 0 4.21 58.558 22:40 13.06.2019
6416 Clear -8 1016 55 0 4.21 58.558 22:22 13.06.2019
6417 Clear -8 1016 55 0 4.21 58.558 21:56 13.06.2019
6418 Clear -8 1016 55 0 4.21 58.558 21:36 13.06.2019
6419 Clear -8 1016 55 0 4.21 58.558 21:36 13.06.2019
6420 Clouds -7 1016 61 0 4.08 61.595 21:18 13.06.2019
6421 Clouds -7 1016 61 0 4.08 61.595 20:42 13.06.2019
6422 Clouds -7 1016 61 0 4.08 61.595 20:20 13.06.2019
6423 Clouds -7 1016 61 0 4.08 61.595 20:20 13.06.2019
6424 Clouds -7 1016 61 0 4.08 61.595 19:43 13.06.2019
6425 Clouds -7 1016 61 0 4.08 61.595 19:25 13.06.2019
6426 Clouds -7 1016 61 0 4.08 61.595 18:58 13.06.2019
6427 Clouds -7 1016 61 0 4.08 61.595 18:40 13.06.2019
6428 Clouds -5 1014 71 0 3.69 64.825 18:22 13.06.2019
6429 Clouds -5 1014 71 0 3.69 64.825 17:44 13.06.2019
6430 Clouds -5 1014 71 0 3.69 64.825 17:21 13.06.2019
6431 Clouds -5 1014 71 0 3.69 64.825 16:58 13.06.2019
6432 Clouds -5 1014 71 0 3.69 64.825 16:38 13.06.2019
6433 Clouds -5 1014 71 0 3.69 64.825 16:18 13.06.2019
6434 Clouds -5 1014 71 0 3.69 64.825 15:41 13.06.2019
6435 Clouds 1 1011 96 0 1.36 85.436 15:22 13.06.2019
6436 Clouds 1 1011 96 0 1.36 85.436 14:49 13.06.2019
6437 Clouds 1 1011 96 0 1.36 85.436 14:31 13.06.2019
6438 Clouds 1 1011 96 0 1.36 85.436 13:55 13.06.2019
6439 Clouds 1 1011 96 0 1.36 85.436 13:37 13.06.2019
6440 Clouds 1 1011 96 0 1.36 85.436 13:19 13.06.2019
6441 Clouds 1 1011 96 0 1.36 85.436 12:40 13.06.2019
6442 Clouds 1 1011 100 0 1.2 71.369 12:21 13.06.2019
6443 Clouds 1 1011 100 0 1.2 71.369 11:45 13.06.2019
6444 Clouds 1 1011 100 0 1.2 71.369 11:26 13.06.2019
6445 Clouds 1 1011 100 0 1.2 71.369 10:51 13.06.2019
6446 Clouds 1 1011 100 0 1.2 71.369 10:31 13.06.2019
6447 Clouds 1 1011 100 0 1.2 71.369 09:56 13.06.2019
6448 Clouds 1 1011 100 0 1.2 71.369 09:38 13.06.2019
6449 Clouds 1 1013 100 0 1.68 68.407 09:20 13.06.2019
6450 Clouds 1 1013 100 0 1.68 68.407 08:43 13.06.2019
6451 Clouds 1 1013 100 0 1.68 68.407 08:22 13.06.2019
6452 Clouds 1 1013 100 0 1.68 68.407 07:42 13.06.2019
6453 Clouds 1 1013 100 0 1.68 68.407 07:24 13.06.2019
6454 Clouds 1 1013 100 0 1.68 68.407 06:45 13.06.2019
6455 Clouds -1 1015 80 0 3.66 58.746 06:22 13.06.2019
6456 Clouds -1 1015 80 0 3.66 58.746 05:53 13.06.2019
6457 Clouds -1 1015 80 0 3.66 58.746 05:35 13.06.2019
6458 Clouds -1 1015 80 0 3.66 58.746 04:55 13.06.2019
6459 Clouds -7 1016 77 0 3.89 55.632 02:23 13.06.2019
6460 Clouds -7 1016 77 0 3.89 55.632 00:47 13.06.2019
6461 Clouds -5 1016 82 0 3.44 59.727 23:49 12.06.2019
6462 Clouds -5 1016 82 0 3.44 59.727 23:22 12.06.2019
6463 Clouds -5 1016 82 0 3.44 59.727 22:43 12.06.2019
6464 Clouds -5 1016 82 0 3.44 59.727 22:24 12.06.2019
6465 Clouds -5 1016 82 0 3.44 59.727 21:56 12.06.2019
6466 Clouds -5 1016 82 0 3.44 59.727 21:37 12.06.2019
6467 Clouds -3 1016 86 0 3.17 67.977 21:18 12.06.2019
6468 Clouds -3 1016 86 0 3.17 67.977 21:18 12.06.2019
6469 Clouds -3 1016 86 0 3.17 67.977 20:38 12.06.2019
6470 Clouds -3 1016 86 0 3.17 67.977 20:20 12.06.2019
6471 Clouds -3 1016 86 0 3.17 67.977 19:42 12.06.2019
6472 Clouds -3 1016 86 0 3.17 67.977 19:23 12.06.2019
6473 Clouds -3 1016 86 0 3.17 67.977 18:56 12.06.2019
6474 Clouds -3 1016 86 0 3.17 67.977 18:38 12.06.2019
6475 Clouds -2 1015 94 0 2.45 92.578 18:19 12.06.2019
6476 Clouds -2 1015 94 0 2.45 92.578 17:43 12.06.2019
6477 Clouds -2 1015 94 0 2.45 92.578 17:20 12.06.2019
6478 Clouds -2 1015 94 0 2.45 92.578 16:42 12.06.2019
6479 Clouds -2 1015 94 0 2.45 92.578 16:23 12.06.2019
6480 Clouds -2 1015 94 0 2.45 92.578 15:53 12.06.2019
6481 Clouds -2 1015 94 0 2.45 92.578 15:32 12.06.2019
6482 Clouds 0 1012 93 0 2.93 168.725 14:46 12.06.2019
6483 Clouds 0 1012 93 0 2.93 168.725 14:27 12.06.2019
6484 Clouds 0 1012 93 0 2.93 168.725 13:44 12.06.2019
6485 Clouds 0 1012 86 0 3.37 159.233 13:20 12.06.2019
6486 Clouds 0 1012 86 0 3.37 159.233 12:59 12.06.2019
6487 Clouds 0 1012 86 0 3.37 159.233 12:38 12.06.2019
6488 Clouds 1 1011 99 0 3.16 177.332 12:19 12.06.2019
6489 Clouds 1 1011 99 0 3.16 177.332 12:19 12.06.2019
6490 Clouds 1 1011 99 0 3.16 177.332 11:47 12.06.2019
6491 Clouds 1 1011 99 0 3.16 177.332 11:28 12.06.2019
6492 Clouds 1 1011 99 0 3.16 177.332 10:52 12.06.2019
6493 Clouds 1 1011 99 0 3.16 177.332 10:34 12.06.2019
6494 Clouds 1 1011 99 0 3.16 177.332 09:55 12.06.2019
6495 Clouds 1 1011 99 0 3.16 177.332 09:37 12.06.2019
6496 Clouds -1 1014 97 0 3.43 144.956 09:18 12.06.2019
6497 Clouds -1 1014 97 0 3.43 144.956 08:25 12.06.2019
6498 Clouds -1 1014 97 0 3.43 144.956 07:52 12.06.2019
6499 Clouds -1 1014 97 0 3.43 144.956 06:55 12.06.2019
6500 Clouds -4 1014 92 0 3.92 109.83 05:54 12.06.2019
6501 Clouds -4 1014 92 0 3.92 109.83 05:24 12.06.2019
6502 Clouds -4 1015 92 0 3.62 91.994 02:19 12.06.2019
6503 Clouds -3 1014 93 0 3.49 101.175 00:41 12.06.2019
6504 Clouds -3 1014 94 0 3.55 89.177 23:53 11.06.2019
6505 Clouds -3 1014 94 0 3.55 89.177 23:35 11.06.2019
6506 Clouds -5 1015 94 0 3.59 84.039 22:45 11.06.2019
6507 Clouds -5 1015 94 0 3.59 84.039 22:24 11.06.2019
6508 Clouds -5 1015 94 0 3.59 84.039 21:59 11.06.2019
6509 Clouds -5 1015 94 0 3.59 84.039 21:40 11.06.2019
6510 Clouds -3 1015 87 0 3.31 87.335 21:22 11.06.2019
6511 Clouds -3 1015 87 0 3.31 87.335 20:57 11.06.2019
6512 Clouds -3 1015 87 0 3.31 87.335 20:39 11.06.2019
6513 Clouds -3 1015 87 0 3.31 87.335 20:21 11.06.2019
6514 Clouds -3 1015 87 0 3.31 87.335 19:50 11.06.2019
6515 Clouds -3 1015 87 0 3.31 87.335 19:28 11.06.2019
6516 Clouds -3 1015 87 0 3.31 87.335 19:28 11.06.2019
6517 -273 0 0 0 0 0 18:49 11.06.2019
6518 Clouds -2 1014 90 0 3.52 88.602 18:20 11.06.2019
6519 Clouds -2 1014 90 0 3.52 88.602 17:41 11.06.2019
6520 Clouds -2 1014 90 0 3.52 88.602 17:21 11.06.2019
6521 Clouds -2 1014 90 0 3.52 88.602 16:46 11.06.2019
6522 Clouds -2 1014 90 0 3.52 88.602 16:24 11.06.2019
6523 Clouds -2 1014 90 0 3.52 88.602 15:59 11.06.2019
6524 Clouds -2 1014 90 0 3.52 88.602 15:41 11.06.2019
6525 Clouds 0 1011 92 0 3.37 114.05 15:19 11.06.2019
6526 Clouds 0 1011 92 0 3.37 114.05 14:41 11.06.2019
6527 Clouds 0 1011 92 0 3.37 114.05 14:20 11.06.2019
6528 Clouds 0 1011 92 0 3.37 114.05 13:50 11.06.2019
6529 Clouds 0 1011 92 0 3.37 114.05 13:23 11.06.2019
6530 Clouds -1 1010 90 0 3.32 98.795 12:43 11.06.2019
6531 Clouds -1 1010 90 0 3.32 98.795 12:43 11.06.2019
6532 Clouds -1 1011 97 0 3.36 99.826 12:22 11.06.2019
6533 Clouds -1 1011 97 0 3.36 99.826 11:58 11.06.2019
6534 Clouds -1 1011 97 0 3.36 99.826 11:36 11.06.2019
6535 Clouds -1 1011 97 0 3.36 99.826 11:18 11.06.2019
6536 Clouds -1 1011 97 0 3.36 99.826 10:43 11.06.2019
6537 Clouds -1 1011 97 0 3.36 99.826 10:24 11.06.2019
6538 Clouds -1 1011 97 0 3.36 99.826 09:46 11.06.2019
6539 Clouds -1 1012 98 0 3.34 102.806 09:23 11.06.2019
6540 Clouds -1 1012 98 0 3.34 102.806 08:42 11.06.2019
6541 Clouds -1 1012 98 0 3.34 102.806 08:23 11.06.2019
6542 Clouds -1 1012 98 0 3.34 102.806 07:37 11.06.2019
6543 Clouds 0 1013 88 0 3.14 117.201 06:54 11.06.2019
6544 Clouds -1 1014 80 0 3.35 86.077 06:24 11.06.2019
6545 Clouds -1 1014 80 0 3.35 86.077 04:49 11.06.2019
6546 Clouds -3 1015 82 0 3.72 66.982 02:44 11.06.2019
6547 Clouds -3 1015 78 0 3.79 63.901 01:23 11.06.2019
6548 Clouds -3 1015 78 0 3.79 63.901 01:23 11.06.2019
6549 Clouds -3 1015 78 0 3.79 63.901 00:44 11.06.2019
6550 Clouds -3 1015 74 0 3.68 56.297 23:47 10.06.2019
6551 Clouds -4 1015 71 0 3.88 58.205 23:21 10.06.2019
6552 Clouds -4 1015 71 0 3.88 58.205 22:49 10.06.2019
6553 Clouds -4 1015 71 0 3.88 58.205 22:31 10.06.2019
6554 Clouds -4 1015 71 0 3.88 58.205 21:59 10.06.2019
6555 Clouds -4 1015 71 0 3.88 58.205 21:39 10.06.2019
6556 Clouds -4 1015 69 0 3.85 54.187 21:21 10.06.2019
6557 Clouds -4 1015 69 0 3.85 54.187 20:44 10.06.2019
6558 Clouds -4 1015 69 0 3.85 54.187 20:23 10.06.2019
6559 Clouds -4 1015 69 0 3.85 54.187 19:53 10.06.2019
6560 Clouds -4 1015 69 0 3.85 54.187 19:27 10.06.2019
6561 Clouds -4 1015 69 0 3.85 54.187 18:59 10.06.2019
6562 Clouds -4 1015 69 0 3.85 54.187 18:40 10.06.2019
6563 Clouds -2 1013 73 0 3.33 58.871 18:20 10.06.2019
6564 Clouds -2 1013 73 0 3.33 58.871 17:54 10.06.2019
6565 Clouds -2 1013 73 0 3.33 58.871 17:36 10.06.2019
6566 Clouds -2 1013 73 0 3.33 58.871 17:18 10.06.2019
6567 Clouds -2 1013 73 0 3.33 58.871 16:42 10.06.2019
6568 Clouds -2 1013 73 0 3.33 58.871 16:22 10.06.2019
6569 Clouds -2 1013 73 0 3.33 58.871 15:42 10.06.2019
6570 Clouds 3 1009 72 0 1.18 83.111 15:23 10.06.2019
6571 Clouds 3 1009 72 0 1.18 83.111 14:49 10.06.2019
6572 Clouds 3 1009 72 0 1.18 83.111 14:31 10.06.2019
6573 Clouds 3 1009 72 0 1.18 83.111 13:59 10.06.2019
6574 Clouds 3 1009 72 0 1.18 83.111 13:40 10.06.2019
6575 Clouds 3 1009 72 0 1.18 83.111 13:20 10.06.2019
6576 Clouds 3 1010 74 0 1.5 85.792 12:42 10.06.2019
6577 Clouds 2 1010 60 0 0.71 225.568 12:23 10.06.2019
6578 Clouds 2 1010 60 0 0.71 225.568 11:43 10.06.2019
6579 Clouds 2 1010 60 0 0.71 225.568 11:23 10.06.2019
6580 Clouds 2 1010 60 0 0.71 225.568 10:42 10.06.2019
6581 Clouds 2 1010 60 0 0.71 225.568 10:20 10.06.2019
6582 Clouds 2 1010 60 0 0.71 225.568 09:57 10.06.2019
6583 Clouds 2 1010 60 0 0.71 225.568 09:38 10.06.2019
6584 Clear 3 1011 66 0 1.11 182.177 09:19 10.06.2019
6585 Clear 3 1011 66 0 1.11 182.177 08:44 10.06.2019
6586 Clear 3 1011 66 0 1.11 182.177 08:23 10.06.2019
6587 Clear 4 1011 51 0 1.1 241.646 06:56 10.06.2019
6588 Clear 2 1013 56 0 2.56 61.924 04:28 10.06.2019
6589 Clear -5 1015 47 0 3.56 59.036 01:58 10.06.2019
6590 Clear -5 1015 47 0 3.56 59.036 01:26 10.06.2019
6591 Clear -5 1015 47 0 3.56 59.036 00:56 10.06.2019
6592 Clear -5 1015 53 0 3.82 55.715 00:20 10.06.2019
6593 Clear -5 1015 53 0 3.82 55.715 23:43 09.06.2019
6594 Clear -5 1015 53 0 3.82 55.715 23:20 09.06.2019
6595 Clear -5 1015 53 0 3.82 55.715 22:45 09.06.2019
6596 Clear -5 1015 53 0 3.82 55.715 22:25 09.06.2019
6597 Clear -5 1015 53 0 3.82 55.715 21:46 09.06.2019
6598 Clear -5 1016 66 0 3.91 54.785 21:26 09.06.2019
6599 Clear -5 1016 66 0 3.91 54.785 20:45 09.06.2019
6600 Clear -5 1016 66 0 3.91 54.785 20:23 09.06.2019
6601 Clear -5 1016 66 0 3.91 54.785 19:58 09.06.2019
6602 Clear -5 1016 66 0 3.91 54.785 19:39 09.06.2019
6603 Clear -5 1015 69 0 3.89 56.208 19:18 09.06.2019
6604 Clear -5 1015 69 0 3.89 56.208 18:42 09.06.2019
6605 Clear -3 1014 76 0 2.94 53.769 18:24 09.06.2019
6606 Clear -3 1014 76 0 2.94 53.769 17:48 09.06.2019
6607 Clear -3 1014 76 0 2.94 53.769 17:28 09.06.2019
6608 Clear -3 1014 76 0 2.94 53.769 16:55 09.06.2019
6609 Clear -3 1014 76 0 2.94 53.769 16:37 09.06.2019
6610 Clear -3 1014 76 0 2.94 53.769 16:19 09.06.2019
6611 Clear -3 1014 76 0 2.94 53.769 15:47 09.06.2019
6612 Clear -3 1014 76 0 2.94 53.769 15:28 09.06.2019
6613 Clouds 2 1011 73 0 1.12 344.062 14:46 09.06.2019
6614 Clouds 2 1011 73 0 1.12 344.062 14:46 09.06.2019
6615 Clouds 2 1011 73 0 1.12 344.062 14:26 09.06.2019
6616 Clouds 2 1011 73 0 1.12 344.062 13:56 09.06.2019
6617 Clouds 2 1011 73 0 1.12 344.062 13:35 09.06.2019
6618 Clouds 2 1011 72 0 1.86 335.625 12:44 09.06.2019
6619 Clouds 3 1012 74 0 1.26 304.258 12:26 09.06.2019
6620 Clouds 3 1012 74 0 1.26 304.258 11:48 09.06.2019
6621 Clouds 3 1012 74 0 1.26 304.258 11:29 09.06.2019
6622 Clouds 3 1012 74 0 1.58 294.564 10:47 09.06.2019
6623 Clouds 3 1012 74 0 1.58 294.564 10:25 09.06.2019
6624 Clouds 3 1012 74 0 1.58 294.564 09:56 09.06.2019
6625 Clouds 3 1012 74 0 1.58 294.564 09:37 09.06.2019
6626 Clouds 2 1014 73 0 1.15 318.4 09:18 09.06.2019
6627 Clear 2 1014 75 0 0.73 337.586 08:42 09.06.2019
6628 Clear 2 1014 75 0 0.73 337.586 07:50 09.06.2019
6629 Clear 2 1014 75 0 0.73 337.586 06:33 09.06.2019
6630 Clear 0 1016 74 0 3.01 50.921 05:52 09.06.2019
6631 Clouds -6 1017 68 0 3.4 52.227 02:55 09.06.2019
6632 Clouds -6 1017 68 0 3.4 52.227 01:37 09.06.2019
6633 Clouds -6 1017 68 0 3.4 52.227 01:37 09.06.2019
6634 Clouds -6 1017 70 0 3.51 51.172 01:18 09.06.2019
6635 Clouds -6 1017 70 0 3.4 46.026 00:22 09.06.2019
6636 Clouds -6 1017 70 0 3.4 46.026 23:40 08.06.2019
6637 Clouds -6 1017 70 0 3.4 46.026 23:22 08.06.2019
6638 Clouds -6 1017 70 0 3.4 46.026 22:45 08.06.2019
6639 Clouds -6 1017 70 0 3.4 46.026 22:26 08.06.2019
6640 Clouds -6 1017 70 0 3.4 46.026 21:58 08.06.2019
6641 Clouds -6 1017 70 0 3.4 46.026 21:39 08.06.2019
6642 Clouds -5 1018 75 0 3.42 48.678 21:20 08.06.2019
6643 Clouds -5 1018 75 0 3.42 48.678 20:43 08.06.2019
6644 Clouds -5 1018 75 0 3.42 48.678 20:24 08.06.2019
6645 Clouds -5 1018 75 0 3.42 48.678 19:44 08.06.2019
6646 Clouds -5 1018 75 0 3.42 48.678 19:23 08.06.2019
6647 Clouds -6 1018 75 0 3.45 49.379 18:59 08.06.2019
6648 Clouds -6 1018 75 0 3.45 49.379 18:40 08.06.2019
6649 Clouds -4 1016 80 0 2.63 53.156 18:20 08.06.2019
6650 Clouds -4 1016 80 0 2.63 53.156 17:43 08.06.2019
6651 Clouds -4 1016 80 0 2.63 53.156 17:19 08.06.2019
6652 Clouds -4 1016 80 0 2.63 53.156 16:47 08.06.2019
6653 Clouds -4 1016 80 0 2.63 53.156 16:28 08.06.2019
6654 Clouds -4 1016 80 0 2.63 53.156 15:49 08.06.2019
6655 Clouds -4 1016 80 0 2.63 53.156 15:31 08.06.2019
6656 Clouds -1 1014 84 0 1.66 90.414 14:47 08.06.2019
6657 Clouds -1 1014 84 0 1.66 90.414 14:28 08.06.2019
6658 Clouds -1 1014 84 0 1.66 90.414 13:45 08.06.2019
6659 Clouds 0 1014 82 0 1.52 43.398 12:53 08.06.2019
6660 Clouds 0 1014 82 0 1.52 43.398 12:33 08.06.2019
6661 Clouds -1 1014 89 0 1.84 81.694 11:44 08.06.2019
6662 Clouds -1 1014 89 0 1.84 81.694 11:26 08.06.2019
6663 Clouds -1 1014 89 0 1.84 81.694 10:47 08.06.2019
6664 Clouds -1 1014 89 0 1.84 81.694 10:24 08.06.2019
6665 Clouds -1 1014 89 0 1.84 81.694 09:57 08.06.2019
6666 Clouds -1 1014 89 0 1.84 81.694 09:33 08.06.2019
6667 Clouds 0 1016 69 0 0.66 311.864 08:44 08.06.2019
6668 Clouds 0 1016 69 0 0.66 311.864 08:19 08.06.2019
6669 Clouds -1 1016 68 0 1 0.288 06:53 08.06.2019
6670 Clouds -1 1016 68 0 1 0.288 06:34 08.06.2019
6671 Clear 0 1018 77 0 2.9 50.63 03:36 08.06.2019
6672 Clear -7 1019 76 0 3.52 53.202 02:20 08.06.2019
6673 Clear -7 1019 68 0 3.73 56.574 00:31 08.06.2019
6674 Clear -7 1019 69 0 3.75 53.897 23:58 07.06.2019
6675 Clear -7 1019 69 0 3.75 53.897 23:21 07.06.2019
6676 Clear -7 1019 69 0 3.75 53.897 22:52 07.06.2019
6677 Clear -7 1019 68 0 3.87 53.607 22:33 07.06.2019
6678 Clear -7 1019 68 0 3.87 53.607 21:55 07.06.2019
6679 Clear -7 1019 68 0 3.87 53.607 21:37 07.06.2019
6680 Clouds -6 1020 66 0 3.84 55.21 21:18 07.06.2019
6681 Clouds -6 1020 66 0 3.84 55.21 20:42 07.06.2019
6682 Clouds -6 1020 66 0 3.84 55.21 20:22 07.06.2019
6683 Clouds -6 1020 66 0 3.84 55.21 19:41 07.06.2019
6684 Clouds -6 1020 66 0 3.84 55.21 19:19 07.06.2019
6685 Clouds -6 1020 66 0 3.84 55.21 18:43 07.06.2019
6686 Clouds -5 1018 74 0 3.37 56.216 18:25 07.06.2019
6687 Clouds -5 1018 74 0 3.37 56.216 17:45 07.06.2019
6688 Clouds -5 1018 74 0 3.37 56.216 17:23 07.06.2019
6689 Clouds -5 1018 74 0 3.37 56.216 16:42 07.06.2019
6690 Clouds